<?xml version="1.0" encoding="utf-8"?>
<gpx xmlns:xsi="http://www.w3.org/2001/XMLSchema-instance" xmlns:xsd="http://www.w3.org/2001/XMLSchema" version="1.1" creator="Shapelink.com" xmlns="http://www.topografix.com/GPX/1/1" xmlns:gpxtpx="http://www.garmin.com/xmlschemas/TrackPointExtension/v1">
  <metadata>
    <name>Löpning 10.61 km, 2018-02-10</name>
    <desc></desc>
    <author><name>Bengt-Åke Forslund</name></author> 
    <time>2018-02-10T10:45:13Z</time>
  </metadata>
  <trk>
    <name>Löpning 10.61 km, 2018-02-10</name>
    <trkseg>
      <trkpt lat="62.641649953863" lon="17.899186525386">
        <ele>92.2</ele>
        <time>2018-02-10T10:45:13Z</time>
      </trkpt>
      <trkpt lat="62.641697814512" lon="17.898929284875">
        <ele>92.6</ele>
        <time>2018-02-10T10:46:34Z</time>
      </trkpt>
      <trkpt lat="62.641700329082" lon="17.898905145003">
        <ele>92.4</ele>
        <time>2018-02-10T10:46:35Z</time>
      </trkpt>
      <trkpt lat="62.641711309371" lon="17.898840352916">
        <ele>92.4</ele>
        <time>2018-02-10T10:46:36Z</time>
      </trkpt>
      <trkpt lat="62.64171642233" lon="17.89880481366">
        <ele>92.2</ele>
        <time>2018-02-10T10:46:37Z</time>
      </trkpt>
      <trkpt lat="62.641721954384" lon="17.898742368505">
        <ele>92.2</ele>
        <time>2018-02-10T10:46:38Z</time>
      </trkpt>
      <trkpt lat="62.641726061515" lon="17.898694926951">
        <ele>92</ele>
        <time>2018-02-10T10:46:39Z</time>
      </trkpt>
      <trkpt lat="62.641733689044" lon="17.898613873978">
        <ele>92.2</ele>
        <time>2018-02-10T10:46:40Z</time>
      </trkpt>
      <trkpt lat="62.641739388736" lon="17.898566683881">
        <ele>92</ele>
        <time>2018-02-10T10:46:41Z</time>
      </trkpt>
      <trkpt lat="62.641746680989" lon="17.898483619252">
        <ele>92</ele>
        <time>2018-02-10T10:46:42Z</time>
      </trkpt>
      <trkpt lat="62.641752129224" lon="17.898425365047">
        <ele>92</ele>
        <time>2018-02-10T10:46:43Z</time>
      </trkpt>
      <trkpt lat="62.641759505296" lon="17.898337187459">
        <ele>91.8</ele>
        <time>2018-02-10T10:46:44Z</time>
      </trkpt>
      <trkpt lat="62.641765707902" lon="17.898257810866">
        <ele>91.6</ele>
        <time>2018-02-10T10:46:45Z</time>
      </trkpt>
      <trkpt lat="62.641774089802" lon="17.898177512264">
        <ele>91.4</ele>
        <time>2018-02-10T10:46:46Z</time>
      </trkpt>
      <trkpt lat="62.641781130598" lon="17.898091430151">
        <ele>91.2</ele>
        <time>2018-02-10T10:46:47Z</time>
      </trkpt>
      <trkpt lat="62.641788841946" lon="17.898007024418">
        <ele>91</ele>
        <time>2018-02-10T10:46:48Z</time>
      </trkpt>
      <trkpt lat="62.641798481131" lon="17.897900574288">
        <ele>90.8</ele>
        <time>2018-02-10T10:46:49Z</time>
      </trkpt>
      <trkpt lat="62.641805857203" lon="17.897806613189">
        <ele>90.4</ele>
        <time>2018-02-10T10:46:50Z</time>
      </trkpt>
      <trkpt lat="62.641805438108" lon="17.897712065357">
        <ele>90.2</ele>
        <time>2018-02-10T10:46:51Z</time>
      </trkpt>
      <trkpt lat="62.641789763955" lon="17.897629503642">
        <ele>90</ele>
        <time>2018-02-10T10:46:52Z</time>
      </trkpt>
      <trkpt lat="62.641766294635" lon="17.89757518893">
        <ele>89.6</ele>
        <time>2018-02-10T10:46:53Z</time>
      </trkpt>
      <trkpt lat="62.641737125623" lon="17.89755842513">
        <ele>89.4</ele>
        <time>2018-02-10T10:46:54Z</time>
      </trkpt>
      <trkpt lat="62.641703514204" lon="17.8975525578">
        <ele>89.2</ele>
        <time>2018-02-10T10:46:55Z</time>
      </trkpt>
      <trkpt lat="62.641690773716" lon="17.89756680703">
        <ele>89</ele>
        <time>2018-02-10T10:46:56Z</time>
      </trkpt>
      <trkpt lat="62.641669064595" lon="17.897586336857">
        <ele>89</ele>
        <time>2018-02-10T10:46:57Z</time>
      </trkpt>
      <trkpt lat="62.64164769075" lon="17.897618188077">
        <ele>89</ele>
        <time>2018-02-10T10:46:58Z</time>
      </trkpt>
      <trkpt lat="62.641634363529" lon="17.897647021813">
        <ele>89</ele>
        <time>2018-02-10T10:46:59Z</time>
      </trkpt>
      <trkpt lat="62.641607960544" lon="17.897683985992">
        <ele>89.2</ele>
        <time>2018-02-10T10:47:00Z</time>
      </trkpt>
      <trkpt lat="62.641593711314" lon="17.897718770877">
        <ele>89.2</ele>
        <time>2018-02-10T10:47:01Z</time>
      </trkpt>
      <trkpt lat="62.64156051899" lon="17.897755148323">
        <ele>89.4</ele>
        <time>2018-02-10T10:47:02Z</time>
      </trkpt>
      <trkpt lat="62.641546688855" lon="17.897779791109">
        <ele>89.4</ele>
        <time>2018-02-10T10:47:03Z</time>
      </trkpt>
      <trkpt lat="62.641527159028" lon="17.89780904394">
        <ele>89.2</ele>
        <time>2018-02-10T10:47:04Z</time>
      </trkpt>
      <trkpt lat="62.641500756043" lon="17.897847935956">
        <ele>89.2</ele>
        <time>2018-02-10T10:47:05Z</time>
      </trkpt>
      <trkpt lat="62.641487931736" lon="17.897863191014">
        <ele>89.4</ele>
        <time>2018-02-10T10:47:06Z</time>
      </trkpt>
      <trkpt lat="62.641474436877" lon="17.897889929275">
        <ele>89.4</ele>
        <time>2018-02-10T10:47:07Z</time>
      </trkpt>
      <trkpt lat="62.641455326145" lon="17.897910297292">
        <ele>89.4</ele>
        <time>2018-02-10T10:47:08Z</time>
      </trkpt>
      <trkpt lat="62.641434287576" lon="17.897944998358">
        <ele>89.6</ele>
        <time>2018-02-10T10:47:09Z</time>
      </trkpt>
      <trkpt lat="62.641415679758" lon="17.897956313923">
        <ele>89.8</ele>
        <time>2018-02-10T10:47:10Z</time>
      </trkpt>
      <trkpt lat="62.641398664501" lon="17.897979615605">
        <ele>89.8</ele>
        <time>2018-02-10T10:47:11Z</time>
      </trkpt>
      <trkpt lat="62.641376284828" lon="17.898003839296">
        <ele>90</ele>
        <time>2018-02-10T10:47:12Z</time>
      </trkpt>
      <trkpt lat="62.641363125245" lon="17.898025716055">
        <ele>90.2</ele>
        <time>2018-02-10T10:47:13Z</time>
      </trkpt>
      <trkpt lat="62.64134258959" lon="17.898049101556">
        <ele>90.2</ele>
        <time>2018-02-10T10:47:14Z</time>
      </trkpt>
      <trkpt lat="62.641322053935" lon="17.898061506768">
        <ele>90.4</ele>
        <time>2018-02-10T10:47:15Z</time>
      </trkpt>
      <trkpt lat="62.641301350642" lon="17.898075169265">
        <ele>90.6</ele>
        <time>2018-02-10T10:47:16Z</time>
      </trkpt>
      <trkpt lat="62.641286682317" lon="17.89808732302">
        <ele>90.8</ele>
        <time>2018-02-10T10:47:17Z</time>
      </trkpt>
      <trkpt lat="62.641266230481" lon="17.898103164811">
        <ele>91</ele>
        <time>2018-02-10T10:47:18Z</time>
      </trkpt>
      <trkpt lat="62.641249634319" lon="17.898119341878">
        <ele>91.2</ele>
        <time>2018-02-10T10:47:19Z</time>
      </trkpt>
      <trkpt lat="62.64121686109" lon="17.898131411814">
        <ele>91.4</ele>
        <time>2018-02-10T10:47:20Z</time>
      </trkpt>
      <trkpt lat="62.641184674594" lon="17.898139961352">
        <ele>91.6</ele>
        <time>2018-02-10T10:47:21Z</time>
      </trkpt>
      <trkpt lat="62.64117076064" lon="17.89814683451">
        <ele>91.8</ele>
        <time>2018-02-10T10:47:22Z</time>
      </trkpt>
      <trkpt lat="62.641137065402" lon="17.89814264356">
        <ele>91.8</ele>
        <time>2018-02-10T10:47:23Z</time>
      </trkpt>
      <trkpt lat="62.641115943014" lon="17.898136608592">
        <ele>92</ele>
        <time>2018-02-10T10:47:24Z</time>
      </trkpt>
      <trkpt lat="62.641098089567" lon="17.898127137045">
        <ele>92</ele>
        <time>2018-02-10T10:47:25Z</time>
      </trkpt>
      <trkpt lat="62.641073446781" lon="17.898106014657">
        <ele>92</ele>
        <time>2018-02-10T10:47:26Z</time>
      </trkpt>
      <trkpt lat="62.641052492031" lon="17.898072906152">
        <ele>92.2</ele>
        <time>2018-02-10T10:47:27Z</time>
      </trkpt>
      <trkpt lat="62.641040925009" lon="17.89804038438">
        <ele>92.4</ele>
        <time>2018-02-10T10:47:28Z</time>
      </trkpt>
      <trkpt lat="62.641027178693" lon="17.898000737993">
        <ele>92.8</ele>
        <time>2018-02-10T10:47:29Z</time>
      </trkpt>
      <trkpt lat="62.641011253083" lon="17.897976598121">
        <ele>93</ele>
        <time>2018-02-10T10:47:30Z</time>
      </trkpt>
      <trkpt lat="62.641002116812" lon="17.897942064693">
        <ele>93.4</ele>
        <time>2018-02-10T10:47:31Z</time>
      </trkpt>
      <trkpt lat="62.640995243654" lon="17.897909375283">
        <ele>93.6</ele>
        <time>2018-02-10T10:47:32Z</time>
      </trkpt>
      <trkpt lat="62.640984850098" lon="17.897883894307">
        <ele>93.8</ele>
        <time>2018-02-10T10:47:33Z</time>
      </trkpt>
      <trkpt lat="62.640979066587" lon="17.897839637875">
        <ele>93.8</ele>
        <time>2018-02-10T10:47:34Z</time>
      </trkpt>
      <trkpt lat="62.6409729478" lon="17.897804182438">
        <ele>94</ele>
        <time>2018-02-10T10:47:35Z</time>
      </trkpt>
      <trkpt lat="62.640965236452" lon="17.897764452232">
        <ele>94</ele>
        <time>2018-02-10T10:47:36Z</time>
      </trkpt>
      <trkpt lat="62.640956016362" lon="17.897726146949">
        <ele>94</ele>
        <time>2018-02-10T10:47:37Z</time>
      </trkpt>
      <trkpt lat="62.6409478021" lon="17.897697145575">
        <ele>94.2</ele>
        <time>2018-02-10T10:47:38Z</time>
      </trkpt>
      <trkpt lat="62.640949310842" lon="17.897652721505">
        <ele>94.2</ele>
        <time>2018-02-10T10:47:39Z</time>
      </trkpt>
      <trkpt lat="62.64094277296" lon="17.897632604945">
        <ele>94.4</ele>
        <time>2018-02-10T10:47:40Z</time>
      </trkpt>
      <trkpt lat="62.640935313069" lon="17.897592036549">
        <ele>94.6</ele>
        <time>2018-02-10T10:47:41Z</time>
      </trkpt>
      <trkpt lat="62.640924584237" lon="17.897548534488">
        <ele>94.8</ele>
        <time>2018-02-10T10:47:42Z</time>
      </trkpt>
      <trkpt lat="62.640917711079" lon="17.897508804282">
        <ele>95</ele>
        <time>2018-02-10T10:47:43Z</time>
      </trkpt>
      <trkpt lat="62.64091343631" lon="17.89746622423">
        <ele>95</ele>
        <time>2018-02-10T10:47:44Z</time>
      </trkpt>
      <trkpt lat="62.64090924536" lon="17.897436803761">
        <ele>95.2</ele>
        <time>2018-02-10T10:47:45Z</time>
      </trkpt>
      <trkpt lat="62.640913939224" lon="17.897381483221">
        <ele>95.4</ele>
        <time>2018-02-10T10:47:46Z</time>
      </trkpt>
      <trkpt lat="62.640906227876" lon="17.897343513214">
        <ele>95.6</ele>
        <time>2018-02-10T10:47:47Z</time>
      </trkpt>
      <trkpt lat="62.640901617831" lon="17.897296490755">
        <ele>95.6</ele>
        <time>2018-02-10T10:47:48Z</time>
      </trkpt>
      <trkpt lat="62.640896169596" lon="17.897268914304">
        <ele>95.8</ele>
        <time>2018-02-10T10:47:49Z</time>
      </trkpt>
      <trkpt lat="62.640886195135" lon="17.897226753347">
        <ele>96</ele>
        <time>2018-02-10T10:47:50Z</time>
      </trkpt>
      <trkpt lat="62.640873622285" lon="17.897180652897">
        <ele>96</ele>
        <time>2018-02-10T10:47:51Z</time>
      </trkpt>
      <trkpt lat="62.640863396367" lon="17.89714771203">
        <ele>96.2</ele>
        <time>2018-02-10T10:47:52Z</time>
      </trkpt>
      <trkpt lat="62.640855349743" lon="17.897117621009">
        <ele>96.2</ele>
        <time>2018-02-10T10:47:53Z</time>
      </trkpt>
      <trkpt lat="62.640839256495" lon="17.897090631291">
        <ele>96.4</ele>
        <time>2018-02-10T10:47:54Z</time>
      </trkpt>
      <trkpt lat="62.640813021148" lon="17.897065988505">
        <ele>96.6</ele>
        <time>2018-02-10T10:47:55Z</time>
      </trkpt>
      <trkpt lat="62.640803801058" lon="17.897024330462">
        <ele>96.6</ele>
        <time>2018-02-10T10:47:56Z</time>
      </trkpt>
      <trkpt lat="62.640800615936" lon="17.896982756238">
        <ele>96.8</ele>
        <time>2018-02-10T10:47:57Z</time>
      </trkpt>
      <trkpt lat="62.640781924299" lon="17.896956017977">
        <ele>97.2</ele>
        <time>2018-02-10T10:47:58Z</time>
      </trkpt>
      <trkpt lat="62.640772452752" lon="17.89692056254">
        <ele>97.6</ele>
        <time>2018-02-10T10:47:59Z</time>
      </trkpt>
      <trkpt lat="62.640762310653" lon="17.896881586705">
        <ele>97.8</ele>
        <time>2018-02-10T10:48:00Z</time>
      </trkpt>
      <trkpt lat="62.640754599305" lon="17.896857111557">
        <ele>98</ele>
        <time>2018-02-10T10:48:01Z</time>
      </trkpt>
      <trkpt lat="62.640738086962" lon="17.896824254509">
        <ele>98.2</ele>
        <time>2018-02-10T10:48:02Z</time>
      </trkpt>
      <trkpt lat="62.64073322546" lon="17.896788715253">
        <ele>98.4</ele>
        <time>2018-02-10T10:48:03Z</time>
      </trkpt>
      <trkpt lat="62.640715874927" lon="17.896752337807">
        <ele>98.4</ele>
        <time>2018-02-10T10:48:04Z</time>
      </trkpt>
      <trkpt lat="62.640707912122" lon="17.89671688237">
        <ele>98.6</ele>
        <time>2018-02-10T10:48:05Z</time>
      </trkpt>
      <trkpt lat="62.640702966801" lon="17.89668419296">
        <ele>98.8</ele>
        <time>2018-02-10T10:48:06Z</time>
      </trkpt>
      <trkpt lat="62.64069131596" lon="17.896649575713">
        <ele>99</ele>
        <time>2018-02-10T10:48:07Z</time>
      </trkpt>
      <trkpt lat="62.640687879381" lon="17.896613785">
        <ele>99.2</ele>
        <time>2018-02-10T10:48:08Z</time>
      </trkpt>
      <trkpt lat="62.640676982911" lon="17.896592494974">
        <ele>99.4</ele>
        <time>2018-02-10T10:48:09Z</time>
      </trkpt>
      <trkpt lat="62.64066533207" lon="17.896546143067">
        <ele>99.6</ele>
        <time>2018-02-10T10:48:10Z</time>
      </trkpt>
      <trkpt lat="62.64065024465" lon="17.89652661324">
        <ele>99.8</ele>
        <time>2018-02-10T10:48:11Z</time>
      </trkpt>
      <trkpt lat="62.640638258533" lon="17.896475986564">
        <ele>100</ele>
        <time>2018-02-10T10:48:12Z</time>
      </trkpt>
      <trkpt lat="62.640630463366" lon="17.89645117614">
        <ele>100.4</ele>
        <time>2018-02-10T10:48:13Z</time>
      </trkpt>
      <trkpt lat="62.640619063982" lon="17.896416894169">
        <ele>100.6</ele>
        <time>2018-02-10T10:48:14Z</time>
      </trkpt>
      <trkpt lat="62.640607580779" lon="17.896367524778">
        <ele>100.8</ele>
        <time>2018-02-10T10:48:15Z</time>
      </trkpt>
      <trkpt lat="62.640598528327" lon="17.896329973866">
        <ele>100.8</ele>
        <time>2018-02-10T10:48:16Z</time>
      </trkpt>
      <trkpt lat="62.640595427024" lon="17.896311366048">
        <ele>100.8</ele>
        <time>2018-02-10T10:48:17Z</time>
      </trkpt>
      <trkpt lat="62.640577825034" lon="17.896266271426">
        <ele>100.8</ele>
        <time>2018-02-10T10:48:18Z</time>
      </trkpt>
      <trkpt lat="62.640565755098" lon="17.896210364153">
        <ele>100.8</ele>
        <time>2018-02-10T10:48:19Z</time>
      </trkpt>
      <trkpt lat="62.640562737614" lon="17.896172813241">
        <ele>101</ele>
        <time>2018-02-10T10:48:20Z</time>
      </trkpt>
      <trkpt lat="62.640561564148" lon="17.896130233189">
        <ele>101.2</ele>
        <time>2018-02-10T10:48:21Z</time>
      </trkpt>
      <trkpt lat="62.640550248583" lon="17.896088994241">
        <ele>101.4</ele>
        <time>2018-02-10T10:48:22Z</time>
      </trkpt>
      <trkpt lat="62.640548488384" lon="17.896040965954">
        <ele>101.6</ele>
        <time>2018-02-10T10:48:23Z</time>
      </trkpt>
      <trkpt lat="62.640541112312" lon="17.895994614047">
        <ele>102</ele>
        <time>2018-02-10T10:48:24Z</time>
      </trkpt>
      <trkpt lat="62.640537843371" lon="17.895950189977">
        <ele>102.2</ele>
        <time>2018-02-10T10:48:25Z</time>
      </trkpt>
      <trkpt lat="62.640534909706" lon="17.895921272422">
        <ele>102.4</ele>
        <time>2018-02-10T10:48:26Z</time>
      </trkpt>
      <trkpt lat="62.640532395136" lon="17.895890510849">
        <ele>102.6</ele>
        <time>2018-02-10T10:48:27Z</time>
      </trkpt>
      <trkpt lat="62.640526695444" lon="17.895841141458">
        <ele>103</ele>
        <time>2018-02-10T10:48:28Z</time>
      </trkpt>
      <trkpt lat="62.640524683788" lon="17.89578565328">
        <ele>103.2</ele>
        <time>2018-02-10T10:48:29Z</time>
      </trkpt>
      <trkpt lat="62.640520409019" lon="17.895757741553">
        <ele>103.4</ele>
        <time>2018-02-10T10:48:30Z</time>
      </trkpt>
      <trkpt lat="62.640518145906" lon="17.895726057971">
        <ele>103.4</ele>
        <time>2018-02-10T10:48:31Z</time>
      </trkpt>
      <trkpt lat="62.640514876965" lon="17.895679454607">
        <ele>103.6</ele>
        <time>2018-02-10T10:48:32Z</time>
      </trkpt>
      <trkpt lat="62.640514038775" lon="17.895638467116">
        <ele>103.4</ele>
        <time>2018-02-10T10:48:33Z</time>
      </trkpt>
      <trkpt lat="62.640506243608" lon="17.895606364439">
        <ele>103.2</ele>
        <time>2018-02-10T10:48:34Z</time>
      </trkpt>
      <trkpt lat="62.640499538088" lon="17.8955576656">
        <ele>103.2</ele>
        <time>2018-02-10T10:48:35Z</time>
      </trkpt>
      <trkpt lat="62.640499286631" lon="17.895509218218">
        <ele>103.2</ele>
        <time>2018-02-10T10:48:36Z</time>
      </trkpt>
      <trkpt lat="62.640495682414" lon="17.895482731414">
        <ele>103.2</ele>
        <time>2018-02-10T10:48:37Z</time>
      </trkpt>
      <trkpt lat="62.640494508948" lon="17.895416262947">
        <ele>103.2</ele>
        <time>2018-02-10T10:48:38Z</time>
      </trkpt>
      <trkpt lat="62.640489982722" lon="17.895381310424">
        <ele>103</ele>
        <time>2018-02-10T10:48:39Z</time>
      </trkpt>
      <trkpt lat="62.640485456496" lon="17.895308890808">
        <ele>103</ele>
        <time>2018-02-10T10:48:40Z</time>
      </trkpt>
      <trkpt lat="62.640480427356" lon="17.895287433144">
        <ele>103</ele>
        <time>2018-02-10T10:48:41Z</time>
      </trkpt>
      <trkpt lat="62.640474643845" lon="17.895186515068">
        <ele>103.4</ele>
        <time>2018-02-10T10:48:42Z</time>
      </trkpt>
      <trkpt lat="62.640467686868" lon="17.895135720754">
        <ele>103.6</ele>
        <time>2018-02-10T10:48:43Z</time>
      </trkpt>
      <trkpt lat="62.640464082651" lon="17.895061121844">
        <ele>103.8</ele>
        <time>2018-02-10T10:48:44Z</time>
      </trkpt>
      <trkpt lat="62.640456203665" lon="17.895006471856">
        <ele>104</ele>
        <time>2018-02-10T10:48:45Z</time>
      </trkpt>
      <trkpt lat="62.640452683267" lon="17.894962299243">
        <ele>104</ele>
        <time>2018-02-10T10:48:46Z</time>
      </trkpt>
      <trkpt lat="62.640445558652" lon="17.894903458305">
        <ele>104</ele>
        <time>2018-02-10T10:48:47Z</time>
      </trkpt>
      <trkpt lat="62.64044237353" lon="17.894875462759">
        <ele>104</ele>
        <time>2018-02-10T10:48:48Z</time>
      </trkpt>
      <trkpt lat="62.640434662182" lon="17.894813436699">
        <ele>103.8</ele>
        <time>2018-02-10T10:48:49Z</time>
      </trkpt>
      <trkpt lat="62.640429884499" lon="17.894777645986">
        <ele>104</ele>
        <time>2018-02-10T10:48:50Z</time>
      </trkpt>
      <trkpt lat="62.640427956662" lon="17.894718888867">
        <ele>103.8</ele>
        <time>2018-02-10T10:48:51Z</time>
      </trkpt>
      <trkpt lat="62.640425022997" lon="17.894674129521">
        <ele>103.8</ele>
        <time>2018-02-10T10:48:52Z</time>
      </trkpt>
      <trkpt lat="62.640422089332" lon="17.89464152393">
        <ele>103.8</ele>
        <time>2018-02-10T10:48:53Z</time>
      </trkpt>
      <trkpt lat="62.640415802907" lon="17.894567595572">
        <ele>104</ele>
        <time>2018-02-10T10:48:54Z</time>
      </trkpt>
      <trkpt lat="62.640413791251" lon="17.894527110995">
        <ele>104</ele>
        <time>2018-02-10T10:48:55Z</time>
      </trkpt>
      <trkpt lat="62.640402475686" lon="17.894496684698">
        <ele>104</ele>
        <time>2018-02-10T10:48:56Z</time>
      </trkpt>
      <trkpt lat="62.640393842329" lon="17.894444381642">
        <ele>104</ele>
        <time>2018-02-10T10:48:57Z</time>
      </trkpt>
      <trkpt lat="62.640390489569" lon="17.894397107726">
        <ele>104</ele>
        <time>2018-02-10T10:48:58Z</time>
      </trkpt>
      <trkpt lat="62.640385628067" lon="17.894354527674">
        <ele>104.2</ele>
        <time>2018-02-10T10:48:59Z</time>
      </trkpt>
      <trkpt lat="62.640379090185" lon="17.894326699766">
        <ele>104.2</ele>
        <time>2018-02-10T10:49:00Z</time>
      </trkpt>
      <trkpt lat="62.640372636122" lon="17.894267020638">
        <ele>104.4</ele>
        <time>2018-02-10T10:49:01Z</time>
      </trkpt>
      <trkpt lat="62.64035939272" lon="17.894219830541">
        <ele>104.6</ele>
        <time>2018-02-10T10:49:02Z</time>
      </trkpt>
      <trkpt lat="62.64035603996" lon="17.89418806314">
        <ele>105</ele>
        <time>2018-02-10T10:49:03Z</time>
      </trkpt>
      <trkpt lat="62.640342461282" lon="17.894144980174">
        <ele>105</ele>
        <time>2018-02-10T10:49:04Z</time>
      </trkpt>
      <trkpt lat="62.640328882604" lon="17.894078679345">
        <ele>105</ele>
        <time>2018-02-10T10:49:05Z</time>
      </trkpt>
      <trkpt lat="62.640324859292" lon="17.89404305627">
        <ele>105.2</ele>
        <time>2018-02-10T10:49:06Z</time>
      </trkpt>
      <trkpt lat="62.640310693881" lon="17.894010869774">
        <ele>105</ele>
        <time>2018-02-10T10:49:07Z</time>
      </trkpt>
      <trkpt lat="62.640293678624" lon="17.89395588451">
        <ele>105.2</ele>
        <time>2018-02-10T10:49:08Z</time>
      </trkpt>
      <trkpt lat="62.640293091891" lon="17.893919758521">
        <ele>105</ele>
        <time>2018-02-10T10:49:09Z</time>
      </trkpt>
      <trkpt lat="62.640281860145" lon="17.893879357763">
        <ele>104.8</ele>
        <time>2018-02-10T10:49:10Z</time>
      </trkpt>
      <trkpt lat="62.640264509612" lon="17.893822528481">
        <ele>105</ele>
        <time>2018-02-10T10:49:11Z</time>
      </trkpt>
      <trkpt lat="62.640254283694" lon="17.893782295361">
        <ele>105</ele>
        <time>2018-02-10T10:49:12Z</time>
      </trkpt>
      <trkpt lat="62.640250679477" lon="17.893747678114">
        <ele>105.2</ele>
        <time>2018-02-10T10:49:13Z</time>
      </trkpt>
      <trkpt lat="62.640240537378" lon="17.893712222677">
        <ele>105.2</ele>
        <time>2018-02-10T10:49:14Z</time>
      </trkpt>
      <trkpt lat="62.640237268437" lon="17.893662182734">
        <ele>105.4</ele>
        <time>2018-02-10T10:49:15Z</time>
      </trkpt>
      <trkpt lat="62.640240202102" lon="17.893620943786">
        <ele>105.8</ele>
        <time>2018-02-10T10:49:16Z</time>
      </trkpt>
      <trkpt lat="62.640232239297" lon="17.893595127534">
        <ele>106</ele>
        <time>2018-02-10T10:49:17Z</time>
      </trkpt>
      <trkpt lat="62.640226288148" lon="17.893547015428">
        <ele>106.4</ele>
        <time>2018-02-10T10:49:18Z</time>
      </trkpt>
      <trkpt lat="62.640220001723" lon="17.893514409837">
        <ele>106.8</ele>
        <time>2018-02-10T10:49:19Z</time>
      </trkpt>
      <trkpt lat="62.640222432474" lon="17.893470404862">
        <ele>107</ele>
        <time>2018-02-10T10:49:20Z</time>
      </trkpt>
      <trkpt lat="62.640223438302" lon="17.893446516447">
        <ele>107.2</ele>
        <time>2018-02-10T10:49:21Z</time>
      </trkpt>
      <trkpt lat="62.640227545433" lon="17.893403182024">
        <ele>107.6</ele>
        <time>2018-02-10T10:49:22Z</time>
      </trkpt>
      <trkpt lat="62.640234334772" lon="17.893367391311">
        <ele>107.8</ele>
        <time>2018-02-10T10:49:23Z</time>
      </trkpt>
      <trkpt lat="62.640237184618" lon="17.893332690245">
        <ele>108.2</ele>
        <time>2018-02-10T10:49:24Z</time>
      </trkpt>
      <trkpt lat="62.640245315061" lon="17.893272256746">
        <ele>108.2</ele>
        <time>2018-02-10T10:49:25Z</time>
      </trkpt>
      <trkpt lat="62.640254283694" lon="17.893234454377">
        <ele>108.4</ele>
        <time>2018-02-10T10:49:26Z</time>
      </trkpt>
      <trkpt lat="62.640255038065" lon="17.893191622868">
        <ele>108.6</ele>
        <time>2018-02-10T10:49:27Z</time>
      </trkpt>
      <trkpt lat="62.640261827404" lon="17.893158262906">
        <ele>108.6</ele>
        <time>2018-02-10T10:49:28Z</time>
      </trkpt>
      <trkpt lat="62.640265096345" lon="17.893113671198">
        <ele>108.8</ele>
        <time>2018-02-10T10:49:29Z</time>
      </trkpt>
      <trkpt lat="62.640259731929" lon="17.893082909625">
        <ele>109</ele>
        <time>2018-02-10T10:49:30Z</time>
      </trkpt>
      <trkpt lat="62.640262497956" lon="17.893041251582">
        <ele>109.2</ele>
        <time>2018-02-10T10:49:31Z</time>
      </trkpt>
      <trkpt lat="62.640280938136" lon="17.892968077595">
        <ele>109.2</ele>
        <time>2018-02-10T10:49:32Z</time>
      </trkpt>
      <trkpt lat="62.640269538752" lon="17.892940920239">
        <ele>109.4</ele>
        <time>2018-02-10T10:49:33Z</time>
      </trkpt>
      <trkpt lat="62.640269454933" lon="17.892899932748">
        <ele>109.6</ele>
        <time>2018-02-10T10:49:34Z</time>
      </trkpt>
      <trkpt lat="62.640262665594" lon="17.892859615809">
        <ele>109.8</ele>
        <time>2018-02-10T10:49:35Z</time>
      </trkpt>
      <trkpt lat="62.640258977558" lon="17.892825585295">
        <ele>110.2</ele>
        <time>2018-02-10T10:49:36Z</time>
      </trkpt>
      <trkpt lat="62.640253277866" lon="17.892782837605">
        <ele>110.6</ele>
        <time>2018-02-10T10:49:37Z</time>
      </trkpt>
      <trkpt lat="62.640251517667" lon="17.892752578946">
        <ele>110.8</ele>
        <time>2018-02-10T10:49:38Z</time>
      </trkpt>
      <trkpt lat="62.64024958983" lon="17.892706897591">
        <ele>111</ele>
        <time>2018-02-10T10:49:39Z</time>
      </trkpt>
      <trkpt lat="62.640242465215" lon="17.892661216236">
        <ele>111.2</ele>
        <time>2018-02-10T10:49:40Z</time>
      </trkpt>
      <trkpt lat="62.640238022808" lon="17.892620983116">
        <ele>111.4</ele>
        <time>2018-02-10T10:49:41Z</time>
      </trkpt>
      <trkpt lat="62.640229976184" lon="17.89255526902">
        <ele>111.4</ele>
        <time>2018-02-10T10:49:42Z</time>
      </trkpt>
      <trkpt lat="62.640222683931" lon="17.892518053384">
        <ele>111.6</ele>
        <time>2018-02-10T10:49:43Z</time>
      </trkpt>
      <trkpt lat="62.640218744438" lon="17.892478490816">
        <ele>111.6</ele>
        <time>2018-02-10T10:49:44Z</time>
      </trkpt>
      <trkpt lat="62.640217990067" lon="17.892441107542">
        <ele>111.8</ele>
        <time>2018-02-10T10:49:45Z</time>
      </trkpt>
      <trkpt lat="62.640218409162" lon="17.892377237464">
        <ele>111.8</ele>
        <time>2018-02-10T10:49:46Z</time>
      </trkpt>
      <trkpt lat="62.640211284547" lon="17.892330298824">
        <ele>112</ele>
        <time>2018-02-10T10:49:47Z</time>
      </trkpt>
      <trkpt lat="62.640210111081" lon="17.89230129745">
        <ele>112.2</ele>
        <time>2018-02-10T10:49:48Z</time>
      </trkpt>
      <trkpt lat="62.640211703642" lon="17.892232062956">
        <ele>112.4</ele>
        <time>2018-02-10T10:49:49Z</time>
      </trkpt>
      <trkpt lat="62.640210781633" lon="17.892162577005">
        <ele>112.6</ele>
        <time>2018-02-10T10:49:50Z</time>
      </trkpt>
      <trkpt lat="62.640211284547" lon="17.892122846799">
        <ele>112.8</ele>
        <time>2018-02-10T10:49:51Z</time>
      </trkpt>
      <trkpt lat="62.640216984239" lon="17.892074064141">
        <ele>113</ele>
        <time>2018-02-10T10:49:52Z</time>
      </trkpt>
      <trkpt lat="62.64022612051" lon="17.892014133556">
        <ele>113.2</ele>
        <time>2018-02-10T10:49:53Z</time>
      </trkpt>
      <trkpt lat="62.640235843514" lon="17.891972810789">
        <ele>113.4</ele>
        <time>2018-02-10T10:49:54Z</time>
      </trkpt>
      <trkpt lat="62.640257720273" lon="17.891911203824">
        <ele>113.4</ele>
        <time>2018-02-10T10:49:55Z</time>
      </trkpt>
      <trkpt lat="62.640275908996" lon="17.891858146397">
        <ele>113.4</ele>
        <time>2018-02-10T10:49:56Z</time>
      </trkpt>
      <trkpt lat="62.640314884831" lon="17.8918025744">
        <ele>113.4</ele>
        <time>2018-02-10T10:49:57Z</time>
      </trkpt>
      <trkpt lat="62.640340030531" lon="17.891771477551">
        <ele>113.2</ele>
        <time>2018-02-10T10:49:58Z</time>
      </trkpt>
      <trkpt lat="62.640381101841" lon="17.891759072339">
        <ele>113.2</ele>
        <time>2018-02-10T10:49:59Z</time>
      </trkpt>
      <trkpt lat="62.640404571161" lon="17.891742895272">
        <ele>112.6</ele>
        <time>2018-02-10T10:50:00Z</time>
      </trkpt>
      <trkpt lat="62.64043985896" lon="17.891738369046">
        <ele>112.6</ele>
        <time>2018-02-10T10:50:01Z</time>
      </trkpt>
      <trkpt lat="62.640481600822" lon="17.891728394585">
        <ele>112.6</ele>
        <time>2018-02-10T10:50:02Z</time>
      </trkpt>
      <trkpt lat="62.640533233326" lon="17.891726634386">
        <ele>112.4</ele>
        <time>2018-02-10T10:50:03Z</time>
      </trkpt>
      <trkpt lat="62.640614034842" lon="17.891727053481">
        <ele>112.2</ele>
        <time>2018-02-10T10:50:04Z</time>
      </trkpt>
      <trkpt lat="62.640679329843" lon="17.891738620503">
        <ele>111.8</ele>
        <time>2018-02-10T10:50:05Z</time>
      </trkpt>
      <trkpt lat="62.640741355903" lon="17.891760748719">
        <ele>111</ele>
        <time>2018-02-10T10:50:06Z</time>
      </trkpt>
      <trkpt lat="62.640800867393" lon="17.891815063431">
        <ele>110.4</ele>
        <time>2018-02-10T10:50:07Z</time>
      </trkpt>
      <trkpt lat="62.640849650051" lon="17.891888991789">
        <ele>109.6</ele>
        <time>2018-02-10T10:50:08Z</time>
      </trkpt>
      <trkpt lat="62.640896169596" lon="17.891981695603">
        <ele>109</ele>
        <time>2018-02-10T10:50:09Z</time>
      </trkpt>
      <trkpt lat="62.640934474879" lon="17.892065849879">
        <ele>108.4</ele>
        <time>2018-02-10T10:50:10Z</time>
      </trkpt>
      <trkpt lat="62.640975797646" lon="17.892150004155">
        <ele>108.2</ele>
        <time>2018-02-10T10:50:11Z</time>
      </trkpt>
      <trkpt lat="62.64102240101" lon="17.892198032442">
        <ele>107.8</ele>
        <time>2018-02-10T10:50:12Z</time>
      </trkpt>
      <trkpt lat="62.641069507288" lon="17.892246060729">
        <ele>107.6</ele>
        <time>2018-02-10T10:50:13Z</time>
      </trkpt>
      <trkpt lat="62.641115523919" lon="17.892276067931">
        <ele>107.4</ele>
        <time>2018-02-10T10:50:14Z</time>
      </trkpt>
      <trkpt lat="62.641156092315" lon="17.89226525528">
        <ele>107.4</ele>
        <time>2018-02-10T10:50:15Z</time>
      </trkpt>
      <trkpt lat="62.641187608259" lon="17.892254023534">
        <ele>107.2</ele>
        <time>2018-02-10T10:50:16Z</time>
      </trkpt>
      <trkpt lat="62.64121434652" lon="17.892242372693">
        <ele>106.8</ele>
        <time>2018-02-10T10:50:17Z</time>
      </trkpt>
      <trkpt lat="62.641236810012" lon="17.892236421544">
        <ele>106.6</ele>
        <time>2018-02-10T10:50:18Z</time>
      </trkpt>
      <trkpt lat="62.64126966706" lon="17.89221664026">
        <ele>106.8</ele>
        <time>2018-02-10T10:50:19Z</time>
      </trkpt>
      <trkpt lat="62.641296908235" lon="17.8921797599">
        <ele>106.6</ele>
        <time>2018-02-10T10:50:20Z</time>
      </trkpt>
      <trkpt lat="62.641339572106" lon="17.892148243956">
        <ele>106.8</ele>
        <time>2018-02-10T10:50:21Z</time>
      </trkpt>
      <trkpt lat="62.64137863176" lon="17.89211689565">
        <ele>106.8</ele>
        <time>2018-02-10T10:50:22Z</time>
      </trkpt>
      <trkpt lat="62.6414088066" lon="17.892105580085">
        <ele>106.6</ele>
        <time>2018-02-10T10:50:23Z</time>
      </trkpt>
      <trkpt lat="62.641440154906" lon="17.892093593968">
        <ele>106.2</ele>
        <time>2018-02-10T10:50:24Z</time>
      </trkpt>
      <trkpt lat="62.641467060805" lon="17.89208085348">
        <ele>106.2</ele>
        <time>2018-02-10T10:50:25Z</time>
      </trkpt>
      <trkpt lat="62.641494804894" lon="17.892066855707">
        <ele>105.8</ele>
        <time>2018-02-10T10:50:26Z</time>
      </trkpt>
      <trkpt lat="62.641528583951" lon="17.892045900957">
        <ele>105.6</ele>
        <time>2018-02-10T10:50:27Z</time>
      </trkpt>
      <trkpt lat="62.641566302501" lon="17.892022096361">
        <ele>105.6</ele>
        <time>2018-02-10T10:50:28Z</time>
      </trkpt>
      <trkpt lat="62.641612570589" lon="17.892005667837">
        <ele>105.4</ele>
        <time>2018-02-10T10:50:29Z</time>
      </trkpt>
      <trkpt lat="62.641659593048" lon="17.891991502426">
        <ele>104.8</ele>
        <time>2018-02-10T10:50:30Z</time>
      </trkpt>
      <trkpt lat="62.641704352394" lon="17.891977337015">
        <ele>104.2</ele>
        <time>2018-02-10T10:50:31Z</time>
      </trkpt>
      <trkpt lat="62.641747016265" lon="17.891967614011">
        <ele>103.6</ele>
        <time>2018-02-10T10:50:32Z</time>
      </trkpt>
      <trkpt lat="62.641784399539" lon="17.891947162175">
        <ele>103.2</ele>
        <time>2018-02-10T10:50:33Z</time>
      </trkpt>
      <trkpt lat="62.641837708423" lon="17.891910533272">
        <ele>102.6</ele>
        <time>2018-02-10T10:50:34Z</time>
      </trkpt>
      <trkpt lat="62.64188825128" lon="17.891874994016">
        <ele>102.2</ele>
        <time>2018-02-10T10:50:35Z</time>
      </trkpt>
      <trkpt lat="62.641948181865" lon="17.89184280752">
        <ele>101.8</ele>
        <time>2018-02-10T10:50:36Z</time>
      </trkpt>
      <trkpt lat="62.642015991436" lon="17.891804837513">
        <ele>101.4</ele>
        <time>2018-02-10T10:50:37Z</time>
      </trkpt>
      <trkpt lat="62.642074832374" lon="17.891775584682">
        <ele>100.8</ele>
        <time>2018-02-10T10:50:38Z</time>
      </trkpt>
      <trkpt lat="62.64215144294" lon="17.891727556395">
        <ele>100</ele>
        <time>2018-02-10T10:50:39Z</time>
      </trkpt>
      <trkpt lat="62.642226628583" lon="17.891665614154">
        <ele>99.6</ele>
        <time>2018-02-10T10:50:40Z</time>
      </trkpt>
      <trkpt lat="62.642302233321" lon="17.89158548319">
        <ele>98.8</ele>
        <time>2018-02-10T10:50:41Z</time>
      </trkpt>
      <trkpt lat="62.642379346801" lon="17.89148657677">
        <ele>98.2</ele>
        <time>2018-02-10T10:50:42Z</time>
      </trkpt>
      <trkpt lat="62.642438858291" lon="17.891387586531">
        <ele>97.4</ele>
        <time>2018-02-10T10:50:43Z</time>
      </trkpt>
      <trkpt lat="62.642485126379" lon="17.891282980419">
        <ele>96.8</ele>
        <time>2018-02-10T10:50:44Z</time>
      </trkpt>
      <trkpt lat="62.642506667862" lon="17.891171920244">
        <ele>96</ele>
        <time>2018-02-10T10:50:45Z</time>
      </trkpt>
      <trkpt lat="62.642505913491" lon="17.891081144267">
        <ele>95.4</ele>
        <time>2018-02-10T10:50:46Z</time>
      </trkpt>
      <trkpt lat="62.642491245166" lon="17.891001851493">
        <ele>94.8</ele>
        <time>2018-02-10T10:50:47Z</time>
      </trkpt>
      <trkpt lat="62.642466267104" lon="17.890946111858">
        <ele>94.6</ele>
        <time>2018-02-10T10:50:48Z</time>
      </trkpt>
      <trkpt lat="62.642424273785" lon="17.890892551517">
        <ele>94.4</ele>
        <time>2018-02-10T10:50:49Z</time>
      </trkpt>
      <trkpt lat="62.642375574946" lon="17.890858604822">
        <ele>94.2</ele>
        <time>2018-02-10T10:50:50Z</time>
      </trkpt>
      <trkpt lat="62.642325954098" lon="17.890819964263">
        <ele>93.8</ele>
        <time>2018-02-10T10:50:51Z</time>
      </trkpt>
      <trkpt lat="62.642272058481" lon="17.890773109442">
        <ele>93.6</ele>
        <time>2018-02-10T10:50:52Z</time>
      </trkpt>
      <trkpt lat="62.642237105958" lon="17.890743521335">
        <ele>93.4</ele>
        <time>2018-02-10T10:50:53Z</time>
      </trkpt>
      <trkpt lat="62.642197962485" lon="17.890703204396">
        <ele>92.8</ele>
        <time>2018-02-10T10:50:54Z</time>
      </trkpt>
      <trkpt lat="62.642161752677" lon="17.890682501103">
        <ele>92.4</ele>
        <time>2018-02-10T10:50:55Z</time>
      </trkpt>
      <trkpt lat="62.642123866489" lon="17.890674538298">
        <ele>92.2</ele>
        <time>2018-02-10T10:50:56Z</time>
      </trkpt>
      <trkpt lat="62.642106432137" lon="17.890659199421">
        <ele>91.8</ele>
        <time>2018-02-10T10:50:57Z</time>
      </trkpt>
      <trkpt lat="62.642085058292" lon="17.890643273811">
        <ele>91.8</ele>
        <time>2018-02-10T10:50:58Z</time>
      </trkpt>
      <trkpt lat="62.642066869569" lon="17.890621061776">
        <ele>92</ele>
        <time>2018-02-10T10:50:59Z</time>
      </trkpt>
      <trkpt lat="62.642048429389" lon="17.890605052347">
        <ele>92.2</ele>
        <time>2018-02-10T10:51:00Z</time>
      </trkpt>
      <trkpt lat="62.642031162675" lon="17.890589462013">
        <ele>92.4</ele>
        <time>2018-02-10T10:51:01Z</time>
      </trkpt>
      <trkpt lat="62.642012890133" lon="17.890569513091">
        <ele>92.6</ele>
        <time>2018-02-10T10:51:02Z</time>
      </trkpt>
      <trkpt lat="62.641996042514" lon="17.890555263861">
        <ele>92.8</ele>
        <time>2018-02-10T10:51:03Z</time>
      </trkpt>
      <trkpt lat="62.641975171583" lon="17.890540344079">
        <ele>93</ele>
        <time>2018-02-10T10:51:04Z</time>
      </trkpt>
      <trkpt lat="62.641960922353" lon="17.890528022686">
        <ele>93.6</ele>
        <time>2018-02-10T10:51:05Z</time>
      </trkpt>
      <trkpt lat="62.641945080562" lon="17.890508744316">
        <ele>94</ele>
        <time>2018-02-10T10:51:06Z</time>
      </trkpt>
      <trkpt lat="62.641925047821" lon="17.890492986344">
        <ele>94.4</ele>
        <time>2018-02-10T10:51:07Z</time>
      </trkpt>
      <trkpt lat="62.641912474971" lon="17.89048242515">
        <ele>94.8</ele>
        <time>2018-02-10T10:51:08Z</time>
      </trkpt>
      <trkpt lat="62.641901327044" lon="17.890466583359">
        <ele>95.2</ele>
        <time>2018-02-10T10:51:09Z</time>
      </trkpt>
      <trkpt lat="62.64188908947" lon="17.890455351613">
        <ele>95.6</ele>
        <time>2018-02-10T10:51:10Z</time>
      </trkpt>
      <trkpt lat="62.64187064929" lon="17.890441856754">
        <ele>95.8</ele>
        <time>2018-02-10T10:51:11Z</time>
      </trkpt>
      <trkpt lat="62.641852376748" lon="17.890426685515">
        <ele>96.2</ele>
        <time>2018-02-10T10:51:12Z</time>
      </trkpt>
      <trkpt lat="62.641839720079" lon="17.890413190656">
        <ele>96.4</ele>
        <time>2018-02-10T10:51:13Z</time>
      </trkpt>
      <trkpt lat="62.641820106433" lon="17.890394247562">
        <ele>96.8</ele>
        <time>2018-02-10T10:51:14Z</time>
      </trkpt>
      <trkpt lat="62.641797978217" lon="17.890367425482">
        <ele>97</ele>
        <time>2018-02-10T10:51:15Z</time>
      </trkpt>
      <trkpt lat="62.641777023467" lon="17.890341944506">
        <ele>97.2</ele>
        <time>2018-02-10T10:51:16Z</time>
      </trkpt>
      <trkpt lat="62.641758667106" lon="17.890324258697">
        <ele>97.6</ele>
        <time>2018-02-10T10:51:17Z</time>
      </trkpt>
      <trkpt lat="62.641743998781" lon="17.890305231784">
        <ele>97.6</ele>
        <time>2018-02-10T10:51:18Z</time>
      </trkpt>
      <trkpt lat="62.641727402619" lon="17.890275895134">
        <ele>98</ele>
        <time>2018-02-10T10:51:19Z</time>
      </trkpt>
      <trkpt lat="62.641713237208" lon="17.890252844909">
        <ele>98.2</ele>
        <time>2018-02-10T10:51:20Z</time>
      </trkpt>
      <trkpt lat="62.641697730693" lon="17.890230632874">
        <ele>98.6</ele>
        <time>2018-02-10T10:51:21Z</time>
      </trkpt>
      <trkpt lat="62.641688594422" lon="17.890190818849">
        <ele>98.8</ele>
        <time>2018-02-10T10:51:22Z</time>
      </trkpt>
      <trkpt lat="62.641673758459" lon="17.890161566018">
        <ele>99.2</ele>
        <time>2018-02-10T10:51:23Z</time>
      </trkpt>
      <trkpt lat="62.641658251944" lon="17.890118734509">
        <ele>99.2</ele>
        <time>2018-02-10T10:51:24Z</time>
      </trkpt>
      <trkpt lat="62.641642326334" lon="17.890076657371">
        <ele>99.4</ele>
        <time>2018-02-10T10:51:25Z</time>
      </trkpt>
      <trkpt lat="62.641634531167" lon="17.890060983218">
        <ele>99.8</ele>
        <time>2018-02-10T10:51:26Z</time>
      </trkpt>
      <trkpt lat="62.641616426263" lon="17.890004740669">
        <ele>100</ele>
        <time>2018-02-10T10:51:27Z</time>
      </trkpt>
      <trkpt lat="62.641611313304" lon="17.889978170046">
        <ele>100.2</ele>
        <time>2018-02-10T10:51:28Z</time>
      </trkpt>
      <trkpt lat="62.641601171205" lon="17.889930812311">
        <ele>100.4</ele>
        <time>2018-02-10T10:51:29Z</time>
      </trkpt>
      <trkpt lat="62.641596644979" lon="17.889903319679">
        <ele>100.4</ele>
        <time>2018-02-10T10:51:30Z</time>
      </trkpt>
      <trkpt lat="62.641587843984" lon="17.88985545903">
        <ele>100.4</ele>
        <time>2018-02-10T10:51:31Z</time>
      </trkpt>
      <trkpt lat="62.641580803188" lon="17.88981103496">
        <ele>100.4</ele>
        <time>2018-02-10T10:51:32Z</time>
      </trkpt>
      <trkpt lat="62.641576109324" lon="17.889778177912">
        <ele>100.4</ele>
        <time>2018-02-10T10:51:33Z</time>
      </trkpt>
      <trkpt lat="62.641571750736" lon="17.889740207905">
        <ele>100.4</ele>
        <time>2018-02-10T10:51:34Z</time>
      </trkpt>
      <trkpt lat="62.641568230338" lon="17.889705758296">
        <ele>100.2</ele>
        <time>2018-02-10T10:51:35Z</time>
      </trkpt>
      <trkpt lat="62.641565715768" lon="17.889660412217">
        <ele>99.8</ele>
        <time>2018-02-10T10:51:36Z</time>
      </trkpt>
      <trkpt lat="62.641562446827" lon="17.889608109161">
        <ele>99.4</ele>
        <time>2018-02-10T10:51:37Z</time>
      </trkpt>
      <trkpt lat="62.641561608637" lon="17.889558069218">
        <ele>99.2</ele>
        <time>2018-02-10T10:51:38Z</time>
      </trkpt>
      <trkpt lat="62.641560435171" lon="17.889489505276">
        <ele>99</ele>
        <time>2018-02-10T10:51:39Z</time>
      </trkpt>
      <trkpt lat="62.641561440999" lon="17.889417253298">
        <ele>98.6</ele>
        <time>2018-02-10T10:51:40Z</time>
      </trkpt>
      <trkpt lat="62.641565464311" lon="17.889335948868">
        <ele>98.4</ele>
        <time>2018-02-10T10:51:41Z</time>
      </trkpt>
      <trkpt lat="62.641577031333" lon="17.889242239226">
        <ele>97.8</ele>
        <time>2018-02-10T10:51:42Z</time>
      </trkpt>
      <trkpt lat="62.641591364382" lon="17.889119444391">
        <ele>97.2</ele>
        <time>2018-02-10T10:51:43Z</time>
      </trkpt>
      <trkpt lat="62.641615252797" lon="17.888948034536">
        <ele>96.4</ele>
        <time>2018-02-10T10:51:44Z</time>
      </trkpt>
      <trkpt lat="62.641645511456" lon="17.888767153134">
        <ele>95.6</ele>
        <time>2018-02-10T10:51:45Z</time>
      </trkpt>
      <trkpt lat="62.64168289473" lon="17.888575039986">
        <ele>93.8</ele>
        <time>2018-02-10T10:51:46Z</time>
      </trkpt>
      <trkpt lat="62.641726732067" lon="17.888391476376">
        <ele>92</ele>
        <time>2018-02-10T10:51:47Z</time>
      </trkpt>
      <trkpt lat="62.641768473929" lon="17.888260299641">
        <ele>90.2</ele>
        <time>2018-02-10T10:51:48Z</time>
      </trkpt>
      <trkpt lat="62.641818765329" lon="17.888111688554">
        <ele>88</ele>
        <time>2018-02-10T10:51:49Z</time>
      </trkpt>
      <trkpt lat="62.641862770304" lon="17.888004986967">
        <ele>86.2</ele>
        <time>2018-02-10T10:51:50Z</time>
      </trkpt>
      <trkpt lat="62.64190082413" lon="17.887916222646">
        <ele>85.6</ele>
        <time>2018-02-10T10:51:51Z</time>
      </trkpt>
      <trkpt lat="62.641932507712" lon="17.887840701727">
        <ele>85.2</ele>
        <time>2018-02-10T10:51:52Z</time>
      </trkpt>
      <trkpt lat="62.641962012" lon="17.887776831649">
        <ele>85.4</ele>
        <time>2018-02-10T10:51:53Z</time>
      </trkpt>
      <trkpt lat="62.641982380017" lon="17.887723858041">
        <ele>85.8</ele>
        <time>2018-02-10T10:51:54Z</time>
      </trkpt>
      <trkpt lat="62.642015320884" lon="17.887659233592">
        <ele>86.2</ele>
        <time>2018-02-10T10:51:55Z</time>
      </trkpt>
      <trkpt lat="62.642031497951" lon="17.887587819804">
        <ele>86.8</ele>
        <time>2018-02-10T10:51:56Z</time>
      </trkpt>
      <trkpt lat="62.642058320031" lon="17.88756636214">
        <ele>87.2</ele>
        <time>2018-02-10T10:51:57Z</time>
      </trkpt>
      <trkpt lat="62.642076173478" lon="17.887581868655">
        <ele>87.6</ele>
        <time>2018-02-10T10:51:58Z</time>
      </trkpt>
      <trkpt lat="62.64209444602" lon="17.887582539207">
        <ele>88</ele>
        <time>2018-02-10T10:51:59Z</time>
      </trkpt>
      <trkpt lat="62.642112215648" lon="17.887572313289">
        <ele>88</ele>
        <time>2018-02-10T10:52:00Z</time>
      </trkpt>
      <trkpt lat="62.642130991104" lon="17.887566026864">
        <ele>88</ele>
        <time>2018-02-10T10:52:01Z</time>
      </trkpt>
      <trkpt lat="62.64214725199" lon="17.887533169816">
        <ele>88</ele>
        <time>2018-02-10T10:52:02Z</time>
      </trkpt>
      <trkpt lat="62.64216569217" lon="17.887502408243">
        <ele>88</ele>
        <time>2018-02-10T10:52:03Z</time>
      </trkpt>
      <trkpt lat="62.642182707427" lon="17.887448093531">
        <ele>88</ele>
        <time>2018-02-10T10:52:04Z</time>
      </trkpt>
      <trkpt lat="62.642196118467" lon="17.887408028049">
        <ele>88.2</ele>
        <time>2018-02-10T10:52:05Z</time>
      </trkpt>
      <trkpt lat="62.642213888095" lon="17.887372991707">
        <ele>88.4</ele>
        <time>2018-02-10T10:52:06Z</time>
      </trkpt>
      <trkpt lat="62.642228975515" lon="17.887337955365">
        <ele>88.6</ele>
        <time>2018-02-10T10:52:07Z</time>
      </trkpt>
      <trkpt lat="62.642235345759" lon="17.887299398625">
        <ele>88.6</ele>
        <time>2018-02-10T10:52:08Z</time>
      </trkpt>
      <trkpt lat="62.642238530881" lon="17.887250783605">
        <ele>88.8</ele>
        <time>2018-02-10T10:52:09Z</time>
      </trkpt>
      <trkpt lat="62.642241464546" lon="17.887207449182">
        <ele>89</ele>
        <time>2018-02-10T10:52:10Z</time>
      </trkpt>
      <trkpt lat="62.642242470374" lon="17.887168976261">
        <ele>89.2</ele>
        <time>2018-02-10T10:52:11Z</time>
      </trkpt>
      <trkpt lat="62.642243895297" lon="17.88711876868">
        <ele>89.6</ele>
        <time>2018-02-10T10:52:12Z</time>
      </trkpt>
      <trkpt lat="62.642241883641" lon="17.887086833641">
        <ele>89.8</ele>
        <time>2018-02-10T10:52:13Z</time>
      </trkpt>
      <trkpt lat="62.642243727659" lon="17.887027992703">
        <ele>90</ele>
        <time>2018-02-10T10:52:14Z</time>
      </trkpt>
      <trkpt lat="62.642233669379" lon="17.886985915565">
        <ele>90.2</ele>
        <time>2018-02-10T10:52:15Z</time>
      </trkpt>
      <trkpt lat="62.642233334103" lon="17.886955237811">
        <ele>90.4</ele>
        <time>2018-02-10T10:52:16Z</time>
      </trkpt>
      <trkpt lat="62.642225119841" lon="17.886922464582">
        <ele>90.4</ele>
        <time>2018-02-10T10:52:17Z</time>
      </trkpt>
      <trkpt lat="62.64221514538" lon="17.886884410756">
        <ele>90.4</ele>
        <time>2018-02-10T10:52:18Z</time>
      </trkpt>
      <trkpt lat="62.642206512023" lon="17.88682456399">
        <ele>90.6</ele>
        <time>2018-02-10T10:52:19Z</time>
      </trkpt>
      <trkpt lat="62.642201818159" lon="17.886796484625">
        <ele>90.6</ele>
        <time>2018-02-10T10:52:20Z</time>
      </trkpt>
      <trkpt lat="62.642192598069" lon="17.886744433026">
        <ele>90.8</ele>
        <time>2018-02-10T10:52:21Z</time>
      </trkpt>
      <trkpt lat="62.642184299988" lon="17.886696237101">
        <ele>91</ele>
        <time>2018-02-10T10:52:22Z</time>
      </trkpt>
      <trkpt lat="62.642179270848" lon="17.886661871311">
        <ele>91</ele>
        <time>2018-02-10T10:52:23Z</time>
      </trkpt>
      <trkpt lat="62.642169715482" lon="17.886633875765">
        <ele>91</ele>
        <time>2018-02-10T10:52:24Z</time>
      </trkpt>
      <trkpt lat="62.642163093781" lon="17.886601773088">
        <ele>91.4</ele>
        <time>2018-02-10T10:52:25Z</time>
      </trkpt>
      <trkpt lat="62.64215311932" lon="17.886565898556">
        <ele>91.4</ele>
        <time>2018-02-10T10:52:26Z</time>
      </trkpt>
      <trkpt lat="62.642145156515" lon="17.886529018196">
        <ele>91.6</ele>
        <time>2018-02-10T10:52:27Z</time>
      </trkpt>
      <trkpt lat="62.64213635552" lon="17.886500687374">
        <ele>91.8</ele>
        <time>2018-02-10T10:52:28Z</time>
      </trkpt>
      <trkpt lat="62.642123028299" lon="17.886478475339">
        <ele>92</ele>
        <time>2018-02-10T10:52:29Z</time>
      </trkpt>
      <trkpt lat="62.642111880372" lon="17.886447043214">
        <ele>92.2</ele>
        <time>2018-02-10T10:52:30Z</time>
      </trkpt>
      <trkpt lat="62.642101822092" lon="17.886417371288">
        <ele>92.4</ele>
        <time>2018-02-10T10:52:31Z</time>
      </trkpt>
      <trkpt lat="62.642092685821" lon="17.886402032411">
        <ele>92.6</ele>
        <time>2018-02-10T10:52:32Z</time>
      </trkpt>
      <trkpt lat="62.64208522593" lon="17.886376048521">
        <ele>93</ele>
        <time>2018-02-10T10:52:33Z</time>
      </trkpt>
      <trkpt lat="62.642076089659" lon="17.886347214785">
        <ele>93</ele>
        <time>2018-02-10T10:52:34Z</time>
      </trkpt>
      <trkpt lat="62.64206762394" lon="17.886325170388">
        <ele>93.2</ele>
        <time>2018-02-10T10:52:35Z</time>
      </trkpt>
      <trkpt lat="62.642057481841" lon="17.88629398972">
        <ele>93.6</ele>
        <time>2018-02-10T10:52:36Z</time>
      </trkpt>
      <trkpt lat="62.64203577272" lon="17.886261132672">
        <ele>93.8</ele>
        <time>2018-02-10T10:52:37Z</time>
      </trkpt>
      <trkpt lat="62.642022780775" lon="17.886233891497">
        <ele>94.2</ele>
        <time>2018-02-10T10:52:38Z</time>
      </trkpt>
      <trkpt lat="62.642006268432" lon="17.886198771336">
        <ele>94.8</ele>
        <time>2018-02-10T10:52:39Z</time>
      </trkpt>
      <trkpt lat="62.641991516288" lon="17.886180163518">
        <ele>95</ele>
        <time>2018-02-10T10:52:40Z</time>
      </trkpt>
      <trkpt lat="62.641975506859" lon="17.886151245963">
        <ele>95.2</ele>
        <time>2018-02-10T10:52:41Z</time>
      </trkpt>
      <trkpt lat="62.641962514914" lon="17.886130458851">
        <ele>95.4</ele>
        <time>2018-02-10T10:52:42Z</time>
      </trkpt>
      <trkpt lat="62.641950612616" lon="17.886102295667">
        <ele>95.4</ele>
        <time>2018-02-10T10:52:43Z</time>
      </trkpt>
      <trkpt lat="62.641931334246" lon="17.886069019524">
        <ele>95.6</ele>
        <time>2018-02-10T10:52:44Z</time>
      </trkpt>
      <trkpt lat="62.64191674974" lon="17.886040940159">
        <ele>95.6</ele>
        <time>2018-02-10T10:52:45Z</time>
      </trkpt>
      <trkpt lat="62.641905266537" lon="17.886025349825">
        <ele>96</ele>
        <time>2018-02-10T10:52:46Z</time>
      </trkpt>
      <trkpt lat="62.641883138321" lon="17.885977908271">
        <ele>96.2</ele>
        <time>2018-02-10T10:52:47Z</time>
      </trkpt>
      <trkpt lat="62.641875762249" lon="17.885960473919">
        <ele>96.6</ele>
        <time>2018-02-10T10:52:48Z</time>
      </trkpt>
      <trkpt lat="62.641857154431" lon="17.885922000998">
        <ele>96.8</ele>
        <time>2018-02-10T10:52:49Z</time>
      </trkpt>
      <trkpt lat="62.641832008731" lon="17.885880594412">
        <ele>96.8</ele>
        <time>2018-02-10T10:52:50Z</time>
      </trkpt>
      <trkpt lat="62.64182371065" lon="17.885870871408">
        <ele>97</ele>
        <time>2018-02-10T10:52:51Z</time>
      </trkpt>
      <trkpt lat="62.641802169167" lon="17.885815886144">
        <ele>96.8</ele>
        <time>2018-02-10T10:52:52Z</time>
      </trkpt>
      <trkpt lat="62.641787249385" lon="17.885790991901">
        <ele>97</ele>
        <time>2018-02-10T10:52:53Z</time>
      </trkpt>
      <trkpt lat="62.641767216644" lon="17.885753189532">
        <ele>97</ele>
        <time>2018-02-10T10:52:54Z</time>
      </trkpt>
      <trkpt lat="62.641749866111" lon="17.885716141534">
        <ele>97.2</ele>
        <time>2018-02-10T10:52:55Z</time>
      </trkpt>
      <trkpt lat="62.641733353768" lon="17.885691414929">
        <ele>97.2</ele>
        <time>2018-02-10T10:52:56Z</time>
      </trkpt>
      <trkpt lat="62.641699239435" lon="17.885642045538">
        <ele>97.2</ele>
        <time>2018-02-10T10:52:57Z</time>
      </trkpt>
      <trkpt lat="62.641692282458" lon="17.885631651982">
        <ele>97.2</ele>
        <time>2018-02-10T10:52:58Z</time>
      </trkpt>
      <trkpt lat="62.641667974948" lon="17.885580019478">
        <ele>97.2</ele>
        <time>2018-02-10T10:52:59Z</time>
      </trkpt>
      <trkpt lat="62.641655402098" lon="17.885552945941">
        <ele>97.4</ele>
        <time>2018-02-10T10:53:00Z</time>
      </trkpt>
      <trkpt lat="62.641642158696" lon="17.88553542777">
        <ele>97.4</ele>
        <time>2018-02-10T10:53:01Z</time>
      </trkpt>
      <trkpt lat="62.641632770968" lon="17.885513467192">
        <ele>97.6</ele>
        <time>2018-02-10T10:53:02Z</time>
      </trkpt>
      <trkpt lat="62.641612402951" lon="17.885477760298">
        <ele>97.6</ele>
        <time>2018-02-10T10:53:03Z</time>
      </trkpt>
      <trkpt lat="62.641594549504" lon="17.885444567974">
        <ele>97.6</ele>
        <time>2018-02-10T10:53:04Z</time>
      </trkpt>
      <trkpt lat="62.641574516763" lon="17.885419003179">
        <ele>97.4</ele>
        <time>2018-02-10T10:53:05Z</time>
      </trkpt>
      <trkpt lat="62.641558339696" lon="17.885395198583">
        <ele>97.4</ele>
        <time>2018-02-10T10:53:06Z</time>
      </trkpt>
      <trkpt lat="62.641545096294" lon="17.885374243833">
        <ele>97.4</ele>
        <time>2018-02-10T10:53:07Z</time>
      </trkpt>
      <trkpt lat="62.641531601435" lon="17.885346667382">
        <ele>97.4</ele>
        <time>2018-02-10T10:53:08Z</time>
      </trkpt>
      <trkpt lat="62.641522129888" lon="17.885317414551">
        <ele>97.4</ele>
        <time>2018-02-10T10:53:09Z</time>
      </trkpt>
      <trkpt lat="62.641509976133" lon="17.885296208344">
        <ele>97.6</ele>
        <time>2018-02-10T10:53:10Z</time>
      </trkpt>
      <trkpt lat="62.641496062179" lon="17.885261758735">
        <ele>97.8</ele>
        <time>2018-02-10T10:53:11Z</time>
      </trkpt>
      <trkpt lat="62.64147837637" lon="17.885224207823">
        <ele>97.8</ele>
        <time>2018-02-10T10:53:12Z</time>
      </trkpt>
      <trkpt lat="62.641464546235" lon="17.885207192566">
        <ele>98.2</ele>
        <time>2018-02-10T10:53:13Z</time>
      </trkpt>
      <trkpt lat="62.641448369168" lon="17.885180538124">
        <ele>98.4</ele>
        <time>2018-02-10T10:53:14Z</time>
      </trkpt>
      <trkpt lat="62.641436215413" lon="17.885157823175">
        <ele>98.6</ele>
        <time>2018-02-10T10:53:15Z</time>
      </trkpt>
      <trkpt lat="62.64142389402" lon="17.885132593656">
        <ele>99</ele>
        <time>2018-02-10T10:53:16Z</time>
      </trkpt>
      <trkpt lat="62.641410399161" lon="17.885112393277">
        <ele>99.2</ele>
        <time>2018-02-10T10:53:17Z</time>
      </trkpt>
      <trkpt lat="62.64139707194" lon="17.88509034888">
        <ele>99</ele>
        <time>2018-02-10T10:53:18Z</time>
      </trkpt>
      <trkpt lat="62.641377709751" lon="17.885048690837">
        <ele>99.2</ele>
        <time>2018-02-10T10:53:19Z</time>
      </trkpt>
      <trkpt lat="62.641358934295" lon="17.885012229572">
        <ele>99.4</ele>
        <time>2018-02-10T10:53:20Z</time>
      </trkpt>
      <trkpt lat="62.641345774712" lon="17.884981803275">
        <ele>99.6</ele>
        <time>2018-02-10T10:53:21Z</time>
      </trkpt>
      <trkpt lat="62.641335967889" lon="17.884965374751">
        <ele>99.8</ele>
        <time>2018-02-10T10:53:22Z</time>
      </trkpt>
      <trkpt lat="62.64131576751" lon="17.884928075296">
        <ele>99.8</ele>
        <time>2018-02-10T10:53:23Z</time>
      </trkpt>
      <trkpt lat="62.641294728941" lon="17.884890272927">
        <ele>100</ele>
        <time>2018-02-10T10:53:24Z</time>
      </trkpt>
      <trkpt lat="62.641285173575" lon="17.884869401996">
        <ele>100.2</ele>
        <time>2018-02-10T10:53:25Z</time>
      </trkpt>
      <trkpt lat="62.641270421431" lon="17.884840065346">
        <ele>100.2</ele>
        <time>2018-02-10T10:53:26Z</time>
      </trkpt>
      <trkpt lat="62.641245611007" lon="17.884798407303">
        <ele>100.2</ele>
        <time>2018-02-10T10:53:27Z</time>
      </trkpt>
      <trkpt lat="62.641237145288" lon="17.884779128933">
        <ele>100.2</ele>
        <time>2018-02-10T10:53:28Z</time>
      </trkpt>
      <trkpt lat="62.641223231334" lon="17.884761275486">
        <ele>100.4</ele>
        <time>2018-02-10T10:53:29Z</time>
      </trkpt>
      <trkpt lat="62.641210071751" lon="17.884710816448">
        <ele>100.6</ele>
        <time>2018-02-10T10:53:30Z</time>
      </trkpt>
      <trkpt lat="62.641188781725" lon="17.884676450658">
        <ele>101</ele>
        <time>2018-02-10T10:53:31Z</time>
      </trkpt>
      <trkpt lat="62.641171850287" lon="17.884650718225">
        <ele>101</ele>
        <time>2018-02-10T10:53:32Z</time>
      </trkpt>
      <trkpt lat="62.641159780351" lon="17.884628170914">
        <ele>101.2</ele>
        <time>2018-02-10T10:53:33Z</time>
      </trkpt>
      <trkpt lat="62.641146117854" lon="17.884609898372">
        <ele>101.6</ele>
        <time>2018-02-10T10:53:34Z</time>
      </trkpt>
      <trkpt lat="62.641126001294" lon="17.884579304437">
        <ele>101.8</ele>
        <time>2018-02-10T10:53:35Z</time>
      </trkpt>
      <trkpt lat="62.641113009349" lon="17.884542591715">
        <ele>102.2</ele>
        <time>2018-02-10T10:53:36Z</time>
      </trkpt>
      <trkpt lat="62.641096497006" lon="17.884506549545">
        <ele>102.4</ele>
        <time>2018-02-10T10:53:37Z</time>
      </trkpt>
      <trkpt lat="62.641084510889" lon="17.884480817112">
        <ele>102.6</ele>
        <time>2018-02-10T10:53:38Z</time>
      </trkpt>
      <trkpt lat="62.641069004374" lon="17.884460365276">
        <ele>102.8</ele>
        <time>2018-02-10T10:53:39Z</time>
      </trkpt>
      <trkpt lat="62.641046540882" lon="17.884413678093">
        <ele>102.8</ele>
        <time>2018-02-10T10:53:40Z</time>
      </trkpt>
      <trkpt lat="62.641032207833" lon="17.884377803561">
        <ele>102.8</ele>
        <time>2018-02-10T10:53:41Z</time>
      </trkpt>
      <trkpt lat="62.641018712974" lon="17.884336480794">
        <ele>102.8</ele>
        <time>2018-02-10T10:53:42Z</time>
      </trkpt>
      <trkpt lat="62.641008319418" lon="17.884317789157">
        <ele>102.8</ele>
        <time>2018-02-10T10:53:43Z</time>
      </trkpt>
      <trkpt lat="62.640993734912" lon="17.884274538553">
        <ele>103.2</ele>
        <time>2018-02-10T10:53:44Z</time>
      </trkpt>
      <trkpt lat="62.640976216741" lon="17.88422952775">
        <ele>103.6</ele>
        <time>2018-02-10T10:53:45Z</time>
      </trkpt>
      <trkpt lat="62.640969343583" lon="17.884219972384">
        <ele>103.8</ele>
        <time>2018-02-10T10:53:46Z</time>
      </trkpt>
      <trkpt lat="62.640949729937" lon="17.884159287428">
        <ele>104</ele>
        <time>2018-02-10T10:53:47Z</time>
      </trkpt>
      <trkpt lat="62.640939084924" lon="17.884125173095">
        <ele>104</ele>
        <time>2018-02-10T10:53:48Z</time>
      </trkpt>
      <trkpt lat="62.640926679712" lon="17.884102374327">
        <ele>104.2</ele>
        <time>2018-02-10T10:53:49Z</time>
      </trkpt>
      <trkpt lat="62.640904719134" lon="17.884045796502">
        <ele>104.4</ele>
        <time>2018-02-10T10:53:50Z</time>
      </trkpt>
      <trkpt lat="62.640900444365" lon="17.884030373806">
        <ele>104.6</ele>
        <time>2018-02-10T10:53:51Z</time>
      </trkpt>
      <trkpt lat="62.640894577035" lon="17.883967593375">
        <ele>104.8</ele>
        <time>2018-02-10T10:53:52Z</time>
      </trkpt>
      <trkpt lat="62.640886278954" lon="17.883935909793">
        <ele>104.8</ele>
        <time>2018-02-10T10:53:53Z</time>
      </trkpt>
      <trkpt lat="62.640873622285" lon="17.883912021378">
        <ele>105</ele>
        <time>2018-02-10T10:53:54Z</time>
      </trkpt>
      <trkpt lat="62.640857193761" lon="17.883855443553">
        <ele>105</ele>
        <time>2018-02-10T10:53:55Z</time>
      </trkpt>
      <trkpt lat="62.640850404422" lon="17.883806493257">
        <ele>105</ele>
        <time>2018-02-10T10:53:56Z</time>
      </trkpt>
      <trkpt lat="62.640855349743" lon="17.883782604842">
        <ele>105</ele>
        <time>2018-02-10T10:53:57Z</time>
      </trkpt>
      <trkpt lat="62.640849398594" lon="17.883743545188">
        <ele>105</ele>
        <time>2018-02-10T10:53:58Z</time>
      </trkpt>
      <trkpt lat="62.640845710558" lon="17.883705407543">
        <ele>105</ele>
        <time>2018-02-10T10:53:59Z</time>
      </trkpt>
      <trkpt lat="62.6408388374" lon="17.883648997356">
        <ele>105.2</ele>
        <time>2018-02-10T10:54:00Z</time>
      </trkpt>
      <trkpt lat="62.640839591771" lon="17.883618403421">
        <ele>105.4</ele>
        <time>2018-02-10T10:54:01Z</time>
      </trkpt>
      <trkpt lat="62.640838418305" lon="17.88356819584">
        <ele>105.6</ele>
        <time>2018-02-10T10:54:02Z</time>
      </trkpt>
      <trkpt lat="62.640842693074" lon="17.883542044312">
        <ele>105.6</ele>
        <time>2018-02-10T10:54:03Z</time>
      </trkpt>
      <trkpt lat="62.640836658106" lon="17.88352628634">
        <ele>106</ele>
        <time>2018-02-10T10:54:04Z</time>
      </trkpt>
      <trkpt lat="62.640836658106" lon="17.883498542251">
        <ele>106.4</ele>
        <time>2018-02-10T10:54:05Z</time>
      </trkpt>
      <trkpt lat="62.640835652278" lon="17.883470211429">
        <ele>106.6</ele>
        <time>2018-02-10T10:54:06Z</time>
      </trkpt>
      <trkpt lat="62.64083716102" lon="17.883415309984">
        <ele>106.6</ele>
        <time>2018-02-10T10:54:07Z</time>
      </trkpt>
      <trkpt lat="62.64083380826" lon="17.883392092121">
        <ele>106.8</ele>
        <time>2018-02-10T10:54:08Z</time>
      </trkpt>
      <trkpt lat="62.64083464645" lon="17.883339453789">
        <ele>106.8</ele>
        <time>2018-02-10T10:54:09Z</time>
      </trkpt>
      <trkpt lat="62.640834562631" lon="17.883309698044">
        <ele>107</ele>
        <time>2018-02-10T10:54:10Z</time>
      </trkpt>
      <trkpt lat="62.640837412477" lon="17.883269716381">
        <ele>107</ele>
        <time>2018-02-10T10:54:11Z</time>
      </trkpt>
      <trkpt lat="62.640836490468" lon="17.883243648672">
        <ele>107.2</ele>
        <time>2018-02-10T10:54:12Z</time>
      </trkpt>
      <trkpt lat="62.640824671989" lon="17.883215736945">
        <ele>107.4</ele>
        <time>2018-02-10T10:54:13Z</time>
      </trkpt>
      <trkpt lat="62.640821403048" lon="17.883182544621">
        <ele>107.6</ele>
        <time>2018-02-10T10:54:14Z</time>
      </trkpt>
      <trkpt lat="62.64082374998" lon="17.883139294017">
        <ele>107.8</ele>
        <time>2018-02-10T10:54:15Z</time>
      </trkpt>
      <trkpt lat="62.640835652278" lon="17.883102916571">
        <ele>108</ele>
        <time>2018-02-10T10:54:16Z</time>
      </trkpt>
      <trkpt lat="62.640830204043" lon="17.883067377315">
        <ele>108.4</ele>
        <time>2018-02-10T10:54:17Z</time>
      </trkpt>
      <trkpt lat="62.640832886251" lon="17.883043824176">
        <ele>108.6</ele>
        <time>2018-02-10T10:54:18Z</time>
      </trkpt>
      <trkpt lat="62.640836406649" lon="17.882999567744">
        <ele>109</ele>
        <time>2018-02-10T10:54:19Z</time>
      </trkpt>
      <trkpt lat="62.640835065545" lon="17.882948270516">
        <ele>109.2</ele>
        <time>2018-02-10T10:54:20Z</time>
      </trkpt>
      <trkpt lat="62.640835568459" lon="17.882914575278">
        <ele>109.2</ele>
        <time>2018-02-10T10:54:21Z</time>
      </trkpt>
      <trkpt lat="62.64084302835" lon="17.882876437633">
        <ele>109.4</ele>
        <time>2018-02-10T10:54:22Z</time>
      </trkpt>
      <trkpt lat="62.640847638395" lon="17.88284986701">
        <ele>109.6</ele>
        <time>2018-02-10T10:54:23Z</time>
      </trkpt>
      <trkpt lat="62.640857529037" lon="17.882789349692">
        <ele>109.8</ele>
        <time>2018-02-10T10:54:24Z</time>
      </trkpt>
      <trkpt lat="62.640865156566" lon="17.882733861514">
        <ele>110</ele>
        <time>2018-02-10T10:54:25Z</time>
      </trkpt>
      <trkpt lat="62.640881752728" lon="17.88268222901">
        <ele>110.2</ele>
        <time>2018-02-10T10:54:26Z</time>
      </trkpt>
      <trkpt lat="62.640894912311" lon="17.882628417212">
        <ele>110.2</ele>
        <time>2018-02-10T10:54:27Z</time>
      </trkpt>
      <trkpt lat="62.640907904256" lon="17.882563038392">
        <ele>110.4</ele>
        <time>2018-02-10T10:54:28Z</time>
      </trkpt>
      <trkpt lat="62.640915531785" lon="17.882501012332">
        <ele>110.4</ele>
        <time>2018-02-10T10:54:29Z</time>
      </trkpt>
      <trkpt lat="62.64091678907" lon="17.882451307665">
        <ele>110.4</ele>
        <time>2018-02-10T10:54:30Z</time>
      </trkpt>
      <trkpt lat="62.640918884545" lon="17.882385258293">
        <ele>110.4</ele>
        <time>2018-02-10T10:54:31Z</time>
      </trkpt>
      <trkpt lat="62.640923159314" lon="17.882345695725">
        <ele>110.4</ele>
        <time>2018-02-10T10:54:32Z</time>
      </trkpt>
      <trkpt lat="62.640920896201" lon="17.882305546424">
        <ele>110.2</ele>
        <time>2018-02-10T10:54:33Z</time>
      </trkpt>
      <trkpt lat="62.640915364147" lon="17.882264139838">
        <ele>110</ele>
        <time>2018-02-10T10:54:34Z</time>
      </trkpt>
      <trkpt lat="62.640911843749" lon="17.88223295917">
        <ele>110.4</ele>
        <time>2018-02-10T10:54:35Z</time>
      </trkpt>
      <trkpt lat="62.640907149885" lon="17.882193648059">
        <ele>110.4</ele>
        <time>2018-02-10T10:54:36Z</time>
      </trkpt>
      <trkpt lat="62.640904635315" lon="17.882141345003">
        <ele>110.8</ele>
        <time>2018-02-10T10:54:37Z</time>
      </trkpt>
      <trkpt lat="62.640897007786" lon="17.882105889566">
        <ele>111</ele>
        <time>2018-02-10T10:54:38Z</time>
      </trkpt>
      <trkpt lat="62.64088661423" lon="17.882071607595">
        <ele>111.2</ele>
        <time>2018-02-10T10:54:39Z</time>
      </trkpt>
      <trkpt lat="62.640878399968" lon="17.882025339507">
        <ele>111</ele>
        <time>2018-02-10T10:54:40Z</time>
      </trkpt>
      <trkpt lat="62.64086985043" lon="17.881977478858">
        <ele>111.2</ele>
        <time>2018-02-10T10:54:41Z</time>
      </trkpt>
      <trkpt lat="62.640857193761" lon="17.88195635647">
        <ele>111.4</ele>
        <time>2018-02-10T10:54:42Z</time>
      </trkpt>
      <trkpt lat="62.640841268151" lon="17.881932970969">
        <ele>111.4</ele>
        <time>2018-02-10T10:54:43Z</time>
      </trkpt>
      <trkpt lat="62.640832886251" lon="17.881903215224">
        <ele>111.6</ele>
        <time>2018-02-10T10:54:44Z</time>
      </trkpt>
      <trkpt lat="62.640829868767" lon="17.881863652656">
        <ele>111.8</ele>
        <time>2018-02-10T10:54:45Z</time>
      </trkpt>
      <trkpt lat="62.640811847682" lon="17.881830544151">
        <ele>112</ele>
        <time>2018-02-10T10:54:46Z</time>
      </trkpt>
      <trkpt lat="62.640798185185" lon="17.881816462559">
        <ele>112</ele>
        <time>2018-02-10T10:54:47Z</time>
      </trkpt>
      <trkpt lat="62.640810255121" lon="17.881776564715">
        <ele>112.2</ele>
        <time>2018-02-10T10:54:48Z</time>
      </trkpt>
      <trkpt lat="62.640806064171" lon="17.881727195324">
        <ele>112.4</ele>
        <time>2018-02-10T10:54:49Z</time>
      </trkpt>
      <trkpt lat="62.640795838253" lon="17.881715628302">
        <ele>112.4</ele>
        <time>2018-02-10T10:54:50Z</time>
      </trkpt>
      <trkpt lat="62.640777481892" lon="17.881684279996">
        <ele>112.6</ele>
        <time>2018-02-10T10:54:51Z</time>
      </trkpt>
      <trkpt lat="62.640763232662" lon="17.881641280849">
        <ele>112.8</ele>
        <time>2018-02-10T10:54:52Z</time>
      </trkpt>
      <trkpt lat="62.640753593477" lon="17.881613285303">
        <ele>112.8</ele>
        <time>2018-02-10T10:54:53Z</time>
      </trkpt>
      <trkpt lat="62.640745379215" lon="17.881583194282">
        <ele>112.8</ele>
        <time>2018-02-10T10:54:54Z</time>
      </trkpt>
      <trkpt lat="62.640735656211" lon="17.881545391913">
        <ele>113</ele>
        <time>2018-02-10T10:54:55Z</time>
      </trkpt>
      <trkpt lat="62.640719730601" lon="17.881486467156">
        <ele>113.2</ele>
        <time>2018-02-10T10:54:56Z</time>
      </trkpt>
      <trkpt lat="62.640710091416" lon="17.881468026976">
        <ele>113.4</ele>
        <time>2018-02-10T10:54:57Z</time>
      </trkpt>
      <trkpt lat="62.64069550691" lon="17.881420501603">
        <ele>113.8</ele>
        <time>2018-02-10T10:54:58Z</time>
      </trkpt>
      <trkpt lat="62.640673797789" lon="17.881377334818">
        <ele>114</ele>
        <time>2018-02-10T10:54:59Z</time>
      </trkpt>
      <trkpt lat="62.640668181916" lon="17.881342969028">
        <ele>114.2</ele>
        <time>2018-02-10T10:55:00Z</time>
      </trkpt>
      <trkpt lat="62.640662398405" lon="17.881293264361">
        <ele>114.2</ele>
        <time>2018-02-10T10:55:01Z</time>
      </trkpt>
      <trkpt lat="62.640649238822" lon="17.881228053179">
        <ele>114.2</ele>
        <time>2018-02-10T10:55:02Z</time>
      </trkpt>
      <trkpt lat="62.640644461139" lon="17.881193687389">
        <ele>114.4</ele>
        <time>2018-02-10T10:55:03Z</time>
      </trkpt>
      <trkpt lat="62.640637001248" lon="17.881146329654">
        <ele>114.6</ele>
        <time>2018-02-10T10:55:04Z</time>
      </trkpt>
      <trkpt lat="62.640629708995" lon="17.881079777368">
        <ele>114.6</ele>
        <time>2018-02-10T10:55:05Z</time>
      </trkpt>
      <trkpt lat="62.640622668199" lon="17.881038789877">
        <ele>114.8</ele>
        <time>2018-02-10T10:55:06Z</time>
      </trkpt>
      <trkpt lat="62.640626691511" lon="17.880996880377">
        <ele>115</ele>
        <time>2018-02-10T10:55:07Z</time>
      </trkpt>
      <trkpt lat="62.640625685683" lon="17.880945247873">
        <ele>115</ele>
        <time>2018-02-10T10:55:08Z</time>
      </trkpt>
      <trkpt lat="62.640625434226" lon="17.880877941216">
        <ele>115.2</ele>
        <time>2018-02-10T10:55:09Z</time>
      </trkpt>
      <trkpt lat="62.640634989592" lon="17.880854304258">
        <ele>115.6</ele>
        <time>2018-02-10T10:55:10Z</time>
      </trkpt>
      <trkpt lat="62.640643455311" lon="17.880791440008">
        <ele>115.6</ele>
        <time>2018-02-10T10:55:11Z</time>
      </trkpt>
      <trkpt lat="62.640653848867" lon="17.880744249911">
        <ele>115.8</ele>
        <time>2018-02-10T10:55:12Z</time>
      </trkpt>
      <trkpt lat="62.640661392577" lon="17.880713069243">
        <ele>115.8</ele>
        <time>2018-02-10T10:55:13Z</time>
      </trkpt>
      <trkpt lat="62.640680587128" lon="17.880665292413">
        <ele>116</ele>
        <time>2018-02-10T10:55:14Z</time>
      </trkpt>
      <trkpt lat="62.64069299234" lon="17.88061609066">
        <ele>116</ele>
        <time>2018-02-10T10:55:15Z</time>
      </trkpt>
      <trkpt lat="62.640709420864" lon="17.880569738753">
        <ele>116</ele>
        <time>2018-02-10T10:55:16Z</time>
      </trkpt>
      <trkpt lat="62.640724759741" lon="17.880533361307">
        <ele>116.2</ele>
        <time>2018-02-10T10:55:17Z</time>
      </trkpt>
      <trkpt lat="62.640741774998" lon="17.880506706865">
        <ele>116.2</ele>
        <time>2018-02-10T10:55:18Z</time>
      </trkpt>
      <trkpt lat="62.640759041712" lon="17.880468904496">
        <ele>116.2</ele>
        <time>2018-02-10T10:55:19Z</time>
      </trkpt>
      <trkpt lat="62.64077513496" lon="17.880416349983">
        <ele>116.4</ele>
        <time>2018-02-10T10:55:20Z</time>
      </trkpt>
      <trkpt lat="62.640786199068" lon="17.880386510419">
        <ele>116.6</ele>
        <time>2018-02-10T10:55:21Z</time>
      </trkpt>
      <trkpt lat="62.640803381963" lon="17.88034367891">
        <ele>116.8</ele>
        <time>2018-02-10T10:55:22Z</time>
      </trkpt>
      <trkpt lat="62.640817295917" lon="17.880295231528">
        <ele>116.8</ele>
        <time>2018-02-10T10:55:23Z</time>
      </trkpt>
      <trkpt lat="62.640825845455" lon="17.880261787747">
        <ele>116.8</ele>
        <time>2018-02-10T10:55:24Z</time>
      </trkpt>
      <trkpt lat="62.640848560404" lon="17.880196576565">
        <ele>117</ele>
        <time>2018-02-10T10:55:25Z</time>
      </trkpt>
      <trkpt lat="62.640860797978" lon="17.880158019825">
        <ele>117</ele>
        <time>2018-02-10T10:55:26Z</time>
      </trkpt>
      <trkpt lat="62.640873287009" lon="17.880119463085">
        <ele>117.2</ele>
        <time>2018-02-10T10:55:27Z</time>
      </trkpt>
      <trkpt lat="62.640888625886" lon="17.880072692083">
        <ele>117.2</ele>
        <time>2018-02-10T10:55:28Z</time>
      </trkpt>
      <trkpt lat="62.640895582863" lon="17.880042265786">
        <ele>117.2</ele>
        <time>2018-02-10T10:55:29Z</time>
      </trkpt>
      <trkpt lat="62.640913268672" lon="17.879986358513">
        <ele>117.2</ele>
        <time>2018-02-10T10:55:30Z</time>
      </trkpt>
      <trkpt lat="62.640927266445" lon="17.879935396561">
        <ele>117.2</ele>
        <time>2018-02-10T10:55:31Z</time>
      </trkpt>
      <trkpt lat="62.64094109658" lon="17.879886613903">
        <ele>117.2</ele>
        <time>2018-02-10T10:55:32Z</time>
      </trkpt>
      <trkpt lat="62.6409478021" lon="17.879853924493">
        <ele>117.2</ele>
        <time>2018-02-10T10:55:33Z</time>
      </trkpt>
      <trkpt lat="62.640963308615" lon="17.879805980025">
        <ele>116.8</ele>
        <time>2018-02-10T10:55:34Z</time>
      </trkpt>
      <trkpt lat="62.640971019963" lon="17.879769770217">
        <ele>116.8</ele>
        <time>2018-02-10T10:55:35Z</time>
      </trkpt>
      <trkpt lat="62.64099138798" lon="17.879708247071">
        <ele>116.8</ele>
        <time>2018-02-10T10:55:36Z</time>
      </trkpt>
      <trkpt lat="62.641000272794" lon="17.879655608739">
        <ele>116.8</ele>
        <time>2018-02-10T10:55:37Z</time>
      </trkpt>
      <trkpt lat="62.641004966658" lon="17.879632390876">
        <ele>117.2</ele>
        <time>2018-02-10T10:55:38Z</time>
      </trkpt>
      <trkpt lat="62.641022065734" lon="17.879569275169">
        <ele>117.2</ele>
        <time>2018-02-10T10:55:39Z</time>
      </trkpt>
      <trkpt lat="62.641032794566" lon="17.879525856927">
        <ele>117.4</ele>
        <time>2018-02-10T10:55:40Z</time>
      </trkpt>
      <trkpt lat="62.641039080991" lon="17.879495849725">
        <ele>117.4</ele>
        <time>2018-02-10T10:55:41Z</time>
      </trkpt>
      <trkpt lat="62.641056180067" lon="17.879434829493">
        <ele>117.6</ele>
        <time>2018-02-10T10:55:42Z</time>
      </trkpt>
      <trkpt lat="62.641065064881" lon="17.879397613857">
        <ele>117.4</ele>
        <time>2018-02-10T10:55:43Z</time>
      </trkpt>
      <trkpt lat="62.641071351306" lon="17.879365343542">
        <ele>117.6</ele>
        <time>2018-02-10T10:55:44Z</time>
      </trkpt>
      <trkpt lat="62.641089875305" lon="17.879297785428">
        <ele>117.8</ele>
        <time>2018-02-10T10:55:45Z</time>
      </trkpt>
      <trkpt lat="62.641096580825" lon="17.879263754914">
        <ele>118</ele>
        <time>2018-02-10T10:55:46Z</time>
      </trkpt>
      <trkpt lat="62.641104459811" lon="17.879235507911">
        <ele>118.2</ele>
        <time>2018-02-10T10:55:47Z</time>
      </trkpt>
      <trkpt lat="62.641115188643" lon="17.879202567044">
        <ele>118.2</ele>
        <time>2018-02-10T10:55:48Z</time>
      </trkpt>
      <trkpt lat="62.641132371538" lon="17.879150347807">
        <ele>118.2</ele>
        <time>2018-02-10T10:55:49Z</time>
      </trkpt>
      <trkpt lat="62.641140250524" lon="17.879105001728">
        <ele>118.2</ele>
        <time>2018-02-10T10:55:50Z</time>
      </trkpt>
      <trkpt lat="62.641146788406" lon="17.879082873512">
        <ele>118.4</ele>
        <time>2018-02-10T10:55:51Z</time>
      </trkpt>
      <trkpt lat="62.641167994613" lon="17.879020428357">
        <ele>118.8</ele>
        <time>2018-02-10T10:55:52Z</time>
      </trkpt>
      <trkpt lat="62.641172688477" lon="17.878989415327">
        <ele>119</ele>
        <time>2018-02-10T10:55:53Z</time>
      </trkpt>
      <trkpt lat="62.64118752444" lon="17.878943650153">
        <ele>119</ele>
        <time>2018-02-10T10:55:54Z</time>
      </trkpt>
      <trkpt lat="62.641202192765" lon="17.878900064273">
        <ele>119.4</ele>
        <time>2018-02-10T10:55:55Z</time>
      </trkpt>
      <trkpt lat="62.641212334864" lon="17.878868129234">
        <ele>119.8</ele>
        <time>2018-02-10T10:55:56Z</time>
      </trkpt>
      <trkpt lat="62.641234127804" lon="17.878811551409">
        <ele>120</ele>
        <time>2018-02-10T10:55:57Z</time>
      </trkpt>
      <trkpt lat="62.641241336238" lon="17.878771569746">
        <ele>120.2</ele>
        <time>2018-02-10T10:55:58Z</time>
      </trkpt>
      <trkpt lat="62.641246365378" lon="17.878744244752">
        <ele>120.4</ele>
        <time>2018-02-10T10:55:59Z</time>
      </trkpt>
      <trkpt lat="62.641265643748" lon="17.87869915013">
        <ele>120.6</ele>
        <time>2018-02-10T10:56:00Z</time>
      </trkpt>
      <trkpt lat="62.641281653177" lon="17.878650786567">
        <ele>120.8</ele>
        <time>2018-02-10T10:56:01Z</time>
      </trkpt>
      <trkpt lat="62.641290873267" lon="17.878628825989">
        <ele>121</ele>
        <time>2018-02-10T10:56:02Z</time>
      </trkpt>
      <trkpt lat="62.641298668434" lon="17.878595382208">
        <ele>121</ele>
        <time>2018-02-10T10:56:03Z</time>
      </trkpt>
      <trkpt lat="62.641317946804" lon="17.878545006989">
        <ele>121.2</ele>
        <time>2018-02-10T10:56:04Z</time>
      </trkpt>
      <trkpt lat="62.641327334532" lon="17.878523465506">
        <ele>121.2</ele>
        <time>2018-02-10T10:56:05Z</time>
      </trkpt>
      <trkpt lat="62.64134342778" lon="17.878476526866">
        <ele>121.4</ele>
        <time>2018-02-10T10:56:06Z</time>
      </trkpt>
      <trkpt lat="62.641356252087" lon="17.878437718669">
        <ele>121.6</ele>
        <time>2018-02-10T10:56:07Z</time>
      </trkpt>
      <trkpt lat="62.641359772485" lon="17.87841919467">
        <ele>121.8</ele>
        <time>2018-02-10T10:56:08Z</time>
      </trkpt>
      <trkpt lat="62.641382152158" lon="17.878363622673">
        <ele>122</ele>
        <time>2018-02-10T10:56:09Z</time>
      </trkpt>
      <trkpt lat="62.641385085823" lon="17.878344679579">
        <ele>122.2</ele>
        <time>2018-02-10T10:56:10Z</time>
      </trkpt>
      <trkpt lat="62.641404783288" lon="17.878286676831">
        <ele>122.4</ele>
        <time>2018-02-10T10:56:11Z</time>
      </trkpt>
      <trkpt lat="62.641411572627" lon="17.878258848923">
        <ele>122.4</ele>
        <time>2018-02-10T10:56:12Z</time>
      </trkpt>
      <trkpt lat="62.641430012807" lon="17.878217023242">
        <ele>122.4</ele>
        <time>2018-02-10T10:56:13Z</time>
      </trkpt>
      <trkpt lat="62.641446022236" lon="17.87817192862">
        <ele>122.6</ele>
        <time>2018-02-10T10:56:14Z</time>
      </trkpt>
      <trkpt lat="62.641455326145" lon="17.878145441816">
        <ele>122.6</ele>
        <time>2018-02-10T10:56:15Z</time>
      </trkpt>
      <trkpt lat="62.641479466017" lon="17.878093809312">
        <ele>122.8</ele>
        <time>2018-02-10T10:56:16Z</time>
      </trkpt>
      <trkpt lat="62.641487428822" lon="17.878065813766">
        <ele>122.8</ele>
        <time>2018-02-10T10:56:17Z</time>
      </trkpt>
      <trkpt lat="62.641498912025" lon="17.878028011397">
        <ele>122.8</ele>
        <time>2018-02-10T10:56:18Z</time>
      </trkpt>
      <trkpt lat="62.641521207879" lon="17.877969505735">
        <ele>122.8</ele>
        <time>2018-02-10T10:56:19Z</time>
      </trkpt>
      <trkpt lat="62.641532691082" lon="17.877936564868">
        <ele>122.8</ele>
        <time>2018-02-10T10:56:20Z</time>
      </trkpt>
      <trkpt lat="62.641544258104" lon="17.877908820779">
        <ele>122.8</ele>
        <time>2018-02-10T10:56:21Z</time>
      </trkpt>
      <trkpt lat="62.641558423515" lon="17.8778634747">
        <ele>122.8</ele>
        <time>2018-02-10T10:56:22Z</time>
      </trkpt>
      <trkpt lat="62.64157476822" lon="17.877834054231">
        <ele>123</ele>
        <time>2018-02-10T10:56:23Z</time>
      </trkpt>
      <trkpt lat="62.641584155948" lon="17.877805052857">
        <ele>123</ele>
        <time>2018-02-10T10:56:24Z</time>
      </trkpt>
      <trkpt lat="62.641595387694" lon="17.877756354018">
        <ele>123.2</ele>
        <time>2018-02-10T10:56:25Z</time>
      </trkpt>
      <trkpt lat="62.641615085159" lon="17.877730034852">
        <ele>123.4</ele>
        <time>2018-02-10T10:56:26Z</time>
      </trkpt>
      <trkpt lat="62.641622712688" lon="17.877701536392">
        <ele>123.8</ele>
        <time>2018-02-10T10:56:27Z</time>
      </trkpt>
      <trkpt lat="62.641635872271" lon="17.877668344068">
        <ele>124</ele>
        <time>2018-02-10T10:56:28Z</time>
      </trkpt>
      <trkpt lat="62.641659509229" lon="17.877621573066">
        <ele>124.2</ele>
        <time>2018-02-10T10:56:29Z</time>
      </trkpt>
      <trkpt lat="62.641653725718" lon="17.877588213104">
        <ele>124.4</ele>
        <time>2018-02-10T10:56:30Z</time>
      </trkpt>
      <trkpt lat="62.641672249717" lon="17.877556613341">
        <ele>124.4</ele>
        <time>2018-02-10T10:56:31Z</time>
      </trkpt>
      <trkpt lat="62.641680128703" lon="17.877516799316">
        <ele>124.4</ele>
        <time>2018-02-10T10:56:32Z</time>
      </trkpt>
      <trkpt lat="62.641699826168" lon="17.877473297255">
        <ele>124.6</ele>
        <time>2018-02-10T10:56:33Z</time>
      </trkpt>
      <trkpt lat="62.641699155616" lon="17.877445553166">
        <ele>124.8</ele>
        <time>2018-02-10T10:56:34Z</time>
      </trkpt>
      <trkpt lat="62.641707369878" lon="17.877420575104">
        <ele>125</ele>
        <time>2018-02-10T10:56:35Z</time>
      </trkpt>
      <trkpt lat="62.641713321027" lon="17.877361315071">
        <ele>125.2</ele>
        <time>2018-02-10T10:56:36Z</time>
      </trkpt>
      <trkpt lat="62.641724468954" lon="17.877336001733">
        <ele>125.4</ele>
        <time>2018-02-10T10:56:37Z</time>
      </trkpt>
      <trkpt lat="62.641735952157" lon="17.877314963164">
        <ele>125.4</ele>
        <time>2018-02-10T10:56:38Z</time>
      </trkpt>
      <trkpt lat="62.641741903306" lon="17.87728428541">
        <ele>125.8</ele>
        <time>2018-02-10T10:56:39Z</time>
      </trkpt>
      <trkpt lat="62.641763109513" lon="17.877240280435">
        <ele>126</ele>
        <time>2018-02-10T10:56:40Z</time>
      </trkpt>
      <trkpt lat="62.641775011811" lon="17.877206249921">
        <ele>126.4</ele>
        <time>2018-02-10T10:56:41Z</time>
      </trkpt>
      <trkpt lat="62.641780711503" lon="17.877188145017">
        <ele>126.6</ele>
        <time>2018-02-10T10:56:42Z</time>
      </trkpt>
      <trkpt lat="62.641805354289" lon="17.877128884984">
        <ele>126.8</ele>
        <time>2018-02-10T10:56:43Z</time>
      </trkpt>
      <trkpt lat="62.641806779212" lon="17.877095105927">
        <ele>127</ele>
        <time>2018-02-10T10:56:44Z</time>
      </trkpt>
      <trkpt lat="62.64182035789" lon="17.877059818128">
        <ele>127</ele>
        <time>2018-02-10T10:56:45Z</time>
      </trkpt>
      <trkpt lat="62.641835612948" lon="17.877017992447">
        <ele>127</ele>
        <time>2018-02-10T10:56:46Z</time>
      </trkpt>
      <trkpt lat="62.641843575753" lon="17.877004665226">
        <ele>127</ele>
        <time>2018-02-10T10:56:47Z</time>
      </trkpt>
      <trkpt lat="62.641862770304" lon="17.876966695219">
        <ele>127</ele>
        <time>2018-02-10T10:56:48Z</time>
      </trkpt>
      <trkpt lat="62.64188070757" lon="17.876921684416">
        <ele>127</ele>
        <time>2018-02-10T10:56:49Z</time>
      </trkpt>
      <trkpt lat="62.641897806646" lon="17.876888324454">
        <ele>127.2</ele>
        <time>2018-02-10T10:56:50Z</time>
      </trkpt>
      <trkpt lat="62.641915576274" lon="17.876855467406">
        <ele>127.2</ele>
        <time>2018-02-10T10:56:51Z</time>
      </trkpt>
      <trkpt lat="62.641932759169" lon="17.876825879299">
        <ele>127.2</ele>
        <time>2018-02-10T10:56:52Z</time>
      </trkpt>
      <trkpt lat="62.641950947892" lon="17.876785646179">
        <ele>127.4</ele>
        <time>2018-02-10T10:56:53Z</time>
      </trkpt>
      <trkpt lat="62.641957150498" lon="17.876768211827">
        <ele>127.6</ele>
        <time>2018-02-10T10:56:54Z</time>
      </trkpt>
      <trkpt lat="62.641979530171" lon="17.87671850716">
        <ele>127.8</ele>
        <time>2018-02-10T10:56:55Z</time>
      </trkpt>
      <trkpt lat="62.641986068053" lon="17.87667995042">
        <ele>128</ele>
        <time>2018-02-10T10:56:56Z</time>
      </trkpt>
      <trkpt lat="62.641989588451" lon="17.876667629027">
        <ele>128</ele>
        <time>2018-02-10T10:56:57Z</time>
      </trkpt>
      <trkpt lat="62.64201146521" lon="17.876616080342">
        <ele>128.2</ele>
        <time>2018-02-10T10:56:58Z</time>
      </trkpt>
      <trkpt lat="62.642019595653" lon="17.876581044">
        <ele>128.4</ele>
        <time>2018-02-10T10:56:59Z</time>
      </trkpt>
      <trkpt lat="62.642029821571" lon="17.876550701522">
        <ele>128.4</ele>
        <time>2018-02-10T10:57:00Z</time>
      </trkpt>
      <trkpt lat="62.642061588972" lon="17.876495800077">
        <ele>128.6</ele>
        <time>2018-02-10T10:57:01Z</time>
      </trkpt>
      <trkpt lat="62.642070557605" lon="17.876461099011">
        <ele>128.6</ele>
        <time>2018-02-10T10:57:02Z</time>
      </trkpt>
      <trkpt lat="62.642084974473" lon="17.876430588895">
        <ele>128.8</ele>
        <time>2018-02-10T10:57:03Z</time>
      </trkpt>
      <trkpt lat="62.64210701887" lon="17.876362444048">
        <ele>129</ele>
        <time>2018-02-10T10:57:04Z</time>
      </trkpt>
      <trkpt lat="62.642112383286" lon="17.876338471814">
        <ele>129</ele>
        <time>2018-02-10T10:57:05Z</time>
      </trkpt>
      <trkpt lat="62.642125961964" lon="17.876294885934">
        <ele>129.2</ele>
        <time>2018-02-10T10:57:06Z</time>
      </trkpt>
      <trkpt lat="62.642143312497" lon="17.876245768">
        <ele>129.2</ele>
        <time>2018-02-10T10:57:07Z</time>
      </trkpt>
      <trkpt lat="62.642156052985" lon="17.876213330047">
        <ele>129.2</ele>
        <time>2018-02-10T10:57:08Z</time>
      </trkpt>
      <trkpt lat="62.642174576984" lon="17.876173851298">
        <ele>129.2</ele>
        <time>2018-02-10T10:57:09Z</time>
      </trkpt>
      <trkpt lat="62.642201231426" lon="17.876132528531">
        <ele>129.2</ele>
        <time>2018-02-10T10:57:10Z</time>
      </trkpt>
      <trkpt lat="62.642213720457" lon="17.876116183826">
        <ele>129.4</ele>
        <time>2018-02-10T10:57:11Z</time>
      </trkpt>
      <trkpt lat="62.64223107099" lon="17.876091624859">
        <ele>129.4</ele>
        <time>2018-02-10T10:57:12Z</time>
      </trkpt>
      <trkpt lat="62.642247750971" lon="17.876047033151">
        <ele>129.6</ele>
        <time>2018-02-10T10:57:13Z</time>
      </trkpt>
      <trkpt lat="62.642264011857" lon="17.876021216899">
        <ele>129.8</ele>
        <time>2018-02-10T10:57:14Z</time>
      </trkpt>
      <trkpt lat="62.642292091222" lon="17.875973691526">
        <ele>130</ele>
        <time>2018-02-10T10:57:15Z</time>
      </trkpt>
      <trkpt lat="62.642303406787" lon="17.87595323969">
        <ele>130</ele>
        <time>2018-02-10T10:57:16Z</time>
      </trkpt>
      <trkpt lat="62.642317488379" lon="17.875925830877">
        <ele>130.2</ele>
        <time>2018-02-10T10:57:17Z</time>
      </trkpt>
      <trkpt lat="62.6423475794" lon="17.875882496454">
        <ele>130.2</ele>
        <time>2018-02-10T10:57:18Z</time>
      </trkpt>
      <trkpt lat="62.64236266682" lon="17.875859278591">
        <ele>130.4</ele>
        <time>2018-02-10T10:57:19Z</time>
      </trkpt>
      <trkpt lat="62.642382112828" lon="17.875830528674">
        <ele>130.4</ele>
        <time>2018-02-10T10:57:20Z</time>
      </trkpt>
      <trkpt lat="62.642400888284" lon="17.875791888115">
        <ele>130.6</ele>
        <time>2018-02-10T10:57:21Z</time>
      </trkpt>
      <trkpt lat="62.642412706763" lon="17.875773112659">
        <ele>130.6</ele>
        <time>2018-02-10T10:57:22Z</time>
      </trkpt>
      <trkpt lat="62.642438271558" lon="17.875740758525">
        <ele>130.8</ele>
        <time>2018-02-10T10:57:23Z</time>
      </trkpt>
      <trkpt lat="62.64246241143" lon="17.875710583685">
        <ele>130.8</ele>
        <time>2018-02-10T10:57:24Z</time>
      </trkpt>
      <trkpt lat="62.642476744479" lon="17.875686192356">
        <ele>130.8</ele>
        <time>2018-02-10T10:57:25Z</time>
      </trkpt>
      <trkpt lat="62.642504656206" lon="17.875656185154">
        <ele>130.8</ele>
        <time>2018-02-10T10:57:26Z</time>
      </trkpt>
      <trkpt lat="62.642520833273" lon="17.87563137473">
        <ele>131</ele>
        <time>2018-02-10T10:57:27Z</time>
      </trkpt>
      <trkpt lat="62.642555701977" lon="17.87558695066">
        <ele>131.2</ele>
        <time>2018-02-10T10:57:28Z</time>
      </trkpt>
      <trkpt lat="62.642575399442" lon="17.875547136635">
        <ele>131.2</ele>
        <time>2018-02-10T10:57:29Z</time>
      </trkpt>
      <trkpt lat="62.642616889847" lon="17.875499611262">
        <ele>131.4</ele>
        <time>2018-02-10T10:57:30Z</time>
      </trkpt>
      <trkpt lat="62.642648741067" lon="17.875446302378">
        <ele>131.2</ele>
        <time>2018-02-10T10:57:31Z</time>
      </trkpt>
      <trkpt lat="62.642676317518" lon="17.875407578">
        <ele>130.8</ele>
        <time>2018-02-10T10:57:32Z</time>
      </trkpt>
      <trkpt lat="62.642707414367" lon="17.875367009604">
        <ele>130.4</ele>
        <time>2018-02-10T10:57:33Z</time>
      </trkpt>
      <trkpt lat="62.642728536755" lon="17.875335326022">
        <ele>130.4</ele>
        <time>2018-02-10T10:57:34Z</time>
      </trkpt>
      <trkpt lat="62.642766590581" lon="17.875284866984">
        <ele>130.2</ele>
        <time>2018-02-10T10:57:35Z</time>
      </trkpt>
      <trkpt lat="62.642786036589" lon="17.875254775963">
        <ele>130.4</ele>
        <time>2018-02-10T10:57:36Z</time>
      </trkpt>
      <trkpt lat="62.642818306904" lon="17.875206999133">
        <ele>130.6</ele>
        <time>2018-02-10T10:57:37Z</time>
      </trkpt>
      <trkpt lat="62.642833226686" lon="17.875166849832">
        <ele>131</ele>
        <time>2018-02-10T10:57:38Z</time>
      </trkpt>
      <trkpt lat="62.642853762341" lon="17.875133657508">
        <ele>131</ele>
        <time>2018-02-10T10:57:39Z</time>
      </trkpt>
      <trkpt lat="62.642892151443" lon="17.875085461583">
        <ele>131</ele>
        <time>2018-02-10T10:57:40Z</time>
      </trkpt>
      <trkpt lat="62.6429091667" lon="17.87502955431">
        <ele>131</ele>
        <time>2018-02-10T10:57:41Z</time>
      </trkpt>
      <trkpt lat="62.642954680417" lon="17.874972222114">
        <ele>131</ele>
        <time>2018-02-10T10:57:42Z</time>
      </trkpt>
      <trkpt lat="62.642999188306" lon="17.874916231022">
        <ele>131</ele>
        <time>2018-02-10T10:57:43Z</time>
      </trkpt>
      <trkpt lat="62.643045456394" lon="17.874849427279">
        <ele>131</ele>
        <time>2018-02-10T10:57:44Z</time>
      </trkpt>
      <trkpt lat="62.643091221568" lon="17.874786898305">
        <ele>130.8</ele>
        <time>2018-02-10T10:57:45Z</time>
      </trkpt>
      <trkpt lat="62.643140255683" lon="17.874720178381">
        <ele>129.8</ele>
        <time>2018-02-10T10:57:46Z</time>
      </trkpt>
      <trkpt lat="62.643189876531" lon="17.874653542276">
        <ele>128.6</ele>
        <time>2018-02-10T10:57:47Z</time>
      </trkpt>
      <trkpt lat="62.64323438442" lon="17.874591516216">
        <ele>127.4</ele>
        <time>2018-02-10T10:57:48Z</time>
      </trkpt>
      <trkpt lat="62.64328551401" lon="17.874508703044">
        <ele>126</ele>
        <time>2018-02-10T10:57:49Z</time>
      </trkpt>
      <trkpt lat="62.643331111546" lon="17.874438462722">
        <ele>124.8</ele>
        <time>2018-02-10T10:57:50Z</time>
      </trkpt>
      <trkpt lat="62.643374529788" lon="17.874378196861">
        <ele>124.2</ele>
        <time>2018-02-10T10:57:51Z</time>
      </trkpt>
      <trkpt lat="62.643413505623" lon="17.87432044557">
        <ele>123.8</ele>
        <time>2018-02-10T10:57:52Z</time>
      </trkpt>
      <trkpt lat="62.643425575559" lon="17.874247774497">
        <ele>123.6</ele>
        <time>2018-02-10T10:57:53Z</time>
      </trkpt>
      <trkpt lat="62.643470670181" lon="17.874188765921">
        <ele>123.8</ele>
        <time>2018-02-10T10:57:54Z</time>
      </trkpt>
      <trkpt lat="62.6434875178" lon="17.874152220837">
        <ele>124</ele>
        <time>2018-02-10T10:57:55Z</time>
      </trkpt>
      <trkpt lat="62.64351433988" lon="17.874104946921">
        <ele>124.4</ele>
        <time>2018-02-10T10:57:56Z</time>
      </trkpt>
      <trkpt lat="62.643542754521" lon="17.874062953602">
        <ele>124.8</ele>
        <time>2018-02-10T10:57:57Z</time>
      </trkpt>
      <trkpt lat="62.643554489181" lon="17.874026492337">
        <ele>125.4</ele>
        <time>2018-02-10T10:57:58Z</time>
      </trkpt>
      <trkpt lat="62.643586340401" lon="17.873982319724">
        <ele>125.4</ele>
        <time>2018-02-10T10:57:59Z</time>
      </trkpt>
      <trkpt lat="62.643606373142" lon="17.873949881771">
        <ele>125.6</ele>
        <time>2018-02-10T10:58:00Z</time>
      </trkpt>
      <trkpt lat="62.643615677051" lon="17.873927585917">
        <ele>125.4</ele>
        <time>2018-02-10T10:58:01Z</time>
      </trkpt>
      <trkpt lat="62.643646438624" lon="17.873887855711">
        <ele>125.4</ele>
        <time>2018-02-10T10:58:02Z</time>
      </trkpt>
      <trkpt lat="62.643660268759" lon="17.873859943984">
        <ele>125.2</ele>
        <time>2018-02-10T10:58:03Z</time>
      </trkpt>
      <trkpt lat="62.643672590152" lon="17.873828176583">
        <ele>125.2</ele>
        <time>2018-02-10T10:58:04Z</time>
      </trkpt>
      <trkpt lat="62.643699496051" lon="17.873778555735">
        <ele>125.2</ele>
        <time>2018-02-10T10:58:05Z</time>
      </trkpt>
      <trkpt lat="62.643711482168" lon="17.873756595157">
        <ele>125.2</ele>
        <time>2018-02-10T10:58:06Z</time>
      </trkpt>
      <trkpt lat="62.643735119126" lon="17.873709907974">
        <ele>125.2</ele>
        <time>2018-02-10T10:58:07Z</time>
      </trkpt>
      <trkpt lat="62.643748362528" lon="17.873676045098">
        <ele>125.4</ele>
        <time>2018-02-10T10:58:08Z</time>
      </trkpt>
      <trkpt lat="62.643764036681" lon="17.873640086747">
        <ele>125.6</ele>
        <time>2018-02-10T10:58:09Z</time>
      </trkpt>
      <trkpt lat="62.643787673639" lon="17.873590968813">
        <ele>125.8</ele>
        <time>2018-02-10T10:58:10Z</time>
      </trkpt>
      <trkpt lat="62.643799575937" lon="17.87354595801">
        <ele>125.8</ele>
        <time>2018-02-10T10:58:11Z</time>
      </trkpt>
      <trkpt lat="62.643812484063" lon="17.873513687695">
        <ele>126</ele>
        <time>2018-02-10T10:58:12Z</time>
      </trkpt>
      <trkpt lat="62.643843245636" lon="17.873452416006">
        <ele>126</ele>
        <time>2018-02-10T10:58:13Z</time>
      </trkpt>
      <trkpt lat="62.643863194558" lon="17.8734043039">
        <ele>126</ele>
        <time>2018-02-10T10:58:14Z</time>
      </trkpt>
      <trkpt lat="62.643883311118" lon="17.873361304753">
        <ele>126</ele>
        <time>2018-02-10T10:58:15Z</time>
      </trkpt>
      <trkpt lat="62.643905104058" lon="17.873304726928">
        <ele>126.2</ele>
        <time>2018-02-10T10:58:16Z</time>
      </trkpt>
      <trkpt lat="62.64391080375" lon="17.87326767893">
        <ele>126.4</ele>
        <time>2018-02-10T10:58:17Z</time>
      </trkpt>
      <trkpt lat="62.643919856202" lon="17.873237336452">
        <ele>126.4</ele>
        <time>2018-02-10T10:58:18Z</time>
      </trkpt>
      <trkpt lat="62.643938799296" lon="17.873172544365">
        <ele>126.6</ele>
        <time>2018-02-10T10:58:19Z</time>
      </trkpt>
      <trkpt lat="62.643954724906" lon="17.873132311245">
        <ele>126.8</ele>
        <time>2018-02-10T10:58:20Z</time>
      </trkpt>
      <trkpt lat="62.643959837865" lon="17.873099957111">
        <ele>126.8</ele>
        <time>2018-02-10T10:58:21Z</time>
      </trkpt>
      <trkpt lat="62.643979116235" lon="17.87303801487">
        <ele>127</ele>
        <time>2018-02-10T10:58:22Z</time>
      </trkpt>
      <trkpt lat="62.643986073212" lon="17.873003146166">
        <ele>127.2</ele>
        <time>2018-02-10T10:58:23Z</time>
      </trkpt>
      <trkpt lat="62.643996131492" lon="17.87297012148">
        <ele>127.2</ele>
        <time>2018-02-10T10:58:24Z</time>
      </trkpt>
      <trkpt lat="62.644014068758" lon="17.872908263058">
        <ele>127.4</ele>
        <time>2018-02-10T10:58:25Z</time>
      </trkpt>
      <trkpt lat="62.644026641608" lon="17.872860234771">
        <ele>127.6</ele>
        <time>2018-02-10T10:58:26Z</time>
      </trkpt>
      <trkpt lat="62.644032508938" lon="17.872824779334">
        <ele>127.8</ele>
        <time>2018-02-10T10:58:27Z</time>
      </trkpt>
      <trkpt lat="62.644037035164" lon="17.872786222594">
        <ele>127.8</ele>
        <time>2018-02-10T10:58:28Z</time>
      </trkpt>
      <trkpt lat="62.644051368213" lon="17.872731153511">
        <ele>128.2</ele>
        <time>2018-02-10T10:58:29Z</time>
      </trkpt>
      <trkpt lat="62.644055223887" lon="17.872690249839">
        <ele>128.4</ele>
        <time>2018-02-10T10:58:30Z</time>
      </trkpt>
      <trkpt lat="62.644060504484" lon="17.872664601225">
        <ele>128.4</ele>
        <time>2018-02-10T10:58:31Z</time>
      </trkpt>
      <trkpt lat="62.644064946891" lon="17.872617411128">
        <ele>128.4</ele>
        <time>2018-02-10T10:58:32Z</time>
      </trkpt>
      <trkpt lat="62.644069892212" lon="17.872565862443">
        <ele>128.6</ele>
        <time>2018-02-10T10:58:33Z</time>
      </trkpt>
      <trkpt lat="62.644075256628" lon="17.872521354554">
        <ele>128.6</ele>
        <time>2018-02-10T10:58:34Z</time>
      </trkpt>
      <trkpt lat="62.644074334619" lon="17.872497214682">
        <ele>128.6</ele>
        <time>2018-02-10T10:58:35Z</time>
      </trkpt>
      <trkpt lat="62.644077435922" lon="17.872440301581">
        <ele>128.8</ele>
        <time>2018-02-10T10:58:36Z</time>
      </trkpt>
      <trkpt lat="62.64407927994" lon="17.872395793692">
        <ele>129.2</ele>
        <time>2018-02-10T10:58:37Z</time>
      </trkpt>
      <trkpt lat="62.644077352103" lon="17.872354387106">
        <ele>129.4</ele>
        <time>2018-02-10T10:58:38Z</time>
      </trkpt>
      <trkpt lat="62.644074586076" lon="17.872275597246">
        <ele>129.8</ele>
        <time>2018-02-10T10:58:39Z</time>
      </trkpt>
      <trkpt lat="62.644072825877" lon="17.872243662207">
        <ele>129.8</ele>
        <time>2018-02-10T10:58:40Z</time>
      </trkpt>
      <trkpt lat="62.644071233316" lon="17.872167889831">
        <ele>130</ele>
        <time>2018-02-10T10:58:41Z</time>
      </trkpt>
      <trkpt lat="62.644068048194" lon="17.872134362231">
        <ele>129.8</ele>
        <time>2018-02-10T10:58:42Z</time>
      </trkpt>
      <trkpt lat="62.644052960774" lon="17.87205900895">
        <ele>130</ele>
        <time>2018-02-10T10:58:43Z</time>
      </trkpt>
      <trkpt lat="62.644048518367" lon="17.872015842165">
        <ele>129.8</ele>
        <time>2018-02-10T10:58:44Z</time>
      </trkpt>
      <trkpt lat="62.644040639381" lon="17.871930179147">
        <ele>129.8</ele>
        <time>2018-02-10T10:58:45Z</time>
      </trkpt>
      <trkpt lat="62.644031922205" lon="17.871871673485">
        <ele>129.8</ele>
        <time>2018-02-10T10:58:46Z</time>
      </trkpt>
      <trkpt lat="62.644026054875" lon="17.871817777868">
        <ele>129.8</ele>
        <time>2018-02-10T10:58:47Z</time>
      </trkpt>
      <trkpt lat="62.644010883636" lon="17.871759523663">
        <ele>129.8</ele>
        <time>2018-02-10T10:58:48Z</time>
      </trkpt>
      <trkpt lat="62.643998562243" lon="17.87171451286">
        <ele>129.8</ele>
        <time>2018-02-10T10:58:49Z</time>
      </trkpt>
      <trkpt lat="62.643977607493" lon="17.871640333045">
        <ele>129.6</ele>
        <time>2018-02-10T10:58:50Z</time>
      </trkpt>
      <trkpt lat="62.643981295529" lon="17.871575121863">
        <ele>129.4</ele>
        <time>2018-02-10T10:58:51Z</time>
      </trkpt>
      <trkpt lat="62.643964699367" lon="17.871520388056">
        <ele>129.2</ele>
        <time>2018-02-10T10:58:52Z</time>
      </trkpt>
      <trkpt lat="62.643945588635" lon="17.871480071117">
        <ele>129.2</ele>
        <time>2018-02-10T10:58:53Z</time>
      </trkpt>
      <trkpt lat="62.643933351061" lon="17.871423241835">
        <ele>129</ele>
        <time>2018-02-10T10:58:54Z</time>
      </trkpt>
      <trkpt lat="62.643913150682" lon="17.871365322906">
        <ele>129.2</ele>
        <time>2018-02-10T10:58:55Z</time>
      </trkpt>
      <trkpt lat="62.643907618628" lon="17.871312014022">
        <ele>129.6</ele>
        <time>2018-02-10T10:58:56Z</time>
      </trkpt>
      <trkpt lat="62.643884736041" lon="17.871260632975">
        <ele>129.6</ele>
        <time>2018-02-10T10:58:57Z</time>
      </trkpt>
      <trkpt lat="62.64387643796" lon="17.871211515041">
        <ele>129.8</ele>
        <time>2018-02-10T10:58:58Z</time>
      </trkpt>
      <trkpt lat="62.643854812658" lon="17.87113448538">
        <ele>129.8</ele>
        <time>2018-02-10T10:58:59Z</time>
      </trkpt>
      <trkpt lat="62.643848023319" lon="17.87108670855">
        <ele>129.6</ele>
        <time>2018-02-10T10:59:00Z</time>
      </trkpt>
      <trkpt lat="62.643829750777" lon="17.871019820988">
        <ele>129.6</ele>
        <time>2018-02-10T10:59:01Z</time>
      </trkpt>
      <trkpt lat="62.643817094108" lon="17.8709819348">
        <ele>129.4</ele>
        <time>2018-02-10T10:59:02Z</time>
      </trkpt>
      <trkpt lat="62.643803012516" lon="17.87091404141">
        <ele>129.4</ele>
        <time>2018-02-10T10:59:03Z</time>
      </trkpt>
      <trkpt lat="62.643792116046" lon="17.870865594028">
        <ele>129.4</ele>
        <time>2018-02-10T10:59:04Z</time>
      </trkpt>
      <trkpt lat="62.643782141585" lon="17.870800131389">
        <ele>129.4</ele>
        <time>2018-02-10T10:59:05Z</time>
      </trkpt>
      <trkpt lat="62.643778118273" lon="17.870741206632">
        <ele>129.4</ele>
        <time>2018-02-10T10:59:06Z</time>
      </trkpt>
      <trkpt lat="62.643770574563" lon="17.870682952427">
        <ele>129.6</ele>
        <time>2018-02-10T10:59:07Z</time>
      </trkpt>
      <trkpt lat="62.643760348645" lon="17.87063660052">
        <ele>129.6</ele>
        <time>2018-02-10T10:59:08Z</time>
      </trkpt>
      <trkpt lat="62.64374819489" lon="17.870564348542">
        <ele>129.6</ele>
        <time>2018-02-10T10:59:09Z</time>
      </trkpt>
      <trkpt lat="62.643727491597" lon="17.870483127931">
        <ele>129.6</ele>
        <time>2018-02-10T10:59:10Z</time>
      </trkpt>
      <trkpt lat="62.643721037534" lon="17.870425628097">
        <ele>129.6</ele>
        <time>2018-02-10T10:59:11Z</time>
      </trkpt>
      <trkpt lat="62.643711565987" lon="17.870353879033">
        <ele>129.6</ele>
        <time>2018-02-10T10:59:12Z</time>
      </trkpt>
      <trkpt lat="62.643720283163" lon="17.870332169912">
        <ele>129.6</ele>
        <time>2018-02-10T10:59:13Z</time>
      </trkpt>
      <trkpt lat="62.643719864068" lon="17.870246674532">
        <ele>129.6</ele>
        <time>2018-02-10T10:59:14Z</time>
      </trkpt>
      <trkpt lat="62.643711733625" lon="17.870181966264">
        <ele>129.6</ele>
        <time>2018-02-10T10:59:15Z</time>
      </trkpt>
      <trkpt lat="62.643715086385" lon="17.870130669036">
        <ele>129.4</ele>
        <time>2018-02-10T10:59:16Z</time>
      </trkpt>
      <trkpt lat="62.643713493824" lon="17.870092782848">
        <ele>129.4</ele>
        <time>2018-02-10T10:59:17Z</time>
      </trkpt>
      <trkpt lat="62.643711063073" lon="17.870051208624">
        <ele>129.4</ele>
        <time>2018-02-10T10:59:18Z</time>
      </trkpt>
      <trkpt lat="62.643711649806" lon="17.869974178963">
        <ele>129.4</ele>
        <time>2018-02-10T10:59:19Z</time>
      </trkpt>
      <trkpt lat="62.643726318131" lon="17.869910225066">
        <ele>129.4</ele>
        <time>2018-02-10T10:59:20Z</time>
      </trkpt>
      <trkpt lat="62.643728413606" lon="17.869855994173">
        <ele>129.4</ele>
        <time>2018-02-10T10:59:21Z</time>
      </trkpt>
      <trkpt lat="62.643730257624" lon="17.869780305616">
        <ele>129.4</ele>
        <time>2018-02-10T10:59:22Z</time>
      </trkpt>
      <trkpt lat="62.643738555705" lon="17.869748789672">
        <ele>129.6</ele>
        <time>2018-02-10T10:59:23Z</time>
      </trkpt>
      <trkpt lat="62.643743668664" lon="17.869653068374">
        <ele>129.8</ele>
        <time>2018-02-10T10:59:24Z</time>
      </trkpt>
      <trkpt lat="62.643749368356" lon="17.869609398675">
        <ele>129.8</ele>
        <time>2018-02-10T10:59:25Z</time>
      </trkpt>
      <trkpt lat="62.643755906238" lon="17.869534296851">
        <ele>129.8</ele>
        <time>2018-02-10T10:59:26Z</time>
      </trkpt>
      <trkpt lat="62.643751966745" lon="17.86945726719">
        <ele>129.8</ele>
        <time>2018-02-10T10:59:27Z</time>
      </trkpt>
      <trkpt lat="62.643757834075" lon="17.869412424025">
        <ele>129.8</ele>
        <time>2018-02-10T10:59:28Z</time>
      </trkpt>
      <trkpt lat="62.643757331161" lon="17.869328772663">
        <ele>129.8</ele>
        <time>2018-02-10T10:59:29Z</time>
      </trkpt>
      <trkpt lat="62.643760432464" lon="17.869284180955">
        <ele>129.6</ele>
        <time>2018-02-10T10:59:30Z</time>
      </trkpt>
      <trkpt lat="62.643762779396" lon="17.869246713862">
        <ele>129.6</ele>
        <time>2018-02-10T10:59:31Z</time>
      </trkpt>
      <trkpt lat="62.643754146039" lon="17.86917479716">
        <ele>129.4</ele>
        <time>2018-02-10T10:59:32Z</time>
      </trkpt>
      <trkpt lat="62.643745847958" lon="17.869128026158">
        <ele>129.4</ele>
        <time>2018-02-10T10:59:33Z</time>
      </trkpt>
      <trkpt lat="62.643747524338" lon="17.869082093346">
        <ele>129.4</ele>
        <time>2018-02-10T10:59:34Z</time>
      </trkpt>
      <trkpt lat="62.643734700031" lon="17.869016043974">
        <ele>129.6</ele>
        <time>2018-02-10T10:59:35Z</time>
      </trkpt>
      <trkpt lat="62.643730928176" lon="17.86897530794">
        <ele>129.8</ele>
        <time>2018-02-10T10:59:36Z</time>
      </trkpt>
      <trkpt lat="62.643724557932" lon="17.868881682117">
        <ele>130</ele>
        <time>2018-02-10T10:59:37Z</time>
      </trkpt>
      <trkpt lat="62.643727659235" lon="17.868800796782">
        <ele>130.2</ele>
        <time>2018-02-10T10:59:38Z</time>
      </trkpt>
      <trkpt lat="62.64372724014" lon="17.868735417962">
        <ele>130.4</ele>
        <time>2018-02-10T10:59:39Z</time>
      </trkpt>
      <trkpt lat="62.643710560159" lon="17.868640702492">
        <ele>130.4</ele>
        <time>2018-02-10T10:59:40Z</time>
      </trkpt>
      <trkpt lat="62.643691533246" lon="17.868573647292">
        <ele>130.2</ele>
        <time>2018-02-10T10:59:41Z</time>
      </trkpt>
      <trkpt lat="62.643671751962" lon="17.868479518555">
        <ele>130</ele>
        <time>2018-02-10T10:59:42Z</time>
      </trkpt>
      <trkpt lat="62.643688851038" lon="17.868388910216">
        <ele>129.8</ele>
        <time>2018-02-10T10:59:43Z</time>
      </trkpt>
      <trkpt lat="62.643679547129" lon="17.868298972429">
        <ele>129.8</ele>
        <time>2018-02-10T10:59:44Z</time>
      </trkpt>
      <trkpt lat="62.643660017302" lon="17.868212135945">
        <ele>129.6</ele>
        <time>2018-02-10T10:59:45Z</time>
      </trkpt>
      <trkpt lat="62.643652976506" lon="17.868141560347">
        <ele>129.4</ele>
        <time>2018-02-10T10:59:46Z</time>
      </trkpt>
      <trkpt lat="62.643633446679" lon="17.868073080224">
        <ele>129.4</ele>
        <time>2018-02-10T10:59:47Z</time>
      </trkpt>
      <trkpt lat="62.643624645684" lon="17.868055981148">
        <ele>129.4</ele>
        <time>2018-02-10T10:59:48Z</time>
      </trkpt>
      <trkpt lat="62.643612659567" lon="17.867956739452">
        <ele>129.4</ele>
        <time>2018-02-10T10:59:49Z</time>
      </trkpt>
      <trkpt lat="62.643609642083" lon="17.867858252127">
        <ele>129.4</ele>
        <time>2018-02-10T10:59:50Z</time>
      </trkpt>
      <trkpt lat="62.643595392853" lon="17.867806954899">
        <ele>129.2</ele>
        <time>2018-02-10T10:59:51Z</time>
      </trkpt>
      <trkpt lat="62.643578293777" lon="17.867719783139">
        <ele>129</ele>
        <time>2018-02-10T10:59:52Z</time>
      </trkpt>
      <trkpt lat="62.643563122538" lon="17.867671587214">
        <ele>128.8</ele>
        <time>2018-02-10T10:59:53Z</time>
      </trkpt>
      <trkpt lat="62.643566894393" lon="17.867557174279">
        <ele>128.8</ele>
        <time>2018-02-10T10:59:54Z</time>
      </trkpt>
      <trkpt lat="62.643573683732" lon="17.867486933957">
        <ele>128.6</ele>
        <time>2018-02-10T10:59:55Z</time>
      </trkpt>
      <trkpt lat="62.643591034265" lon="17.867375873782">
        <ele>128.6</ele>
        <time>2018-02-10T10:59:56Z</time>
      </trkpt>
      <trkpt lat="62.643616431422" lon="17.867273027869">
        <ele>128.6</ele>
        <time>2018-02-10T10:59:57Z</time>
      </trkpt>
      <trkpt lat="62.64364761209" lon="17.867183006263">
        <ele>128.4</ele>
        <time>2018-02-10T10:59:58Z</time>
      </trkpt>
      <trkpt lat="62.6436970653" lon="17.867090889182">
        <ele>128</ele>
        <time>2018-02-10T10:59:59Z</time>
      </trkpt>
      <trkpt lat="62.643743249569" lon="17.867017882833">
        <ele>127.4</ele>
        <time>2018-02-10T11:00:00Z</time>
      </trkpt>
      <trkpt lat="62.643780549024" lon="17.866952504013">
        <ele>126.8</ele>
        <time>2018-02-10T11:00:01Z</time>
      </trkpt>
      <trkpt lat="62.643812316425" lon="17.866881676958">
        <ele>126</ele>
        <time>2018-02-10T11:00:02Z</time>
      </trkpt>
      <trkpt lat="62.643829918415" lon="17.866835325051">
        <ele>125.4</ele>
        <time>2018-02-10T11:00:03Z</time>
      </trkpt>
      <trkpt lat="62.643848526233" lon="17.866791906809">
        <ele>125.2</ele>
        <time>2018-02-10T11:00:04Z</time>
      </trkpt>
      <trkpt lat="62.643869816259" lon="17.866765420005">
        <ele>125.2</ele>
        <time>2018-02-10T11:00:05Z</time>
      </trkpt>
      <trkpt lat="62.643885909507" lon="17.866741615409">
        <ele>125.4</ele>
        <time>2018-02-10T11:00:06Z</time>
      </trkpt>
      <trkpt lat="62.643901667479" lon="17.866709764189">
        <ele>125.8</ele>
        <time>2018-02-10T11:00:07Z</time>
      </trkpt>
      <trkpt lat="62.643917341632" lon="17.866688222706">
        <ele>126.2</ele>
        <time>2018-02-10T11:00:08Z</time>
      </trkpt>
      <trkpt lat="62.643924382428" lon="17.866656706762">
        <ele>126.4</ele>
        <time>2018-02-10T11:00:09Z</time>
      </trkpt>
      <trkpt lat="62.643939469848" lon="17.866629717044">
        <ele>126.8</ele>
        <time>2018-02-10T11:00:10Z</time>
      </trkpt>
      <trkpt lat="62.643943828436" lon="17.866608175561">
        <ele>127.2</ele>
        <time>2018-02-10T11:00:11Z</time>
      </trkpt>
      <trkpt lat="62.643962855349" lon="17.866576827255">
        <ele>127.4</ele>
        <time>2018-02-10T11:00:12Z</time>
      </trkpt>
      <trkpt lat="62.643982217538" lon="17.866526619674">
        <ele>127.8</ele>
        <time>2018-02-10T11:00:13Z</time>
      </trkpt>
      <trkpt lat="62.643995963854" lon="17.866494600816">
        <ele>128.2</ele>
        <time>2018-02-10T11:00:14Z</time>
      </trkpt>
      <trkpt lat="62.644007782333" lon="17.8664640907">
        <ele>128.4</ele>
        <time>2018-02-10T11:00:15Z</time>
      </trkpt>
      <trkpt lat="62.644021109554" lon="17.866434167317">
        <ele>128.8</ele>
        <time>2018-02-10T11:00:16Z</time>
      </trkpt>
      <trkpt lat="62.644030916377" lon="17.866400136803">
        <ele>129.2</ele>
        <time>2018-02-10T11:00:17Z</time>
      </trkpt>
      <trkpt lat="62.64404239958" lon="17.866363256443">
        <ele>129.4</ele>
        <time>2018-02-10T11:00:18Z</time>
      </trkpt>
      <trkpt lat="62.644049524195" lon="17.866324783522">
        <ele>129.8</ele>
        <time>2018-02-10T11:00:19Z</time>
      </trkpt>
      <trkpt lat="62.64406083976" lon="17.866261919272">
        <ele>130.2</ele>
        <time>2018-02-10T11:00:20Z</time>
      </trkpt>
      <trkpt lat="62.644078860845" lon="17.866215483546">
        <ele>130.4</ele>
        <time>2018-02-10T11:00:21Z</time>
      </trkpt>
      <trkpt lat="62.644083722347" lon="17.866153038391">
        <ele>130.6</ele>
        <time>2018-02-10T11:00:22Z</time>
      </trkpt>
      <trkpt lat="62.644088248573" lon="17.866131916003">
        <ele>130.8</ele>
        <time>2018-02-10T11:00:23Z</time>
      </trkpt>
      <trkpt lat="62.644092020428" lon="17.866099645688">
        <ele>131</ele>
        <time>2018-02-10T11:00:24Z</time>
      </trkpt>
      <trkpt lat="62.644106353477" lon="17.866038457818">
        <ele>131.2</ele>
        <time>2018-02-10T11:00:25Z</time>
      </trkpt>
      <trkpt lat="62.644112891359" lon="17.865998392336">
        <ele>131.4</ele>
        <time>2018-02-10T11:00:26Z</time>
      </trkpt>
      <trkpt lat="62.644121943811" lon="17.86595363299">
        <ele>131.4</ele>
        <time>2018-02-10T11:00:27Z</time>
      </trkpt>
      <trkpt lat="62.644127978779" lon="17.865913064594">
        <ele>131.6</ele>
        <time>2018-02-10T11:00:28Z</time>
      </trkpt>
      <trkpt lat="62.644140216353" lon="17.86586729942">
        <ele>131.8</ele>
        <time>2018-02-10T11:00:29Z</time>
      </trkpt>
      <trkpt lat="62.64415974618" lon="17.865829664689">
        <ele>131.8</ele>
        <time>2018-02-10T11:00:30Z</time>
      </trkpt>
      <trkpt lat="62.644174582143" lon="17.86578012766">
        <ele>131.8</ele>
        <time>2018-02-10T11:00:31Z</time>
      </trkpt>
      <trkpt lat="62.644187909364" lon="17.865723382197">
        <ele>132</ele>
        <time>2018-02-10T11:00:32Z</time>
      </trkpt>
      <trkpt lat="62.644194614884" lon="17.865696895393">
        <ele>132.2</ele>
        <time>2018-02-10T11:00:33Z</time>
      </trkpt>
      <trkpt lat="62.64420500844" lon="17.86564685545">
        <ele>132</ele>
        <time>2018-02-10T11:00:34Z</time>
      </trkpt>
      <trkpt lat="62.644233255443" lon="17.865588601245">
        <ele>132.2</ele>
        <time>2018-02-10T11:00:35Z</time>
      </trkpt>
      <trkpt lat="62.644248426682" lon="17.865548200487">
        <ele>132.4</ele>
        <time>2018-02-10T11:00:36Z</time>
      </trkpt>
      <trkpt lat="62.644302741394" lon="17.865481145287">
        <ele>132.6</ele>
        <time>2018-02-10T11:00:37Z</time>
      </trkpt>
      <trkpt lat="62.64432654599" lon="17.865444516384">
        <ele>132.6</ele>
        <time>2018-02-10T11:00:38Z</time>
      </trkpt>
      <trkpt lat="62.644337777736" lon="17.865406462558">
        <ele>132.8</ele>
        <time>2018-02-10T11:00:39Z</time>
      </trkpt>
      <trkpt lat="62.644365438006" lon="17.865354159502">
        <ele>133</ele>
        <time>2018-02-10T11:00:40Z</time>
      </trkpt>
      <trkpt lat="62.644383878186" lon="17.865300934437">
        <ele>133</ele>
        <time>2018-02-10T11:00:41Z</time>
      </trkpt>
      <trkpt lat="62.644393182095" lon="17.865263467344">
        <ele>133</ele>
        <time>2018-02-10T11:00:42Z</time>
      </trkpt>
      <trkpt lat="62.644409359162" lon="17.865230442658">
        <ele>133</ele>
        <time>2018-02-10T11:00:43Z</time>
      </trkpt>
      <trkpt lat="62.644419752718" lon="17.865166488761">
        <ele>133</ele>
        <time>2018-02-10T11:00:44Z</time>
      </trkpt>
      <trkpt lat="62.644418830709" lon="17.865113431334">
        <ele>133.2</ele>
        <time>2018-02-10T11:00:45Z</time>
      </trkpt>
      <trkpt lat="62.644422015831" lon="17.865046459953">
        <ele>133.2</ele>
        <time>2018-02-10T11:00:46Z</time>
      </trkpt>
      <trkpt lat="62.6444179087" lon="17.865013267629">
        <ele>133.4</ele>
        <time>2018-02-10T11:00:47Z</time>
      </trkpt>
      <trkpt lat="62.644419249804" lon="17.864956857442">
        <ele>133.6</ele>
        <time>2018-02-10T11:00:48Z</time>
      </trkpt>
      <trkpt lat="62.644403408013" lon="17.864911092268">
        <ele>133.6</ele>
        <time>2018-02-10T11:00:49Z</time>
      </trkpt>
      <trkpt lat="62.64439779214" lon="17.864855855547">
        <ele>133.6</ele>
        <time>2018-02-10T11:00:50Z</time>
      </trkpt>
      <trkpt lat="62.644376334476" lon="17.864805228871">
        <ele>133.6</ele>
        <time>2018-02-10T11:00:51Z</time>
      </trkpt>
      <trkpt lat="62.644374155182" lon="17.864745214467">
        <ele>133.6</ele>
        <time>2018-02-10T11:00:52Z</time>
      </trkpt>
      <trkpt lat="62.644366443834" lon="17.864694587791">
        <ele>133.8</ele>
        <time>2018-02-10T11:00:53Z</time>
      </trkpt>
      <trkpt lat="62.644358648667" lon="17.864645134581">
        <ele>133.6</ele>
        <time>2018-02-10T11:00:54Z</time>
      </trkpt>
      <trkpt lat="62.644355966459" lon="17.864577744105">
        <ele>133.6</ele>
        <time>2018-02-10T11:00:55Z</time>
      </trkpt>
      <trkpt lat="62.644353703346" lon="17.864530470189">
        <ele>133.4</ele>
        <time>2018-02-10T11:00:56Z</time>
      </trkpt>
      <trkpt lat="62.644368371671" lon="17.864487806318">
        <ele>133.4</ele>
        <time>2018-02-10T11:00:57Z</time>
      </trkpt>
      <trkpt lat="62.644379938693" lon="17.864472048346">
        <ele>133.2</ele>
        <time>2018-02-10T11:00:58Z</time>
      </trkpt>
      <trkpt lat="62.644394104104" lon="17.864439358936">
        <ele>133.2</ele>
        <time>2018-02-10T11:00:59Z</time>
      </trkpt>
      <trkpt lat="62.644415561768" lon="17.86440717244">
        <ele>133.2</ele>
        <time>2018-02-10T11:01:00Z</time>
      </trkpt>
      <trkpt lat="62.644430146274" lon="17.864371800822">
        <ele>133.8</ele>
        <time>2018-02-10T11:01:01Z</time>
      </trkpt>
      <trkpt lat="62.644445736608" lon="17.864346236027">
        <ele>134</ele>
        <time>2018-02-10T11:01:02Z</time>
      </trkpt>
      <trkpt lat="62.644461578399" lon="17.86432754439">
        <ele>134.2</ele>
        <time>2018-02-10T11:01:03Z</time>
      </trkpt>
      <trkpt lat="62.644475157077" lon="17.864301309043">
        <ele>134.4</ele>
        <time>2018-02-10T11:01:04Z</time>
      </trkpt>
      <trkpt lat="62.644489406307" lon="17.864277923542">
        <ele>134.4</ele>
        <time>2018-02-10T11:01:05Z</time>
      </trkpt>
      <trkpt lat="62.64448664028" lon="17.864287562727">
        <ele>134.4</ele>
        <time>2018-02-10T11:01:06Z</time>
      </trkpt>
      <trkpt lat="62.644504912822" lon="17.864250766186">
        <ele>134.4</ele>
        <time>2018-02-10T11:01:07Z</time>
      </trkpt>
      <trkpt lat="62.64452435883" lon="17.864223022097">
        <ele>134.6</ele>
        <time>2018-02-10T11:01:08Z</time>
      </trkpt>
      <trkpt lat="62.644538356603" lon="17.86420516865">
        <ele>134.6</ele>
        <time>2018-02-10T11:01:09Z</time>
      </trkpt>
      <trkpt lat="62.644546738503" lon="17.864198546949">
        <ele>134.8</ele>
        <time>2018-02-10T11:01:10Z</time>
      </trkpt>
      <trkpt lat="62.644566184511" lon="17.864179687674">
        <ele>135.2</ele>
        <time>2018-02-10T11:01:11Z</time>
      </trkpt>
      <trkpt lat="62.644572051841" lon="17.864170719041">
        <ele>135.4</ele>
        <time>2018-02-10T11:01:12Z</time>
      </trkpt>
      <trkpt lat="62.644581271931" lon="17.864160828399">
        <ele>135.4</ele>
        <time>2018-02-10T11:01:13Z</time>
      </trkpt>
      <trkpt lat="62.644585630519" lon="17.864169461756">
        <ele>135.6</ele>
        <time>2018-02-10T11:01:14Z</time>
      </trkpt>
      <trkpt lat="62.64460147231" lon="17.864147165902">
        <ele>135.8</ele>
        <time>2018-02-10T11:01:15Z</time>
      </trkpt>
      <trkpt lat="62.644624438716" lon="17.864133251948">
        <ele>136.2</ele>
        <time>2018-02-10T11:01:16Z</time>
      </trkpt>
      <trkpt lat="62.644635670462" lon="17.864119840908">
        <ele>136.6</ele>
        <time>2018-02-10T11:01:17Z</time>
      </trkpt>
      <trkpt lat="62.644648159493" lon="17.8641087768">
        <ele>136.8</ele>
        <time>2018-02-10T11:01:18Z</time>
      </trkpt>
      <trkpt lat="62.644662743999" lon="17.864101149271">
        <ele>137.2</ele>
        <time>2018-02-10T11:01:19Z</time>
      </trkpt>
      <trkpt lat="62.644673975745" lon="17.864094862846">
        <ele>137.4</ele>
        <time>2018-02-10T11:01:20Z</time>
      </trkpt>
      <trkpt lat="62.644680345989" lon="17.864088827878">
        <ele>137.8</ele>
        <time>2018-02-10T11:01:21Z</time>
      </trkpt>
      <trkpt lat="62.644695852504" lon="17.864091845362">
        <ele>138.2</ele>
        <time>2018-02-10T11:01:22Z</time>
      </trkpt>
      <trkpt lat="62.644706665155" lon="17.86409033662">
        <ele>138.4</ele>
        <time>2018-02-10T11:01:23Z</time>
      </trkpt>
      <trkpt lat="62.644718148358" lon="17.86408698386">
        <ele>138.6</ele>
        <time>2018-02-10T11:01:24Z</time>
      </trkpt>
      <trkpt lat="62.64472887719" lon="17.864092599733">
        <ele>139</ele>
        <time>2018-02-10T11:01:25Z</time>
      </trkpt>
      <trkpt lat="62.644735917986" lon="17.864081703263">
        <ele>139.2</ele>
        <time>2018-02-10T11:01:26Z</time>
      </trkpt>
      <trkpt lat="62.644739689841" lon="17.8640668673">
        <ele>139.6</ele>
        <time>2018-02-10T11:01:27Z</time>
      </trkpt>
      <trkpt lat="62.644748239379" lon="17.864061251427">
        <ele>139.6</ele>
        <time>2018-02-10T11:01:28Z</time>
      </trkpt>
      <trkpt lat="62.644751927415" lon="17.864060077961">
        <ele>139.8</ele>
        <time>2018-02-10T11:01:29Z</time>
      </trkpt>
      <trkpt lat="62.644759554944" lon="17.864051193147">
        <ele>140</ele>
        <time>2018-02-10T11:01:30Z</time>
      </trkpt>
      <trkpt lat="62.644782605169" lon="17.864049349129">
        <ele>140.2</ele>
        <time>2018-02-10T11:01:31Z</time>
      </trkpt>
      <trkpt lat="62.644802889367" lon="17.864033423519">
        <ele>140.4</ele>
        <time>2018-02-10T11:01:32Z</time>
      </trkpt>
      <trkpt lat="62.644813366742" lon="17.864019425746">
        <ele>140.4</ele>
        <time>2018-02-10T11:01:33Z</time>
      </trkpt>
      <trkpt lat="62.64482778361" lon="17.864012133493">
        <ele>140.4</ele>
        <time>2018-02-10T11:01:34Z</time>
      </trkpt>
      <trkpt lat="62.644843122487" lon="17.864009954199">
        <ele>140.6</ele>
        <time>2018-02-10T11:01:35Z</time>
      </trkpt>
      <trkpt lat="62.644857204079" lon="17.864012720226">
        <ele>140.8</ele>
        <time>2018-02-10T11:01:36Z</time>
      </trkpt>
      <trkpt lat="62.644870279843" lon="17.86400567943">
        <ele>141</ele>
        <time>2018-02-10T11:01:37Z</time>
      </trkpt>
      <trkpt lat="62.644880505761" lon="17.863990759648">
        <ele>141.4</ele>
        <time>2018-02-10T11:01:38Z</time>
      </trkpt>
      <trkpt lat="62.644891234593" lon="17.863975253133">
        <ele>141.8</ele>
        <time>2018-02-10T11:01:39Z</time>
      </trkpt>
      <trkpt lat="62.644902298701" lon="17.863967709423">
        <ele>142</ele>
        <time>2018-02-10T11:01:40Z</time>
      </trkpt>
      <trkpt lat="62.644922415261" lon="17.863948011958">
        <ele>142.2</ele>
        <time>2018-02-10T11:01:41Z</time>
      </trkpt>
      <trkpt lat="62.644942867097" lon="17.86394365337">
        <ele>142.4</ele>
        <time>2018-02-10T11:01:42Z</time>
      </trkpt>
      <trkpt lat="62.644964995313" lon="17.863931751072">
        <ele>142.6</ele>
        <time>2018-02-10T11:01:43Z</time>
      </trkpt>
      <trkpt lat="62.644982681122" lon="17.863921608973">
        <ele>143</ele>
        <time>2018-02-10T11:01:44Z</time>
      </trkpt>
      <trkpt lat="62.644996595076" lon="17.863915490186">
        <ele>143.2</ele>
        <time>2018-02-10T11:01:45Z</time>
      </trkpt>
      <trkpt lat="62.645007659184" lon="17.863914484358">
        <ele>143.6</ele>
        <time>2018-02-10T11:01:46Z</time>
      </trkpt>
      <trkpt lat="62.645027440468" lon="17.863907275924">
        <ele>143.8</ele>
        <time>2018-02-10T11:01:47Z</time>
      </trkpt>
      <trkpt lat="62.645036325282" lon="17.863898977843">
        <ele>144</ele>
        <time>2018-02-10T11:01:48Z</time>
      </trkpt>
      <trkpt lat="62.64504822758" lon="17.863886237355">
        <ele>144.2</ele>
        <time>2018-02-10T11:01:49Z</time>
      </trkpt>
      <trkpt lat="62.64505409491" lon="17.863868300089">
        <ele>144.6</ele>
        <time>2018-02-10T11:01:50Z</time>
      </trkpt>
      <trkpt lat="62.645068260321" lon="17.863848602624">
        <ele>144.8</ele>
        <time>2018-02-10T11:01:51Z</time>
      </trkpt>
      <trkpt lat="62.645076223126" lon="17.863837538516">
        <ele>145.2</ele>
        <time>2018-02-10T11:01:52Z</time>
      </trkpt>
      <trkpt lat="62.645089717985" lon="17.863836532688">
        <ele>145.2</ele>
        <time>2018-02-10T11:01:53Z</time>
      </trkpt>
      <trkpt lat="62.645104637767" lon="17.863821445268">
        <ele>145.4</ele>
        <time>2018-02-10T11:01:54Z</time>
      </trkpt>
      <trkpt lat="62.645115031323" lon="17.863812476635">
        <ele>145.6</ele>
        <time>2018-02-10T11:01:55Z</time>
      </trkpt>
      <trkpt lat="62.64512366468" lon="17.86380116107">
        <ele>145.6</ele>
        <time>2018-02-10T11:01:56Z</time>
      </trkpt>
      <trkpt lat="62.645131627485" lon="17.863792946808">
        <ele>145.6</ele>
        <time>2018-02-10T11:01:57Z</time>
      </trkpt>
      <trkpt lat="62.645139422652" lon="17.863786157469">
        <ele>145.6</ele>
        <time>2018-02-10T11:01:58Z</time>
      </trkpt>
      <trkpt lat="62.645153671882" lon="17.863774003714">
        <ele>146</ele>
        <time>2018-02-10T11:01:59Z</time>
      </trkpt>
      <trkpt lat="62.645168591664" lon="17.863773919895">
        <ele>146.4</ele>
        <time>2018-02-10T11:02:00Z</time>
      </trkpt>
      <trkpt lat="62.645193737364" lon="17.863776937379">
        <ele>146.6</ele>
        <time>2018-02-10T11:02:01Z</time>
      </trkpt>
      <trkpt lat="62.645204382377" lon="17.863775009542">
        <ele>147</ele>
        <time>2018-02-10T11:02:02Z</time>
      </trkpt>
      <trkpt lat="62.645215697942" lon="17.863775344818">
        <ele>147.4</ele>
        <time>2018-02-10T11:02:03Z</time>
      </trkpt>
      <trkpt lat="62.645230701543" lon="17.863765035081">
        <ele>147.8</ele>
        <time>2018-02-10T11:02:04Z</time>
      </trkpt>
      <trkpt lat="62.645250901922" lon="17.863751288765">
        <ele>148.2</ele>
        <time>2018-02-10T11:02:05Z</time>
      </trkpt>
      <trkpt lat="62.645269845016" lon="17.863733016223">
        <ele>148.4</ele>
        <time>2018-02-10T11:02:06Z</time>
      </trkpt>
      <trkpt lat="62.645296080363" lon="17.863735027879">
        <ele>148.4</ele>
        <time>2018-02-10T11:02:07Z</time>
      </trkpt>
      <trkpt lat="62.645314185267" lon="17.863721952115">
        <ele>148.6</ele>
        <time>2018-02-10T11:02:08Z</time>
      </trkpt>
      <trkpt lat="62.645337151673" lon="17.863725304875">
        <ele>148.6</ele>
        <time>2018-02-10T11:02:09Z</time>
      </trkpt>
      <trkpt lat="62.645350562713" lon="17.863716084785">
        <ele>148.6</ele>
        <time>2018-02-10T11:02:10Z</time>
      </trkpt>
      <trkpt lat="62.645363722296" lon="17.863699404804">
        <ele>148.6</ele>
        <time>2018-02-10T11:02:11Z</time>
      </trkpt>
      <trkpt lat="62.645382246295" lon="17.863688508334">
        <ele>148.8</ele>
        <time>2018-02-10T11:02:12Z</time>
      </trkpt>
      <trkpt lat="62.645399093914" lon="17.863673001819">
        <ele>148.8</ele>
        <time>2018-02-10T11:02:13Z</time>
      </trkpt>
      <trkpt lat="62.645421557406" lon="17.863650370689">
        <ele>149</ele>
        <time>2018-02-10T11:02:14Z</time>
      </trkpt>
      <trkpt lat="62.645434046437" lon="17.863628745387">
        <ele>149.2</ele>
        <time>2018-02-10T11:02:15Z</time>
      </trkpt>
      <trkpt lat="62.645455168825" lon="17.863597564719">
        <ele>149.4</ele>
        <time>2018-02-10T11:02:16Z</time>
      </trkpt>
      <trkpt lat="62.645464305096" lon="17.863568060431">
        <ele>149.8</ele>
        <time>2018-02-10T11:02:17Z</time>
      </trkpt>
      <trkpt lat="62.645470172426" lon="17.863544926387">
        <ele>150</ele>
        <time>2018-02-10T11:02:18Z</time>
      </trkpt>
      <trkpt lat="62.645485678941" lon="17.863494970263">
        <ele>150.2</ele>
        <time>2018-02-10T11:02:19Z</time>
      </trkpt>
      <trkpt lat="62.645502023646" lon="17.863447947804">
        <ele>150.6</ele>
        <time>2018-02-10T11:02:20Z</time>
      </trkpt>
      <trkpt lat="62.645493557927" lon="17.86341140272">
        <ele>150.8</ele>
        <time>2018-02-10T11:02:21Z</time>
      </trkpt>
      <trkpt lat="62.645517530161" lon="17.863339150742">
        <ele>150.8</ele>
        <time>2018-02-10T11:02:22Z</time>
      </trkpt>
      <trkpt lat="62.645520463826" lon="17.863286009496">
        <ele>150.8</ele>
        <time>2018-02-10T11:02:23Z</time>
      </trkpt>
      <trkpt lat="62.645519960912" lon="17.86322532454">
        <ele>151</ele>
        <time>2018-02-10T11:02:24Z</time>
      </trkpt>
      <trkpt lat="62.645525325328" lon="17.863179307909">
        <ele>151</ele>
        <time>2018-02-10T11:02:25Z</time>
      </trkpt>
      <trkpt lat="62.645526414975" lon="17.863104373723">
        <ele>151</ele>
        <time>2018-02-10T11:02:26Z</time>
      </trkpt>
      <trkpt lat="62.645537143807" lon="17.863064140603">
        <ele>151</ele>
        <time>2018-02-10T11:02:27Z</time>
      </trkpt>
      <trkpt lat="62.645549800476" lon="17.863000773439">
        <ele>150.8</ele>
        <time>2018-02-10T11:02:28Z</time>
      </trkpt>
      <trkpt lat="62.645567234828" lon="17.86295710374">
        <ele>150.8</ele>
        <time>2018-02-10T11:02:29Z</time>
      </trkpt>
      <trkpt lat="62.645580562049" lon="17.862920642475">
        <ele>150.8</ele>
        <time>2018-02-10T11:02:30Z</time>
      </trkpt>
      <trkpt lat="62.645594978917" lon="17.862876972776">
        <ele>150.8</ele>
        <time>2018-02-10T11:02:31Z</time>
      </trkpt>
      <trkpt lat="62.645605204835" lon="17.862845456832">
        <ele>150.6</ele>
        <time>2018-02-10T11:02:32Z</time>
      </trkpt>
      <trkpt lat="62.64562071135" lon="17.862812013051">
        <ele>150.8</ele>
        <time>2018-02-10T11:02:33Z</time>
      </trkpt>
      <trkpt lat="62.645641414643" lon="17.86277940746">
        <ele>150.8</ele>
        <time>2018-02-10T11:02:34Z</time>
      </trkpt>
      <trkpt lat="62.645648790715" lon="17.862741856548">
        <ele>151</ele>
        <time>2018-02-10T11:02:35Z</time>
      </trkpt>
      <trkpt lat="62.645660441556" lon="17.862716962305">
        <ele>151.2</ele>
        <time>2018-02-10T11:02:36Z</time>
      </trkpt>
      <trkpt lat="62.645683324143" lon="17.862676729185">
        <ele>151.2</ele>
        <time>2018-02-10T11:02:37Z</time>
      </trkpt>
      <trkpt lat="62.645695561717" lon="17.862638926816">
        <ele>151.4</ele>
        <time>2018-02-10T11:02:38Z</time>
      </trkpt>
      <trkpt lat="62.645703859798" lon="17.862599699524">
        <ele>151.6</ele>
        <time>2018-02-10T11:02:39Z</time>
      </trkpt>
      <trkpt lat="62.645716348829" lon="17.862564244087">
        <ele>151.6</ele>
        <time>2018-02-10T11:02:40Z</time>
      </trkpt>
      <trkpt lat="62.645731100973" lon="17.862513533592">
        <ele>151.8</ele>
        <time>2018-02-10T11:02:41Z</time>
      </trkpt>
      <trkpt lat="62.645731771525" lon="17.862460727622">
        <ele>152</ele>
        <time>2018-02-10T11:02:42Z</time>
      </trkpt>
      <trkpt lat="62.645732274439" lon="17.862419656312">
        <ele>152</ele>
        <time>2018-02-10T11:02:43Z</time>
      </trkpt>
      <trkpt lat="62.645727077661" lon="17.862370957473">
        <ele>152.2</ele>
        <time>2018-02-10T11:02:44Z</time>
      </trkpt>
      <trkpt lat="62.645728502584" lon="17.862312451811">
        <ele>152.6</ele>
        <time>2018-02-10T11:02:45Z</time>
      </trkpt>
      <trkpt lat="62.645727748213" lon="17.862271631958">
        <ele>152.6</ele>
        <time>2018-02-10T11:02:46Z</time>
      </trkpt>
      <trkpt lat="62.64573302881" lon="17.862233494313">
        <ele>152.8</ele>
        <time>2018-02-10T11:02:47Z</time>
      </trkpt>
      <trkpt lat="62.645752474818" lon="17.86218680713">
        <ele>152.8</ele>
        <time>2018-02-10T11:02:48Z</time>
      </trkpt>
      <trkpt lat="62.645768568066" lon="17.862141880146">
        <ele>152.8</ele>
        <time>2018-02-10T11:02:49Z</time>
      </trkpt>
      <trkpt lat="62.645818859466" lon="17.86214657401">
        <ele>153</ele>
        <time>2018-02-10T11:02:51Z</time>
      </trkpt>
      <trkpt lat="62.645839814216" lon="17.862152273702">
        <ele>153.2</ele>
        <time>2018-02-10T11:02:52Z</time>
      </trkpt>
      <trkpt lat="62.645865043735" lon="17.862156967566">
        <ele>153.2</ele>
        <time>2018-02-10T11:02:53Z</time>
      </trkpt>
      <trkpt lat="62.645890859987" lon="17.862155375005">
        <ele>153.2</ele>
        <time>2018-02-10T11:02:54Z</time>
      </trkpt>
      <trkpt lat="62.645914832221" lon="17.862140622861">
        <ele>153.4</ele>
        <time>2018-02-10T11:02:55Z</time>
      </trkpt>
      <trkpt lat="62.645935954609" lon="17.862123859061">
        <ele>153.8</ele>
        <time>2018-02-10T11:02:56Z</time>
      </trkpt>
      <trkpt lat="62.645953808056" lon="17.862095528239">
        <ele>154</ele>
        <time>2018-02-10T11:02:57Z</time>
      </trkpt>
      <trkpt lat="62.645974176073" lon="17.862057055318">
        <ele>154.2</ele>
        <time>2018-02-10T11:02:58Z</time>
      </trkpt>
      <trkpt lat="62.645982138878" lon="17.862026209926">
        <ele>154.6</ele>
        <time>2018-02-10T11:02:59Z</time>
      </trkpt>
      <trkpt lat="62.645987335656" lon="17.861990586851">
        <ele>154.6</ele>
        <time>2018-02-10T11:03:00Z</time>
      </trkpt>
      <trkpt lat="62.646005692017" lon="17.861951611016">
        <ele>154.6</ele>
        <time>2018-02-10T11:03:01Z</time>
      </trkpt>
      <trkpt lat="62.646024467473" lon="17.861915485027">
        <ele>154.4</ele>
        <time>2018-02-10T11:03:02Z</time>
      </trkpt>
      <trkpt lat="62.646037543237" lon="17.86187835321">
        <ele>154.4</ele>
        <time>2018-02-10T11:03:03Z</time>
      </trkpt>
      <trkpt lat="62.646057324521" lon="17.861830157285">
        <ele>154.4</ele>
        <time>2018-02-10T11:03:04Z</time>
      </trkpt>
      <trkpt lat="62.646077776357" lon="17.86178196136">
        <ele>154.6</ele>
        <time>2018-02-10T11:03:05Z</time>
      </trkpt>
      <trkpt lat="62.646095294528" lon="17.861736447643">
        <ele>154.6</ele>
        <time>2018-02-10T11:03:06Z</time>
      </trkpt>
      <trkpt lat="62.64611440526" lon="17.861689089908">
        <ele>154.8</ele>
        <time>2018-02-10T11:03:07Z</time>
      </trkpt>
      <trkpt lat="62.646131839612" lon="17.861643576191">
        <ele>154.8</ele>
        <time>2018-02-10T11:03:08Z</time>
      </trkpt>
      <trkpt lat="62.646145502109" lon="17.861607282564">
        <ele>154.8</ele>
        <time>2018-02-10T11:03:09Z</time>
      </trkpt>
      <trkpt lat="62.646161260081" lon="17.861566714168">
        <ele>154.8</ele>
        <time>2018-02-10T11:03:10Z</time>
      </trkpt>
      <trkpt lat="62.646176515139" lon="17.861529163256">
        <ele>154.8</ele>
        <time>2018-02-10T11:03:11Z</time>
      </trkpt>
      <trkpt lat="62.64618816598" lon="17.861497479674">
        <ele>154.8</ele>
        <time>2018-02-10T11:03:12Z</time>
      </trkpt>
      <trkpt lat="62.646205181237" lon="17.861458000925">
        <ele>155</ele>
        <time>2018-02-10T11:03:13Z</time>
      </trkpt>
      <trkpt lat="62.646220771571" lon="17.861421707298">
        <ele>155.2</ele>
        <time>2018-02-10T11:03:14Z</time>
      </trkpt>
      <trkpt lat="62.646234685525" lon="17.861387257689">
        <ele>155.2</ele>
        <time>2018-02-10T11:03:15Z</time>
      </trkpt>
      <trkpt lat="62.646256562284" lon="17.861341408696">
        <ele>155.2</ele>
        <time>2018-02-10T11:03:16Z</time>
      </trkpt>
      <trkpt lat="62.646282378536" lon="17.861292709857">
        <ele>155.4</ele>
        <time>2018-02-10T11:03:17Z</time>
      </trkpt>
      <trkpt lat="62.646326970244" lon="17.861232443996">
        <ele>155.6</ele>
        <time>2018-02-10T11:03:18Z</time>
      </trkpt>
      <trkpt lat="62.646363180052" lon="17.861178548379">
        <ele>155.6</ele>
        <time>2018-02-10T11:03:19Z</time>
      </trkpt>
      <trkpt lat="62.646400060412" lon="17.861130100997">
        <ele>155.4</ele>
        <time>2018-02-10T11:03:20Z</time>
      </trkpt>
      <trkpt lat="62.64643710841" lon="17.861087437126">
        <ele>154.8</ele>
        <time>2018-02-10T11:03:21Z</time>
      </trkpt>
      <trkpt lat="62.646474575503" lon="17.861048712748">
        <ele>154.2</ele>
        <time>2018-02-10T11:03:22Z</time>
      </trkpt>
      <trkpt lat="62.646507013456" lon="17.861011413293">
        <ele>153.6</ele>
        <time>2018-02-10T11:03:23Z</time>
      </trkpt>
      <trkpt lat="62.64653685302" lon="17.860960954255">
        <ele>153.2</ele>
        <time>2018-02-10T11:03:24Z</time>
      </trkpt>
      <trkpt lat="62.646575577398" lon="17.860903454421">
        <ele>153</ele>
        <time>2018-02-10T11:03:25Z</time>
      </trkpt>
      <trkpt lat="62.646615978156" lon="17.860852911564">
        <ele>153.4</ele>
        <time>2018-02-10T11:03:26Z</time>
      </trkpt>
      <trkpt lat="62.646648499928" lon="17.860815360652">
        <ele>153.6</ele>
        <time>2018-02-10T11:03:27Z</time>
      </trkpt>
      <trkpt lat="62.646684039184" lon="17.860773115876">
        <ele>153.6</ele>
        <time>2018-02-10T11:03:28Z</time>
      </trkpt>
      <trkpt lat="62.646717399146" lon="17.86073170929">
        <ele>153.6</ele>
        <time>2018-02-10T11:03:29Z</time>
      </trkpt>
      <trkpt lat="62.646738772991" lon="17.860698852242">
        <ele>153.6</ele>
        <time>2018-02-10T11:03:30Z</time>
      </trkpt>
      <trkpt lat="62.64677908993" lon="17.860665240823">
        <ele>153.6</ele>
        <time>2018-02-10T11:03:31Z</time>
      </trkpt>
      <trkpt lat="62.646807504571" lon="17.860641603865">
        <ele>153.4</ele>
        <time>2018-02-10T11:03:32Z</time>
      </trkpt>
      <trkpt lat="62.646839691067" lon="17.860611177568">
        <ele>153.6</ele>
        <time>2018-02-10T11:03:33Z</time>
      </trkpt>
      <trkpt lat="62.646869782088" lon="17.860580164538">
        <ele>153.6</ele>
        <time>2018-02-10T11:03:34Z</time>
      </trkpt>
      <trkpt lat="62.646890233924" lon="17.860561724358">
        <ele>153.6</ele>
        <time>2018-02-10T11:03:35Z</time>
      </trkpt>
      <trkpt lat="62.646913619425" lon="17.860534483183">
        <ele>153.8</ele>
        <time>2018-02-10T11:03:36Z</time>
      </trkpt>
      <trkpt lat="62.646931724329" lon="17.860503553972">
        <ele>153.8</ele>
        <time>2018-02-10T11:03:37Z</time>
      </trkpt>
      <trkpt lat="62.646963072635" lon="17.86046181211">
        <ele>153.8</ele>
        <time>2018-02-10T11:03:38Z</time>
      </trkpt>
      <trkpt lat="62.646989559439" lon="17.860432978374">
        <ele>153.8</ele>
        <time>2018-02-10T11:03:39Z</time>
      </trkpt>
      <trkpt lat="62.647013112578" lon="17.860401294792">
        <ele>153.8</ele>
        <time>2018-02-10T11:03:40Z</time>
      </trkpt>
      <trkpt lat="62.647041108124" lon="17.86035871474">
        <ele>153.8</ele>
        <time>2018-02-10T11:03:41Z</time>
      </trkpt>
      <trkpt lat="62.647066505281" lon="17.860308758616">
        <ele>153.8</ele>
        <time>2018-02-10T11:03:42Z</time>
      </trkpt>
      <trkpt lat="62.647097350673" lon="17.860250336773">
        <ele>153.8</ele>
        <time>2018-02-10T11:03:43Z</time>
      </trkpt>
      <trkpt lat="62.647126016771" lon="17.86019945864">
        <ele>153.6</ele>
        <time>2018-02-10T11:03:44Z</time>
      </trkpt>
      <trkpt lat="62.647146887702" lon="17.860152855276">
        <ele>153.6</ele>
        <time>2018-02-10T11:03:45Z</time>
      </trkpt>
      <trkpt lat="62.64716884828" lon="17.860103150609">
        <ele>153.6</ele>
        <time>2018-02-10T11:03:46Z</time>
      </trkpt>
      <trkpt lat="62.647191647048" lon="17.860051182829">
        <ele>153.4</ele>
        <time>2018-02-10T11:03:47Z</time>
      </trkpt>
      <trkpt lat="62.647205980097" lon="17.86000835132">
        <ele>153.6</ele>
        <time>2018-02-10T11:03:48Z</time>
      </trkpt>
      <trkpt lat="62.647225677562" lon="17.859972560607">
        <ele>153.8</ele>
        <time>2018-02-10T11:03:49Z</time>
      </trkpt>
      <trkpt lat="62.647236154937" lon="17.859925705786">
        <ele>153.8</ele>
        <time>2018-02-10T11:03:50Z</time>
      </trkpt>
      <trkpt lat="62.647253840746" lon="17.859862422441">
        <ele>154</ele>
        <time>2018-02-10T11:03:51Z</time>
      </trkpt>
      <trkpt lat="62.647265575406" lon="17.859809281195">
        <ele>154.2</ele>
        <time>2018-02-10T11:03:52Z</time>
      </trkpt>
      <trkpt lat="62.647284602319" lon="17.859742393633">
        <ele>154.2</ele>
        <time>2018-02-10T11:03:53Z</time>
      </trkpt>
      <trkpt lat="62.647306898173" lon="17.859681792496">
        <ele>154.2</ele>
        <time>2018-02-10T11:03:54Z</time>
      </trkpt>
      <trkpt lat="62.647321650317" lon="17.859612809459">
        <ele>154.2</ele>
        <time>2018-02-10T11:03:55Z</time>
      </trkpt>
      <trkpt lat="62.647339419945" lon="17.859532427038">
        <ele>154.2</ele>
        <time>2018-02-10T11:03:56Z</time>
      </trkpt>
      <trkpt lat="62.647352244252" lon="17.859449446228">
        <ele>154</ele>
        <time>2018-02-10T11:03:57Z</time>
      </trkpt>
      <trkpt lat="62.64736666112" lon="17.859359173165">
        <ele>153.8</ele>
        <time>2018-02-10T11:03:58Z</time>
      </trkpt>
      <trkpt lat="62.647379485427" lon="17.85927409688">
        <ele>153.8</ele>
        <time>2018-02-10T11:03:59Z</time>
      </trkpt>
      <trkpt lat="62.64739013044" lon="17.859193463002">
        <ele>153.8</ele>
        <time>2018-02-10T11:04:00Z</time>
      </trkpt>
      <trkpt lat="62.64739851234" lon="17.859106123604">
        <ele>153.4</ele>
        <time>2018-02-10T11:04:01Z</time>
      </trkpt>
      <trkpt lat="62.647409157353" lon="17.859034123083">
        <ele>153.2</ele>
        <time>2018-02-10T11:04:02Z</time>
      </trkpt>
      <trkpt lat="62.64741695252" lon="17.858952399558">
        <ele>153</ele>
        <time>2018-02-10T11:04:03Z</time>
      </trkpt>
      <trkpt lat="62.647419383271" lon="17.858883416521">
        <ele>152.8</ele>
        <time>2018-02-10T11:04:04Z</time>
      </trkpt>
      <trkpt lat="62.647421814022" lon="17.858816528959">
        <ele>152.6</ele>
        <time>2018-02-10T11:04:05Z</time>
      </trkpt>
      <trkpt lat="62.647419131814" lon="17.858745785723">
        <ele>152.8</ele>
        <time>2018-02-10T11:04:06Z</time>
      </trkpt>
      <trkpt lat="62.647413851217" lon="17.858684597853">
        <ele>152.6</ele>
        <time>2018-02-10T11:04:07Z</time>
      </trkpt>
      <trkpt lat="62.647413264484" lon="17.858603628699">
        <ele>152.6</ele>
        <time>2018-02-10T11:04:08Z</time>
      </trkpt>
      <trkpt lat="62.647421646384" lon="17.858534897119">
        <ele>152.6</ele>
        <time>2018-02-10T11:04:09Z</time>
      </trkpt>
      <trkpt lat="62.647425921153" lon="17.858470607946">
        <ele>152.6</ele>
        <time>2018-02-10T11:04:10Z</time>
      </trkpt>
      <trkpt lat="62.647424999144" lon="17.858406905506">
        <ele>152.4</ele>
        <time>2018-02-10T11:04:11Z</time>
      </trkpt>
      <trkpt lat="62.64742868718" lon="17.858355021545">
        <ele>152.4</ele>
        <time>2018-02-10T11:04:12Z</time>
      </trkpt>
      <trkpt lat="62.647438074908" lon="17.858283104843">
        <ele>152.4</ele>
        <time>2018-02-10T11:04:13Z</time>
      </trkpt>
      <trkpt lat="62.647445618618" lon="17.858219402403">
        <ele>152.6</ele>
        <time>2018-02-10T11:04:14Z</time>
      </trkpt>
      <trkpt lat="62.647453078509" lon="17.858149916452">
        <ele>152.8</ele>
        <time>2018-02-10T11:04:15Z</time>
      </trkpt>
      <trkpt lat="62.647461208952" lon="17.858082442157">
        <ele>152.8</ele>
        <time>2018-02-10T11:04:16Z</time>
      </trkpt>
      <trkpt lat="62.647464896988" lon="17.85802184102">
        <ele>153</ele>
        <time>2018-02-10T11:04:17Z</time>
      </trkpt>
      <trkpt lat="62.647472021603" lon="17.857938524934">
        <ele>153</ele>
        <time>2018-02-10T11:04:18Z</time>
      </trkpt>
      <trkpt lat="62.647478894761" lon="17.857872224105">
        <ele>153</ele>
        <time>2018-02-10T11:04:19Z</time>
      </trkpt>
      <trkpt lat="62.647487192842" lon="17.857797038462">
        <ele>152.8</ele>
        <time>2018-02-10T11:04:20Z</time>
      </trkpt>
      <trkpt lat="62.647498508407" lon="17.857734258031">
        <ele>152.6</ele>
        <time>2018-02-10T11:04:21Z</time>
      </trkpt>
      <trkpt lat="62.647505633022" lon="17.857682625527">
        <ele>152.2</ele>
        <time>2018-02-10T11:04:22Z</time>
      </trkpt>
      <trkpt lat="62.647510494524" lon="17.857614732137">
        <ele>152.2</ele>
        <time>2018-02-10T11:04:23Z</time>
      </trkpt>
      <trkpt lat="62.647519463157" lon="17.857557316122">
        <ele>152.2</ele>
        <time>2018-02-10T11:04:24Z</time>
      </trkpt>
      <trkpt lat="62.647533125654" lon="17.857490680017">
        <ele>152.2</ele>
        <time>2018-02-10T11:04:25Z</time>
      </trkpt>
      <trkpt lat="62.647542764839" lon="17.857423960093">
        <ele>152</ele>
        <time>2018-02-10T11:04:26Z</time>
      </trkpt>
      <trkpt lat="62.647552823119" lon="17.85737224377">
        <ele>152.2</ele>
        <time>2018-02-10T11:04:27Z</time>
      </trkpt>
      <trkpt lat="62.64756698853" lon="17.857309882434">
        <ele>152</ele>
        <time>2018-02-10T11:04:28Z</time>
      </trkpt>
      <trkpt lat="62.64758123776" lon="17.857247102003">
        <ele>152</ele>
        <time>2018-02-10T11:04:29Z</time>
      </trkpt>
      <trkpt lat="62.647592553325" lon="17.857187422875">
        <ele>152</ele>
        <time>2018-02-10T11:04:30Z</time>
      </trkpt>
      <trkpt lat="62.647601102863" lon="17.857137299113">
        <ele>152.2</ele>
        <time>2018-02-10T11:04:31Z</time>
      </trkpt>
      <trkpt lat="62.647607976021" lon="17.857078793451">
        <ele>152.2</ele>
        <time>2018-02-10T11:04:32Z</time>
      </trkpt>
      <trkpt lat="62.647612669885" lon="17.857015007192">
        <ele>152.4</ele>
        <time>2018-02-10T11:04:33Z</time>
      </trkpt>
      <trkpt lat="62.647615519731" lon="17.856970331665">
        <ele>152.6</ele>
        <time>2018-02-10T11:04:34Z</time>
      </trkpt>
      <trkpt lat="62.647620800328" lon="17.856910652537">
        <ele>152.8</ele>
        <time>2018-02-10T11:04:35Z</time>
      </trkpt>
      <trkpt lat="62.647621889975" lon="17.85685256597">
        <ele>153</ele>
        <time>2018-02-10T11:04:36Z</time>
      </trkpt>
      <trkpt lat="62.64762314726" lon="17.856791294281">
        <ele>153</ele>
        <time>2018-02-10T11:04:37Z</time>
      </trkpt>
      <trkpt lat="62.64762566183" lon="17.85672348471">
        <ele>153.2</ele>
        <time>2018-02-10T11:04:38Z</time>
      </trkpt>
      <trkpt lat="62.647631026246" lon="17.856672187482">
        <ele>153.4</ele>
        <time>2018-02-10T11:04:39Z</time>
      </trkpt>
      <trkpt lat="62.647636306843" lon="17.856608065947">
        <ele>153.8</ele>
        <time>2018-02-10T11:04:40Z</time>
      </trkpt>
      <trkpt lat="62.647646700399" lon="17.856546794258">
        <ele>153.8</ele>
        <time>2018-02-10T11:04:41Z</time>
      </trkpt>
      <trkpt lat="62.647658770335" lon="17.856473033538">
        <ele>153.6</ele>
        <time>2018-02-10T11:04:42Z</time>
      </trkpt>
      <trkpt lat="62.647672851927" lon="17.856392567298">
        <ele>153.6</ele>
        <time>2018-02-10T11:04:43Z</time>
      </trkpt>
      <trkpt lat="62.647693639039" lon="17.856299528208">
        <ele>153</ele>
        <time>2018-02-10T11:04:44Z</time>
      </trkpt>
      <trkpt lat="62.647719455291" lon="17.856208165498">
        <ele>152.4</ele>
        <time>2018-02-10T11:04:45Z</time>
      </trkpt>
      <trkpt lat="62.64774636119" lon="17.856124849412">
        <ele>152.2</ele>
        <time>2018-02-10T11:04:46Z</time>
      </trkpt>
      <trkpt lat="62.647772596537" lon="17.856049747588">
        <ele>152.2</ele>
        <time>2018-02-10T11:04:47Z</time>
      </trkpt>
      <trkpt lat="62.647805956499" lon="17.855962911104">
        <ele>151.4</ele>
        <time>2018-02-10T11:04:48Z</time>
      </trkpt>
      <trkpt lat="62.647840489927" lon="17.855880600846">
        <ele>151.2</ele>
        <time>2018-02-10T11:04:49Z</time>
      </trkpt>
      <trkpt lat="62.647873011699" lon="17.855799380235">
        <ele>150.2</ele>
        <time>2018-02-10T11:04:50Z</time>
      </trkpt>
      <trkpt lat="62.647909221507" lon="17.855723188764">
        <ele>149.4</ele>
        <time>2018-02-10T11:04:51Z</time>
      </trkpt>
      <trkpt lat="62.647952639749" lon="17.855652529347">
        <ele>148.6</ele>
        <time>2018-02-10T11:04:52Z</time>
      </trkpt>
      <trkpt lat="62.648008882298" lon="17.855591257658">
        <ele>148</ele>
        <time>2018-02-10T11:04:53Z</time>
      </trkpt>
      <trkpt lat="62.648065543942" lon="17.855560412266">
        <ele>147.4</ele>
        <time>2018-02-10T11:04:54Z</time>
      </trkpt>
      <trkpt lat="62.648128994925" lon="17.855552700918">
        <ele>146.8</ele>
        <time>2018-02-10T11:04:55Z</time>
      </trkpt>
      <trkpt lat="62.648190266614" lon="17.855553706746">
        <ele>146.4</ele>
        <time>2018-02-10T11:04:56Z</time>
      </trkpt>
      <trkpt lat="62.648240138919" lon="17.855552617099">
        <ele>146</ele>
        <time>2018-02-10T11:04:57Z</time>
      </trkpt>
      <trkpt lat="62.648289005396" lon="17.855548007054">
        <ele>145.6</ele>
        <time>2018-02-10T11:04:58Z</time>
      </trkpt>
      <trkpt lat="62.648331501629" lon="17.855531913806">
        <ele>145.6</ele>
        <time>2018-02-10T11:04:59Z</time>
      </trkpt>
      <trkpt lat="62.648373997862" lon="17.855496458369">
        <ele>145.6</ele>
        <time>2018-02-10T11:05:00Z</time>
      </trkpt>
      <trkpt lat="62.648413141335" lon="17.855460751475">
        <ele>145.8</ele>
        <time>2018-02-10T11:05:01Z</time>
      </trkpt>
      <trkpt lat="62.648448848229" lon="17.855428984074">
        <ele>146.2</ele>
        <time>2018-02-10T11:05:02Z</time>
      </trkpt>
      <trkpt lat="62.648483214019" lon="17.85539495356">
        <ele>146.4</ele>
        <time>2018-02-10T11:05:03Z</time>
      </trkpt>
      <trkpt lat="62.648519675284" lon="17.855362431788">
        <ele>146.8</ele>
        <time>2018-02-10T11:05:04Z</time>
      </trkpt>
      <trkpt lat="62.648549933943" lon="17.855331418758">
        <ele>147.2</ele>
        <time>2018-02-10T11:05:05Z</time>
      </trkpt>
      <trkpt lat="62.648577258937" lon="17.855295544226">
        <ele>147.2</ele>
        <time>2018-02-10T11:05:06Z</time>
      </trkpt>
      <trkpt lat="62.648606763225" lon="17.855263190092">
        <ele>147.2</ele>
        <time>2018-02-10T11:05:07Z</time>
      </trkpt>
      <trkpt lat="62.648635261685" lon="17.855225220085">
        <ele>147.4</ele>
        <time>2018-02-10T11:05:08Z</time>
      </trkpt>
      <trkpt lat="62.648656467892" lon="17.855201666946">
        <ele>147.2</ele>
        <time>2018-02-10T11:05:09Z</time>
      </trkpt>
      <trkpt lat="62.648682116506" lon="17.855171073011">
        <ele>147.4</ele>
        <time>2018-02-10T11:05:10Z</time>
      </trkpt>
      <trkpt lat="62.648703155075" lon="17.85513260009">
        <ele>147.6</ele>
        <time>2018-02-10T11:05:11Z</time>
      </trkpt>
      <trkpt lat="62.648721427617" lon="17.855091947875">
        <ele>147.8</ele>
        <time>2018-02-10T11:05:12Z</time>
      </trkpt>
      <trkpt lat="62.648739867797" lon="17.855033190756">
        <ele>147.8</ele>
        <time>2018-02-10T11:05:13Z</time>
      </trkpt>
      <trkpt lat="62.648752608285" lon="17.854962698977">
        <ele>148</ele>
        <time>2018-02-10T11:05:14Z</time>
      </trkpt>
      <trkpt lat="62.648761074004" lon="17.854874521389">
        <ele>148</ele>
        <time>2018-02-10T11:05:15Z</time>
      </trkpt>
      <trkpt lat="62.648764845859" lon="17.854773770951">
        <ele>147.8</ele>
        <time>2018-02-10T11:05:16Z</time>
      </trkpt>
      <trkpt lat="62.64876560023" lon="17.854674780712">
        <ele>147.8</ele>
        <time>2018-02-10T11:05:17Z</time>
      </trkpt>
      <trkpt lat="62.648768701533" lon="17.854553159343">
        <ele>147.4</ele>
        <time>2018-02-10T11:05:18Z</time>
      </trkpt>
      <trkpt lat="62.648779933279" lon="17.854459030606">
        <ele>147</ele>
        <time>2018-02-10T11:05:19Z</time>
      </trkpt>
      <trkpt lat="62.648800468934" lon="17.854388874103">
        <ele>146.4</ele>
        <time>2018-02-10T11:05:20Z</time>
      </trkpt>
      <trkpt lat="62.648826033729" lon="17.854336068133">
        <ele>145.8</ele>
        <time>2018-02-10T11:05:21Z</time>
      </trkpt>
      <trkpt lat="62.648855705655" lon="17.854306480026">
        <ele>145</ele>
        <time>2018-02-10T11:05:22Z</time>
      </trkpt>
      <trkpt lat="62.64888965235" lon="17.854301199429">
        <ele>144.4</ele>
        <time>2018-02-10T11:05:23Z</time>
      </trkpt>
      <trkpt lat="62.648921838846" lon="17.854328440604">
        <ele>144</ele>
        <time>2018-02-10T11:05:24Z</time>
      </trkpt>
      <trkpt lat="62.648952600419" lon="17.854378983461">
        <ele>144</ele>
        <time>2018-02-10T11:05:25Z</time>
      </trkpt>
      <trkpt lat="62.648982942897" lon="17.854429107223">
        <ele>144</ele>
        <time>2018-02-10T11:05:26Z</time>
      </trkpt>
      <trkpt lat="62.64901370447" lon="17.854488702532">
        <ele>144.2</ele>
        <time>2018-02-10T11:05:27Z</time>
      </trkpt>
      <trkpt lat="62.64904555569" lon="17.854569084953">
        <ele>144.4</ele>
        <time>2018-02-10T11:05:28Z</time>
      </trkpt>
      <trkpt lat="62.649072964503" lon="17.854646198433">
        <ele>144.2</ele>
        <time>2018-02-10T11:05:29Z</time>
      </trkpt>
      <trkpt lat="62.649104312809" lon="17.854730939442">
        <ele>144</ele>
        <time>2018-02-10T11:05:30Z</time>
      </trkpt>
      <trkpt lat="62.649134068554" lon="17.854798246099">
        <ele>143.8</ele>
        <time>2018-02-10T11:05:31Z</time>
      </trkpt>
      <trkpt lat="62.649160722996" lon="17.854864714566">
        <ele>143.6</ele>
        <time>2018-02-10T11:05:32Z</time>
      </trkpt>
      <trkpt lat="62.649192406578" lon="17.854933529965">
        <ele>143.4</ele>
        <time>2018-02-10T11:05:33Z</time>
      </trkpt>
      <trkpt lat="62.649222162323" lon="17.854997400043">
        <ele>143.2</ele>
        <time>2018-02-10T11:05:34Z</time>
      </trkpt>
      <trkpt lat="62.649252085706" lon="17.855054732239">
        <ele>143</ele>
        <time>2018-02-10T11:05:35Z</time>
      </trkpt>
      <trkpt lat="62.649289552799" lon="17.855096390282">
        <ele>142.6</ele>
        <time>2018-02-10T11:05:36Z</time>
      </trkpt>
      <trkpt lat="62.649325343512" lon="17.855124385828">
        <ele>142.6</ele>
        <time>2018-02-10T11:05:37Z</time>
      </trkpt>
      <trkpt lat="62.649370186677" lon="17.855139892343">
        <ele>142.4</ele>
        <time>2018-02-10T11:05:38Z</time>
      </trkpt>
      <trkpt lat="62.649414107833" lon="17.855122038896">
        <ele>142.2</ele>
        <time>2018-02-10T11:05:39Z</time>
      </trkpt>
      <trkpt lat="62.649461046473" lon="17.855090103857">
        <ele>142</ele>
        <time>2018-02-10T11:05:40Z</time>
      </trkpt>
      <trkpt lat="62.649503375068" lon="17.855054899877">
        <ele>142</ele>
        <time>2018-02-10T11:05:41Z</time>
      </trkpt>
      <trkpt lat="62.649546625672" lon="17.855019109164">
        <ele>141.8</ele>
        <time>2018-02-10T11:05:42Z</time>
      </trkpt>
      <trkpt lat="62.649597168529" lon="17.854980468605">
        <ele>141.6</ele>
        <time>2018-02-10T11:05:43Z</time>
      </trkpt>
      <trkpt lat="62.649645532092" lon="17.854949204118">
        <ele>141.2</ele>
        <time>2018-02-10T11:05:44Z</time>
      </trkpt>
      <trkpt lat="62.649699846804" lon="17.854916598527">
        <ele>140.8</ele>
        <time>2018-02-10T11:05:45Z</time>
      </trkpt>
      <trkpt lat="62.649757346638" lon="17.854892123379">
        <ele>140.2</ele>
        <time>2018-02-10T11:05:46Z</time>
      </trkpt>
      <trkpt lat="62.649812834816" lon="17.854878879977">
        <ele>139.8</ele>
        <time>2018-02-10T11:05:47Z</time>
      </trkpt>
      <trkpt lat="62.649877626903" lon="17.854871252448">
        <ele>139</ele>
        <time>2018-02-10T11:05:48Z</time>
      </trkpt>
      <trkpt lat="62.649935797289" lon="17.854870414258">
        <ele>138.2</ele>
        <time>2018-02-10T11:05:49Z</time>
      </trkpt>
      <trkpt lat="62.649993213304" lon="17.854864127833">
        <ele>137.2</ele>
        <time>2018-02-10T11:05:50Z</time>
      </trkpt>
      <trkpt lat="62.650053730622" lon="17.854837054296">
        <ele>136.2</ele>
        <time>2018-02-10T11:05:51Z</time>
      </trkpt>
      <trkpt lat="62.650103770565" lon="17.854781817575">
        <ele>135.4</ele>
        <time>2018-02-10T11:05:52Z</time>
      </trkpt>
      <trkpt lat="62.650154145784" lon="17.854710068511">
        <ele>135.2</ele>
        <time>2018-02-10T11:05:53Z</time>
      </trkpt>
      <trkpt lat="62.650179040027" lon="17.854604288933">
        <ele>135</ele>
        <time>2018-02-10T11:05:54Z</time>
      </trkpt>
      <trkpt lat="62.65020477246" lon="17.854490965645">
        <ele>134.6</ele>
        <time>2018-02-10T11:05:55Z</time>
      </trkpt>
      <trkpt lat="62.650224553744" lon="17.854391304854">
        <ele>134.2</ele>
        <time>2018-02-10T11:05:56Z</time>
      </trkpt>
      <trkpt lat="62.650237713327" lon="17.854312431175">
        <ele>133.8</ele>
        <time>2018-02-10T11:05:57Z</time>
      </trkpt>
      <trkpt lat="62.650255399136" lon="17.854236491161">
        <ele>133.4</ele>
        <time>2018-02-10T11:05:58Z</time>
      </trkpt>
      <trkpt lat="62.650266044149" lon="17.854165580287">
        <ele>133</ele>
        <time>2018-02-10T11:05:59Z</time>
      </trkpt>
      <trkpt lat="62.650272582031" lon="17.854105230607">
        <ele>133</ele>
        <time>2018-02-10T11:06:00Z</time>
      </trkpt>
      <trkpt lat="62.650280880112" lon="17.854067009143">
        <ele>133.2</ele>
        <time>2018-02-10T11:06:01Z</time>
      </trkpt>
      <trkpt lat="62.650289848745" lon="17.85403960033">
        <ele>133.4</ele>
        <time>2018-02-10T11:06:02Z</time>
      </trkpt>
      <trkpt lat="62.650300829034" lon="17.854008335843">
        <ele>133.6</ele>
        <time>2018-02-10T11:06:03Z</time>
      </trkpt>
      <trkpt lat="62.650310216762" lon="17.853976484623">
        <ele>134</ele>
        <time>2018-02-10T11:06:04Z</time>
      </trkpt>
      <trkpt lat="62.650324214535" lon="17.853925355033">
        <ele>134.4</ele>
        <time>2018-02-10T11:06:05Z</time>
      </trkpt>
      <trkpt lat="62.650339385774" lon="17.853869531579">
        <ele>134.8</ele>
        <time>2018-02-10T11:06:06Z</time>
      </trkpt>
      <trkpt lat="62.650354389375" lon="17.853829382278">
        <ele>135</ele>
        <time>2018-02-10T11:06:07Z</time>
      </trkpt>
      <trkpt lat="62.650376852867" lon="17.853774816109">
        <ele>135.2</ele>
        <time>2018-02-10T11:06:08Z</time>
      </trkpt>
      <trkpt lat="62.650390431545" lon="17.853738438663">
        <ele>135.2</ele>
        <time>2018-02-10T11:06:09Z</time>
      </trkpt>
      <trkpt lat="62.650406860069" lon="17.853701893579">
        <ele>135.4</ele>
        <time>2018-02-10T11:06:10Z</time>
      </trkpt>
      <trkpt lat="62.650431502855" lon="17.853664258848">
        <ele>135.4</ele>
        <time>2018-02-10T11:06:11Z</time>
      </trkpt>
      <trkpt lat="62.65045455308" lon="17.85363056361">
        <ele>135.4</ele>
        <time>2018-02-10T11:06:12Z</time>
      </trkpt>
      <trkpt lat="62.650476094563" lon="17.853598209476">
        <ele>135.6</ele>
        <time>2018-02-10T11:06:13Z</time>
      </trkpt>
      <trkpt lat="62.650497216951" lon="17.853561245297">
        <ele>135.6</ele>
        <time>2018-02-10T11:06:14Z</time>
      </trkpt>
      <trkpt lat="62.650518171701" lon="17.853521934186">
        <ele>135.8</ele>
        <time>2018-02-10T11:06:15Z</time>
      </trkpt>
      <trkpt lat="62.650534097311" lon="17.853487316939">
        <ele>135.8</ele>
        <time>2018-02-10T11:06:16Z</time>
      </trkpt>
      <trkpt lat="62.65055262131" lon="17.853454878986">
        <ele>135.8</ele>
        <time>2018-02-10T11:06:17Z</time>
      </trkpt>
      <trkpt lat="62.6505786052" lon="17.853414142952">
        <ele>136</ele>
        <time>2018-02-10T11:06:18Z</time>
      </trkpt>
      <trkpt lat="62.650599727588" lon="17.853381956456">
        <ele>136</ele>
        <time>2018-02-10T11:06:19Z</time>
      </trkpt>
      <trkpt lat="62.650617581035" lon="17.853350691969">
        <ele>136.2</ele>
        <time>2018-02-10T11:06:20Z</time>
      </trkpt>
      <trkpt lat="62.650634680111" lon="17.853319427482">
        <ele>136.2</ele>
        <time>2018-02-10T11:06:21Z</time>
      </trkpt>
      <trkpt lat="62.650647420599" lon="17.85329109666">
        <ele>136.4</ele>
        <time>2018-02-10T11:06:22Z</time>
      </trkpt>
      <trkpt lat="62.650667118064" lon="17.853251450273">
        <ele>136.4</ele>
        <time>2018-02-10T11:06:23Z</time>
      </trkpt>
      <trkpt lat="62.650685474425" lon="17.853217084483">
        <ele>136.4</ele>
        <time>2018-02-10T11:06:24Z</time>
      </trkpt>
      <trkpt lat="62.650696957628" lon="17.85318213196">
        <ele>136.4</ele>
        <time>2018-02-10T11:06:25Z</time>
      </trkpt>
      <trkpt lat="62.650712128867" lon="17.853149191093">
        <ele>136.6</ele>
        <time>2018-02-10T11:06:26Z</time>
      </trkpt>
      <trkpt lat="62.650728138296" lon="17.853118597158">
        <ele>136.8</ele>
        <time>2018-02-10T11:06:27Z</time>
      </trkpt>
      <trkpt lat="62.650744483001" lon="17.853087751766">
        <ele>137</ele>
        <time>2018-02-10T11:06:28Z</time>
      </trkpt>
      <trkpt lat="62.650764934837" lon="17.853047770103">
        <ele>137</ele>
        <time>2018-02-10T11:06:29Z</time>
      </trkpt>
      <trkpt lat="62.650783794112" lon="17.853008542811">
        <ele>137.2</ele>
        <time>2018-02-10T11:06:30Z</time>
      </trkpt>
      <trkpt lat="62.650801144645" lon="17.852976188677">
        <ele>137.2</ele>
        <time>2018-02-10T11:06:31Z</time>
      </trkpt>
      <trkpt lat="62.650820255377" lon="17.852945343285">
        <ele>137.4</ele>
        <time>2018-02-10T11:06:32Z</time>
      </trkpt>
      <trkpt lat="62.650841461584" lon="17.852915503721">
        <ele>137.4</ele>
        <time>2018-02-10T11:06:33Z</time>
      </trkpt>
      <trkpt lat="62.650859901764" lon="17.852890525659">
        <ele>137.6</ele>
        <time>2018-02-10T11:06:34Z</time>
      </trkpt>
      <trkpt lat="62.650879934505" lon="17.852863033027">
        <ele>137.6</ele>
        <time>2018-02-10T11:06:35Z</time>
      </trkpt>
      <trkpt lat="62.650910025526" lon="17.852826404124">
        <ele>137.6</ele>
        <time>2018-02-10T11:06:36Z</time>
      </trkpt>
      <trkpt lat="62.650939445995" lon="17.852796899836">
        <ele>137.8</ele>
        <time>2018-02-10T11:06:37Z</time>
      </trkpt>
      <trkpt lat="62.650973057414" lon="17.852768652833">
        <ele>137.8</ele>
        <time>2018-02-10T11:06:38Z</time>
      </trkpt>
      <trkpt lat="62.651000717684" lon="17.852743674771">
        <ele>137.6</ele>
        <time>2018-02-10T11:06:39Z</time>
      </trkpt>
      <trkpt lat="62.651032568904" lon="17.852731940111">
        <ele>137.6</ele>
        <time>2018-02-10T11:06:40Z</time>
      </trkpt>
      <trkpt lat="62.651068359617" lon="17.852731437197">
        <ele>137.6</ele>
        <time>2018-02-10T11:06:41Z</time>
      </trkpt>
      <trkpt lat="62.65109744481" lon="17.852736633975">
        <ele>137.4</ele>
        <time>2018-02-10T11:06:42Z</time>
      </trkpt>
      <trkpt lat="62.651132732609" lon="17.852743255676">
        <ele>137.4</ele>
        <time>2018-02-10T11:06:43Z</time>
      </trkpt>
      <trkpt lat="62.651160476698" lon="17.852745518789">
        <ele>137.6</ele>
        <time>2018-02-10T11:06:44Z</time>
      </trkpt>
      <trkpt lat="62.651186628226" lon="17.852739651459">
        <ele>137.6</ele>
        <time>2018-02-10T11:06:45Z</time>
      </trkpt>
      <trkpt lat="62.651216803066" lon="17.852735628147">
        <ele>137.8</ele>
        <time>2018-02-10T11:06:46Z</time>
      </trkpt>
      <trkpt lat="62.651242284042" lon="17.85273286212">
        <ele>137.8</ele>
        <time>2018-02-10T11:06:47Z</time>
      </trkpt>
      <trkpt lat="62.651268603208" lon="17.852722971478">
        <ele>137.8</ele>
        <time>2018-02-10T11:06:48Z</time>
      </trkpt>
      <trkpt lat="62.651298191315" lon="17.852718026157">
        <ele>138</ele>
        <time>2018-02-10T11:06:49Z</time>
      </trkpt>
      <trkpt lat="62.651320570988" lon="17.852709141343">
        <ele>138</ele>
        <time>2018-02-10T11:06:50Z</time>
      </trkpt>
      <trkpt lat="62.651343453575" lon="17.852693634828">
        <ele>138</ele>
        <time>2018-02-10T11:06:51Z</time>
      </trkpt>
      <trkpt lat="62.651366336162" lon="17.852678715046">
        <ele>138.2</ele>
        <time>2018-02-10T11:06:52Z</time>
      </trkpt>
      <trkpt lat="62.651390727491" lon="17.852652563518">
        <ele>138.2</ele>
        <time>2018-02-10T11:06:53Z</time>
      </trkpt>
      <trkpt lat="62.651413190983" lon="17.852628172189">
        <ele>138.2</ele>
        <time>2018-02-10T11:06:54Z</time>
      </trkpt>
      <trkpt lat="62.651444120194" lon="17.852601685385">
        <ele>138.2</ele>
        <time>2018-02-10T11:06:55Z</time>
      </trkpt>
      <trkpt lat="62.651467673333" lon="17.852577880789">
        <ele>138.2</ele>
        <time>2018-02-10T11:06:56Z</time>
      </trkpt>
      <trkpt lat="62.651490891196" lon="17.852554411469">
        <ele>138.4</ele>
        <time>2018-02-10T11:06:57Z</time>
      </trkpt>
      <trkpt lat="62.651519138199" lon="17.852523901353">
        <ele>138.6</ele>
        <time>2018-02-10T11:06:58Z</time>
      </trkpt>
      <trkpt lat="62.651541853148" lon="17.852498588015">
        <ele>138.6</ele>
        <time>2018-02-10T11:06:59Z</time>
      </trkpt>
      <trkpt lat="62.651564819554" lon="17.852475370152">
        <ele>138.6</ele>
        <time>2018-02-10T11:07:00Z</time>
      </trkpt>
      <trkpt lat="62.651586780132" lon="17.852458606352">
        <ele>138.8</ele>
        <time>2018-02-10T11:07:01Z</time>
      </trkpt>
      <trkpt lat="62.651605471769" lon="17.852446033502">
        <ele>138.8</ele>
        <time>2018-02-10T11:07:02Z</time>
      </trkpt>
      <trkpt lat="62.651625253053" lon="17.852430946082">
        <ele>139</ele>
        <time>2018-02-10T11:07:03Z</time>
      </trkpt>
      <trkpt lat="62.651647465088" lon="17.852415355748">
        <ele>139</ele>
        <time>2018-02-10T11:07:04Z</time>
      </trkpt>
      <trkpt lat="62.651670096218" lon="17.852399933052">
        <ele>139.2</ele>
        <time>2018-02-10T11:07:05Z</time>
      </trkpt>
      <trkpt lat="62.651692140615" lon="17.852386857288">
        <ele>139.4</ele>
        <time>2018-02-10T11:07:06Z</time>
      </trkpt>
      <trkpt lat="62.651717789229" lon="17.852369506755">
        <ele>139.4</ele>
        <time>2018-02-10T11:07:07Z</time>
      </trkpt>
      <trkpt lat="62.651746036232" lon="17.852355844258">
        <ele>139.4</ele>
        <time>2018-02-10T11:07:08Z</time>
      </trkpt>
      <trkpt lat="62.651769505552" lon="17.852344109598">
        <ele>139.6</ele>
        <time>2018-02-10T11:07:09Z</time>
      </trkpt>
      <trkpt lat="62.651789705931" lon="17.852325082685">
        <ele>139.8</ele>
        <time>2018-02-10T11:07:10Z</time>
      </trkpt>
      <trkpt lat="62.651809235758" lon="17.852312761292">
        <ele>139.8</ele>
        <time>2018-02-10T11:07:11Z</time>
      </trkpt>
      <trkpt lat="62.651835135829" lon="17.852299685528">
        <ele>139.8</ele>
        <time>2018-02-10T11:07:12Z</time>
      </trkpt>
      <trkpt lat="62.65186522685" lon="17.852292980008">
        <ele>139.8</ele>
        <time>2018-02-10T11:07:13Z</time>
      </trkpt>
      <trkpt lat="62.651883499392" lon="17.852287364135">
        <ele>140</ele>
        <time>2018-02-10T11:07:14Z</time>
      </trkpt>
      <trkpt lat="62.651903699771" lon="17.852276216208">
        <ele>140</ele>
        <time>2018-02-10T11:07:15Z</time>
      </trkpt>
      <trkpt lat="62.651928258738" lon="17.852265068281">
        <ele>140.2</ele>
        <time>2018-02-10T11:07:16Z</time>
      </trkpt>
      <trkpt lat="62.651950303135" lon="17.852252495431">
        <ele>140.4</ele>
        <time>2018-02-10T11:07:17Z</time>
      </trkpt>
      <trkpt lat="62.651970671152" lon="17.852236737459">
        <ele>140.4</ele>
        <time>2018-02-10T11:07:18Z</time>
      </trkpt>
      <trkpt lat="62.651994894843" lon="17.852224751342">
        <ele>140.8</ele>
        <time>2018-02-10T11:07:19Z</time>
      </trkpt>
      <trkpt lat="62.652016268688" lon="17.852212010854">
        <ele>141</ele>
        <time>2018-02-10T11:07:20Z</time>
      </trkpt>
      <trkpt lat="62.652034960325" lon="17.85219977328">
        <ele>141.2</ele>
        <time>2018-02-10T11:07:21Z</time>
      </trkpt>
      <trkpt lat="62.652050047745" lon="17.852184937317">
        <ele>141.2</ele>
        <time>2018-02-10T11:07:22Z</time>
      </trkpt>
      <trkpt lat="62.652070834857" lon="17.852163898748">
        <ele>141.2</ele>
        <time>2018-02-10T11:07:23Z</time>
      </trkpt>
      <trkpt lat="62.652089107399" lon="17.852140094152">
        <ele>141.4</ele>
        <time>2018-02-10T11:07:24Z</time>
      </trkpt>
      <trkpt lat="62.652107547579" lon="17.852117211565">
        <ele>141.6</ele>
        <time>2018-02-10T11:07:25Z</time>
      </trkpt>
      <trkpt lat="62.652125233388" lon="17.852092317322">
        <ele>141.8</ele>
        <time>2018-02-10T11:07:26Z</time>
      </trkpt>
      <trkpt lat="62.652144260301" lon="17.852069267097">
        <ele>142</ele>
        <time>2018-02-10T11:07:27Z</time>
      </trkpt>
      <trkpt lat="62.652165801784" lon="17.852044205216">
        <ele>142</ele>
        <time>2018-02-10T11:07:28Z</time>
      </trkpt>
      <trkpt lat="62.652189354923" lon="17.852021490267">
        <ele>142.2</ele>
        <time>2018-02-10T11:07:29Z</time>
      </trkpt>
      <trkpt lat="62.652213746252" lon="17.851998356223">
        <ele>142.2</ele>
        <time>2018-02-10T11:07:30Z</time>
      </trkpt>
      <trkpt lat="62.652229671862" lon="17.851973629618">
        <ele>142.2</ele>
        <time>2018-02-10T11:07:31Z</time>
      </trkpt>
      <trkpt lat="62.652257835046" lon="17.851944292968">
        <ele>142.4</ele>
        <time>2018-02-10T11:07:32Z</time>
      </trkpt>
      <trkpt lat="62.65228767461" lon="17.851915710689">
        <ele>142.4</ele>
        <time>2018-02-10T11:07:33Z</time>
      </trkpt>
      <trkpt lat="62.65230611479" lon="17.851897773423">
        <ele>142.6</ele>
        <time>2018-02-10T11:07:34Z</time>
      </trkpt>
      <trkpt lat="62.652318520002" lon="17.851883691831">
        <ele>142.6</ele>
        <time>2018-02-10T11:07:35Z</time>
      </trkpt>
      <trkpt lat="62.65233377506" lon="17.851859132864">
        <ele>142.6</ele>
        <time>2018-02-10T11:07:36Z</time>
      </trkpt>
      <trkpt lat="62.652349030118" lon="17.85183348425">
        <ele>142.8</ele>
        <time>2018-02-10T11:07:37Z</time>
      </trkpt>
      <trkpt lat="62.652369984868" lon="17.851816301355">
        <ele>143</ele>
        <time>2018-02-10T11:07:38Z</time>
      </trkpt>
      <trkpt lat="62.652388508867" lon="17.851800291926">
        <ele>143.4</ele>
        <time>2018-02-10T11:07:39Z</time>
      </trkpt>
      <trkpt lat="62.652406949047" lon="17.85178151647">
        <ele>143.6</ele>
        <time>2018-02-10T11:07:40Z</time>
      </trkpt>
      <trkpt lat="62.652425808322" lon="17.851764249756">
        <ele>144</ele>
        <time>2018-02-10T11:07:41Z</time>
      </trkpt>
      <trkpt lat="62.652439303181" lon="17.851746815404">
        <ele>144.4</ele>
        <time>2018-02-10T11:07:42Z</time>
      </trkpt>
      <trkpt lat="62.652454725877" lon="17.851721585885">
        <ele>144.6</ele>
        <time>2018-02-10T11:07:43Z</time>
      </trkpt>
      <trkpt lat="62.652471322039" lon="17.851702475153">
        <ele>144.8</ele>
        <time>2018-02-10T11:07:44Z</time>
      </trkpt>
      <trkpt lat="62.652486577097" lon="17.851675653073">
        <ele>145.2</ele>
        <time>2018-02-10T11:07:45Z</time>
      </trkpt>
      <trkpt lat="62.652499820499" lon="17.851652351391">
        <ele>145.4</ele>
        <time>2018-02-10T11:07:46Z</time>
      </trkpt>
      <trkpt lat="62.652518344498" lon="17.851627205691">
        <ele>145.6</ele>
        <time>2018-02-10T11:07:47Z</time>
      </trkpt>
      <trkpt lat="62.652540388895" lon="17.851595354471">
        <ele>146</ele>
        <time>2018-02-10T11:07:48Z</time>
      </trkpt>
      <trkpt lat="62.652556649781" lon="17.851565095812">
        <ele>146.2</ele>
        <time>2018-02-10T11:07:49Z</time>
      </trkpt>
      <trkpt lat="62.65256930645" lon="17.851540033931">
        <ele>146.2</ele>
        <time>2018-02-10T11:07:50Z</time>
      </trkpt>
      <trkpt lat="62.652581124929" lon="17.851515894059">
        <ele>146.4</ele>
        <time>2018-02-10T11:07:51Z</time>
      </trkpt>
      <trkpt lat="62.652598140186" lon="17.851487730875">
        <ele>146.8</ele>
        <time>2018-02-10T11:07:52Z</time>
      </trkpt>
      <trkpt lat="62.652617418556" lon="17.851457723673">
        <ele>146.8</ele>
        <time>2018-02-10T11:07:53Z</time>
      </trkpt>
      <trkpt lat="62.652631583967" lon="17.851430482498">
        <ele>146.8</ele>
        <time>2018-02-10T11:07:54Z</time>
      </trkpt>
      <trkpt lat="62.652646587568" lon="17.851400056201">
        <ele>147</ele>
        <time>2018-02-10T11:07:55Z</time>
      </trkpt>
      <trkpt lat="62.652666201214" lon="17.851368707895">
        <ele>147</ele>
        <time>2018-02-10T11:07:56Z</time>
      </trkpt>
      <trkpt lat="62.652688916163" lon="17.851340377073">
        <ele>147.2</ele>
        <time>2018-02-10T11:07:57Z</time>
      </trkpt>
      <trkpt lat="62.652703584488" lon="17.851312884441">
        <ele>147.4</ele>
        <time>2018-02-10T11:07:58Z</time>
      </trkpt>
      <trkpt lat="62.652718336632" lon="17.85128111704">
        <ele>147.6</ele>
        <time>2018-02-10T11:07:59Z</time>
      </trkpt>
      <trkpt lat="62.652734094604" lon="17.85125513315">
        <ele>147.8</ele>
        <time>2018-02-10T11:08:00Z</time>
      </trkpt>
      <trkpt lat="62.652745829264" lon="17.851229484536">
        <ele>148</ele>
        <time>2018-02-10T11:08:01Z</time>
      </trkpt>
      <trkpt lat="62.652762760702" lon="17.851204674112">
        <ele>148.2</ele>
        <time>2018-02-10T11:08:02Z</time>
      </trkpt>
      <trkpt lat="62.652784218366" lon="17.851180701878">
        <ele>148.2</ele>
        <time>2018-02-10T11:08:03Z</time>
      </trkpt>
      <trkpt lat="62.652801736537" lon="17.85116544682">
        <ele>148.2</ele>
        <time>2018-02-10T11:08:04Z</time>
      </trkpt>
      <trkpt lat="62.652818332699" lon="17.851147258097">
        <ele>148.4</ele>
        <time>2018-02-10T11:08:05Z</time>
      </trkpt>
      <trkpt lat="62.652828977712" lon="17.85113108103">
        <ele>148.4</ele>
        <time>2018-02-10T11:08:06Z</time>
      </trkpt>
      <trkpt lat="62.65283501268" lon="17.851120352198">
        <ele>148.6</ele>
        <time>2018-02-10T11:08:07Z</time>
      </trkpt>
      <trkpt lat="62.652839455087" lon="17.851109791004">
        <ele>149</ele>
        <time>2018-02-10T11:08:08Z</time>
      </trkpt>
      <trkpt lat="62.652841466743" lon="17.851099481267">
        <ele>149.2</ele>
        <time>2018-02-10T11:08:09Z</time>
      </trkpt>
      <trkpt lat="62.652842891666" lon="17.851087746607">
        <ele>149</ele>
        <time>2018-02-10T11:08:10Z</time>
      </trkpt>
      <trkpt lat="62.652844065132" lon="17.851088584797">
        <ele>149.2</ele>
        <time>2018-02-10T11:08:11Z</time>
      </trkpt>
      <trkpt lat="62.652839958001" lon="17.85108498058">
        <ele>149</ele>
        <time>2018-02-10T11:08:12Z</time>
      </trkpt>
      <trkpt lat="62.652841382924" lon="17.851091015548">
        <ele>149</ele>
        <time>2018-02-10T11:08:13Z</time>
      </trkpt>
      <trkpt lat="62.652845406236" lon="17.85109000972">
        <ele>149</ele>
        <time>2018-02-10T11:08:14Z</time>
      </trkpt>
      <trkpt lat="62.652954119479" lon="17.850722631043">
        <ele>149.2</ele>
        <time>2018-02-10T11:08:32Z</time>
      </trkpt>
      <trkpt lat="62.652966105596" lon="17.850667813417">
        <ele>149.2</ele>
        <time>2018-02-10T11:08:33Z</time>
      </trkpt>
      <trkpt lat="62.652971553831" lon="17.850612911972">
        <ele>149.4</ele>
        <time>2018-02-10T11:08:34Z</time>
      </trkpt>
      <trkpt lat="62.652970883279" lon="17.850548706618">
        <ele>149.4</ele>
        <time>2018-02-10T11:08:35Z</time>
      </trkpt>
      <trkpt lat="62.652974655134" lon="17.850483243979">
        <ele>149.6</ele>
        <time>2018-02-10T11:08:36Z</time>
      </trkpt>
      <trkpt lat="62.652981276835" lon="17.850416021141">
        <ele>149.6</ele>
        <time>2018-02-10T11:08:37Z</time>
      </trkpt>
      <trkpt lat="62.65298672507" lon="17.85034653519">
        <ele>149.6</ele>
        <time>2018-02-10T11:08:38Z</time>
      </trkpt>
      <trkpt lat="62.652992173305" lon="17.850275959592">
        <ele>149.4</ele>
        <time>2018-02-10T11:08:39Z</time>
      </trkpt>
      <trkpt lat="62.653001644852" lon="17.850202282691">
        <ele>149.4</ele>
        <time>2018-02-10T11:08:40Z</time>
      </trkpt>
      <trkpt lat="62.653010864942" lon="17.850134724577">
        <ele>149.4</ele>
        <time>2018-02-10T11:08:41Z</time>
      </trkpt>
      <trkpt lat="62.653018157195" lon="17.850071944146">
        <ele>149.2</ele>
        <time>2018-02-10T11:08:42Z</time>
      </trkpt>
      <trkpt lat="62.65302276724" lon="17.850012013561">
        <ele>149</ele>
        <time>2018-02-10T11:08:43Z</time>
      </trkpt>
      <trkpt lat="62.653029640398" lon="17.849950238958">
        <ele>149</ele>
        <time>2018-02-10T11:08:44Z</time>
      </trkpt>
      <trkpt lat="62.653039447221" lon="17.84989475078">
        <ele>149</ele>
        <time>2018-02-10T11:08:45Z</time>
      </trkpt>
      <trkpt lat="62.653043554352" lon="17.849836161299">
        <ele>149</ele>
        <time>2018-02-10T11:08:46Z</time>
      </trkpt>
      <trkpt lat="62.653053025899" lon="17.849772123583">
        <ele>149</ele>
        <time>2018-02-10T11:08:47Z</time>
      </trkpt>
      <trkpt lat="62.653060066695" lon="17.849705655116">
        <ele>148.8</ele>
        <time>2018-02-10T11:08:48Z</time>
      </trkpt>
      <trkpt lat="62.65306970588" lon="17.849637677907">
        <ele>148.8</ele>
        <time>2018-02-10T11:08:49Z</time>
      </trkpt>
      <trkpt lat="62.653079009789" lon="17.849559977694">
        <ele>148.8</ele>
        <time>2018-02-10T11:08:50Z</time>
      </trkpt>
      <trkpt lat="62.653084709481" lon="17.849499711833">
        <ele>148.8</ele>
        <time>2018-02-10T11:08:51Z</time>
      </trkpt>
      <trkpt lat="62.653089151888" lon="17.849446151492">
        <ele>148.8</ele>
        <time>2018-02-10T11:08:52Z</time>
      </trkpt>
      <trkpt lat="62.653093007562" lon="17.849356968076">
        <ele>148.6</ele>
        <time>2018-02-10T11:08:53Z</time>
      </trkpt>
      <trkpt lat="62.653092672286" lon="17.84929879769">
        <ele>148.6</ele>
        <time>2018-02-10T11:08:54Z</time>
      </trkpt>
      <trkpt lat="62.653099545444" lon="17.849228641187">
        <ele>148.8</ele>
        <time>2018-02-10T11:08:55Z</time>
      </trkpt>
      <trkpt lat="62.653107927344" lon="17.849170889896">
        <ele>148.8</ele>
        <time>2018-02-10T11:08:56Z</time>
      </trkpt>
      <trkpt lat="62.653114549045" lon="17.849103583239">
        <ele>148.8</ele>
        <time>2018-02-10T11:08:57Z</time>
      </trkpt>
      <trkpt lat="62.653119913461" lon="17.849041389541">
        <ele>149</ele>
        <time>2018-02-10T11:08:58Z</time>
      </trkpt>
      <trkpt lat="62.653123266221" lon="17.84897441816">
        <ele>149</ele>
        <time>2018-02-10T11:08:59Z</time>
      </trkpt>
      <trkpt lat="62.653124020592" lon="17.848912475919">
        <ele>149</ele>
        <time>2018-02-10T11:09:00Z</time>
      </trkpt>
      <trkpt lat="62.653123433859" lon="17.848862603614">
        <ele>149</ele>
        <time>2018-02-10T11:09:01Z</time>
      </trkpt>
      <trkpt lat="62.653120751651" lon="17.848805774332">
        <ele>149</ele>
        <time>2018-02-10T11:09:02Z</time>
      </trkpt>
      <trkpt lat="62.653115973968" lon="17.848753890371">
        <ele>149.2</ele>
        <time>2018-02-10T11:09:03Z</time>
      </trkpt>
      <trkpt lat="62.653113710855" lon="17.848683650049">
        <ele>149.2</ele>
        <time>2018-02-10T11:09:04Z</time>
      </trkpt>
      <trkpt lat="62.653107759706" lon="17.848601926524">
        <ele>149.2</ele>
        <time>2018-02-10T11:09:05Z</time>
      </trkpt>
      <trkpt lat="62.653108681715" lon="17.84851676642">
        <ele>149</ele>
        <time>2018-02-10T11:09:06Z</time>
      </trkpt>
      <trkpt lat="62.653112285932" lon="17.848437557465">
        <ele>149</ele>
        <time>2018-02-10T11:09:07Z</time>
      </trkpt>
      <trkpt lat="62.653122595669" lon="17.848369747894">
        <ele>148.6</ele>
        <time>2018-02-10T11:09:08Z</time>
      </trkpt>
      <trkpt lat="62.653123769135" lon="17.848301770685">
        <ele>148.2</ele>
        <time>2018-02-10T11:09:09Z</time>
      </trkpt>
      <trkpt lat="62.653121506022" lon="17.848216191486">
        <ele>147.8</ele>
        <time>2018-02-10T11:09:10Z</time>
      </trkpt>
      <trkpt lat="62.653115303416" lon="17.848128097717">
        <ele>147.6</ele>
        <time>2018-02-10T11:09:11Z</time>
      </trkpt>
      <trkpt lat="62.653105328955" lon="17.848037489378">
        <ele>147.2</ele>
        <time>2018-02-10T11:09:12Z</time>
      </trkpt>
      <trkpt lat="62.653094097209" lon="17.847933218542">
        <ele>146.6</ele>
        <time>2018-02-10T11:09:13Z</time>
      </trkpt>
      <trkpt lat="62.653084541843" lon="17.847824840575">
        <ele>146.2</ele>
        <time>2018-02-10T11:09:14Z</time>
      </trkpt>
      <trkpt lat="62.653074902658" lon="17.847720234463">
        <ele>145.6</ele>
        <time>2018-02-10T11:09:15Z</time>
      </trkpt>
      <trkpt lat="62.653062245989" lon="17.847627195373">
        <ele>145.2</ele>
        <time>2018-02-10T11:09:16Z</time>
      </trkpt>
      <trkpt lat="62.653053612632" lon="17.847532563722">
        <ele>145</ele>
        <time>2018-02-10T11:09:17Z</time>
      </trkpt>
      <trkpt lat="62.653049924596" lon="17.847419324253">
        <ele>144.6</ele>
        <time>2018-02-10T11:09:18Z</time>
      </trkpt>
      <trkpt lat="62.653051014243" lon="17.847338355099">
        <ele>144.4</ele>
        <time>2018-02-10T11:09:19Z</time>
      </trkpt>
      <trkpt lat="62.65305629484" lon="17.847255709565">
        <ele>144.4</ele>
        <time>2018-02-10T11:09:20Z</time>
      </trkpt>
      <trkpt lat="62.65305210389" lon="17.847177506438">
        <ele>144.4</ele>
        <time>2018-02-10T11:09:21Z</time>
      </trkpt>
      <trkpt lat="62.653047242388" lon="17.847111205609">
        <ele>144.2</ele>
        <time>2018-02-10T11:09:22Z</time>
      </trkpt>
      <trkpt lat="62.653049924596" lon="17.847032667206">
        <ele>144.4</ele>
        <time>2018-02-10T11:09:23Z</time>
      </trkpt>
      <trkpt lat="62.653051181881" lon="17.846970389689">
        <ele>144.6</ele>
        <time>2018-02-10T11:09:24Z</time>
      </trkpt>
      <trkpt lat="62.653064425283" lon="17.846911213475">
        <ele>144.8</ele>
        <time>2018-02-10T11:09:25Z</time>
      </trkpt>
      <trkpt lat="62.65307976416" lon="17.846857653134">
        <ele>144.6</ele>
        <time>2018-02-10T11:09:26Z</time>
      </trkpt>
      <trkpt lat="62.653091917915" lon="17.846804511888">
        <ele>144.8</ele>
        <time>2018-02-10T11:09:27Z</time>
      </trkpt>
      <trkpt lat="62.653101640919" lon="17.846749107529">
        <ele>144.8</ele>
        <time>2018-02-10T11:09:28Z</time>
      </trkpt>
      <trkpt lat="62.653116393063" lon="17.846689344582">
        <ele>145</ele>
        <time>2018-02-10T11:09:29Z</time>
      </trkpt>
      <trkpt lat="62.65313005556" lon="17.846625977418">
        <ele>145</ele>
        <time>2018-02-10T11:09:30Z</time>
      </trkpt>
      <trkpt lat="62.653150255939" lon="17.846554312173">
        <ele>145</ele>
        <time>2018-02-10T11:09:31Z</time>
      </trkpt>
      <trkpt lat="62.653172551793" lon="17.846491615561">
        <ele>145</ele>
        <time>2018-02-10T11:09:32Z</time>
      </trkpt>
      <trkpt lat="62.653195182923" lon="17.846423722171">
        <ele>145</ele>
        <time>2018-02-10T11:09:33Z</time>
      </trkpt>
      <trkpt lat="62.653216640587" lon="17.846368150174">
        <ele>145</ele>
        <time>2018-02-10T11:09:34Z</time>
      </trkpt>
      <trkpt lat="62.653229464894" lon="17.846313667824">
        <ele>144.8</ele>
        <time>2018-02-10T11:09:35Z</time>
      </trkpt>
      <trkpt lat="62.653240780459" lon="17.846258598741">
        <ele>144.8</ele>
        <time>2018-02-10T11:09:36Z</time>
      </trkpt>
      <trkpt lat="62.653272296403" lon="17.846206295685">
        <ele>144.8</ele>
        <time>2018-02-10T11:09:37Z</time>
      </trkpt>
      <trkpt lat="62.653289479298" lon="17.846141419779">
        <ele>144.8</ele>
        <time>2018-02-10T11:09:38Z</time>
      </trkpt>
      <trkpt lat="62.65330691365" lon="17.846076711511">
        <ele>144.8</ele>
        <time>2018-02-10T11:09:39Z</time>
      </trkpt>
      <trkpt lat="62.653331472617" lon="17.846007309379">
        <ele>144.8</ele>
        <time>2018-02-10T11:09:40Z</time>
      </trkpt>
      <trkpt lat="62.653359384344" lon="17.845942433473">
        <ele>144.8</ele>
        <time>2018-02-10T11:09:41Z</time>
      </trkpt>
      <trkpt lat="62.653388301899" lon="17.845881580879">
        <ele>144.8</ele>
        <time>2018-02-10T11:09:42Z</time>
      </trkpt>
      <trkpt lat="62.65342258387" lon="17.845822153208">
        <ele>144.8</ele>
        <time>2018-02-10T11:09:43Z</time>
      </trkpt>
      <trkpt lat="62.653459212773" lon="17.845765910659">
        <ele>144.6</ele>
        <time>2018-02-10T11:09:44Z</time>
      </trkpt>
      <trkpt lat="62.65350305011" lon="17.845712098861">
        <ele>144.4</ele>
        <time>2018-02-10T11:09:45Z</time>
      </trkpt>
      <trkpt lat="62.653548563827" lon="17.845660801633">
        <ele>144.2</ele>
        <time>2018-02-10T11:09:46Z</time>
      </trkpt>
      <trkpt lat="62.653592317345" lon="17.845609252948">
        <ele>144</ele>
        <time>2018-02-10T11:09:47Z</time>
      </trkpt>
      <trkpt lat="62.653641435279" lon="17.845535911323">
        <ele>143.4</ele>
        <time>2018-02-10T11:09:48Z</time>
      </trkpt>
      <trkpt lat="62.653685943168" lon="17.845453265789">
        <ele>143</ele>
        <time>2018-02-10T11:09:49Z</time>
      </trkpt>
      <trkpt lat="62.653721650062" lon="17.845348994953">
        <ele>142.8</ele>
        <time>2018-02-10T11:09:50Z</time>
      </trkpt>
      <trkpt lat="62.653751657264" lon="17.845239108244">
        <ele>142.4</ele>
        <time>2018-02-10T11:09:51Z</time>
      </trkpt>
      <trkpt lat="62.65377546186" lon="17.845137938711">
        <ele>142</ele>
        <time>2018-02-10T11:09:52Z</time>
      </trkpt>
      <trkpt lat="62.653801278112" lon="17.845022687586">
        <ele>141.4</ele>
        <time>2018-02-10T11:09:53Z</time>
      </trkpt>
      <trkpt lat="62.653831536771" lon="17.844923781166">
        <ele>140.8</ele>
        <time>2018-02-10T11:09:54Z</time>
      </trkpt>
      <trkpt lat="62.653862801258" lon="17.844832669913">
        <ele>140.2</ele>
        <time>2018-02-10T11:09:55Z</time>
      </trkpt>
      <trkpt lat="62.653890796804" lon="17.8447549697">
        <ele>139.6</ele>
        <time>2018-02-10T11:09:56Z</time>
      </trkpt>
      <trkpt lat="62.653916529237" lon="17.8446879145">
        <ele>139.4</ele>
        <time>2018-02-10T11:09:57Z</time>
      </trkpt>
      <trkpt lat="62.653943435136" lon="17.844619518196">
        <ele>139.2</ele>
        <time>2018-02-10T11:09:58Z</time>
      </trkpt>
      <trkpt lat="62.653972352691" lon="17.84455212772">
        <ele>139.2</ele>
        <time>2018-02-10T11:09:59Z</time>
      </trkpt>
      <trkpt lat="62.65400344954" lon="17.844490185479">
        <ele>139</ele>
        <time>2018-02-10T11:10:00Z</time>
      </trkpt>
      <trkpt lat="62.654034797846" lon="17.844437966242">
        <ele>138.8</ele>
        <time>2018-02-10T11:10:01Z</time>
      </trkpt>
      <trkpt lat="62.654064888867" lon="17.844394380362">
        <ele>138.8</ele>
        <time>2018-02-10T11:10:02Z</time>
      </trkpt>
      <trkpt lat="62.654097578277" lon="17.844348950464">
        <ele>138.6</ele>
        <time>2018-02-10T11:10:03Z</time>
      </trkpt>
      <trkpt lat="62.654129680954" lon="17.844313830303">
        <ele>138.4</ele>
        <time>2018-02-10T11:10:04Z</time>
      </trkpt>
      <trkpt lat="62.654163124735" lon="17.844283404006">
        <ele>137.6</ele>
        <time>2018-02-10T11:10:05Z</time>
      </trkpt>
      <trkpt lat="62.654201597656" lon="17.844253983537">
        <ele>137</ele>
        <time>2018-02-10T11:10:06Z</time>
      </trkpt>
      <trkpt lat="62.654234454704" lon="17.844230849493">
        <ele>136.4</ele>
        <time>2018-02-10T11:10:07Z</time>
      </trkpt>
      <trkpt lat="62.654273011444" lon="17.844211654942">
        <ele>135.6</ele>
        <time>2018-02-10T11:10:08Z</time>
      </trkpt>
      <trkpt lat="62.6543085507" lon="17.844198327721">
        <ele>134.8</ele>
        <time>2018-02-10T11:10:09Z</time>
      </trkpt>
      <trkpt lat="62.654349370553" lon="17.844183072663">
        <ele>134</ele>
        <time>2018-02-10T11:10:10Z</time>
      </trkpt>
      <trkpt lat="62.654388765483" lon="17.844169661623">
        <ele>133.2</ele>
        <time>2018-02-10T11:10:11Z</time>
      </trkpt>
      <trkpt lat="62.65442422092" lon="17.844157004954">
        <ele>132.4</ele>
        <time>2018-02-10T11:10:12Z</time>
      </trkpt>
      <trkpt lat="62.654467387705" lon="17.844145354113">
        <ele>131.2</ele>
        <time>2018-02-10T11:10:13Z</time>
      </trkpt>
      <trkpt lat="62.654515918906" lon="17.844134541462">
        <ele>130.6</ele>
        <time>2018-02-10T11:10:14Z</time>
      </trkpt>
      <trkpt lat="62.654571490903" lon="17.844124734639">
        <ele>129.8</ele>
        <time>2018-02-10T11:10:15Z</time>
      </trkpt>
      <trkpt lat="62.654624129235" lon="17.844115682187">
        <ele>128.8</ele>
        <time>2018-02-10T11:10:16Z</time>
      </trkpt>
      <trkpt lat="62.654675007368" lon="17.844105288631">
        <ele>128.6</ele>
        <time>2018-02-10T11:10:17Z</time>
      </trkpt>
      <trkpt lat="62.654731082279" lon="17.84409447598">
        <ele>127.2</ele>
        <time>2018-02-10T11:10:18Z</time>
      </trkpt>
      <trkpt lat="62.654779110566" lon="17.84408357951">
        <ele>126.6</ele>
        <time>2018-02-10T11:10:19Z</time>
      </trkpt>
      <trkpt lat="62.654822277351" lon="17.84407184485">
        <ele>126.2</ele>
        <time>2018-02-10T11:10:20Z</time>
      </trkpt>
      <trkpt lat="62.654859492987" lon="17.844060026371">
        <ele>125.8</ele>
        <time>2018-02-10T11:10:21Z</time>
      </trkpt>
      <trkpt lat="62.654893104406" lon="17.84405172829">
        <ele>125.6</ele>
        <time>2018-02-10T11:10:22Z</time>
      </trkpt>
      <trkpt lat="62.654933672802" lon="17.844037898155">
        <ele>125</ele>
        <time>2018-02-10T11:10:23Z</time>
      </trkpt>
      <trkpt lat="62.654975498483" lon="17.84401820069">
        <ele>125</ele>
        <time>2018-02-10T11:10:24Z</time>
      </trkpt>
      <trkpt lat="62.655022269485" lon="17.843993390266">
        <ele>124.6</ele>
        <time>2018-02-10T11:10:25Z</time>
      </trkpt>
      <trkpt lat="62.655066023003" lon="17.843964640349">
        <ele>124.2</ele>
        <time>2018-02-10T11:10:26Z</time>
      </trkpt>
      <trkpt lat="62.655107764865" lon="17.843934800785">
        <ele>123.4</ele>
        <time>2018-02-10T11:10:27Z</time>
      </trkpt>
      <trkpt lat="62.655156296066" lon="17.84390672142">
        <ele>122.6</ele>
        <time>2018-02-10T11:10:28Z</time>
      </trkpt>
      <trkpt lat="62.655203067068" lon="17.843884509385">
        <ele>121.6</ele>
        <time>2018-02-10T11:10:29Z</time>
      </trkpt>
      <trkpt lat="62.655253442287" lon="17.843871182164">
        <ele>120.8</ele>
        <time>2018-02-10T11:10:30Z</time>
      </trkpt>
      <trkpt lat="62.655299710375" lon="17.843871182164">
        <ele>120</ele>
        <time>2018-02-10T11:10:31Z</time>
      </trkpt>
      <trkpt lat="62.655341116961" lon="17.843883084462">
        <ele>119.4</ele>
        <time>2018-02-10T11:10:32Z</time>
      </trkpt>
      <trkpt lat="62.655393587655" lon="17.843898171882">
        <ele>119</ele>
        <time>2018-02-10T11:10:33Z</time>
      </trkpt>
      <trkpt lat="62.655441448304" lon="17.843913007845">
        <ele>118.8</ele>
        <time>2018-02-10T11:10:34Z</time>
      </trkpt>
      <trkpt lat="62.655496601206" lon="17.843948379463">
        <ele>118.6</ele>
        <time>2018-02-10T11:10:35Z</time>
      </trkpt>
      <trkpt lat="62.65555410104" lon="17.844003532365">
        <ele>118.4</ele>
        <time>2018-02-10T11:10:36Z</time>
      </trkpt>
      <trkpt lat="62.655606655553" lon="17.84405843381">
        <ele>118.2</ele>
        <time>2018-02-10T11:10:37Z</time>
      </trkpt>
      <trkpt lat="62.655670525631" lon="17.844128925589">
        <ele>117.2</ele>
        <time>2018-02-10T11:10:38Z</time>
      </trkpt>
      <trkpt lat="62.655728947474" lon="17.84420092611">
        <ele>116.6</ele>
        <time>2018-02-10T11:10:39Z</time>
      </trkpt>
      <trkpt lat="62.655794326294" lon="17.844288684603">
        <ele>115.4</ele>
        <time>2018-02-10T11:10:40Z</time>
      </trkpt>
      <trkpt lat="62.655856017078" lon="17.844376694553">
        <ele>114.8</ele>
        <time>2018-02-10T11:10:41Z</time>
      </trkpt>
      <trkpt lat="62.655913349274" lon="17.844460932648">
        <ele>114</ele>
        <time>2018-02-10T11:10:42Z</time>
      </trkpt>
      <trkpt lat="62.655973363678" lon="17.844555061385">
        <ele>113.2</ele>
        <time>2018-02-10T11:10:43Z</time>
      </trkpt>
      <trkpt lat="62.656026421105" lon="17.844640389127">
        <ele>112.6</ele>
        <time>2018-02-10T11:10:44Z</time>
      </trkpt>
      <trkpt lat="62.656076796324" lon="17.844724208127">
        <ele>112.2</ele>
        <time>2018-02-10T11:10:45Z</time>
      </trkpt>
      <trkpt lat="62.656124321697" lon="17.844803081806">
        <ele>111.6</ele>
        <time>2018-02-10T11:10:46Z</time>
      </trkpt>
      <trkpt lat="62.656169081043" lon="17.844876255793">
        <ele>111.2</ele>
        <time>2018-02-10T11:10:47Z</time>
      </trkpt>
      <trkpt lat="62.656219456262" lon="17.84495697349">
        <ele>110.8</ele>
        <time>2018-02-10T11:10:48Z</time>
      </trkpt>
      <trkpt lat="62.656265137617" lon="17.845031656219">
        <ele>110.6</ele>
        <time>2018-02-10T11:10:49Z</time>
      </trkpt>
      <trkpt lat="62.656309477868" lon="17.845102147998">
        <ele>110.4</ele>
        <time>2018-02-10T11:10:50Z</time>
      </trkpt>
      <trkpt lat="62.656352477015" lon="17.845170209026">
        <ele>110.2</ele>
        <time>2018-02-10T11:10:51Z</time>
      </trkpt>
      <trkpt lat="62.656388435366" lon="17.845230474887">
        <ele>110</ele>
        <time>2018-02-10T11:10:52Z</time>
      </trkpt>
      <trkpt lat="62.656432607979" lon="17.84529308768">
        <ele>109.8</ele>
        <time>2018-02-10T11:10:53Z</time>
      </trkpt>
      <trkpt lat="62.656474266022" lon="17.845345306917">
        <ele>109.6</ele>
        <time>2018-02-10T11:10:54Z</time>
      </trkpt>
      <trkpt lat="62.656517768083" lon="17.845396268869">
        <ele>109.8</ele>
        <time>2018-02-10T11:10:55Z</time>
      </trkpt>
      <trkpt lat="62.656555486633" lon="17.845451757047">
        <ele>109.8</ele>
        <time>2018-02-10T11:10:56Z</time>
      </trkpt>
      <trkpt lat="62.656592953726" lon="17.845509089243">
        <ele>110</ele>
        <time>2018-02-10T11:10:57Z</time>
      </trkpt>
      <trkpt lat="62.656642406936" lon="17.845578575194">
        <ele>109.8</ele>
        <time>2018-02-10T11:10:58Z</time>
      </trkpt>
      <trkpt lat="62.65669068668" lon="17.845652503552">
        <ele>109.6</ele>
        <time>2018-02-10T11:10:59Z</time>
      </trkpt>
      <trkpt lat="62.656732344723" lon="17.845720983675">
        <ele>109.6</ele>
        <time>2018-02-10T11:11:00Z</time>
      </trkpt>
      <trkpt lat="62.656775762965" lon="17.845772616179">
        <ele>109.2</ele>
        <time>2018-02-10T11:11:01Z</time>
      </trkpt>
      <trkpt lat="62.656809961117" lon="17.84582617652">
        <ele>109.4</ele>
        <time>2018-02-10T11:11:02Z</time>
      </trkpt>
      <trkpt lat="62.656846757658" lon="17.845886023286">
        <ele>109.4</ele>
        <time>2018-02-10T11:11:03Z</time>
      </trkpt>
      <trkpt lat="62.656881626362" lon="17.845927513691">
        <ele>109.4</ele>
        <time>2018-02-10T11:11:04Z</time>
      </trkpt>
      <trkpt lat="62.656923284405" lon="17.845964310232">
        <ele>109.4</ele>
        <time>2018-02-10T11:11:05Z</time>
      </trkpt>
      <trkpt lat="62.656979191678" lon="17.84598878538">
        <ele>109.4</ele>
        <time>2018-02-10T11:11:06Z</time>
      </trkpt>
      <trkpt lat="62.657017329323" lon="17.845990880855">
        <ele>109.4</ele>
        <time>2018-02-10T11:11:07Z</time>
      </trkpt>
      <trkpt lat="62.657057562443" lon="17.845992808692">
        <ele>109.2</ele>
        <time>2018-02-10T11:11:08Z</time>
      </trkpt>
      <trkpt lat="62.657088072559" lon="17.845997334918">
        <ele>109.2</ele>
        <time>2018-02-10T11:11:09Z</time>
      </trkpt>
      <trkpt lat="62.657125958747" lon="17.846005381542">
        <ele>109.2</ele>
        <time>2018-02-10T11:11:10Z</time>
      </trkpt>
      <trkpt lat="62.657165688953" lon="17.846015272184">
        <ele>109</ele>
        <time>2018-02-10T11:11:11Z</time>
      </trkpt>
      <trkpt lat="62.6572003062" lon="17.846027425939">
        <ele>109</ele>
        <time>2018-02-10T11:11:12Z</time>
      </trkpt>
      <trkpt lat="62.657235929275" lon="17.846054583295">
        <ele>108.8</ele>
        <time>2018-02-10T11:11:13Z</time>
      </trkpt>
      <trkpt lat="62.657271133255" lon="17.84608601542">
        <ele>109</ele>
        <time>2018-02-10T11:11:14Z</time>
      </trkpt>
      <trkpt lat="62.657300721362" lon="17.846120800305">
        <ele>108.8</ele>
        <time>2018-02-10T11:11:15Z</time>
      </trkpt>
      <trkpt lat="62.657325364148" lon="17.84615809976">
        <ele>109</ele>
        <time>2018-02-10T11:11:16Z</time>
      </trkpt>
      <trkpt lat="62.657353192056" lon="17.84619414193">
        <ele>109</ele>
        <time>2018-02-10T11:11:17Z</time>
      </trkpt>
      <trkpt lat="62.657383450715" lon="17.846235632335">
        <ele>109.2</ele>
        <time>2018-02-10T11:11:18Z</time>
      </trkpt>
      <trkpt lat="62.657403399637" lon="17.846287097201">
        <ele>109.2</ele>
        <time>2018-02-10T11:11:19Z</time>
      </trkpt>
      <trkpt lat="62.657423600016" lon="17.846342920655">
        <ele>109.2</ele>
        <time>2018-02-10T11:11:20Z</time>
      </trkpt>
      <trkpt lat="62.657442375472" lon="17.846404024706">
        <ele>109.4</ele>
        <time>2018-02-10T11:11:21Z</time>
      </trkpt>
      <trkpt lat="62.657458301082" lon="17.846463536196">
        <ele>109.4</ele>
        <time>2018-02-10T11:11:22Z</time>
      </trkpt>
      <trkpt lat="62.657479842565" lon="17.84653277069">
        <ele>109.4</ele>
        <time>2018-02-10T11:11:23Z</time>
      </trkpt>
      <trkpt lat="62.657498282745" lon="17.846604603573">
        <ele>109.4</ele>
        <time>2018-02-10T11:11:24Z</time>
      </trkpt>
      <trkpt lat="62.657516555287" lon="17.846674340981">
        <ele>109.6</ele>
        <time>2018-02-10T11:11:25Z</time>
      </trkpt>
      <trkpt lat="62.657533486725" lon="17.846748604615">
        <ele>109.4</ele>
        <time>2018-02-10T11:11:26Z</time>
      </trkpt>
      <trkpt lat="62.657551675448" lon="17.846827226837">
        <ele>109.4</ele>
        <time>2018-02-10T11:11:27Z</time>
      </trkpt>
      <trkpt lat="62.657568942162" lon="17.846913560407">
        <ele>109.2</ele>
        <time>2018-02-10T11:11:28Z</time>
      </trkpt>
      <trkpt lat="62.657588136713" lon="17.846996373579">
        <ele>109.2</ele>
        <time>2018-02-10T11:11:29Z</time>
      </trkpt>
      <trkpt lat="62.657608672368" lon="17.847082204235">
        <ele>109.2</ele>
        <time>2018-02-10T11:11:30Z</time>
      </trkpt>
      <trkpt lat="62.657634572439" lon="17.847172058203">
        <ele>109.2</ele>
        <time>2018-02-10T11:11:31Z</time>
      </trkpt>
      <trkpt lat="62.657648654031" lon="17.84726702513">
        <ele>109.2</ele>
        <time>2018-02-10T11:11:32Z</time>
      </trkpt>
      <trkpt lat="62.657665166374" lon="17.847381521884">
        <ele>109</ele>
        <time>2018-02-10T11:11:33Z</time>
      </trkpt>
      <trkpt lat="62.657687462228" lon="17.847467017264">
        <ele>108.8</ele>
        <time>2018-02-10T11:11:34Z</time>
      </trkpt>
      <trkpt lat="62.657716212145" lon="17.847551422997">
        <ele>108.6</ele>
        <time>2018-02-10T11:11:35Z</time>
      </trkpt>
      <trkpt lat="62.657747141356" lon="17.847635996368">
        <ele>108.4</ele>
        <time>2018-02-10T11:11:36Z</time>
      </trkpt>
      <trkpt lat="62.657766587364" lon="17.847710511459">
        <ele>108.4</ele>
        <time>2018-02-10T11:11:37Z</time>
      </trkpt>
      <trkpt lat="62.657786452467" lon="17.847797264124">
        <ele>108.2</ele>
        <time>2018-02-10T11:11:38Z</time>
      </trkpt>
      <trkpt lat="62.657802880991" lon="17.847859876917">
        <ele>108.4</ele>
        <time>2018-02-10T11:11:39Z</time>
      </trkpt>
      <trkpt lat="62.657824003379" lon="17.84792919523">
        <ele>108.2</ele>
        <time>2018-02-10T11:11:40Z</time>
      </trkpt>
      <trkpt lat="62.65784235974" lon="17.847991808023">
        <ele>107.8</ele>
        <time>2018-02-10T11:11:41Z</time>
      </trkpt>
      <trkpt lat="62.657863482128" lon="17.848057522119">
        <ele>107.6</ele>
        <time>2018-02-10T11:11:42Z</time>
      </trkpt>
      <trkpt lat="62.657887705819" lon="17.848133294495">
        <ele>107.6</ele>
        <time>2018-02-10T11:11:43Z</time>
      </trkpt>
      <trkpt lat="62.657912432424" lon="17.848209905061">
        <ele>107.6</ele>
        <time>2018-02-10T11:11:44Z</time>
      </trkpt>
      <trkpt lat="62.657942439626" lon="17.848288275826">
        <ele>107.4</ele>
        <time>2018-02-10T11:11:45Z</time>
      </trkpt>
      <trkpt lat="62.657969680801" lon="17.848360946899">
        <ele>107.4</ele>
        <time>2018-02-10T11:11:46Z</time>
      </trkpt>
      <trkpt lat="62.657998179261" lon="17.848433031239">
        <ele>107.4</ele>
        <time>2018-02-10T11:11:47Z</time>
      </trkpt>
      <trkpt lat="62.658031036309" lon="17.848498829154">
        <ele>107.4</ele>
        <time>2018-02-10T11:11:48Z</time>
      </trkpt>
      <trkpt lat="62.658060372959" lon="17.848557921549">
        <ele>107.2</ele>
        <time>2018-02-10T11:11:49Z</time>
      </trkpt>
      <trkpt lat="62.658091637446" lon="17.84860896732">
        <ele>107</ele>
        <time>2018-02-10T11:11:50Z</time>
      </trkpt>
      <trkpt lat="62.658118878621" lon="17.848669149362">
        <ele>107</ele>
        <time>2018-02-10T11:11:51Z</time>
      </trkpt>
      <trkpt lat="62.658149556375" lon="17.848726733015">
        <ele>106.8</ele>
        <time>2018-02-10T11:11:52Z</time>
      </trkpt>
      <trkpt lat="62.658176881369" lon="17.848801834839">
        <ele>106.8</ele>
        <time>2018-02-10T11:11:53Z</time>
      </trkpt>
      <trkpt lat="62.658211750073" lon="17.848871153152">
        <ele>106.6</ele>
        <time>2018-02-10T11:11:54Z</time>
      </trkpt>
      <trkpt lat="62.658245026216" lon="17.848955726523">
        <ele>106.6</ele>
        <time>2018-02-10T11:11:55Z</time>
      </trkpt>
      <trkpt lat="62.658275368694" lon="17.849020602429">
        <ele>106.6</ele>
        <time>2018-02-10T11:11:56Z</time>
      </trkpt>
      <trkpt lat="62.658306046448" lon="17.849071899657">
        <ele>106.4</ele>
        <time>2018-02-10T11:11:57Z</time>
      </trkpt>
      <trkpt lat="62.658338819677" lon="17.849140631237">
        <ele>106.2</ele>
        <time>2018-02-10T11:11:58Z</time>
      </trkpt>
      <trkpt lat="62.658363797739" lon="17.849222438581">
        <ele>106</ele>
        <time>2018-02-10T11:11:59Z</time>
      </trkpt>
      <trkpt lat="62.658386261231" lon="17.849301144622">
        <ele>105.4</ele>
        <time>2018-02-10T11:12:00Z</time>
      </trkpt>
      <trkpt lat="62.658410820198" lon="17.849362919225">
        <ele>105.2</ele>
        <time>2018-02-10T11:12:01Z</time>
      </trkpt>
      <trkpt lat="62.658435714441" lon="17.849417904489">
        <ele>105.2</ele>
        <time>2018-02-10T11:12:02Z</time>
      </trkpt>
      <trkpt lat="62.658462201245" lon="17.84948319949">
        <ele>105.4</ele>
        <time>2018-02-10T11:12:03Z</time>
      </trkpt>
      <trkpt lat="62.658479048864" lon="17.849543968265">
        <ele>105.6</ele>
        <time>2018-02-10T11:12:04Z</time>
      </trkpt>
      <trkpt lat="62.658494220103" lon="17.849610352913">
        <ele>105.6</ele>
        <time>2018-02-10T11:12:05Z</time>
      </trkpt>
      <trkpt lat="62.658510480989" lon="17.849684951823">
        <ele>105.6</ele>
        <time>2018-02-10T11:12:06Z</time>
      </trkpt>
      <trkpt lat="62.658520120174" lon="17.849757622896">
        <ele>105.6</ele>
        <time>2018-02-10T11:12:07Z</time>
      </trkpt>
      <trkpt lat="62.658520287812" lon="17.849843118276">
        <ele>105.2</ele>
        <time>2018-02-10T11:12:08Z</time>
      </trkpt>
      <trkpt lat="62.658506876772" lon="17.849911849856">
        <ele>105.2</ele>
        <time>2018-02-10T11:12:09Z</time>
      </trkpt>
      <trkpt lat="62.658483491271" lon="17.849969182052">
        <ele>105</ele>
        <time>2018-02-10T11:12:10Z</time>
      </trkpt>
      <trkpt lat="62.658463290892" lon="17.849998937797">
        <ele>104.8</ele>
        <time>2018-02-10T11:12:11Z</time>
      </trkpt>
      <trkpt lat="62.658444683074" lon="17.850010001905">
        <ele>104.6</ele>
        <time>2018-02-10T11:12:12Z</time>
      </trkpt>
      <trkpt lat="62.658426745808" lon="17.850012851751">
        <ele>104.6</ele>
        <time>2018-02-10T11:12:13Z</time>
      </trkpt>
      <trkpt lat="62.658405204325" lon="17.850006313869">
        <ele>104.8</ele>
        <time>2018-02-10T11:12:14Z</time>
      </trkpt>
      <trkpt lat="62.658375532399" lon="17.849994160114">
        <ele>104.6</ele>
        <time>2018-02-10T11:12:15Z</time>
      </trkpt>
      <trkpt lat="62.658353404183" lon="17.849989382431">
        <ele>105</ele>
        <time>2018-02-10T11:12:16Z</time>
      </trkpt>
      <trkpt lat="62.658333203804" lon="17.849984772386">
        <ele>105.4</ele>
        <time>2018-02-10T11:12:17Z</time>
      </trkpt>
      <trkpt lat="62.658308477199" lon="17.849977396314">
        <ele>105.8</ele>
        <time>2018-02-10T11:12:18Z</time>
      </trkpt>
      <trkpt lat="62.658287690087" lon="17.849979324151">
        <ele>106</ele>
        <time>2018-02-10T11:12:19Z</time>
      </trkpt>
      <trkpt lat="62.658263298758" lon="17.849976809581">
        <ele>106.2</ele>
        <time>2018-02-10T11:12:20Z</time>
      </trkpt>
      <trkpt lat="62.658238488334" lon="17.849973289183">
        <ele>106.2</ele>
        <time>2018-02-10T11:12:21Z</time>
      </trkpt>
      <trkpt lat="62.658220886344" lon="17.84997856978">
        <ele>106.2</ele>
        <time>2018-02-10T11:12:22Z</time>
      </trkpt>
      <trkpt lat="62.658194902454" lon="17.84998359892">
        <ele>106.2</ele>
        <time>2018-02-10T11:12:23Z</time>
      </trkpt>
      <trkpt lat="62.658170427306" lon="17.849996087951">
        <ele>106.4</ele>
        <time>2018-02-10T11:12:24Z</time>
      </trkpt>
      <trkpt lat="62.658149724013" lon="17.850006649145">
        <ele>106.4</ele>
        <time>2018-02-10T11:12:25Z</time>
      </trkpt>
      <trkpt lat="62.658125081227" lon="17.850011510647">
        <ele>106.4</ele>
        <time>2018-02-10T11:12:26Z</time>
      </trkpt>
      <trkpt lat="62.658100270803" lon="17.850014109036">
        <ele>106.4</ele>
        <time>2018-02-10T11:12:27Z</time>
      </trkpt>
      <trkpt lat="62.658078813139" lon="17.8500188029">
        <ele>106.6</ele>
        <time>2018-02-10T11:12:28Z</time>
      </trkpt>
      <trkpt lat="62.658049979403" lon="17.850024334954">
        <ele>106.6</ele>
        <time>2018-02-10T11:12:29Z</time>
      </trkpt>
      <trkpt lat="62.658023911694" lon="17.850033303587">
        <ele>106.6</ele>
        <time>2018-02-10T11:12:30Z</time>
      </trkpt>
      <trkpt lat="62.658002286392" lon="17.850040428202">
        <ele>106.6</ele>
        <time>2018-02-10T11:12:31Z</time>
      </trkpt>
      <trkpt lat="62.657976889235" lon="17.850042775134">
        <ele>106.8</ele>
        <time>2018-02-10T11:12:32Z</time>
      </trkpt>
      <trkpt lat="62.657952917001" lon="17.850042020763">
        <ele>106.6</ele>
        <time>2018-02-10T11:12:33Z</time>
      </trkpt>
      <trkpt lat="62.657930202052" lon="17.850040847297">
        <ele>106.8</ele>
        <time>2018-02-10T11:12:34Z</time>
      </trkpt>
      <trkpt lat="62.657911342777" lon="17.850036069614">
        <ele>106.8</ele>
        <time>2018-02-10T11:12:35Z</time>
      </trkpt>
      <trkpt lat="62.657895584805" lon="17.850030202284">
        <ele>106.8</ele>
        <time>2018-02-10T11:12:36Z</time>
      </trkpt>
      <trkpt lat="62.657882089946" lon="17.850027017162">
        <ele>106.8</ele>
        <time>2018-02-10T11:12:37Z</time>
      </trkpt>
      <trkpt lat="62.657862727757" lon="17.850023077669">
        <ele>107</ele>
        <time>2018-02-10T11:12:38Z</time>
      </trkpt>
      <trkpt lat="62.657845880138" lon="17.850019305814">
        <ele>107</ele>
        <time>2018-02-10T11:12:39Z</time>
      </trkpt>
      <trkpt lat="62.657830038347" lon="17.850012600294">
        <ele>107.2</ele>
        <time>2018-02-10T11:12:40Z</time>
      </trkpt>
      <trkpt lat="62.657816208212" lon="17.850008409344">
        <ele>107.6</ele>
        <time>2018-02-10T11:12:41Z</time>
      </trkpt>
      <trkpt lat="62.657802880991" lon="17.850002625833">
        <ele>108</ele>
        <time>2018-02-10T11:12:42Z</time>
      </trkpt>
      <trkpt lat="62.657785446639" lon="17.849996507046">
        <ele>108.2</ele>
        <time>2018-02-10T11:12:43Z</time>
      </trkpt>
      <trkpt lat="62.657762061138" lon="17.849985694395">
        <ele>108.6</ele>
        <time>2018-02-10T11:12:44Z</time>
      </trkpt>
      <trkpt lat="62.657738843275" lon="17.849979156513">
        <ele>109</ele>
        <time>2018-02-10T11:12:45Z</time>
      </trkpt>
      <trkpt lat="62.65771830762" lon="17.849977480133">
        <ele>109</ele>
        <time>2018-02-10T11:12:46Z</time>
      </trkpt>
      <trkpt lat="62.657697604327" lon="17.849975552296">
        <ele>109.2</ele>
        <time>2018-02-10T11:12:47Z</time>
      </trkpt>
      <trkpt lat="62.657669189686" lon="17.849980413798">
        <ele>109.2</ele>
        <time>2018-02-10T11:12:48Z</time>
      </trkpt>
      <trkpt lat="62.657649911316" lon="17.849988460422">
        <ele>109.2</ele>
        <time>2018-02-10T11:12:49Z</time>
      </trkpt>
      <trkpt lat="62.657630465308" lon="17.849994663028">
        <ele>109.2</ele>
        <time>2018-02-10T11:12:50Z</time>
      </trkpt>
      <trkpt lat="62.657608085635" lon="17.850002206738">
        <ele>109.2</ele>
        <time>2018-02-10T11:12:51Z</time>
      </trkpt>
      <trkpt lat="62.657590232188" lon="17.850008576982">
        <ele>109.4</ele>
        <time>2018-02-10T11:12:52Z</time>
      </trkpt>
      <trkpt lat="62.657572127284" lon="17.850016455968">
        <ele>109.2</ele>
        <time>2018-02-10T11:12:53Z</time>
      </trkpt>
      <trkpt lat="62.657558632425" lon="17.850023496764">
        <ele>109.4</ele>
        <time>2018-02-10T11:12:54Z</time>
      </trkpt>
      <trkpt lat="62.657542958272" lon="17.850030705198">
        <ele>109.4</ele>
        <time>2018-02-10T11:12:55Z</time>
      </trkpt>
      <trkpt lat="62.657525859196" lon="17.85003640489">
        <ele>109.6</ele>
        <time>2018-02-10T11:12:56Z</time>
      </trkpt>
      <trkpt lat="62.65750959831" lon="17.850041266392">
        <ele>109.8</ele>
        <time>2018-02-10T11:12:57Z</time>
      </trkpt>
      <trkpt lat="62.657490403759" lon="17.850047888093">
        <ele>110</ele>
        <time>2018-02-10T11:12:58Z</time>
      </trkpt>
      <trkpt lat="62.657474561968" lon="17.8500523305">
        <ele>110.4</ele>
        <time>2018-02-10T11:12:59Z</time>
      </trkpt>
      <trkpt lat="62.657464000774" lon="17.850054761251">
        <ele>110.4</ele>
        <time>2018-02-10T11:13:00Z</time>
      </trkpt>
      <trkpt lat="62.657454026313" lon="17.850065657721">
        <ele>110.8</ele>
        <time>2018-02-10T11:13:01Z</time>
      </trkpt>
      <trkpt lat="62.657447069336" lon="17.850077224743">
        <ele>111</ele>
        <time>2018-02-10T11:13:02Z</time>
      </trkpt>
      <trkpt lat="62.657438938893" lon="17.850085103729">
        <ele>111.4</ele>
        <time>2018-02-10T11:13:03Z</time>
      </trkpt>
      <trkpt lat="62.657428545337" lon="17.850089629955">
        <ele>111.6</ele>
        <time>2018-02-10T11:13:04Z</time>
      </trkpt>
      <trkpt lat="62.657417565048" lon="17.850093317991">
        <ele>112</ele>
        <time>2018-02-10T11:13:05Z</time>
      </trkpt>
      <trkpt lat="62.657407003854" lon="17.850095832561">
        <ele>112.2</ele>
        <time>2018-02-10T11:13:06Z</time>
      </trkpt>
      <trkpt lat="62.657396358841" lon="17.85010010733">
        <ele>112.4</ele>
        <time>2018-02-10T11:13:07Z</time>
      </trkpt>
      <trkpt lat="62.657388731312" lon="17.850110417067">
        <ele>112.8</ele>
        <time>2018-02-10T11:13:08Z</time>
      </trkpt>
      <trkpt lat="62.657376242281" lon="17.850116787311">
        <ele>113</ele>
        <time>2018-02-10T11:13:09Z</time>
      </trkpt>
      <trkpt lat="62.657362495965" lon="17.850122654641">
        <ele>113.2</ele>
        <time>2018-02-10T11:13:10Z</time>
      </trkpt>
      <trkpt lat="62.657348917287" lon="17.850127935238">
        <ele>113.4</ele>
        <time>2018-02-10T11:13:11Z</time>
      </trkpt>
      <trkpt lat="62.657335841523" lon="17.850132042369">
        <ele>113.6</ele>
        <time>2018-02-10T11:13:12Z</time>
      </trkpt>
      <trkpt lat="62.657319664456" lon="17.850135646586">
        <ele>113.8</ele>
        <time>2018-02-10T11:13:13Z</time>
      </trkpt>
      <trkpt lat="62.657307426882" lon="17.850141346278">
        <ele>114</ele>
        <time>2018-02-10T11:13:14Z</time>
      </trkpt>
      <trkpt lat="62.657294854032" lon="17.850148554712">
        <ele>114.2</ele>
        <time>2018-02-10T11:13:15Z</time>
      </trkpt>
      <trkpt lat="62.657284376657" lon="17.85015458968">
        <ele>114.2</ele>
        <time>2018-02-10T11:13:16Z</time>
      </trkpt>
      <trkpt lat="62.657274988929" lon="17.850160540829">
        <ele>114.4</ele>
        <time>2018-02-10T11:13:17Z</time>
      </trkpt>
      <trkpt lat="62.657264176278" lon="17.850169006548">
        <ele>114.6</ele>
        <time>2018-02-10T11:13:18Z</time>
      </trkpt>
      <trkpt lat="62.657255962016" lon="17.850177136991">
        <ele>114.6</ele>
        <time>2018-02-10T11:13:19Z</time>
      </trkpt>
      <trkpt lat="62.657246909564" lon="17.850184345425">
        <ele>115</ele>
        <time>2018-02-10T11:13:20Z</time>
      </trkpt>
      <trkpt lat="62.657233582343" lon="17.850193230239">
        <ele>115.2</ele>
        <time>2018-02-10T11:13:21Z</time>
      </trkpt>
      <trkpt lat="62.657217992009" lon="17.850204629623">
        <ele>115.4</ele>
        <time>2018-02-10T11:13:22Z</time>
      </trkpt>
      <trkpt lat="62.657207179358" lon="17.850213346799">
        <ele>115.8</ele>
        <time>2018-02-10T11:13:23Z</time>
      </trkpt>
      <trkpt lat="62.657193768318" lon="17.850223069803">
        <ele>116</ele>
        <time>2018-02-10T11:13:24Z</time>
      </trkpt>
      <trkpt lat="62.65718018964" lon="17.850232122255">
        <ele>116.2</ele>
        <time>2018-02-10T11:13:25Z</time>
      </trkpt>
      <trkpt lat="62.657167030057" lon="17.850244024553">
        <ele>116.4</ele>
        <time>2018-02-10T11:13:26Z</time>
      </trkpt>
      <trkpt lat="62.657155295397" lon="17.85025601067">
        <ele>116.6</ele>
        <time>2018-02-10T11:13:27Z</time>
      </trkpt>
      <trkpt lat="62.657144231289" lon="17.850267996787">
        <ele>116.6</ele>
        <time>2018-02-10T11:13:28Z</time>
      </trkpt>
      <trkpt lat="62.657137609588" lon="17.850273947936">
        <ele>117</ele>
        <time>2018-02-10T11:13:29Z</time>
      </trkpt>
      <trkpt lat="62.657126210204" lon="17.85028115637">
        <ele>117.2</ele>
        <time>2018-02-10T11:13:30Z</time>
      </trkpt>
      <trkpt lat="62.657113385897" lon="17.850289873546">
        <ele>117.4</ele>
        <time>2018-02-10T11:13:31Z</time>
      </trkpt>
      <trkpt lat="62.657102489427" lon="17.850299009817">
        <ele>117.6</ele>
        <time>2018-02-10T11:13:32Z</time>
      </trkpt>
      <trkpt lat="62.657091257681" lon="17.850306469708">
        <ele>117.8</ele>
        <time>2018-02-10T11:13:33Z</time>
      </trkpt>
      <trkpt lat="62.657081115582" lon="17.850312253219">
        <ele>118</ele>
        <time>2018-02-10T11:13:34Z</time>
      </trkpt>
      <trkpt lat="62.657068626551" lon="17.850316947083">
        <ele>118.2</ele>
        <time>2018-02-10T11:13:35Z</time>
      </trkpt>
      <trkpt lat="62.657054628778" lon="17.85032390406">
        <ele>118.4</ele>
        <time>2018-02-10T11:13:36Z</time>
      </trkpt>
      <trkpt lat="62.657041553014" lon="17.850330693399">
        <ele>118.4</ele>
        <time>2018-02-10T11:13:37Z</time>
      </trkpt>
      <trkpt lat="62.657023951024" lon="17.850332872693">
        <ele>118.6</ele>
        <time>2018-02-10T11:13:38Z</time>
      </trkpt>
      <trkpt lat="62.657010456165" lon="17.850330106666">
        <ele>118.8</ele>
        <time>2018-02-10T11:13:39Z</time>
      </trkpt>
      <trkpt lat="62.65699830241" lon="17.850327843553">
        <ele>119</ele>
        <time>2018-02-10T11:13:40Z</time>
      </trkpt>
      <trkpt lat="62.656985981017" lon="17.850327089182">
        <ele>119.2</ele>
        <time>2018-02-10T11:13:41Z</time>
      </trkpt>
      <trkpt lat="62.656971228873" lon="17.850327675915">
        <ele>119.4</ele>
        <time>2018-02-10T11:13:42Z</time>
      </trkpt>
      <trkpt lat="62.656960332403" lon="17.850331531589">
        <ele>119.8</ele>
        <time>2018-02-10T11:13:43Z</time>
      </trkpt>
      <trkpt lat="62.656943233327" lon="17.850329603752">
        <ele>120</ele>
        <time>2018-02-10T11:13:44Z</time>
      </trkpt>
      <trkpt lat="62.656923535862" lon="17.850324658431">
        <ele>120.2</ele>
        <time>2018-02-10T11:13:45Z</time>
      </trkpt>
      <trkpt lat="62.656908699899" lon="17.850324071698">
        <ele>120.4</ele>
        <time>2018-02-10T11:13:46Z</time>
      </trkpt>
      <trkpt lat="62.656895875592" lon="17.850326334811">
        <ele>120.4</ele>
        <time>2018-02-10T11:13:47Z</time>
      </trkpt>
      <trkpt lat="62.656872490091" lon="17.850317282359">
        <ele>120.4</ele>
        <time>2018-02-10T11:13:48Z</time>
      </trkpt>
      <trkpt lat="62.656851954436" lon="17.850313175228">
        <ele>120.6</ele>
        <time>2018-02-10T11:13:49Z</time>
      </trkpt>
      <trkpt lat="62.656835777369" lon="17.85030965483">
        <ele>120.8</ele>
        <time>2018-02-10T11:13:50Z</time>
      </trkpt>
      <trkpt lat="62.656819181207" lon="17.850305380061">
        <ele>121</ele>
        <time>2018-02-10T11:13:51Z</time>
      </trkpt>
      <trkpt lat="62.656801411579" lon="17.850301105292">
        <ele>121</ele>
        <time>2018-02-10T11:13:52Z</time>
      </trkpt>
      <trkpt lat="62.656778528992" lon="17.850293393944">
        <ele>121.2</ele>
        <time>2018-02-10T11:13:53Z</time>
      </trkpt>
      <trkpt lat="62.656757155147" lon="17.85028618551">
        <ele>121.2</ele>
        <time>2018-02-10T11:13:54Z</time>
      </trkpt>
      <trkpt lat="62.656742570641" lon="17.850288532442">
        <ele>121.2</ele>
        <time>2018-02-10T11:13:55Z</time>
      </trkpt>
      <trkpt lat="62.656721029158" lon="17.850290125003">
        <ele>121.4</ele>
        <time>2018-02-10T11:13:56Z</time>
      </trkpt>
      <trkpt lat="62.656698984761" lon="17.85029121465">
        <ele>121.4</ele>
        <time>2018-02-10T11:13:57Z</time>
      </trkpt>
      <trkpt lat="62.656682388599" lon="17.85029456741">
        <ele>121.4</ele>
        <time>2018-02-10T11:13:58Z</time>
      </trkpt>
      <trkpt lat="62.656657829632" lon="17.850292807211">
        <ele>121.4</ele>
        <time>2018-02-10T11:13:59Z</time>
      </trkpt>
      <trkpt lat="62.656637964529" lon="17.850291382288">
        <ele>121.4</ele>
        <time>2018-02-10T11:14:00Z</time>
      </trkpt>
      <trkpt lat="62.656620362539" lon="17.850292555754">
        <ele>121.4</ele>
        <time>2018-02-10T11:14:01Z</time>
      </trkpt>
      <trkpt lat="62.656601335626" lon="17.850295321781">
        <ele>121.6</ele>
        <time>2018-02-10T11:14:02Z</time>
      </trkpt>
      <trkpt lat="62.656578285401" lon="17.850297668713">
        <ele>121.6</ele>
        <time>2018-02-10T11:14:03Z</time>
      </trkpt>
      <trkpt lat="62.656561940696" lon="17.850300853835">
        <ele>121.8</ele>
        <time>2018-02-10T11:14:04Z</time>
      </trkpt>
      <trkpt lat="62.656542662326" lon="17.850305547699">
        <ele>122</ele>
        <time>2018-02-10T11:14:05Z</time>
      </trkpt>
      <trkpt lat="62.656517600445" lon="17.850310995934">
        <ele>122</ele>
        <time>2018-02-10T11:14:06Z</time>
      </trkpt>
      <trkpt lat="62.656492454745" lon="17.850317030902">
        <ele>122.2</ele>
        <time>2018-02-10T11:14:07Z</time>
      </trkpt>
      <trkpt lat="62.656468901606" lon="17.850334213797">
        <ele>122.4</ele>
        <time>2018-02-10T11:14:08Z</time>
      </trkpt>
      <trkpt lat="62.65644174425" lon="17.850348965941">
        <ele>122.6</ele>
        <time>2018-02-10T11:14:09Z</time>
      </trkpt>
      <trkpt lat="62.65642498045" lon="17.850362376981">
        <ele>122.6</ele>
        <time>2018-02-10T11:14:10Z</time>
      </trkpt>
      <trkpt lat="62.656407462279" lon="17.850375201288">
        <ele>122.6</ele>
        <time>2018-02-10T11:14:11Z</time>
      </trkpt>
      <trkpt lat="62.656389357375" lon="17.850391043079">
        <ele>122.8</ele>
        <time>2018-02-10T11:14:12Z</time>
      </trkpt>
      <trkpt lat="62.656361361829" lon="17.850416524055">
        <ele>122.8</ele>
        <time>2018-02-10T11:14:13Z</time>
      </trkpt>
      <trkpt lat="62.656339820346" lon="17.850437143529">
        <ele>123</ele>
        <time>2018-02-10T11:14:14Z</time>
      </trkpt>
      <trkpt lat="62.656321631623" lon="17.850454996976">
        <ele>123</ele>
        <time>2018-02-10T11:14:15Z</time>
      </trkpt>
      <trkpt lat="62.656306208927" lon="17.850472096052">
        <ele>123.2</ele>
        <time>2018-02-10T11:14:16Z</time>
      </trkpt>
      <trkpt lat="62.656290534774" lon="17.850491877336">
        <ele>123.2</ele>
        <time>2018-02-10T11:14:17Z</time>
      </trkpt>
      <trkpt lat="62.656282907245" lon="17.850495146277">
        <ele>123.4</ele>
        <time>2018-02-10T11:14:18Z</time>
      </trkpt>
      <trkpt lat="62.656272094594" lon="17.85050662948">
        <ele>123.6</ele>
        <time>2018-02-10T11:14:19Z</time>
      </trkpt>
      <trkpt lat="62.656258935011" lon="17.850526997497">
        <ele>123.8</ele>
        <time>2018-02-10T11:14:20Z</time>
      </trkpt>
      <trkpt lat="62.656249128188" lon="17.850543090745">
        <ele>124.2</ele>
        <time>2018-02-10T11:14:21Z</time>
      </trkpt>
      <trkpt lat="62.656238315537" lon="17.850558681079">
        <ele>124.6</ele>
        <time>2018-02-10T11:14:22Z</time>
      </trkpt>
      <trkpt lat="62.656226748515" lon="17.850578546182">
        <ele>125</ele>
        <time>2018-02-10T11:14:23Z</time>
      </trkpt>
      <trkpt lat="62.656214678579" lon="17.850595142344">
        <ele>125.2</ele>
        <time>2018-02-10T11:14:24Z</time>
      </trkpt>
      <trkpt lat="62.656202189548" lon="17.850612325239">
        <ele>125.6</ele>
        <time>2018-02-10T11:14:25Z</time>
      </trkpt>
      <trkpt lat="62.656189365241" lon="17.850625317184">
        <ele>125.8</ele>
        <time>2018-02-10T11:14:26Z</time>
      </trkpt>
      <trkpt lat="62.656178217314" lon="17.850634285817">
        <ele>126.2</ele>
        <time>2018-02-10T11:14:27Z</time>
      </trkpt>
      <trkpt lat="62.656167237025" lon="17.850644176459">
        <ele>126.4</ele>
        <time>2018-02-10T11:14:28Z</time>
      </trkpt>
      <trkpt lat="62.656154412718" lon="17.850651720169">
        <ele>126.8</ele>
        <time>2018-02-10T11:14:29Z</time>
      </trkpt>
      <trkpt lat="62.656138151832" lon="17.850660521164">
        <ele>127</ele>
        <time>2018-02-10T11:14:30Z</time>
      </trkpt>
      <trkpt lat="62.65612993757" lon="17.850667059046">
        <ele>127</ele>
        <time>2018-02-10T11:14:31Z</time>
      </trkpt>
      <trkpt lat="62.656117532358" lon="17.850677955516">
        <ele>127.4</ele>
        <time>2018-02-10T11:14:32Z</time>
      </trkpt>
      <trkpt lat="62.656101942024" lon="17.85069103128">
        <ele>127.6</ele>
        <time>2018-02-10T11:14:33Z</time>
      </trkpt>
      <trkpt lat="62.656087692794" lon="17.850703520311">
        <ele>127.8</ele>
        <time>2018-02-10T11:14:34Z</time>
      </trkpt>
      <trkpt lat="62.656073527383" lon="17.850719110645">
        <ele>128</ele>
        <time>2018-02-10T11:14:35Z</time>
      </trkpt>
      <trkpt lat="62.656060032524" lon="17.850742496146">
        <ele>128.2</ele>
        <time>2018-02-10T11:14:36Z</time>
      </trkpt>
      <trkpt lat="62.656047292036" lon="17.850761942154">
        <ele>128.4</ele>
        <time>2018-02-10T11:14:37Z</time>
      </trkpt>
      <trkpt lat="62.656032456073" lon="17.85077568847">
        <ele>128.4</ele>
        <time>2018-02-10T11:14:38Z</time>
      </trkpt>
      <trkpt lat="62.656018206843" lon="17.850787004035">
        <ele>128.4</ele>
        <time>2018-02-10T11:14:39Z</time>
      </trkpt>
      <trkpt lat="62.656001526862" lon="17.850802845826">
        <ele>128.6</ele>
        <time>2018-02-10T11:14:40Z</time>
      </trkpt>
      <trkpt lat="62.655986942356" lon="17.850819609626">
        <ele>128.8</ele>
        <time>2018-02-10T11:14:41Z</time>
      </trkpt>
      <trkpt lat="62.655971435841" lon="17.850837463073">
        <ele>128.8</ele>
        <time>2018-02-10T11:14:42Z</time>
      </trkpt>
      <trkpt lat="62.655955510231" lon="17.850860848574">
        <ele>129</ele>
        <time>2018-02-10T11:14:43Z</time>
      </trkpt>
      <trkpt lat="62.655939500802" lon="17.850882390057">
        <ele>129.4</ele>
        <time>2018-02-10T11:14:44Z</time>
      </trkpt>
      <trkpt lat="62.655923491373" lon="17.850899070038">
        <ele>129.6</ele>
        <time>2018-02-10T11:14:45Z</time>
      </trkpt>
      <trkpt lat="62.65591116998" lon="17.850921701168">
        <ele>129.8</ele>
        <time>2018-02-10T11:14:46Z</time>
      </trkpt>
      <trkpt lat="62.655900022053" lon="17.850940644262">
        <ele>130.2</ele>
        <time>2018-02-10T11:14:47Z</time>
      </trkpt>
      <trkpt lat="62.65588267152" lon="17.850962101926">
        <ele>130.2</ele>
        <time>2018-02-10T11:14:48Z</time>
      </trkpt>
      <trkpt lat="62.655867081186" lon="17.850981799391">
        <ele>130.6</ele>
        <time>2018-02-10T11:14:49Z</time>
      </trkpt>
      <trkpt lat="62.655853167232" lon="17.851004011426">
        <ele>130.8</ele>
        <time>2018-02-10T11:14:50Z</time>
      </trkpt>
      <trkpt lat="62.655840510563" lon="17.851028318936">
        <ele>131</ele>
        <time>2018-02-10T11:14:51Z</time>
      </trkpt>
      <trkpt lat="62.655830871378" lon="17.851043406356">
        <ele>131.2</ele>
        <time>2018-02-10T11:14:52Z</time>
      </trkpt>
      <trkpt lat="62.655812431198" lon="17.851070982807">
        <ele>131.4</ele>
        <time>2018-02-10T11:14:53Z</time>
      </trkpt>
      <trkpt lat="62.655801115633" lon="17.851089087711">
        <ele>131.6</ele>
        <time>2018-02-10T11:14:54Z</time>
      </trkpt>
      <trkpt lat="62.655786866403" lon="17.851105516235">
        <ele>131.8</ele>
        <time>2018-02-10T11:14:55Z</time>
      </trkpt>
      <trkpt lat="62.655776891942" lon="17.851125716614">
        <ele>132.2</ele>
        <time>2018-02-10T11:14:56Z</time>
      </trkpt>
      <trkpt lat="62.655768593861" lon="17.851143318604">
        <ele>132.4</ele>
        <time>2018-02-10T11:14:57Z</time>
      </trkpt>
      <trkpt lat="62.655757445934" lon="17.851161004413">
        <ele>132.6</ele>
        <time>2018-02-10T11:14:58Z</time>
      </trkpt>
      <trkpt lat="62.655744705446" lon="17.851180701878">
        <ele>132.8</ele>
        <time>2018-02-10T11:14:59Z</time>
      </trkpt>
      <trkpt lat="62.655734647166" lon="17.851203919741">
        <ele>133</ele>
        <time>2018-02-10T11:15:00Z</time>
      </trkpt>
      <trkpt lat="62.655720314117" lon="17.851227891975">
        <ele>133.2</ele>
        <time>2018-02-10T11:15:01Z</time>
      </trkpt>
      <trkpt lat="62.655707238353" lon="17.851249936372">
        <ele>133.4</ele>
        <time>2018-02-10T11:15:02Z</time>
      </trkpt>
      <trkpt lat="62.655685780689" lon="17.851271980769">
        <ele>133.6</ele>
        <time>2018-02-10T11:15:03Z</time>
      </trkpt>
      <trkpt lat="62.655665328853" lon="17.851294947175">
        <ele>133.8</ele>
        <time>2018-02-10T11:15:04Z</time>
      </trkpt>
      <trkpt lat="62.655651247261" lon="17.851314560821">
        <ele>134.2</ele>
        <time>2018-02-10T11:15:05Z</time>
      </trkpt>
      <trkpt lat="62.655624676638" lon="17.85133979034">
        <ele>134.4</ele>
        <time>2018-02-10T11:15:06Z</time>
      </trkpt>
      <trkpt lat="62.655605314449" lon="17.85136074509">
        <ele>134.4</ele>
        <time>2018-02-10T11:15:07Z</time>
      </trkpt>
      <trkpt lat="62.655587125726" lon="17.851383879134">
        <ele>134.4</ele>
        <time>2018-02-10T11:15:08Z</time>
      </trkpt>
      <trkpt lat="62.655565165148" lon="17.851407013178">
        <ele>134.2</ele>
        <time>2018-02-10T11:15:09Z</time>
      </trkpt>
      <trkpt lat="62.655541947285" lon="17.851427381195">
        <ele>134.2</ele>
        <time>2018-02-10T11:15:10Z</time>
      </trkpt>
      <trkpt lat="62.655525183485" lon="17.851450347601">
        <ele>134.2</ele>
        <time>2018-02-10T11:15:11Z</time>
      </trkpt>
      <trkpt lat="62.65550967697" lon="17.851468703962">
        <ele>134.2</ele>
        <time>2018-02-10T11:15:12Z</time>
      </trkpt>
      <trkpt lat="62.655494254274" lon="17.851489071979">
        <ele>134.4</ele>
        <time>2018-02-10T11:15:13Z</time>
      </trkpt>
      <trkpt lat="62.655482351976" lon="17.851504243218">
        <ele>134.6</ele>
        <time>2018-02-10T11:15:14Z</time>
      </trkpt>
      <trkpt lat="62.655468102746" lon="17.851519833552">
        <ele>134.8</ele>
        <time>2018-02-10T11:15:15Z</time>
      </trkpt>
      <trkpt lat="62.655454104973" lon="17.85153676499">
        <ele>135</ele>
        <time>2018-02-10T11:15:16Z</time>
      </trkpt>
      <trkpt lat="62.655440861571" lon="17.851553947885">
        <ele>135.2</ele>
        <time>2018-02-10T11:15:17Z</time>
      </trkpt>
      <trkpt lat="62.655422337572" lon="17.85157699811">
        <ele>135.4</ele>
        <time>2018-02-10T11:15:18Z</time>
      </trkpt>
      <trkpt lat="62.655409680903" lon="17.85159711467">
        <ele>135.6</ele>
        <time>2018-02-10T11:15:19Z</time>
      </trkpt>
      <trkpt lat="62.655398113881" lon="17.851614129927">
        <ele>136</ele>
        <time>2018-02-10T11:15:20Z</time>
      </trkpt>
      <trkpt lat="62.655384367565" lon="17.851628798252">
        <ele>136.2</ele>
        <time>2018-02-10T11:15:21Z</time>
      </trkpt>
      <trkpt lat="62.655370369792" lon="17.851645394414">
        <ele>136.4</ele>
        <time>2018-02-10T11:15:22Z</time>
      </trkpt>
      <trkpt lat="62.655355114734" lon="17.85167255177">
        <ele>136.4</ele>
        <time>2018-02-10T11:15:23Z</time>
      </trkpt>
      <trkpt lat="62.655338853848" lon="17.851694009434">
        <ele>136.6</ele>
        <time>2018-02-10T11:15:24Z</time>
      </trkpt>
      <trkpt lat="62.6553227606" lon="17.851729045776">
        <ele>136.8</ele>
        <time>2018-02-10T11:15:25Z</time>
      </trkpt>
      <trkpt lat="62.655301302936" lon="17.851772715475">
        <ele>136.8</ele>
        <time>2018-02-10T11:15:26Z</time>
      </trkpt>
      <trkpt lat="62.65528252748" lon="17.851812194224">
        <ele>137</ele>
        <time>2018-02-10T11:15:27Z</time>
      </trkpt>
      <trkpt lat="62.655262243282" lon="17.851854522819">
        <ele>137.2</ele>
        <time>2018-02-10T11:15:28Z</time>
      </trkpt>
      <trkpt lat="62.655239109238" lon="17.851895677948">
        <ele>137</ele>
        <time>2018-02-10T11:15:29Z</time>
      </trkpt>
      <trkpt lat="62.65522385418" lon="17.851940940208">
        <ele>137.2</ele>
        <time>2018-02-10T11:15:30Z</time>
      </trkpt>
      <trkpt lat="62.655208263846" lon="17.851977736749">
        <ele>137</ele>
        <time>2018-02-10T11:15:31Z</time>
      </trkpt>
      <trkpt lat="62.65518948839" lon="17.85201704786">
        <ele>137</ele>
        <time>2018-02-10T11:15:32Z</time>
      </trkpt>
      <trkpt lat="62.655176747902" lon="17.852065076147">
        <ele>136.8</ele>
        <time>2018-02-10T11:15:33Z</time>
      </trkpt>
      <trkpt lat="62.655166773441" lon="17.852106482733">
        <ele>136.8</ele>
        <time>2018-02-10T11:15:34Z</time>
      </trkpt>
      <trkpt lat="62.655151434564" lon="17.852161803273">
        <ele>137</ele>
        <time>2018-02-10T11:15:35Z</time>
      </trkpt>
      <trkpt lat="62.655137604429" lon="17.852217542908">
        <ele>137.2</ele>
        <time>2018-02-10T11:15:36Z</time>
      </trkpt>
      <trkpt lat="62.655130144538" lon="17.852260206779">
        <ele>137.2</ele>
        <time>2018-02-10T11:15:37Z</time>
      </trkpt>
      <trkpt lat="62.655119667163" lon="17.852327681074">
        <ele>137.2</ele>
        <time>2018-02-10T11:15:38Z</time>
      </trkpt>
      <trkpt lat="62.655112039634" lon="17.852376799008">
        <ele>137.4</ele>
        <time>2018-02-10T11:15:39Z</time>
      </trkpt>
      <trkpt lat="62.655105585571" lon="17.852435220851">
        <ele>137.4</ele>
        <time>2018-02-10T11:15:40Z</time>
      </trkpt>
      <trkpt lat="62.655100556431" lon="17.852506047906">
        <ele>137.6</ele>
        <time>2018-02-10T11:15:41Z</time>
      </trkpt>
      <trkpt lat="62.655104663562" lon="17.852564805025">
        <ele>137.6</ele>
        <time>2018-02-10T11:15:42Z</time>
      </trkpt>
      <trkpt lat="62.655106591399" lon="17.852646780007">
        <ele>137.6</ele>
        <time>2018-02-10T11:15:43Z</time>
      </trkpt>
      <trkpt lat="62.655108938331" lon="17.852723390573">
        <ele>137.6</ele>
        <time>2018-02-10T11:15:44Z</time>
      </trkpt>
      <trkpt lat="62.655107681046" lon="17.852802348071">
        <ele>137.6</ele>
        <time>2018-02-10T11:15:45Z</time>
      </trkpt>
      <trkpt lat="62.655109441245" lon="17.852876527886">
        <ele>137.6</ele>
        <time>2018-02-10T11:15:46Z</time>
      </trkpt>
      <trkpt lat="62.655111369082" lon="17.852938470127">
        <ele>137.4</ele>
        <time>2018-02-10T11:15:47Z</time>
      </trkpt>
      <trkpt lat="62.655107010494" lon="17.853013404313">
        <ele>137.2</ele>
        <time>2018-02-10T11:15:48Z</time>
      </trkpt>
      <trkpt lat="62.655100472612" lon="17.853090014879">
        <ele>137</ele>
        <time>2018-02-10T11:15:49Z</time>
      </trkpt>
      <trkpt lat="62.655093599454" lon="17.85314106065">
        <ele>137</ele>
        <time>2018-02-10T11:15:50Z</time>
      </trkpt>
      <trkpt lat="62.655080439871" lon="17.853201075054">
        <ele>136.8</ele>
        <time>2018-02-10T11:15:51Z</time>
      </trkpt>
      <trkpt lat="62.655065100994" lon="17.853252623739">
        <ele>136.6</ele>
        <time>2018-02-10T11:15:52Z</time>
      </trkpt>
      <trkpt lat="62.655049845936" lon="17.853296796352">
        <ele>136.6</ele>
        <time>2018-02-10T11:15:53Z</time>
      </trkpt>
      <trkpt lat="62.655038027457" lon="17.853322277328">
        <ele>136.8</ele>
        <time>2018-02-10T11:15:54Z</time>
      </trkpt>
      <trkpt lat="62.655026376616" lon="17.853352368349">
        <ele>136.6</ele>
        <time>2018-02-10T11:15:55Z</time>
      </trkpt>
      <trkpt lat="62.655012881757" lon="17.853389081071">
        <ele>136.6</ele>
        <time>2018-02-10T11:15:56Z</time>
      </trkpt>
      <trkpt lat="62.655001566192" lon="17.853424285051">
        <ele>137</ele>
        <time>2018-02-10T11:15:57Z</time>
      </trkpt>
      <trkpt lat="62.654991172636" lon="17.853460243402">
        <ele>137</ele>
        <time>2018-02-10T11:15:58Z</time>
      </trkpt>
      <trkpt lat="62.654967451859" lon="17.853517156503">
        <ele>137.4</ele>
        <time>2018-02-10T11:15:59Z</time>
      </trkpt>
      <trkpt lat="62.654956052475" lon="17.853560742383">
        <ele>137.6</ele>
        <time>2018-02-10T11:16:00Z</time>
      </trkpt>
      <trkpt lat="62.654940629779" lon="17.853602148969">
        <ele>138</ele>
        <time>2018-02-10T11:16:01Z</time>
      </trkpt>
      <trkpt lat="62.654924368893" lon="17.853643304098">
        <ele>138</ele>
        <time>2018-02-10T11:16:02Z</time>
      </trkpt>
      <trkpt lat="62.654910957853" lon="17.853694517507">
        <ele>138.2</ele>
        <time>2018-02-10T11:16:03Z</time>
      </trkpt>
      <trkpt lat="62.65489863646" lon="17.853740785595">
        <ele>138.2</ele>
        <time>2018-02-10T11:16:04Z</time>
      </trkpt>
      <trkpt lat="62.654879861004" lon="17.853796441411">
        <ele>138.2</ele>
        <time>2018-02-10T11:16:05Z</time>
      </trkpt>
      <trkpt lat="62.65487349076" lon="17.853845056431">
        <ele>138.4</ele>
        <time>2018-02-10T11:16:06Z</time>
      </trkpt>
      <trkpt lat="62.654857648969" lon="17.8538996226">
        <ele>138.4</ele>
        <time>2018-02-10T11:16:07Z</time>
      </trkpt>
      <trkpt lat="62.654840466074" lon="17.853967096895">
        <ele>138.4</ele>
        <time>2018-02-10T11:16:08Z</time>
      </trkpt>
      <trkpt lat="62.654829569604" lon="17.854017304476">
        <ele>138.4</ele>
        <time>2018-02-10T11:16:09Z</time>
      </trkpt>
      <trkpt lat="62.654810877967" lon="17.854075474862">
        <ele>138.4</ele>
        <time>2018-02-10T11:16:10Z</time>
      </trkpt>
      <trkpt lat="62.6547947009" lon="17.854123503149">
        <ele>138.4</ele>
        <time>2018-02-10T11:16:11Z</time>
      </trkpt>
      <trkpt lat="62.654783972068" lon="17.854167927219">
        <ele>138.4</ele>
        <time>2018-02-10T11:16:12Z</time>
      </trkpt>
      <trkpt lat="62.654765531888" lon="17.854220146456">
        <ele>138.6</ele>
        <time>2018-02-10T11:16:13Z</time>
      </trkpt>
      <trkpt lat="62.654749857735" lon="17.854257278273">
        <ele>138.6</ele>
        <time>2018-02-10T11:16:14Z</time>
      </trkpt>
      <trkpt lat="62.654737787799" lon="17.854292901348">
        <ele>138.6</ele>
        <time>2018-02-10T11:16:15Z</time>
      </trkpt>
      <trkpt lat="62.654714067022" lon="17.854335229943">
        <ele>138.8</ele>
        <time>2018-02-10T11:16:16Z</time>
      </trkpt>
      <trkpt lat="62.654690597702" lon="17.854379486375">
        <ele>139</ele>
        <time>2018-02-10T11:16:17Z</time>
      </trkpt>
      <trkpt lat="62.654673414807" lon="17.854422401703">
        <ele>139</ele>
        <time>2018-02-10T11:16:18Z</time>
      </trkpt>
      <trkpt lat="62.654649023478" lon="17.854458024778">
        <ele>139.2</ele>
        <time>2018-02-10T11:16:19Z</time>
      </trkpt>
      <trkpt lat="62.65462957747" lon="17.854493396396">
        <ele>139.2</ele>
        <time>2018-02-10T11:16:20Z</time>
      </trkpt>
      <trkpt lat="62.654606862521" lon="17.854530025299">
        <ele>139.2</ele>
        <time>2018-02-10T11:16:21Z</time>
      </trkpt>
      <trkpt lat="62.654584566667" lon="17.854570761333">
        <ele>139.2</ele>
        <time>2018-02-10T11:16:22Z</time>
      </trkpt>
      <trkpt lat="62.654565958849" lon="17.854619711629">
        <ele>139.4</ele>
        <time>2018-02-10T11:16:23Z</time>
      </trkpt>
      <trkpt lat="62.65454240571" lon="17.854660782939">
        <ele>139.4</ele>
        <time>2018-02-10T11:16:24Z</time>
      </trkpt>
      <trkpt lat="62.654524887539" lon="17.854709397959">
        <ele>139.4</ele>
        <time>2018-02-10T11:16:25Z</time>
      </trkpt>
      <trkpt lat="62.654499071287" lon="17.854750720726">
        <ele>139.4</ele>
        <time>2018-02-10T11:16:26Z</time>
      </trkpt>
      <trkpt lat="62.654479457641" lon="17.85479313314">
        <ele>139.4</ele>
        <time>2018-02-10T11:16:27Z</time>
      </trkpt>
      <trkpt lat="62.654456826511" lon="17.854830600233">
        <ele>139.4</ele>
        <time>2018-02-10T11:16:28Z</time>
      </trkpt>
      <trkpt lat="62.654435452666" lon="17.854882065099">
        <ele>139.4</ele>
        <time>2018-02-10T11:16:29Z</time>
      </trkpt>
      <trkpt lat="62.65440829531" lon="17.85493143449">
        <ele>139.6</ele>
        <time>2018-02-10T11:16:30Z</time>
      </trkpt>
      <trkpt lat="62.654384574533" lon="17.854985833021">
        <ele>139.6</ele>
        <time>2018-02-10T11:16:31Z</time>
      </trkpt>
      <trkpt lat="62.654372336959" lon="17.855025563227">
        <ele>139.6</ele>
        <time>2018-02-10T11:16:32Z</time>
      </trkpt>
      <trkpt lat="62.65435129839" lon="17.855064371424">
        <ele>139.4</ele>
        <time>2018-02-10T11:16:33Z</time>
      </trkpt>
      <trkpt lat="62.654337300617" lon="17.855110471874">
        <ele>139.4</ele>
        <time>2018-02-10T11:16:34Z</time>
      </trkpt>
      <trkpt lat="62.65431274165" lon="17.855145675854">
        <ele>139.4</ele>
        <time>2018-02-10T11:16:35Z</time>
      </trkpt>
      <trkpt lat="62.654291367805" lon="17.855184484051">
        <ele>139.2</ele>
        <time>2018-02-10T11:16:36Z</time>
      </trkpt>
      <trkpt lat="62.654273095263" lon="17.855224298076">
        <ele>139.2</ele>
        <time>2018-02-10T11:16:37Z</time>
      </trkpt>
      <trkpt lat="62.654246943735" lon="17.855270817621">
        <ele>139.2</ele>
        <time>2018-02-10T11:16:38Z</time>
      </trkpt>
      <trkpt lat="62.654224312605" lon="17.85531113456">
        <ele>139.2</ele>
        <time>2018-02-10T11:16:39Z</time>
      </trkpt>
      <trkpt lat="62.654201430018" lon="17.855342315228">
        <ele>139.2</ele>
        <time>2018-02-10T11:16:40Z</time>
      </trkpt>
      <trkpt lat="62.654177122508" lon="17.855372406249">
        <ele>139</ele>
        <time>2018-02-10T11:16:41Z</time>
      </trkpt>
      <trkpt lat="62.654161699812" lon="17.855386990755">
        <ele>139.2</ele>
        <time>2018-02-10T11:16:42Z</time>
      </trkpt>
      <trkpt lat="62.65414258908" lon="17.855408783695">
        <ele>139.2</ele>
        <time>2018-02-10T11:16:43Z</time>
      </trkpt>
      <trkpt lat="62.65412079614" lon="17.855434013214">
        <ele>139.4</ele>
        <time>2018-02-10T11:16:44Z</time>
      </trkpt>
      <trkpt lat="62.654096991544" lon="17.855461673484">
        <ele>139.4</ele>
        <time>2018-02-10T11:16:45Z</time>
      </trkpt>
      <trkpt lat="62.65407888664" lon="17.855488747021">
        <ele>139.6</ele>
        <time>2018-02-10T11:16:46Z</time>
      </trkpt>
      <trkpt lat="62.654049298533" lon="17.855510707599">
        <ele>139.6</ele>
        <time>2018-02-10T11:16:47Z</time>
      </trkpt>
      <trkpt lat="62.654021722082" lon="17.855524370096">
        <ele>139.6</ele>
        <time>2018-02-10T11:16:48Z</time>
      </trkpt>
      <trkpt lat="62.65400093497" lon="17.855542055905">
        <ele>139.8</ele>
        <time>2018-02-10T11:16:49Z</time>
      </trkpt>
      <trkpt lat="62.653983668256" lon="17.855568291252">
        <ele>139.8</ele>
        <time>2018-02-10T11:16:50Z</time>
      </trkpt>
      <trkpt lat="62.653971263044" lon="17.855586144699">
        <ele>140.2</ele>
        <time>2018-02-10T11:16:51Z</time>
      </trkpt>
      <trkpt lat="62.653958941651" lon="17.855604249603">
        <ele>140.2</ele>
        <time>2018-02-10T11:16:52Z</time>
      </trkpt>
      <trkpt lat="62.653944105688" lon="17.855631909873">
        <ele>140.4</ele>
        <time>2018-02-10T11:16:53Z</time>
      </trkpt>
      <trkpt lat="62.653922564205" lon="17.85566233617">
        <ele>140.4</ele>
        <time>2018-02-10T11:16:54Z</time>
      </trkpt>
      <trkpt lat="62.653898927247" lon="17.855705335317">
        <ele>140.8</ele>
        <time>2018-02-10T11:16:55Z</time>
      </trkpt>
      <trkpt lat="62.65388442656" lon="17.855733247044">
        <ele>140.8</ele>
        <time>2018-02-10T11:16:56Z</time>
      </trkpt>
      <trkpt lat="62.653862298344" lon="17.855763086608">
        <ele>141</ele>
        <time>2018-02-10T11:16:57Z</time>
      </trkpt>
      <trkpt lat="62.653838912843" lon="17.855797871493">
        <ele>141.2</ele>
        <time>2018-02-10T11:16:58Z</time>
      </trkpt>
      <trkpt lat="62.653817958093" lon="17.855826705229">
        <ele>141.4</ele>
        <time>2018-02-10T11:16:59Z</time>
      </trkpt>
      <trkpt lat="62.65380228394" lon="17.855850006911">
        <ele>141.4</ele>
        <time>2018-02-10T11:17:00Z</time>
      </trkpt>
      <trkpt lat="62.653786106873" lon="17.855870626385">
        <ele>141.6</ele>
        <time>2018-02-10T11:17:01Z</time>
      </trkpt>
      <trkpt lat="62.653766996141" lon="17.855898035198">
        <ele>141.8</ele>
        <time>2018-02-10T11:17:02Z</time>
      </trkpt>
      <trkpt lat="62.653742940088" lon="17.855923683812">
        <ele>142</ele>
        <time>2018-02-10T11:17:03Z</time>
      </trkpt>
      <trkpt lat="62.653725924831" lon="17.85594145344">
        <ele>142.2</ele>
        <time>2018-02-10T11:17:04Z</time>
      </trkpt>
      <trkpt lat="62.653707065556" lon="17.855961234724">
        <ele>142.4</ele>
        <time>2018-02-10T11:17:05Z</time>
      </trkpt>
      <trkpt lat="62.653689798842" lon="17.855973975212">
        <ele>142.6</ele>
        <time>2018-02-10T11:17:06Z</time>
      </trkpt>
      <trkpt lat="62.653676639259" lon="17.855978249981">
        <ele>142.8</ele>
        <time>2018-02-10T11:17:07Z</time>
      </trkpt>
      <trkpt lat="62.653659707821" lon="17.855983195302">
        <ele>143</ele>
        <time>2018-02-10T11:17:08Z</time>
      </trkpt>
      <trkpt lat="62.653643363116" lon="17.855987721528">
        <ele>143.2</ele>
        <time>2018-02-10T11:17:09Z</time>
      </trkpt>
      <trkpt lat="62.653624671479" lon="17.85599677398">
        <ele>143.4</ele>
        <time>2018-02-10T11:17:10Z</time>
      </trkpt>
      <trkpt lat="62.653604974014" lon="17.855998617998">
        <ele>143.6</ele>
        <time>2018-02-10T11:17:11Z</time>
      </trkpt>
      <trkpt lat="62.653588629309" lon="17.856002054577">
        <ele>143.8</ele>
        <time>2018-02-10T11:17:12Z</time>
      </trkpt>
      <trkpt lat="62.653566417274" lon="17.8560034795">
        <ele>144</ele>
        <time>2018-02-10T11:17:13Z</time>
      </trkpt>
      <trkpt lat="62.65354160685" lon="17.855992080116">
        <ele>144</ele>
        <time>2018-02-10T11:17:14Z</time>
      </trkpt>
      <trkpt lat="62.653516125874" lon="17.855986631881">
        <ele>144.2</ele>
        <time>2018-02-10T11:17:15Z</time>
      </trkpt>
      <trkpt lat="62.653488046509" lon="17.855976154506">
        <ele>144.4</ele>
        <time>2018-02-10T11:17:16Z</time>
      </trkpt>
      <trkpt lat="62.653471869442" lon="17.855970454814">
        <ele>144.4</ele>
        <time>2018-02-10T11:17:17Z</time>
      </trkpt>
      <trkpt lat="62.653453177805" lon="17.855962240552">
        <ele>144.6</ele>
        <time>2018-02-10T11:17:18Z</time>
      </trkpt>
      <trkpt lat="62.653437587471" lon="17.855948410417">
        <ele>144.6</ele>
        <time>2018-02-10T11:17:19Z</time>
      </trkpt>
      <trkpt lat="62.653415375436" lon="17.855930137875">
        <ele>144.8</ele>
        <time>2018-02-10T11:17:20Z</time>
      </trkpt>
      <trkpt lat="62.653395510333" lon="17.855911697695">
        <ele>145.2</ele>
        <time>2018-02-10T11:17:21Z</time>
      </trkpt>
      <trkpt lat="62.653381764017" lon="17.8558945148">
        <ele>145.4</ele>
        <time>2018-02-10T11:17:22Z</time>
      </trkpt>
      <trkpt lat="62.653365922226" lon="17.855874565878">
        <ele>145.6</ele>
        <time>2018-02-10T11:17:23Z</time>
      </trkpt>
      <trkpt lat="62.65334547039" lon="17.855857466802">
        <ele>146</ele>
        <time>2018-02-10T11:17:24Z</time>
      </trkpt>
      <trkpt lat="62.653327533124" lon="17.855827711057">
        <ele>146.2</ele>
        <time>2018-02-10T11:17:25Z</time>
      </trkpt>
      <trkpt lat="62.653308170935" lon="17.855792842353">
        <ele>146.2</ele>
        <time>2018-02-10T11:17:26Z</time>
      </trkpt>
      <trkpt lat="62.653291742411" lon="17.855767193739">
        <ele>146.4</ele>
        <time>2018-02-10T11:17:27Z</time>
      </trkpt>
      <trkpt lat="62.653276906448" lon="17.855750597577">
        <ele>146.4</ele>
        <time>2018-02-10T11:17:28Z</time>
      </trkpt>
      <trkpt lat="62.65326165139" lon="17.855732241216">
        <ele>146.6</ele>
        <time>2018-02-10T11:17:29Z</time>
      </trkpt>
      <trkpt lat="62.653244719952" lon="17.855712711389">
        <ele>146.8</ele>
        <time>2018-02-10T11:17:30Z</time>
      </trkpt>
      <trkpt lat="62.653227872333" lon="17.855700557634">
        <ele>147.2</ele>
        <time>2018-02-10T11:17:31Z</time>
      </trkpt>
      <trkpt lat="62.65321555094" lon="17.855692846286">
        <ele>147.4</ele>
        <time>2018-02-10T11:17:32Z</time>
      </trkpt>
      <trkpt lat="62.653196943122" lon="17.855688906793">
        <ele>147.6</ele>
        <time>2018-02-10T11:17:33Z</time>
      </trkpt>
      <trkpt lat="62.653179089675" lon="17.855668874052">
        <ele>148</ele>
        <time>2018-02-10T11:17:34Z</time>
      </trkpt>
      <trkpt lat="62.653157799649" lon="17.855659737781">
        <ele>148</ele>
        <time>2018-02-10T11:17:35Z</time>
      </trkpt>
      <trkpt lat="62.653137263994" lon="17.855644566542">
        <ele>148.2</ele>
        <time>2018-02-10T11:17:36Z</time>
      </trkpt>
      <trkpt lat="62.653120919289" lon="17.855631909873">
        <ele>148.4</ele>
        <time>2018-02-10T11:17:37Z</time>
      </trkpt>
      <trkpt lat="62.653103317299" lon="17.85561455934">
        <ele>148.6</ele>
        <time>2018-02-10T11:17:38Z</time>
      </trkpt>
      <trkpt lat="62.653087140232" lon="17.85560031011">
        <ele>148.8</ele>
        <time>2018-02-10T11:17:39Z</time>
      </trkpt>
      <trkpt lat="62.653069873518" lon="17.855585306509">
        <ele>149</ele>
        <time>2018-02-10T11:17:40Z</time>
      </trkpt>
      <trkpt lat="62.653058390315" lon="17.855576337876">
        <ele>149.4</ele>
        <time>2018-02-10T11:17:41Z</time>
      </trkpt>
      <trkpt lat="62.653039698678" lon="17.855565525225">
        <ele>149.6</ele>
        <time>2018-02-10T11:17:42Z</time>
      </trkpt>
      <trkpt lat="62.653015726444" lon="17.855546246855">
        <ele>150</ele>
        <time>2018-02-10T11:17:43Z</time>
      </trkpt>
      <trkpt lat="62.652994604056" lon="17.855524537734">
        <ele>150.4</ele>
        <time>2018-02-10T11:17:44Z</time>
      </trkpt>
      <trkpt lat="62.652978846084" lon="17.855505259364">
        <ele>150.6</ele>
        <time>2018-02-10T11:17:45Z</time>
      </trkpt>
      <trkpt lat="62.652959986809" lon="17.855496961283">
        <ele>151</ele>
        <time>2018-02-10T11:17:46Z</time>
      </trkpt>
      <trkpt lat="62.652945402303" lon="17.855488663202">
        <ele>151.4</ele>
        <time>2018-02-10T11:17:47Z</time>
      </trkpt>
      <trkpt lat="62.652929141417" lon="17.855480868035">
        <ele>151.6</ele>
        <time>2018-02-10T11:17:48Z</time>
      </trkpt>
      <trkpt lat="62.652913551083" lon="17.855471899402">
        <ele>151.8</ele>
        <time>2018-02-10T11:17:49Z</time>
      </trkpt>
      <trkpt lat="62.652897374016" lon="17.855469301013">
        <ele>152</ele>
        <time>2018-02-10T11:17:50Z</time>
      </trkpt>
      <trkpt lat="62.652882202777" lon="17.855463182226">
        <ele>152.4</ele>
        <time>2018-02-10T11:17:51Z</time>
      </trkpt>
      <trkpt lat="62.652873737058" lon="17.855456309068">
        <ele>152.4</ele>
        <time>2018-02-10T11:17:52Z</time>
      </trkpt>
      <trkpt lat="62.652856470344" lon="17.855449771186">
        <ele>152.6</ele>
        <time>2018-02-10T11:17:53Z</time>
      </trkpt>
      <trkpt lat="62.652839958001" lon="17.855445915512">
        <ele>152.8</ele>
        <time>2018-02-10T11:17:54Z</time>
      </trkpt>
      <trkpt lat="62.652825457314" lon="17.8554418922">
        <ele>153</ele>
        <time>2018-02-10T11:17:55Z</time>
      </trkpt>
      <trkpt lat="62.652807939143" lon="17.855435857232">
        <ele>153.2</ele>
        <time>2018-02-10T11:17:56Z</time>
      </trkpt>
      <trkpt lat="62.652791845895" lon="17.855434264671">
        <ele>153.4</ele>
        <time>2018-02-10T11:17:57Z</time>
      </trkpt>
      <trkpt lat="62.652773908629" lon="17.855439629087">
        <ele>153.4</ele>
        <time>2018-02-10T11:17:58Z</time>
      </trkpt>
      <trkpt lat="62.652751612775" lon="17.855434599947">
        <ele>153.6</ele>
        <time>2018-02-10T11:17:59Z</time>
      </trkpt>
      <trkpt lat="62.652729987473" lon="17.855428397341">
        <ele>153.6</ele>
        <time>2018-02-10T11:18:00Z</time>
      </trkpt>
      <trkpt lat="62.65271347513" lon="17.855424122572">
        <ele>153.6</ele>
        <time>2018-02-10T11:18:01Z</time>
      </trkpt>
      <trkpt lat="62.65269838771" lon="17.85542345202">
        <ele>153.6</ele>
        <time>2018-02-10T11:18:02Z</time>
      </trkpt>
      <trkpt lat="62.652686066317" lon="17.855421440364">
        <ele>153.8</ele>
        <time>2018-02-10T11:18:03Z</time>
      </trkpt>
      <trkpt lat="62.652669721612" lon="17.85542345202">
        <ele>153.8</ele>
        <time>2018-02-10T11:18:04Z</time>
      </trkpt>
      <trkpt lat="62.652646839025" lon="17.85541758469">
        <ele>154</ele>
        <time>2018-02-10T11:18:05Z</time>
      </trkpt>
      <trkpt lat="62.652626722465" lon="17.855419009613">
        <ele>154.2</ele>
        <time>2018-02-10T11:18:06Z</time>
      </trkpt>
      <trkpt lat="62.652611635045" lon="17.855430744273">
        <ele>154.6</ele>
        <time>2018-02-10T11:18:07Z</time>
      </trkpt>
      <trkpt lat="62.652587830449" lon="17.855437365974">
        <ele>154.6</ele>
        <time>2018-02-10T11:18:08Z</time>
      </trkpt>
      <trkpt lat="62.652568635898" lon="17.855448178625">
        <ele>154.8</ele>
        <time>2018-02-10T11:18:09Z</time>
      </trkpt>
      <trkpt lat="62.652548938433" lon="17.855464607149">
        <ele>155</ele>
        <time>2018-02-10T11:18:10Z</time>
      </trkpt>
      <trkpt lat="62.652525469113" lon="17.855491010134">
        <ele>155</ele>
        <time>2018-02-10T11:18:11Z</time>
      </trkpt>
      <trkpt lat="62.652512980082" lon="17.855521687888">
        <ele>155</ele>
        <time>2018-02-10T11:18:12Z</time>
      </trkpt>
      <trkpt lat="62.652489594581" lon="17.855574410039">
        <ele>155.2</ele>
        <time>2018-02-10T11:18:13Z</time>
      </trkpt>
      <trkpt lat="62.652474004247" lon="17.855628221837">
        <ele>155</ele>
        <time>2018-02-10T11:18:14Z</time>
      </trkpt>
      <trkpt lat="62.652460844664" lon="17.855671220984">
        <ele>155.2</ele>
        <time>2018-02-10T11:18:15Z</time>
      </trkpt>
      <trkpt lat="62.652439722276" lon="17.855731822121">
        <ele>155.2</ele>
        <time>2018-02-10T11:18:16Z</time>
      </trkpt>
      <trkpt lat="62.65242597596" lon="17.855777000562">
        <ele>155.2</ele>
        <time>2018-02-10T11:18:17Z</time>
      </trkpt>
      <trkpt lat="62.652413570748" lon="17.855815222026">
        <ele>155.2</ele>
        <time>2018-02-10T11:18:18Z</time>
      </trkpt>
      <trkpt lat="62.652395046749" lon="17.85586769272">
        <ele>155</ele>
        <time>2018-02-10T11:18:19Z</time>
      </trkpt>
      <trkpt lat="62.652381719528" lon="17.855922007432">
        <ele>155.2</ele>
        <time>2018-02-10T11:18:20Z</time>
      </trkpt>
      <trkpt lat="62.652368476126" lon="17.855967688787">
        <ele>155.2</ele>
        <time>2018-02-10T11:18:21Z</time>
      </trkpt>
      <trkpt lat="62.652348611023" lon="17.856019991843">
        <ele>155.2</ele>
        <time>2018-02-10T11:18:22Z</time>
      </trkpt>
      <trkpt lat="62.652331009033" lon="17.856069864148">
        <ele>155.2</ele>
        <time>2018-02-10T11:18:23Z</time>
      </trkpt>
      <trkpt lat="62.652318184726" lon="17.856098530246">
        <ele>155.2</ele>
        <time>2018-02-10T11:18:24Z</time>
      </trkpt>
      <trkpt lat="62.652296475605" lon="17.856149408379">
        <ele>155.2</ele>
        <time>2018-02-10T11:18:25Z</time>
      </trkpt>
      <trkpt lat="62.652283651298" lon="17.856177655382">
        <ele>155.2</ele>
        <time>2018-02-10T11:18:26Z</time>
      </trkpt>
      <trkpt lat="62.652273257742" lon="17.856211602077">
        <ele>155.2</ele>
        <time>2018-02-10T11:18:27Z</time>
      </trkpt>
      <trkpt lat="62.652256745399" lon="17.856248063342">
        <ele>155.4</ele>
        <time>2018-02-10T11:18:28Z</time>
      </trkpt>
      <trkpt lat="62.652239730142" lon="17.856274047232">
        <ele>155.4</ele>
        <time>2018-02-10T11:18:29Z</time>
      </trkpt>
      <trkpt lat="62.652220116496" lon="17.856312184877">
        <ele>155.6</ele>
        <time>2018-02-10T11:18:30Z</time>
      </trkpt>
      <trkpt lat="62.652209303845" lon="17.856337749672">
        <ele>155.8</ele>
        <time>2018-02-10T11:18:31Z</time>
      </trkpt>
      <trkpt lat="62.652190863665" lon="17.856364320295">
        <ele>156</ele>
        <time>2018-02-10T11:18:32Z</time>
      </trkpt>
      <trkpt lat="62.652158258074" lon="17.856401535931">
        <ele>156.2</ele>
        <time>2018-02-10T11:18:33Z</time>
      </trkpt>
      <trkpt lat="62.652133112374" lon="17.856430788762">
        <ele>156.4</ele>
        <time>2018-02-10T11:18:34Z</time>
      </trkpt>
      <trkpt lat="62.652100422964" lon="17.856462639982">
        <ele>156.4</ele>
        <time>2018-02-10T11:18:35Z</time>
      </trkpt>
      <trkpt lat="62.652058932559" lon="17.85648208599">
        <ele>156.2</ele>
        <time>2018-02-10T11:18:36Z</time>
      </trkpt>
      <trkpt lat="62.652028757719" lon="17.85650471712">
        <ele>156.2</ele>
        <time>2018-02-10T11:18:37Z</time>
      </trkpt>
      <trkpt lat="62.65199179354" lon="17.856543776774">
        <ele>156</ele>
        <time>2018-02-10T11:18:38Z</time>
      </trkpt>
      <trkpt lat="62.651968994772" lon="17.856589039034">
        <ele>155.8</ele>
        <time>2018-02-10T11:18:39Z</time>
      </trkpt>
      <trkpt lat="62.651934209887" lon="17.856665565781">
        <ele>155.6</ele>
        <time>2018-02-10T11:18:40Z</time>
      </trkpt>
      <trkpt lat="62.651904370323" lon="17.856745110012">
        <ele>155.6</ele>
        <time>2018-02-10T11:18:41Z</time>
      </trkpt>
      <trkpt lat="62.651874614578" lon="17.856839071111">
        <ele>155.2</ele>
        <time>2018-02-10T11:18:42Z</time>
      </trkpt>
      <trkpt lat="62.651845780842" lon="17.856941917024">
        <ele>154.6</ele>
        <time>2018-02-10T11:18:43Z</time>
      </trkpt>
      <trkpt lat="62.651821305694" lon="17.857019952513">
        <ele>154.2</ele>
        <time>2018-02-10T11:18:44Z</time>
      </trkpt>
      <trkpt lat="62.65180152441" lon="17.857100754029">
        <ele>153.4</ele>
        <time>2018-02-10T11:18:45Z</time>
      </trkpt>
      <trkpt lat="62.651778977099" lon="17.857188596341">
        <ele>152.8</ele>
        <time>2018-02-10T11:18:46Z</time>
      </trkpt>
      <trkpt lat="62.651754166675" lon="17.85724316251">
        <ele>152.4</ele>
        <time>2018-02-10T11:18:47Z</time>
      </trkpt>
      <trkpt lat="62.651731703183" lon="17.857306362036">
        <ele>151.8</ele>
        <time>2018-02-10T11:18:48Z</time>
      </trkpt>
      <trkpt lat="62.651711502804" lon="17.857365119155">
        <ele>152.2</ele>
        <time>2018-02-10T11:18:49Z</time>
      </trkpt>
      <trkpt lat="62.651685351276" lon="17.857434437468">
        <ele>152.6</ele>
        <time>2018-02-10T11:18:50Z</time>
      </trkpt>
      <trkpt lat="62.651657774825" lon="17.857499481012">
        <ele>152.6</ele>
        <time>2018-02-10T11:18:51Z</time>
      </trkpt>
      <trkpt lat="62.651628689632" lon="17.857564524556">
        <ele>152.6</ele>
        <time>2018-02-10T11:18:52Z</time>
      </trkpt>
      <trkpt lat="62.651592479824" lon="17.85764381733">
        <ele>152.4</ele>
        <time>2018-02-10T11:18:53Z</time>
      </trkpt>
      <trkpt lat="62.651557694939" lon="17.857707771227">
        <ele>151.8</ele>
        <time>2018-02-10T11:18:54Z</time>
      </trkpt>
      <trkpt lat="62.651530118488" lon="17.857782453956">
        <ele>151.4</ele>
        <time>2018-02-10T11:18:55Z</time>
      </trkpt>
      <trkpt lat="62.651504218417" lon="17.857853113373">
        <ele>151.2</ele>
        <time>2018-02-10T11:18:56Z</time>
      </trkpt>
      <trkpt lat="62.651480330002" lon="17.857929221025">
        <ele>151</ele>
        <time>2018-02-10T11:18:57Z</time>
      </trkpt>
      <trkpt lat="62.651453843198" lon="17.858011698921">
        <ele>150.8</ele>
        <time>2018-02-10T11:18:58Z</time>
      </trkpt>
      <trkpt lat="62.651422913987" lon="17.858074898447">
        <ele>150.8</ele>
        <time>2018-02-10T11:18:59Z</time>
      </trkpt>
      <trkpt lat="62.651393409699" lon="17.858148659167">
        <ele>151</ele>
        <time>2018-02-10T11:19:00Z</time>
      </trkpt>
      <trkpt lat="62.651363234859" lon="17.858206997191">
        <ele>150.8</ele>
        <time>2018-02-10T11:19:01Z</time>
      </trkpt>
      <trkpt lat="62.65133884353" lon="17.858251337442">
        <ele>150.8</ele>
        <time>2018-02-10T11:19:02Z</time>
      </trkpt>
      <trkpt lat="62.651322163549" lon="17.858308082905">
        <ele>150.8</ele>
        <time>2018-02-10T11:19:03Z</time>
      </trkpt>
      <trkpt lat="62.651291318157" lon="17.858369186956">
        <ele>150.8</ele>
        <time>2018-02-10T11:19:04Z</time>
      </trkpt>
      <trkpt lat="62.65126256824" lon="17.858431464473">
        <ele>150.6</ele>
        <time>2018-02-10T11:19:05Z</time>
      </trkpt>
      <trkpt lat="62.651237506359" lon="17.858488629031">
        <ele>150.6</ele>
        <time>2018-02-10T11:19:06Z</time>
      </trkpt>
      <trkpt lat="62.651205738958" lon="17.858538920431">
        <ele>150.4</ele>
        <time>2018-02-10T11:19:07Z</time>
      </trkpt>
      <trkpt lat="62.65117539648" lon="17.858593570419">
        <ele>150.4</ele>
        <time>2018-02-10T11:19:08Z</time>
      </trkpt>
      <trkpt lat="62.651146395106" lon="17.858632210978">
        <ele>150.4</ele>
        <time>2018-02-10T11:19:09Z</time>
      </trkpt>
      <trkpt lat="62.651109011832" lon="17.858668504605">
        <ele>150.2</ele>
        <time>2018-02-10T11:19:10Z</time>
      </trkpt>
      <trkpt lat="62.651069449264" lon="17.858697673617">
        <ele>150</ele>
        <time>2018-02-10T11:19:11Z</time>
      </trkpt>
      <trkpt lat="62.651032401266" lon="17.858714018322">
        <ele>149.8</ele>
        <time>2018-02-10T11:19:12Z</time>
      </trkpt>
      <trkpt lat="62.650999460399" lon="17.858731033579">
        <ele>149.8</ele>
        <time>2018-02-10T11:19:13Z</time>
      </trkpt>
      <trkpt lat="62.650968698826" lon="17.858724998611">
        <ele>149.2</ele>
        <time>2018-02-10T11:19:14Z</time>
      </trkpt>
      <trkpt lat="62.65095327613" lon="17.858722819317">
        <ele>148.8</ele>
        <time>2018-02-10T11:19:15Z</time>
      </trkpt>
      <trkpt lat="62.650942212022" lon="17.858716784349">
        <ele>148.6</ele>
        <time>2018-02-10T11:19:16Z</time>
      </trkpt>
      <trkpt lat="62.650939110719" lon="17.858718293091">
        <ele>148.6</ele>
        <time>2018-02-10T11:19:17Z</time>
      </trkpt>
      <trkpt lat="62.650938859262" lon="17.85872005329">
        <ele>148.6</ele>
        <time>2018-02-10T11:19:18Z</time>
      </trkpt>
      <trkpt lat="62.650937518158" lon="17.858730279208">
        <ele>148.8</ele>
        <time>2018-02-10T11:19:19Z</time>
      </trkpt>
      <trkpt lat="62.650938943081" lon="17.858727177905">
        <ele>149</ele>
        <time>2018-02-10T11:19:20Z</time>
      </trkpt>
      <trkpt lat="62.65094321785" lon="17.85872340605">
        <ele>149.2</ele>
        <time>2018-02-10T11:19:21Z</time>
      </trkpt>
      <trkpt lat="62.650734257083" lon="17.858574627325">
        <ele>148.4</ele>
        <time>2018-02-10T11:19:44Z</time>
      </trkpt>
      <trkpt lat="62.650707435003" lon="17.858518636233">
        <ele>148.6</ele>
        <time>2018-02-10T11:19:45Z</time>
      </trkpt>
      <trkpt lat="62.650682876036" lon="17.858462393684">
        <ele>148.6</ele>
        <time>2018-02-10T11:19:46Z</time>
      </trkpt>
      <trkpt lat="62.650652533558" lon="17.858355524459">
        <ele>148.6</ele>
        <time>2018-02-10T11:19:47Z</time>
      </trkpt>
      <trkpt lat="62.650628309867" lon="17.858244045189">
        <ele>148.4</ele>
        <time>2018-02-10T11:19:48Z</time>
      </trkpt>
      <trkpt lat="62.650609282954" lon="17.858132146824">
        <ele>148.2</ele>
        <time>2018-02-10T11:19:49Z</time>
      </trkpt>
      <trkpt lat="62.65059201624" lon="17.858010525455">
        <ele>147.8</ele>
        <time>2018-02-10T11:19:50Z</time>
      </trkpt>
      <trkpt lat="62.650573743698" lon="17.857884126403">
        <ele>146.8</ele>
        <time>2018-02-10T11:19:51Z</time>
      </trkpt>
      <trkpt lat="62.650557063717" lon="17.857781951042">
        <ele>146.4</ele>
        <time>2018-02-10T11:19:52Z</time>
      </trkpt>
      <trkpt lat="62.650529068171" lon="17.857629316643">
        <ele>145.4</ele>
        <time>2018-02-10T11:19:53Z</time>
      </trkpt>
      <trkpt lat="62.650498390417" lon="17.857501576487">
        <ele>144.6</ele>
        <time>2018-02-10T11:19:54Z</time>
      </trkpt>
      <trkpt lat="62.65046042041" lon="17.857364113327">
        <ele>143.8</ele>
        <time>2018-02-10T11:19:55Z</time>
      </trkpt>
      <trkpt lat="62.65042605462" lon="17.857245257985">
        <ele>143.4</ele>
        <time>2018-02-10T11:19:56Z</time>
      </trkpt>
      <trkpt lat="62.650387665518" lon="17.857133778715">
        <ele>142.8</ele>
        <time>2018-02-10T11:19:57Z</time>
      </trkpt>
      <trkpt lat="62.650346175113" lon="17.857029591698">
        <ele>142.4</ele>
        <time>2018-02-10T11:19:58Z</time>
      </trkpt>
      <trkpt lat="62.65030451707" lon="17.856940492101">
        <ele>141.8</ele>
        <time>2018-02-10T11:19:59Z</time>
      </trkpt>
      <trkpt lat="62.650248861254" lon="17.856852063056">
        <ele>141</ele>
        <time>2018-02-10T11:20:00Z</time>
      </trkpt>
      <trkpt lat="62.650193792171" lon="17.856788444435">
        <ele>140.4</ele>
        <time>2018-02-10T11:20:01Z</time>
      </trkpt>
      <trkpt lat="62.650144171323" lon="17.85674276308">
        <ele>139.6</ele>
        <time>2018-02-10T11:20:02Z</time>
      </trkpt>
      <trkpt lat="62.65008742586" lon="17.856706301815">
        <ele>139</ele>
        <time>2018-02-10T11:20:03Z</time>
      </trkpt>
      <trkpt lat="62.650047947111" lon="17.85668576616">
        <ele>138.4</ele>
        <time>2018-02-10T11:20:04Z</time>
      </trkpt>
      <trkpt lat="62.650012575493" lon="17.856677719536">
        <ele>138.4</ele>
        <time>2018-02-10T11:20:05Z</time>
      </trkpt>
      <trkpt lat="62.649982065377" lon="17.856678054812">
        <ele>138.4</ele>
        <time>2018-02-10T11:20:06Z</time>
      </trkpt>
      <trkpt lat="62.649961445903" lon="17.856672690396">
        <ele>138.4</ele>
        <time>2018-02-10T11:20:07Z</time>
      </trkpt>
      <trkpt lat="62.649934372366" lon="17.85666313503">
        <ele>138.6</ele>
        <time>2018-02-10T11:20:08Z</time>
      </trkpt>
      <trkpt lat="62.649912495607" lon="17.856655758958">
        <ele>138.8</ele>
        <time>2018-02-10T11:20:09Z</time>
      </trkpt>
      <trkpt lat="62.649890786486" lon="17.856653579664">
        <ele>138.8</ele>
        <time>2018-02-10T11:20:10Z</time>
      </trkpt>
      <trkpt lat="62.649867065709" lon="17.856654334035">
        <ele>139.2</ele>
        <time>2018-02-10T11:20:11Z</time>
      </trkpt>
      <trkpt lat="62.649842003828" lon="17.856649975447">
        <ele>139.4</ele>
        <time>2018-02-10T11:20:12Z</time>
      </trkpt>
      <trkpt lat="62.649818869784" lon="17.856647712334">
        <ele>139.6</ele>
        <time>2018-02-10T11:20:13Z</time>
      </trkpt>
      <trkpt lat="62.649803111812" lon="17.856643689022">
        <ele>139.8</ele>
        <time>2018-02-10T11:20:14Z</time>
      </trkpt>
      <trkpt lat="62.649782827614" lon="17.856649640171">
        <ele>139.8</ele>
        <time>2018-02-10T11:20:15Z</time>
      </trkpt>
      <trkpt lat="62.649760699398" lon="17.856646035954">
        <ele>140</ele>
        <time>2018-02-10T11:20:16Z</time>
      </trkpt>
      <trkpt lat="62.649745863435" lon="17.856639246615">
        <ele>140</ele>
        <time>2018-02-10T11:20:17Z</time>
      </trkpt>
      <trkpt lat="62.649725160142" lon="17.856633546923">
        <ele>140</ele>
        <time>2018-02-10T11:20:18Z</time>
      </trkpt>
      <trkpt lat="62.649702445193" lon="17.856634804208">
        <ele>140.4</ele>
        <time>2018-02-10T11:20:19Z</time>
      </trkpt>
      <trkpt lat="62.649678472959" lon="17.856640671538">
        <ele>140.6</ele>
        <time>2018-02-10T11:20:20Z</time>
      </trkpt>
      <trkpt lat="62.649657518209" lon="17.856642683194">
        <ele>140.8</ele>
        <time>2018-02-10T11:20:21Z</time>
      </trkpt>
      <trkpt lat="62.64964150878" lon="17.856642515556">
        <ele>141</ele>
        <time>2018-02-10T11:20:22Z</time>
      </trkpt>
      <trkpt lat="62.64962139222" lon="17.856642850832">
        <ele>141.2</ele>
        <time>2018-02-10T11:20:23Z</time>
      </trkpt>
      <trkpt lat="62.649601694755" lon="17.856640168624">
        <ele>141.4</ele>
        <time>2018-02-10T11:20:24Z</time>
      </trkpt>
      <trkpt lat="62.649584176584" lon="17.856639414253">
        <ele>141.4</ele>
        <time>2018-02-10T11:20:25Z</time>
      </trkpt>
      <trkpt lat="62.649564060024" lon="17.856643940479">
        <ele>141.6</ele>
        <time>2018-02-10T11:20:26Z</time>
      </trkpt>
      <trkpt lat="62.649535477745" lon="17.85664553304">
        <ele>141.8</ele>
        <time>2018-02-10T11:20:27Z</time>
      </trkpt>
      <trkpt lat="62.649511840787" lon="17.856647628515">
        <ele>142.2</ele>
        <time>2018-02-10T11:20:28Z</time>
      </trkpt>
      <trkpt lat="62.649495076987" lon="17.85664637123">
        <ele>142.4</ele>
        <time>2018-02-10T11:20:29Z</time>
      </trkpt>
      <trkpt lat="62.649470266563" lon="17.856645197764">
        <ele>142.6</ele>
        <time>2018-02-10T11:20:30Z</time>
      </trkpt>
      <trkpt lat="62.649444282673" lon="17.856636229131">
        <ele>143</ele>
        <time>2018-02-10T11:20:31Z</time>
      </trkpt>
      <trkpt lat="62.649424836665" lon="17.856633295466">
        <ele>143.2</ele>
        <time>2018-02-10T11:20:32Z</time>
      </trkpt>
      <trkpt lat="62.649396086748" lon="17.856613430363">
        <ele>143.6</ele>
        <time>2018-02-10T11:20:33Z</time>
      </trkpt>
      <trkpt lat="62.649377981844" lon="17.856587865568">
        <ele>143.6</ele>
        <time>2018-02-10T11:20:34Z</time>
      </trkpt>
      <trkpt lat="62.649358871112" lon="17.85656171404">
        <ele>143.8</ele>
        <time>2018-02-10T11:20:35Z</time>
      </trkpt>
      <trkpt lat="62.649340263294" lon="17.856536149245">
        <ele>143.8</ele>
        <time>2018-02-10T11:20:36Z</time>
      </trkpt>
      <trkpt lat="62.649321739295" lon="17.85650136436">
        <ele>143.8</ele>
        <time>2018-02-10T11:20:37Z</time>
      </trkpt>
      <trkpt lat="62.649308244436" lon="17.856466914751">
        <ele>143.8</ele>
        <time>2018-02-10T11:20:38Z</time>
      </trkpt>
      <trkpt lat="62.649291480636" lon="17.856433051875">
        <ele>144</ele>
        <time>2018-02-10T11:20:39Z</time>
      </trkpt>
      <trkpt lat="62.649263233633" lon="17.856385358864">
        <ele>144.2</ele>
        <time>2018-02-10T11:20:40Z</time>
      </trkpt>
      <trkpt lat="62.64924672129" lon="17.856357028042">
        <ele>144.2</ele>
        <time>2018-02-10T11:20:41Z</time>
      </trkpt>
      <trkpt lat="62.649226017997" lon="17.856314196533">
        <ele>144</ele>
        <time>2018-02-10T11:20:42Z</time>
      </trkpt>
      <trkpt lat="62.649210427663" lon="17.856266754979">
        <ele>144.2</ele>
        <time>2018-02-10T11:20:43Z</time>
      </trkpt>
      <trkpt lat="62.649194334415" lon="17.856223336737">
        <ele>144.2</ele>
        <time>2018-02-10T11:20:44Z</time>
      </trkpt>
      <trkpt lat="62.649171619466" lon="17.856172626242">
        <ele>144.2</ele>
        <time>2018-02-10T11:20:45Z</time>
      </trkpt>
      <trkpt lat="62.64914865306" lon="17.856125436145">
        <ele>144.4</ele>
        <time>2018-02-10T11:20:46Z</time>
      </trkpt>
      <trkpt lat="62.649130296699" lon="17.856092830554">
        <ele>144.4</ele>
        <time>2018-02-10T11:20:47Z</time>
      </trkpt>
      <trkpt lat="62.649113365261" lon="17.856048322665">
        <ele>144.4</ele>
        <time>2018-02-10T11:20:48Z</time>
      </trkpt>
      <trkpt lat="62.649100540954" lon="17.856023679879">
        <ele>144.4</ele>
        <time>2018-02-10T11:20:49Z</time>
      </trkpt>
      <trkpt lat="62.649090398855" lon="17.856001719301">
        <ele>144.4</ele>
        <time>2018-02-10T11:20:50Z</time>
      </trkpt>
      <trkpt lat="62.649073467417" lon="17.855979423447">
        <ele>144.4</ele>
        <time>2018-02-10T11:20:51Z</time>
      </trkpt>
      <trkpt lat="62.649056200703" lon="17.855950002978">
        <ele>144.4</ele>
        <time>2018-02-10T11:20:52Z</time>
      </trkpt>
      <trkpt lat="62.649039185446" lon="17.855920750147">
        <ele>144.4</ele>
        <time>2018-02-10T11:20:53Z</time>
      </trkpt>
      <trkpt lat="62.649013201556" lon="17.85590122032">
        <ele>144.4</ele>
        <time>2018-02-10T11:20:54Z</time>
      </trkpt>
      <trkpt lat="62.648987636761" lon="17.855869872014">
        <ele>144.6</ele>
        <time>2018-02-10T11:20:55Z</time>
      </trkpt>
      <trkpt lat="62.64895335479" lon="17.855830057989">
        <ele>145</ele>
        <time>2018-02-10T11:20:56Z</time>
      </trkpt>
      <trkpt lat="62.648931058936" lon="17.855796530389">
        <ele>145.4</ele>
        <time>2018-02-10T11:20:57Z</time>
      </trkpt>
      <trkpt lat="62.64890893072" lon="17.855767445196">
        <ele>145.6</ele>
        <time>2018-02-10T11:20:58Z</time>
      </trkpt>
      <trkpt lat="62.648893088929" lon="17.855736515985">
        <ele>145.8</ele>
        <time>2018-02-10T11:20:59Z</time>
      </trkpt>
      <trkpt lat="62.648880264622" lon="17.855706592602">
        <ele>146</ele>
        <time>2018-02-10T11:21:00Z</time>
      </trkpt>
      <trkpt lat="62.648856543845" lon="17.855663761093">
        <ele>146</ele>
        <time>2018-02-10T11:21:01Z</time>
      </trkpt>
      <trkpt lat="62.648837181656" lon="17.855630233493">
        <ele>146</ele>
        <time>2018-02-10T11:21:02Z</time>
      </trkpt>
      <trkpt lat="62.648824860263" lon="17.85560869201">
        <ele>146.2</ele>
        <time>2018-02-10T11:21:03Z</time>
      </trkpt>
      <trkpt lat="62.648808515558" lon="17.85557013527">
        <ele>146.4</ele>
        <time>2018-02-10T11:21:04Z</time>
      </trkpt>
      <trkpt lat="62.648786135885" lon="17.855534596014">
        <ele>146.6</ele>
        <time>2018-02-10T11:21:05Z</time>
      </trkpt>
      <trkpt lat="62.648759984357" lon="17.855503163889">
        <ele>146.6</ele>
        <time>2018-02-10T11:21:06Z</time>
      </trkpt>
      <trkpt lat="62.64873877815" lon="17.855494530532">
        <ele>146.8</ele>
        <time>2018-02-10T11:21:07Z</time>
      </trkpt>
      <trkpt lat="62.648712291346" lon="17.85547458161">
        <ele>147</ele>
        <time>2018-02-10T11:21:08Z</time>
      </trkpt>
      <trkpt lat="62.64868681037" lon="17.855469468651">
        <ele>147</ele>
        <time>2018-02-10T11:21:09Z</time>
      </trkpt>
      <trkpt lat="62.648661580851" lon="17.855473994877">
        <ele>147</ele>
        <time>2018-02-10T11:21:10Z</time>
      </trkpt>
      <trkpt lat="62.648635261685" lon="17.855484556071">
        <ele>147</ele>
        <time>2018-02-10T11:21:11Z</time>
      </trkpt>
      <trkpt lat="62.64861304965" lon="17.855511713427">
        <ele>147</ele>
        <time>2018-02-10T11:21:12Z</time>
      </trkpt>
      <trkpt lat="62.648587652493" lon="17.855531913806">
        <ele>147.2</ele>
        <time>2018-02-10T11:21:13Z</time>
      </trkpt>
      <trkpt lat="62.648560914232" lon="17.855562004827">
        <ele>147.2</ele>
        <time>2018-02-10T11:21:14Z</time>
      </trkpt>
      <trkpt lat="62.648539875663" lon="17.855589748916">
        <ele>147</ele>
        <time>2018-02-10T11:21:15Z</time>
      </trkpt>
      <trkpt lat="62.648515484334" lon="17.855609362562">
        <ele>147</ele>
        <time>2018-02-10T11:21:16Z</time>
      </trkpt>
      <trkpt lat="62.648498469077" lon="17.855629479122">
        <ele>146.8</ele>
        <time>2018-02-10T11:21:17Z</time>
      </trkpt>
      <trkpt lat="62.648474580662" lon="17.855646997293">
        <ele>147</ele>
        <time>2018-02-10T11:21:18Z</time>
      </trkpt>
      <trkpt lat="62.648447423306" lon="17.855663509636">
        <ele>147</ele>
        <time>2018-02-10T11:21:19Z</time>
      </trkpt>
      <trkpt lat="62.648424624538" lon="17.855673484097">
        <ele>146.8</ele>
        <time>2018-02-10T11:21:20Z</time>
      </trkpt>
      <trkpt lat="62.648397467182" lon="17.855696618141">
        <ele>146.8</ele>
        <time>2018-02-10T11:21:21Z</time>
      </trkpt>
      <trkpt lat="62.648378691726" lon="17.855716483244">
        <ele>146.8</ele>
        <time>2018-02-10T11:21:22Z</time>
      </trkpt>
      <trkpt lat="62.648354384216" lon="17.855729894284">
        <ele>146.6</ele>
        <time>2018-02-10T11:21:23Z</time>
      </trkpt>
      <trkpt lat="62.648325801937" lon="17.855736013071">
        <ele>146.6</ele>
        <time>2018-02-10T11:21:24Z</time>
      </trkpt>
      <trkpt lat="62.648302751712" lon="17.855737186537">
        <ele>146.6</ele>
        <time>2018-02-10T11:21:25Z</time>
      </trkpt>
      <trkpt lat="62.648277354555" lon="17.855734504329">
        <ele>146.6</ele>
        <time>2018-02-10T11:21:26Z</time>
      </trkpt>
      <trkpt lat="62.648250867751" lon="17.855731654483">
        <ele>146.4</ele>
        <time>2018-02-10T11:21:27Z</time>
      </trkpt>
      <trkpt lat="62.648227314612" lon="17.855730732474">
        <ele>146.4</ele>
        <time>2018-02-10T11:21:28Z</time>
      </trkpt>
      <trkpt lat="62.648203593835" lon="17.85572939137">
        <ele>146.4</ele>
        <time>2018-02-10T11:21:29Z</time>
      </trkpt>
      <trkpt lat="62.648173335176" lon="17.855730397198">
        <ele>146.4</ele>
        <time>2018-02-10T11:21:30Z</time>
      </trkpt>
      <trkpt lat="62.648153972987" lon="17.855735929252">
        <ele>146.4</ele>
        <time>2018-02-10T11:21:31Z</time>
      </trkpt>
      <trkpt lat="62.648128994925" lon="17.855747747731">
        <ele>146.4</ele>
        <time>2018-02-10T11:21:32Z</time>
      </trkpt>
      <trkpt lat="62.648101334655" lon="17.855766774644">
        <ele>146.4</ele>
        <time>2018-02-10T11:21:33Z</time>
      </trkpt>
      <trkpt lat="62.648075602222" lon="17.855782113521">
        <ele>146.4</ele>
        <time>2018-02-10T11:21:34Z</time>
      </trkpt>
      <trkpt lat="62.648059592793" lon="17.855798625864">
        <ele>146.6</ele>
        <time>2018-02-10T11:21:35Z</time>
      </trkpt>
      <trkpt lat="62.648043331907" lon="17.855818742424">
        <ele>146.6</ele>
        <time>2018-02-10T11:21:36Z</time>
      </trkpt>
      <trkpt lat="62.648028160668" lon="17.855840954459">
        <ele>146.8</ele>
        <time>2018-02-10T11:21:37Z</time>
      </trkpt>
      <trkpt lat="62.64801122923" lon="17.855867273625">
        <ele>146.8</ele>
        <time>2018-02-10T11:21:38Z</time>
      </trkpt>
      <trkpt lat="62.647995387439" lon="17.855885797624">
        <ele>147.2</ele>
        <time>2018-02-10T11:21:39Z</time>
      </trkpt>
      <trkpt lat="62.647982814589" lon="17.855918906129">
        <ele>147.4</ele>
        <time>2018-02-10T11:21:40Z</time>
      </trkpt>
      <trkpt lat="62.647973007766" lon="17.855941201983">
        <ele>147.6</ele>
        <time>2018-02-10T11:21:41Z</time>
      </trkpt>
      <trkpt lat="62.647958842355" lon="17.855960145077">
        <ele>147.8</ele>
        <time>2018-02-10T11:21:42Z</time>
      </trkpt>
      <trkpt lat="62.647943252021" lon="17.855979088171">
        <ele>148</ele>
        <time>2018-02-10T11:21:43Z</time>
      </trkpt>
      <trkpt lat="62.647928751334" lon="17.856005742613">
        <ele>148.2</ele>
        <time>2018-02-10T11:21:44Z</time>
      </trkpt>
      <trkpt lat="62.647919698882" lon="17.856041533326">
        <ele>148.4</ele>
        <time>2018-02-10T11:21:45Z</time>
      </trkpt>
      <trkpt lat="62.647906623118" lon="17.85606969651">
        <ele>148.6</ele>
        <time>2018-02-10T11:21:46Z</time>
      </trkpt>
      <trkpt lat="62.647893212078" lon="17.85609987135">
        <ele>148.8</ele>
        <time>2018-02-10T11:21:47Z</time>
      </trkpt>
      <trkpt lat="62.647875358631" lon="17.856140355927">
        <ele>149</ele>
        <time>2018-02-10T11:21:48Z</time>
      </trkpt>
      <trkpt lat="62.647860941763" lon="17.856174637898">
        <ele>149.2</ele>
        <time>2018-02-10T11:21:49Z</time>
      </trkpt>
      <trkpt lat="62.647847363085" lon="17.856209758059">
        <ele>149.4</ele>
        <time>2018-02-10T11:21:50Z</time>
      </trkpt>
      <trkpt lat="62.647833113855" lon="17.856246051686">
        <ele>149.6</ele>
        <time>2018-02-10T11:21:51Z</time>
      </trkpt>
      <trkpt lat="62.64781844553" lon="17.856283686417">
        <ele>149.6</ele>
        <time>2018-02-10T11:21:52Z</time>
      </trkpt>
      <trkpt lat="62.647812494381" lon="17.856307239556">
        <ele>149.8</ele>
        <time>2018-02-10T11:21:53Z</time>
      </trkpt>
      <trkpt lat="62.647798077513" lon="17.85636222482">
        <ele>150</ele>
        <time>2018-02-10T11:21:54Z</time>
      </trkpt>
      <trkpt lat="62.647787935414" lon="17.856398434628">
        <ele>150.2</ele>
        <time>2018-02-10T11:21:55Z</time>
      </trkpt>
      <trkpt lat="62.647778463867" lon="17.856432716599">
        <ele>150.2</ele>
        <time>2018-02-10T11:21:56Z</time>
      </trkpt>
      <trkpt lat="62.647769662872" lon="17.856473033538">
        <ele>150.2</ele>
        <time>2018-02-10T11:21:57Z</time>
      </trkpt>
      <trkpt lat="62.647756084194" lon="17.856527012974">
        <ele>150.4</ele>
        <time>2018-02-10T11:21:58Z</time>
      </trkpt>
      <trkpt lat="62.647747618475" lon="17.856571353225">
        <ele>150.4</ele>
        <time>2018-02-10T11:21:59Z</time>
      </trkpt>
      <trkpt lat="62.64774133205" lon="17.856608568861">
        <ele>150.4</ele>
        <time>2018-02-10T11:22:00Z</time>
      </trkpt>
      <trkpt lat="62.647734375073" lon="17.856643605203">
        <ele>150.6</ele>
        <time>2018-02-10T11:22:01Z</time>
      </trkpt>
      <trkpt lat="62.647730100304" lon="17.856671433111">
        <ele>150.8</ele>
        <time>2018-02-10T11:22:02Z</time>
      </trkpt>
      <trkpt lat="62.647724232974" lon="17.85671091186">
        <ele>151.2</ele>
        <time>2018-02-10T11:22:03Z</time>
      </trkpt>
      <trkpt lat="62.647719622929" lon="17.856753240455">
        <ele>151.6</ele>
        <time>2018-02-10T11:22:04Z</time>
      </trkpt>
      <trkpt lat="62.647714258513" lon="17.856805962606">
        <ele>152</ele>
        <time>2018-02-10T11:22:05Z</time>
      </trkpt>
      <trkpt lat="62.647716856902" lon="17.856844770803">
        <ele>152.4</ele>
        <time>2018-02-10T11:22:06Z</time>
      </trkpt>
      <trkpt lat="62.647715012884" lon="17.85689782823">
        <ele>152.6</ele>
        <time>2018-02-10T11:22:07Z</time>
      </trkpt>
      <trkpt lat="62.647715767255" lon="17.856955160426">
        <ele>152.8</ele>
        <time>2018-02-10T11:22:08Z</time>
      </trkpt>
      <trkpt lat="62.647719036196" lon="17.856996818469">
        <ele>152.8</ele>
        <time>2018-02-10T11:22:09Z</time>
      </trkpt>
      <trkpt lat="62.64771953911" lon="17.857057838701">
        <ele>152.8</ele>
        <time>2018-02-10T11:22:10Z</time>
      </trkpt>
      <trkpt lat="62.647718030368" lon="17.857117014915">
        <ele>152.8</ele>
        <time>2018-02-10T11:22:11Z</time>
      </trkpt>
      <trkpt lat="62.647713923237" lon="17.857182058459">
        <ele>152.8</ele>
        <time>2018-02-10T11:22:12Z</time>
      </trkpt>
      <trkpt lat="62.647716353988" lon="17.85724483889">
        <ele>152.8</ele>
        <time>2018-02-10T11:22:13Z</time>
      </trkpt>
      <trkpt lat="62.647712330676" lon="17.857312145547">
        <ele>152.8</ele>
        <time>2018-02-10T11:22:14Z</time>
      </trkpt>
      <trkpt lat="62.64770528988" lon="17.857378194919">
        <ele>152.8</ele>
        <time>2018-02-10T11:22:15Z</time>
      </trkpt>
      <trkpt lat="62.647694728686" lon="17.857457152417">
        <ele>152.6</ele>
        <time>2018-02-10T11:22:16Z</time>
      </trkpt>
      <trkpt lat="62.647684754225" lon="17.857533092431">
        <ele>152.6</ele>
        <time>2018-02-10T11:22:17Z</time>
      </trkpt>
      <trkpt lat="62.647677797248" lon="17.857618252535">
        <ele>152.6</ele>
        <time>2018-02-10T11:22:18Z</time>
      </trkpt>
      <trkpt lat="62.6476700859" lon="17.85770584339">
        <ele>152.6</ele>
        <time>2018-02-10T11:22:19Z</time>
      </trkpt>
      <trkpt lat="62.647664553846" lon="17.857789494752">
        <ele>152.4</ele>
        <time>2018-02-10T11:22:20Z</time>
      </trkpt>
      <trkpt lat="62.647658602697" lon="17.857862082006">
        <ele>152.2</ele>
        <time>2018-02-10T11:22:21Z</time>
      </trkpt>
      <trkpt lat="62.647651980996" lon="17.857928047559">
        <ele>152</ele>
        <time>2018-02-10T11:22:22Z</time>
      </trkpt>
      <trkpt lat="62.647647622408" lon="17.857993091103">
        <ele>152</ele>
        <time>2018-02-10T11:22:23Z</time>
      </trkpt>
      <trkpt lat="62.647645694571" lon="17.85806626509">
        <ele>151.8</ele>
        <time>2018-02-10T11:22:24Z</time>
      </trkpt>
      <trkpt lat="62.647640833069" lon="17.858145976959">
        <ele>151.8</ele>
        <time>2018-02-10T11:22:25Z</time>
      </trkpt>
      <trkpt lat="62.647636390662" lon="17.85820372825">
        <ele>151.8</ele>
        <time>2018-02-10T11:22:26Z</time>
      </trkpt>
      <trkpt lat="62.647627422029" lon="17.858263575016">
        <ele>151.8</ele>
        <time>2018-02-10T11:22:27Z</time>
      </trkpt>
      <trkpt lat="62.647621638518" lon="17.858318308823">
        <ele>151.8</ele>
        <time>2018-02-10T11:22:28Z</time>
      </trkpt>
      <trkpt lat="62.647616693197" lon="17.858365247463">
        <ele>151.8</ele>
        <time>2018-02-10T11:22:29Z</time>
      </trkpt>
      <trkpt lat="62.647608981849" lon="17.858421154736">
        <ele>151.8</ele>
        <time>2018-02-10T11:22:30Z</time>
      </trkpt>
      <trkpt lat="62.647605796727" lon="17.8584677581">
        <ele>151.8</ele>
        <time>2018-02-10T11:22:31Z</time>
      </trkpt>
      <trkpt lat="62.647599845578" lon="17.85852307864">
        <ele>151.8</ele>
        <time>2018-02-10T11:22:32Z</time>
      </trkpt>
      <trkpt lat="62.647597079551" lon="17.858587786908">
        <ele>151.8</ele>
        <time>2018-02-10T11:22:33Z</time>
      </trkpt>
      <trkpt lat="62.647597666284" lon="17.858655093565">
        <ele>151.8</ele>
        <time>2018-02-10T11:22:34Z</time>
      </trkpt>
      <trkpt lat="62.647595319352" lon="17.858719718014">
        <ele>151.8</ele>
        <time>2018-02-10T11:22:35Z</time>
      </trkpt>
      <trkpt lat="62.64759548699" lon="17.858784342463">
        <ele>152</ele>
        <time>2018-02-10T11:22:36Z</time>
      </trkpt>
      <trkpt lat="62.64759381061" lon="17.858847961084">
        <ele>152</ele>
        <time>2018-02-10T11:22:37Z</time>
      </trkpt>
      <trkpt lat="62.647593642972" lon="17.85892121889">
        <ele>152</ele>
        <time>2018-02-10T11:22:38Z</time>
      </trkpt>
      <trkpt lat="62.647593559153" lon="17.858979808371">
        <ele>152</ele>
        <time>2018-02-10T11:22:39Z</time>
      </trkpt>
      <trkpt lat="62.64759297242" lon="17.85904527101">
        <ele>152</ele>
        <time>2018-02-10T11:22:40Z</time>
      </trkpt>
      <trkpt lat="62.647591044583" lon="17.859104195767">
        <ele>151.8</ele>
        <time>2018-02-10T11:22:41Z</time>
      </trkpt>
      <trkpt lat="62.647583919968" lon="17.859171921519">
        <ele>151.8</ele>
        <time>2018-02-10T11:22:42Z</time>
      </trkpt>
      <trkpt lat="62.647580567208" lon="17.859252639216">
        <ele>151.6</ele>
        <time>2018-02-10T11:22:43Z</time>
      </trkpt>
      <trkpt lat="62.647575202792" lon="17.859317012208">
        <ele>151.6</ele>
        <time>2018-02-10T11:22:44Z</time>
      </trkpt>
      <trkpt lat="62.647569419281" lon="17.859382977761">
        <ele>151.6</ele>
        <time>2018-02-10T11:22:45Z</time>
      </trkpt>
      <trkpt lat="62.647563384313" lon="17.859429581125">
        <ele>151.6</ele>
        <time>2018-02-10T11:22:46Z</time>
      </trkpt>
      <trkpt lat="62.647555589146" lon="17.859480040163">
        <ele>151.8</ele>
        <time>2018-02-10T11:22:47Z</time>
      </trkpt>
      <trkpt lat="62.647546117599" lon="17.859544245517">
        <ele>152</ele>
        <time>2018-02-10T11:22:48Z</time>
      </trkpt>
      <trkpt lat="62.647541926649" lon="17.859595375107">
        <ele>152</ele>
        <time>2018-02-10T11:22:49Z</time>
      </trkpt>
      <trkpt lat="62.647534215301" lon="17.859634434761">
        <ele>152.2</ele>
        <time>2018-02-10T11:22:50Z</time>
      </trkpt>
      <trkpt lat="62.647515356026" lon="17.85969067731">
        <ele>152.2</ele>
        <time>2018-02-10T11:22:51Z</time>
      </trkpt>
      <trkpt lat="62.647500100968" lon="17.859734682285">
        <ele>152.4</ele>
        <time>2018-02-10T11:22:52Z</time>
      </trkpt>
      <trkpt lat="62.647487109023" lon="17.859785728056">
        <ele>152.4</ele>
        <time>2018-02-10T11:22:53Z</time>
      </trkpt>
      <trkpt lat="62.647468417386" lon="17.859830403583">
        <ele>152.6</ele>
        <time>2018-02-10T11:22:54Z</time>
      </trkpt>
      <trkpt lat="62.647441427668" lon="17.859891256177">
        <ele>152.6</ele>
        <time>2018-02-10T11:22:55Z</time>
      </trkpt>
      <trkpt lat="62.647425418239" lon="17.85993039965">
        <ele>152.8</ele>
        <time>2018-02-10T11:22:56Z</time>
      </trkpt>
      <trkpt lat="62.647410414638" lon="17.859958395196">
        <ele>153</ele>
        <time>2018-02-10T11:22:57Z</time>
      </trkpt>
      <trkpt lat="62.647389040793" lon="17.860000975248">
        <ele>153</ele>
        <time>2018-02-10T11:22:58Z</time>
      </trkpt>
      <trkpt lat="62.647374456287" lon="17.860036430685">
        <ele>153</ele>
        <time>2018-02-10T11:22:59Z</time>
      </trkpt>
      <trkpt lat="62.647349310587" lon="17.860084878067">
        <ele>153</ele>
        <time>2018-02-10T11:23:00Z</time>
      </trkpt>
      <trkpt lat="62.647327098552" lon="17.860125781739">
        <ele>153.2</ele>
        <time>2018-02-10T11:23:01Z</time>
      </trkpt>
      <trkpt lat="62.647312011132" lon="17.860170541085">
        <ele>153.2</ele>
        <time>2018-02-10T11:23:02Z</time>
      </trkpt>
      <trkpt lat="62.647290553468" lon="17.860225693987">
        <ele>153.4</ele>
        <time>2018-02-10T11:23:03Z</time>
      </trkpt>
      <trkpt lat="62.6472677547" lon="17.86028243945">
        <ele>153.4</ele>
        <time>2018-02-10T11:23:04Z</time>
      </trkpt>
      <trkpt lat="62.647249063063" lon="17.860345219881">
        <ele>153.4</ele>
        <time>2018-02-10T11:23:05Z</time>
      </trkpt>
      <trkpt lat="62.64722165425" lon="17.860402719715">
        <ele>153.4</ele>
        <time>2018-02-10T11:23:06Z</time>
      </trkpt>
      <trkpt lat="62.647196676188" lon="17.860450664183">
        <ele>153.4</ele>
        <time>2018-02-10T11:23:07Z</time>
      </trkpt>
      <trkpt lat="62.647169099737" lon="17.860507493465">
        <ele>153.2</ele>
        <time>2018-02-10T11:23:08Z</time>
      </trkpt>
      <trkpt lat="62.647155604878" lon="17.860530627509">
        <ele>153.2</ele>
        <time>2018-02-10T11:23:09Z</time>
      </trkpt>
      <trkpt lat="62.647129201893" lon="17.860558958331">
        <ele>153.2</ele>
        <time>2018-02-10T11:23:10Z</time>
      </trkpt>
      <trkpt lat="62.647098105044" lon="17.860598185623">
        <ele>153.4</ele>
        <time>2018-02-10T11:23:11Z</time>
      </trkpt>
      <trkpt lat="62.64707078005" lon="17.860628695739">
        <ele>153.4</ele>
        <time>2018-02-10T11:23:12Z</time>
      </trkpt>
      <trkpt lat="62.647041778676" lon="17.860673538904">
        <ele>153.6</ele>
        <time>2018-02-10T11:23:13Z</time>
      </trkpt>
      <trkpt lat="62.647019063727" lon="17.860705138667">
        <ele>153.8</ele>
        <time>2018-02-10T11:23:14Z</time>
      </trkpt>
      <trkpt lat="62.646983775928" lon="17.860732212204">
        <ele>153.8</ele>
        <time>2018-02-10T11:23:15Z</time>
      </trkpt>
      <trkpt lat="62.64695846259" lon="17.860772948238">
        <ele>153.8</ele>
        <time>2018-02-10T11:23:16Z</time>
      </trkpt>
      <trkpt lat="62.646930047949" lon="17.860804967096">
        <ele>153.8</ele>
        <time>2018-02-10T11:23:17Z</time>
      </trkpt>
      <trkpt lat="62.646895430702" lon="17.860850229356">
        <ele>153.6</ele>
        <time>2018-02-10T11:23:18Z</time>
      </trkpt>
      <trkpt lat="62.646867016061" lon="17.860882918766">
        <ele>153.6</ele>
        <time>2018-02-10T11:23:19Z</time>
      </trkpt>
      <trkpt lat="62.646834242832" lon="17.860919715307">
        <ele>153.4</ele>
        <time>2018-02-10T11:23:20Z</time>
      </trkpt>
      <trkpt lat="62.646809348589" lon="17.860948549043">
        <ele>153.2</ele>
        <time>2018-02-10T11:23:21Z</time>
      </trkpt>
      <trkpt lat="62.646778754654" lon="17.860975035847">
        <ele>153.2</ele>
        <time>2018-02-10T11:23:22Z</time>
      </trkpt>
      <trkpt lat="62.646749334185" lon="17.861006300334">
        <ele>153.2</ele>
        <time>2018-02-10T11:23:23Z</time>
      </trkpt>
      <trkpt lat="62.646728630892" lon="17.861036978088">
        <ele>153.2</ele>
        <time>2018-02-10T11:23:24Z</time>
      </trkpt>
      <trkpt lat="62.646696360577" lon="17.861066650014">
        <ele>153</ele>
        <time>2018-02-10T11:23:25Z</time>
      </trkpt>
      <trkpt lat="62.646667526841" lon="17.861101937813">
        <ele>153</ele>
        <time>2018-02-10T11:23:26Z</time>
      </trkpt>
      <trkpt lat="62.646650427765" lon="17.861125826228">
        <ele>153.2</ele>
        <time>2018-02-10T11:23:27Z</time>
      </trkpt>
      <trkpt lat="62.646622432219" lon="17.861149379367">
        <ele>153.2</ele>
        <time>2018-02-10T11:23:28Z</time>
      </trkpt>
      <trkpt lat="62.646596113053" lon="17.861174441248">
        <ele>153.2</ele>
        <time>2018-02-10T11:23:29Z</time>
      </trkpt>
      <trkpt lat="62.646573565742" lon="17.861213249445">
        <ele>153</ele>
        <time>2018-02-10T11:23:30Z</time>
      </trkpt>
      <trkpt lat="62.646543726178" lon="17.861248788701">
        <ele>153</ele>
        <time>2018-02-10T11:23:31Z</time>
      </trkpt>
      <trkpt lat="62.646514808623" lon="17.861284830871">
        <ele>153.2</ele>
        <time>2018-02-10T11:23:32Z</time>
      </trkpt>
      <trkpt lat="62.646487902724" lon="17.86132095686">
        <ele>153.2</ele>
        <time>2018-02-10T11:23:33Z</time>
      </trkpt>
      <trkpt lat="62.646465355413" lon="17.861350712605">
        <ele>153.4</ele>
        <time>2018-02-10T11:23:34Z</time>
      </trkpt>
      <trkpt lat="62.646445071215" lon="17.861379546341">
        <ele>153.6</ele>
        <time>2018-02-10T11:23:35Z</time>
      </trkpt>
      <trkpt lat="62.646421601895" lon="17.861399914358">
        <ele>153.8</ele>
        <time>2018-02-10T11:23:36Z</time>
      </trkpt>
      <trkpt lat="62.646398635489" lon="17.861420533832">
        <ele>154</ele>
        <time>2018-02-10T11:23:37Z</time>
      </trkpt>
      <trkpt lat="62.6463792733" lon="17.861454899622">
        <ele>154.2</ele>
        <time>2018-02-10T11:23:38Z</time>
      </trkpt>
      <trkpt lat="62.646363934423" lon="17.861478117485">
        <ele>154.4</ele>
        <time>2018-02-10T11:23:39Z</time>
      </trkpt>
      <trkpt lat="62.646342141483" lon="17.861501419167">
        <ele>154.6</ele>
        <time>2018-02-10T11:23:40Z</time>
      </trkpt>
      <trkpt lat="62.646330239185" lon="17.861522290098">
        <ele>154.8</ele>
        <time>2018-02-10T11:23:41Z</time>
      </trkpt>
      <trkpt lat="62.646307356598" lon="17.861558583725">
        <ele>155</ele>
        <time>2018-02-10T11:23:42Z</time>
      </trkpt>
      <trkpt lat="62.64628036688" lon="17.861608120754">
        <ele>155.2</ele>
        <time>2018-02-10T11:23:43Z</time>
      </trkpt>
      <trkpt lat="62.646258490121" lon="17.861663608932">
        <ele>155.2</ele>
        <time>2018-02-10T11:23:44Z</time>
      </trkpt>
      <trkpt lat="62.646229153471" lon="17.861724377707">
        <ele>155.4</ele>
        <time>2018-02-10T11:23:45Z</time>
      </trkpt>
      <trkpt lat="62.646207109074" lon="17.861791265269">
        <ele>155.4</ele>
        <time>2018-02-10T11:23:46Z</time>
      </trkpt>
      <trkpt lat="62.64618397503" lon="17.861847843094">
        <ele>155.4</ele>
        <time>2018-02-10T11:23:47Z</time>
      </trkpt>
      <trkpt lat="62.646159164606" lon="17.861920178891">
        <ele>155.4</ele>
        <time>2018-02-10T11:23:48Z</time>
      </trkpt>
      <trkpt lat="62.646139970055" lon="17.86198396515">
        <ele>155.2</ele>
        <time>2018-02-10T11:23:49Z</time>
      </trkpt>
      <trkpt lat="62.646113147975" lon="17.862047080857">
        <ele>155</ele>
        <time>2018-02-10T11:23:50Z</time>
      </trkpt>
      <trkpt lat="62.646084733334" lon="17.862117321179">
        <ele>155</ele>
        <time>2018-02-10T11:23:51Z</time>
      </trkpt>
      <trkpt lat="62.646062353661" lon="17.862178676687">
        <ele>154.8</ele>
        <time>2018-02-10T11:23:52Z</time>
      </trkpt>
      <trkpt lat="62.646036872685" lon="17.862255622529">
        <ele>154.6</ele>
        <time>2018-02-10T11:23:53Z</time>
      </trkpt>
      <trkpt lat="62.64601130789" lon="17.862323180643">
        <ele>154.2</ele>
        <time>2018-02-10T11:23:54Z</time>
      </trkpt>
      <trkpt lat="62.645987503294" lon="17.86238629635">
        <ele>154.2</ele>
        <time>2018-02-10T11:23:55Z</time>
      </trkpt>
      <trkpt lat="62.645968811657" lon="17.862458715966">
        <ele>154.2</ele>
        <time>2018-02-10T11:23:56Z</time>
      </trkpt>
      <trkpt lat="62.645955652074" lon="17.862525687347">
        <ele>154</ele>
        <time>2018-02-10T11:23:57Z</time>
      </trkpt>
      <trkpt lat="62.645944001233" lon="17.862602130275">
        <ele>153.8</ele>
        <time>2018-02-10T11:23:58Z</time>
      </trkpt>
      <trkpt lat="62.645934948781" lon="17.862680752497">
        <ele>154</ele>
        <time>2018-02-10T11:23:59Z</time>
      </trkpt>
      <trkpt lat="62.645932434211" lon="17.862750909">
        <ele>154</ele>
        <time>2018-02-10T11:24:00Z</time>
      </trkpt>
      <trkpt lat="62.645925644872" lon="17.862822909521">
        <ele>153.8</ele>
        <time>2018-02-10T11:24:01Z</time>
      </trkpt>
      <trkpt lat="62.645921453922" lon="17.862890467635">
        <ele>153.8</ele>
        <time>2018-02-10T11:24:02Z</time>
      </trkpt>
      <trkpt lat="62.64592329794" lon="17.862956349369">
        <ele>153.8</ele>
        <time>2018-02-10T11:24:03Z</time>
      </trkpt>
      <trkpt lat="62.645925225777" lon="17.863032289383">
        <ele>153.6</ele>
        <time>2018-02-10T11:24:04Z</time>
      </trkpt>
      <trkpt lat="62.645926985976" lon="17.863101691515">
        <ele>153.4</ele>
        <time>2018-02-10T11:24:05Z</time>
      </trkpt>
      <trkpt lat="62.645926399243" lon="17.863172183294">
        <ele>153.4</ele>
        <time>2018-02-10T11:24:06Z</time>
      </trkpt>
      <trkpt lat="62.64592916527" lon="17.863228425843">
        <ele>153.6</ele>
        <time>2018-02-10T11:24:07Z</time>
      </trkpt>
      <trkpt lat="62.645933607677" lon="17.863293972301">
        <ele>153.6</ele>
        <time>2018-02-10T11:24:08Z</time>
      </trkpt>
      <trkpt lat="62.645937379532" lon="17.863353148515">
        <ele>153.6</ele>
        <time>2018-02-10T11:24:09Z</time>
      </trkpt>
      <trkpt lat="62.645944923242" lon="17.863411989453">
        <ele>153.6</ele>
        <time>2018-02-10T11:24:10Z</time>
      </trkpt>
      <trkpt lat="62.645962273775" lon="17.863471668581">
        <ele>153.6</ele>
        <time>2018-02-10T11:24:11Z</time>
      </trkpt>
      <trkpt lat="62.64597107477" lon="17.863541908903">
        <ele>153.8</ele>
        <time>2018-02-10T11:24:12Z</time>
      </trkpt>
      <trkpt lat="62.645976858281" lon="17.863617429822">
        <ele>153.8</ele>
        <time>2018-02-10T11:24:13Z</time>
      </trkpt>
      <trkpt lat="62.645977864109" lon="17.863689597981">
        <ele>153.8</ele>
        <time>2018-02-10T11:24:14Z</time>
      </trkpt>
      <trkpt lat="62.645980713955" lon="17.863767801108">
        <ele>153.8</ele>
        <time>2018-02-10T11:24:15Z</time>
      </trkpt>
      <trkpt lat="62.645980043403" lon="17.863832844652">
        <ele>153.8</ele>
        <time>2018-02-10T11:24:16Z</time>
      </trkpt>
      <trkpt lat="62.645985240181" lon="17.863886321174">
        <ele>153.8</ele>
        <time>2018-02-10T11:24:17Z</time>
      </trkpt>
      <trkpt lat="62.645993454443" lon="17.863951448537">
        <ele>153.8</ele>
        <time>2018-02-10T11:24:18Z</time>
      </trkpt>
      <trkpt lat="62.646009128596" lon="17.864007942543">
        <ele>153.8</ele>
        <time>2018-02-10T11:24:19Z</time>
      </trkpt>
      <trkpt lat="62.6460188516" lon="17.864062257255">
        <ele>154</ele>
        <time>2018-02-10T11:24:20Z</time>
      </trkpt>
      <trkpt lat="62.646032430278" lon="17.864116655786">
        <ele>154</ele>
        <time>2018-02-10T11:24:21Z</time>
      </trkpt>
      <trkpt lat="62.646045254585" lon="17.864154625793">
        <ele>154</ele>
        <time>2018-02-10T11:24:22Z</time>
      </trkpt>
      <trkpt lat="62.646064532955" lon="17.864185387366">
        <ele>154.2</ele>
        <time>2018-02-10T11:24:23Z</time>
      </trkpt>
      <trkpt lat="62.646086409714" lon="17.864217322405">
        <ele>154.2</ele>
        <time>2018-02-10T11:24:24Z</time>
      </trkpt>
      <trkpt lat="62.646112812699" lon="17.864250095634">
        <ele>154.2</ele>
        <time>2018-02-10T11:24:25Z</time>
      </trkpt>
      <trkpt lat="62.646134605639" lon="17.864271804755">
        <ele>154.2</ele>
        <time>2018-02-10T11:24:26Z</time>
      </trkpt>
      <trkpt lat="62.646150195973" lon="17.864279264646">
        <ele>154.2</ele>
        <time>2018-02-10T11:24:27Z</time>
      </trkpt>
      <trkpt lat="62.64617726951" lon="17.864296279903">
        <ele>154.4</ele>
        <time>2018-02-10T11:24:28Z</time>
      </trkpt>
      <trkpt lat="62.646202834305" lon="17.864313211341">
        <ele>154.4</ele>
        <time>2018-02-10T11:24:29Z</time>
      </trkpt>
      <trkpt lat="62.646227309453" lon="17.864326287105">
        <ele>154.4</ele>
        <time>2018-02-10T11:24:30Z</time>
      </trkpt>
      <trkpt lat="62.646244995262" lon="17.864324610725">
        <ele>154.6</ele>
        <time>2018-02-10T11:24:31Z</time>
      </trkpt>
      <trkpt lat="62.646265195641" lon="17.864334166091">
        <ele>154.6</ele>
        <time>2018-02-10T11:24:32Z</time>
      </trkpt>
      <trkpt lat="62.646292604454" lon="17.864347074217">
        <ele>154.6</ele>
        <time>2018-02-10T11:24:33Z</time>
      </trkpt>
      <trkpt lat="62.646312637195" lon="17.864350846072">
        <ele>154.8</ele>
        <time>2018-02-10T11:24:34Z</time>
      </trkpt>
      <trkpt lat="62.646331077375" lon="17.864350678434">
        <ele>154.8</ele>
        <time>2018-02-10T11:24:35Z</time>
      </trkpt>
      <trkpt lat="62.646354881971" lon="17.864351768081">
        <ele>155</ele>
        <time>2018-02-10T11:24:36Z</time>
      </trkpt>
      <trkpt lat="62.646378267472" lon="17.86435855742">
        <ele>155.2</ele>
        <time>2018-02-10T11:24:37Z</time>
      </trkpt>
      <trkpt lat="62.646405843923" lon="17.864354198832">
        <ele>155.6</ele>
        <time>2018-02-10T11:24:38Z</time>
      </trkpt>
      <trkpt lat="62.646433671831" lon="17.864365598216">
        <ele>155.6</ele>
        <time>2018-02-10T11:24:39Z</time>
      </trkpt>
      <trkpt lat="62.64646141592" lon="17.864373477202">
        <ele>155.8</ele>
        <time>2018-02-10T11:24:40Z</time>
      </trkpt>
      <trkpt lat="62.646479101729" lon="17.86436777751">
        <ele>155.8</ele>
        <time>2018-02-10T11:24:41Z</time>
      </trkpt>
      <trkpt lat="62.646501732859" lon="17.864365095302">
        <ele>155.8</ele>
        <time>2018-02-10T11:24:42Z</time>
      </trkpt>
      <trkpt lat="62.646530482776" lon="17.86437113027">
        <ele>155.8</ele>
        <time>2018-02-10T11:24:43Z</time>
      </trkpt>
      <trkpt lat="62.646556550485" lon="17.86437113027">
        <ele>155.8</ele>
        <time>2018-02-10T11:24:44Z</time>
      </trkpt>
      <trkpt lat="62.646590580999" lon="17.864371717003">
        <ele>155.8</ele>
        <time>2018-02-10T11:24:45Z</time>
      </trkpt>
      <trkpt lat="62.646625365884" lon="17.864381356188">
        <ele>156</ele>
        <time>2018-02-10T11:24:46Z</time>
      </trkpt>
      <trkpt lat="62.646660318407" lon="17.864396527427">
        <ele>156</ele>
        <time>2018-02-10T11:24:47Z</time>
      </trkpt>
      <trkpt lat="62.646708095237" lon="17.864421924584">
        <ele>156</ele>
        <time>2018-02-10T11:24:48Z</time>
      </trkpt>
      <trkpt lat="62.64675226785" lon="17.864450255406">
        <ele>155.8</ele>
        <time>2018-02-10T11:24:49Z</time>
      </trkpt>
      <trkpt lat="62.646790992228" lon="17.864484453558">
        <ele>155.2</ele>
        <time>2018-02-10T11:24:50Z</time>
      </trkpt>
      <trkpt lat="62.646830638615" lon="17.864520579547">
        <ele>154.8</ele>
        <time>2018-02-10T11:24:51Z</time>
      </trkpt>
      <trkpt lat="62.64687129083" lon="17.864550083835">
        <ele>154.6</ele>
        <time>2018-02-10T11:24:52Z</time>
      </trkpt>
      <trkpt lat="62.646906662448" lon="17.86457564863">
        <ele>154.4</ele>
        <time>2018-02-10T11:24:53Z</time>
      </trkpt>
      <trkpt lat="62.646958881685" lon="17.864611774619">
        <ele>154</ele>
        <time>2018-02-10T11:24:54Z</time>
      </trkpt>
      <trkpt lat="62.647009089266" lon="17.864644966943">
        <ele>153.6</ele>
        <time>2018-02-10T11:24:55Z</time>
      </trkpt>
      <trkpt lat="62.647060805589" lon="17.864680003285">
        <ele>153.4</ele>
        <time>2018-02-10T11:24:56Z</time>
      </trkpt>
      <trkpt lat="62.647114785025" lon="17.864712608876">
        <ele>153</ele>
        <time>2018-02-10T11:24:57Z</time>
      </trkpt>
      <trkpt lat="62.647171279031" lon="17.864746890847">
        <ele>152.4</ele>
        <time>2018-02-10T11:24:58Z</time>
      </trkpt>
      <trkpt lat="62.647219726413" lon="17.864773964384">
        <ele>151.6</ele>
        <time>2018-02-10T11:24:59Z</time>
      </trkpt>
      <trkpt lat="62.647274795496" lon="17.864800786464">
        <ele>150.4</ele>
        <time>2018-02-10T11:25:00Z</time>
      </trkpt>
      <trkpt lat="62.647333301158" lon="17.864829117286">
        <ele>149.4</ele>
        <time>2018-02-10T11:25:01Z</time>
      </trkpt>
      <trkpt lat="62.64738845406" lon="17.864855268814">
        <ele>148.4</ele>
        <time>2018-02-10T11:25:02Z</time>
      </trkpt>
      <trkpt lat="62.647447881731" lon="17.864877899944">
        <ele>147.4</ele>
        <time>2018-02-10T11:25:03Z</time>
      </trkpt>
      <trkpt lat="62.647497921674" lon="17.864899357608">
        <ele>146.6</ele>
        <time>2018-02-10T11:25:04Z</time>
      </trkpt>
      <trkpt lat="62.647549973273" lon="17.864920396177">
        <ele>146</ele>
        <time>2018-02-10T11:25:05Z</time>
      </trkpt>
      <trkpt lat="62.647604036528" lon="17.864954594329">
        <ele>145.6</ele>
        <time>2018-02-10T11:25:06Z</time>
      </trkpt>
      <trkpt lat="62.64765080753" lon="17.865004382815">
        <ele>145</ele>
        <time>2018-02-10T11:25:07Z</time>
      </trkpt>
      <trkpt lat="62.647699506369" lon="17.865075377508">
        <ele>144.6</ele>
        <time>2018-02-10T11:25:08Z</time>
      </trkpt>
      <trkpt lat="62.647746612647" lon="17.865143773812">
        <ele>144.2</ele>
        <time>2018-02-10T11:25:09Z</time>
      </trkpt>
      <trkpt lat="62.647801430273" lon="17.865230945572">
        <ele>144</ele>
        <time>2018-02-10T11:25:10Z</time>
      </trkpt>
      <trkpt lat="62.64785532589" lon="17.865315099848">
        <ele>143.8</ele>
        <time>2018-02-10T11:25:11Z</time>
      </trkpt>
      <trkpt lat="62.647901510159" lon="17.8653995894">
        <ele>143.8</ele>
        <time>2018-02-10T11:25:12Z</time>
      </trkpt>
      <trkpt lat="62.64793746851" lon="17.865480726192">
        <ele>143.6</ele>
        <time>2018-02-10T11:25:13Z</time>
      </trkpt>
      <trkpt lat="62.647978288363" lon="17.865557085301">
        <ele>143.6</ele>
        <time>2018-02-10T11:25:14Z</time>
      </trkpt>
      <trkpt lat="62.648019527311" lon="17.865632857677">
        <ele>143.8</ele>
        <time>2018-02-10T11:25:15Z</time>
      </trkpt>
      <trkpt lat="62.648057748775" lon="17.865708546234">
        <ele>143.8</ele>
        <time>2018-02-10T11:25:16Z</time>
      </trkpt>
      <trkpt lat="62.648097981895" lon="17.865776020529">
        <ele>143.6</ele>
        <time>2018-02-10T11:25:17Z</time>
      </trkpt>
      <trkpt lat="62.648131760952" lon="17.865837795132">
        <ele>143.6</ele>
        <time>2018-02-10T11:25:18Z</time>
      </trkpt>
      <trkpt lat="62.648161684335" lon="17.865901749029">
        <ele>143.4</ele>
        <time>2018-02-10T11:25:19Z</time>
      </trkpt>
      <trkpt lat="62.648202420369" lon="17.865943826167">
        <ele>143.4</ele>
        <time>2018-02-10T11:25:20Z</time>
      </trkpt>
      <trkpt lat="62.648246592982" lon="17.865984226925">
        <ele>143.4</ele>
        <time>2018-02-10T11:25:21Z</time>
      </trkpt>
      <trkpt lat="62.648284311532" lon="17.866028650995">
        <ele>143.4</ele>
        <time>2018-02-10T11:25:22Z</time>
      </trkpt>
      <trkpt lat="62.648327394498" lon="17.866081708422">
        <ele>143</ele>
        <time>2018-02-10T11:25:23Z</time>
      </trkpt>
      <trkpt lat="62.648366957066" lon="17.866129066157">
        <ele>142.4</ele>
        <time>2018-02-10T11:25:24Z</time>
      </trkpt>
      <trkpt lat="62.648407525462" lon="17.86618162067">
        <ele>142</ele>
        <time>2018-02-10T11:25:25Z</time>
      </trkpt>
      <trkpt lat="62.648442645623" lon="17.866244987834">
        <ele>141.2</ele>
        <time>2018-02-10T11:25:26Z</time>
      </trkpt>
      <trkpt lat="62.648481202363" lon="17.866311456301">
        <ele>140.6</ele>
        <time>2018-02-10T11:25:27Z</time>
      </trkpt>
      <trkpt lat="62.64852168694" lon="17.866395442939">
        <ele>140.6</ele>
        <time>2018-02-10T11:25:28Z</time>
      </trkpt>
      <trkpt lat="62.648561249508" lon="17.866499043223">
        <ele>140.6</ele>
        <time>2018-02-10T11:25:29Z</time>
      </trkpt>
      <trkpt lat="62.64858203662" lon="17.866620580773">
        <ele>140.6</ele>
        <time>2018-02-10T11:25:30Z</time>
      </trkpt>
      <trkpt lat="62.648600644438" lon="17.866746979825">
        <ele>140.2</ele>
        <time>2018-02-10T11:25:31Z</time>
      </trkpt>
      <trkpt lat="62.648619252256" lon="17.866872373049">
        <ele>139.6</ele>
        <time>2018-02-10T11:25:32Z</time>
      </trkpt>
      <trkpt lat="62.648640123187" lon="17.867021319412">
        <ele>138.8</ele>
        <time>2018-02-10T11:25:33Z</time>
      </trkpt>
      <trkpt lat="62.648661999946" lon="17.867148221378">
        <ele>138.2</ele>
        <time>2018-02-10T11:25:34Z</time>
      </trkpt>
      <trkpt lat="62.648676668271" lon="17.867280236303">
        <ele>137.6</ele>
        <time>2018-02-10T11:25:35Z</time>
      </trkpt>
      <trkpt lat="62.648693264433" lon="17.867410491029">
        <ele>137</ele>
        <time>2018-02-10T11:25:36Z</time>
      </trkpt>
      <trkpt lat="62.64870525055" lon="17.867513420761">
        <ele>136.4</ele>
        <time>2018-02-10T11:25:37Z</time>
      </trkpt>
      <trkpt lat="62.648721679074" lon="17.867621798728">
        <ele>136.2</ele>
        <time>2018-02-10T11:25:38Z</time>
      </trkpt>
      <trkpt lat="62.648737269408" lon="17.867733277998">
        <ele>135.8</ele>
        <time>2018-02-10T11:25:39Z</time>
      </trkpt>
      <trkpt lat="62.648751770095" lon="17.867851462788">
        <ele>135.4</ele>
        <time>2018-02-10T11:25:40Z</time>
      </trkpt>
      <trkpt lat="62.64876057109" lon="17.867946764991">
        <ele>135.4</ele>
        <time>2018-02-10T11:25:41Z</time>
      </trkpt>
      <trkpt lat="62.64877230575" lon="17.868046509601">
        <ele>135.8</ele>
        <time>2018-02-10T11:25:42Z</time>
      </trkpt>
      <trkpt lat="62.648790159197" lon="17.868132591714">
        <ele>136</ele>
        <time>2018-02-10T11:25:43Z</time>
      </trkpt>
      <trkpt lat="62.648801474762" lon="17.868209872832">
        <ele>136.2</ele>
        <time>2018-02-10T11:25:44Z</time>
      </trkpt>
      <trkpt lat="62.648826201367" lon="17.868300481171">
        <ele>136.4</ele>
        <time>2018-02-10T11:25:45Z</time>
      </trkpt>
      <trkpt lat="62.648859058415" lon="17.8684086915">
        <ele>136.4</ele>
        <time>2018-02-10T11:25:46Z</time>
      </trkpt>
      <trkpt lat="62.648884539391" lon="17.868494522156">
        <ele>136.2</ele>
        <time>2018-02-10T11:25:47Z</time>
      </trkpt>
      <trkpt lat="62.64891228348" lon="17.868596110784">
        <ele>136</ele>
        <time>2018-02-10T11:25:48Z</time>
      </trkpt>
      <trkpt lat="62.648938099732" lon="17.868680516517">
        <ele>135.8</ele>
        <time>2018-02-10T11:25:49Z</time>
      </trkpt>
      <trkpt lat="62.648954947351" lon="17.868771711589">
        <ele>135.6</ele>
        <time>2018-02-10T11:25:50Z</time>
      </trkpt>
      <trkpt lat="62.648970453866" lon="17.868854692399">
        <ele>135.4</ele>
        <time>2018-02-10T11:25:51Z</time>
      </trkpt>
      <trkpt lat="62.648990738064" lon="17.868925938549">
        <ele>135.4</ele>
        <time>2018-02-10T11:25:52Z</time>
      </trkpt>
      <trkpt lat="62.649022002551" lon="17.869007494436">
        <ele>135.2</ele>
        <time>2018-02-10T11:25:53Z</time>
      </trkpt>
      <trkpt lat="62.649047902622" lon="17.869078070034">
        <ele>135.2</ele>
        <time>2018-02-10T11:25:54Z</time>
      </trkpt>
      <trkpt lat="62.649079167109" lon="17.86915970974">
        <ele>135.2</ele>
        <time>2018-02-10T11:25:55Z</time>
      </trkpt>
      <trkpt lat="62.649111102148" lon="17.869243612559">
        <ele>135.2</ele>
        <time>2018-02-10T11:25:56Z</time>
      </trkpt>
      <trkpt lat="62.649136247848" lon="17.869328018292">
        <ele>135.2</ele>
        <time>2018-02-10T11:25:57Z</time>
      </trkpt>
      <trkpt lat="62.649168099068" lon="17.869424074866">
        <ele>134.8</ele>
        <time>2018-02-10T11:25:58Z</time>
      </trkpt>
      <trkpt lat="62.649202129582" lon="17.869504792563">
        <ele>134.8</ele>
        <time>2018-02-10T11:25:59Z</time>
      </trkpt>
      <trkpt lat="62.649238590847" lon="17.869576457808">
        <ele>134.6</ele>
        <time>2018-02-10T11:26:00Z</time>
      </trkpt>
      <trkpt lat="62.649280165071" lon="17.869656002039">
        <ele>134.4</ele>
        <time>2018-02-10T11:26:01Z</time>
      </trkpt>
      <trkpt lat="62.64931545287" lon="17.869725990904">
        <ele>134</ele>
        <time>2018-02-10T11:26:02Z</time>
      </trkpt>
      <trkpt lat="62.649358535836" lon="17.869802769108">
        <ele>133.8</ele>
        <time>2018-02-10T11:26:03Z</time>
      </trkpt>
      <trkpt lat="62.64939843368" lon="17.869868567023">
        <ele>133.8</ele>
        <time>2018-02-10T11:26:04Z</time>
      </trkpt>
      <trkpt lat="62.649427602692" lon="17.869965377968">
        <ele>133.6</ele>
        <time>2018-02-10T11:26:05Z</time>
      </trkpt>
      <trkpt lat="62.649464902147" lon="17.870037210851">
        <ele>133.4</ele>
        <time>2018-02-10T11:26:06Z</time>
      </trkpt>
      <trkpt lat="62.649503375068" lon="17.870105020422">
        <ele>132.8</ele>
        <time>2018-02-10T11:26:07Z</time>
      </trkpt>
      <trkpt lat="62.649546877129" lon="17.870191940725">
        <ele>132.2</ele>
        <time>2018-02-10T11:26:08Z</time>
      </trkpt>
      <trkpt lat="62.649585182412" lon="17.870269389481">
        <ele>131.6</ele>
        <time>2018-02-10T11:26:09Z</time>
      </trkpt>
      <trkpt lat="62.649628265378" lon="17.870361590381">
        <ele>131</ele>
        <time>2018-02-10T11:26:10Z</time>
      </trkpt>
      <trkpt lat="62.649668247041" lon="17.870449432693">
        <ele>130.6</ele>
        <time>2018-02-10T11:26:11Z</time>
      </trkpt>
      <trkpt lat="62.649702529012" lon="17.870540711584">
        <ele>130.4</ele>
        <time>2018-02-10T11:26:12Z</time>
      </trkpt>
      <trkpt lat="62.649735302241" lon="17.870643054583">
        <ele>129.8</ele>
        <time>2018-02-10T11:26:13Z</time>
      </trkpt>
      <trkpt lat="62.649755754077" lon="17.870756377871">
        <ele>129.6</ele>
        <time>2018-02-10T11:26:14Z</time>
      </trkpt>
      <trkpt lat="62.649774864809" lon="17.870854697558">
        <ele>129.4</ele>
        <time>2018-02-10T11:26:15Z</time>
      </trkpt>
      <trkpt lat="62.649798501767" lon="17.870957711109">
        <ele>129.2</ele>
        <time>2018-02-10T11:26:16Z</time>
      </trkpt>
      <trkpt lat="62.649822138725" lon="17.871066843447">
        <ele>129.2</ele>
        <time>2018-02-10T11:26:17Z</time>
      </trkpt>
      <trkpt lat="62.64983932162" lon="17.871189303006">
        <ele>129.4</ele>
        <time>2018-02-10T11:26:18Z</time>
      </trkpt>
      <trkpt lat="62.649854157583" lon="17.871289466711">
        <ele>129.4</ele>
        <time>2018-02-10T11:26:19Z</time>
      </trkpt>
      <trkpt lat="62.649872178668" lon="17.871395497746">
        <ele>129.2</ele>
        <time>2018-02-10T11:26:20Z</time>
      </trkpt>
      <trkpt lat="62.649899503662" lon="17.871500355315">
        <ele>129.2</ele>
        <time>2018-02-10T11:26:21Z</time>
      </trkpt>
      <trkpt lat="62.649916351281" lon="17.871580151003">
        <ele>129.2</ele>
        <time>2018-02-10T11:26:22Z</time>
      </trkpt>
      <trkpt lat="62.649946442302" lon="17.871648379669">
        <ele>129</ele>
        <time>2018-02-10T11:26:23Z</time>
      </trkpt>
      <trkpt lat="62.649972342373" lon="17.871719458181">
        <ele>128.8</ele>
        <time>2018-02-10T11:26:24Z</time>
      </trkpt>
      <trkpt lat="62.649993129485" lon="17.871804534466">
        <ele>128.6</ele>
        <time>2018-02-10T11:26:25Z</time>
      </trkpt>
      <trkpt lat="62.650019281013" lon="17.871869661829">
        <ele>128.6</ele>
        <time>2018-02-10T11:26:26Z</time>
      </trkpt>
      <trkpt lat="62.650038978478" lon="17.87192657493">
        <ele>128.8</ele>
        <time>2018-02-10T11:26:27Z</time>
      </trkpt>
      <trkpt lat="62.650055155545" lon="17.871975441407">
        <ele>128.8</ele>
        <time>2018-02-10T11:26:28Z</time>
      </trkpt>
      <trkpt lat="62.650077451399" lon="17.872034114707">
        <ele>128.8</ele>
        <time>2018-02-10T11:26:29Z</time>
      </trkpt>
      <trkpt lat="62.650092371181" lon="17.872092704188">
        <ele>129</ele>
        <time>2018-02-10T11:26:30Z</time>
      </trkpt>
      <trkpt lat="62.650108799705" lon="17.872144671968">
        <ele>129.2</ele>
        <time>2018-02-10T11:26:31Z</time>
      </trkpt>
      <trkpt lat="62.650117684519" lon="17.872198399947">
        <ele>129.2</ele>
        <time>2018-02-10T11:26:32Z</time>
      </trkpt>
      <trkpt lat="62.650126317876" lon="17.872259168722">
        <ele>129.2</ele>
        <time>2018-02-10T11:26:33Z</time>
      </trkpt>
      <trkpt lat="62.650126234057" lon="17.872317925841">
        <ele>129.2</ele>
        <time>2018-02-10T11:26:34Z</time>
      </trkpt>
      <trkpt lat="62.650121204917" lon="17.872385148679">
        <ele>129.2</ele>
        <time>2018-02-10T11:26:35Z</time>
      </trkpt>
      <trkpt lat="62.650110476085" lon="17.872435104803">
        <ele>129.2</ele>
        <time>2018-02-10T11:26:36Z</time>
      </trkpt>
      <trkpt lat="62.650090527163" lon="17.872464944367">
        <ele>129.4</ele>
        <time>2018-02-10T11:26:37Z</time>
      </trkpt>
      <trkpt lat="62.650065465282" lon="17.872466285471">
        <ele>129.4</ele>
        <time>2018-02-10T11:26:38Z</time>
      </trkpt>
      <trkpt lat="62.650044426713" lon="17.872433512242">
        <ele>129.4</ele>
        <time>2018-02-10T11:26:39Z</time>
      </trkpt>
      <trkpt lat="62.650034116976" lon="17.87238674124">
        <ele>129.6</ele>
        <time>2018-02-10T11:26:40Z</time>
      </trkpt>
      <trkpt lat="62.650026321809" lon="17.872339383505">
        <ele>129.6</ele>
        <time>2018-02-10T11:26:41Z</time>
      </trkpt>
      <trkpt lat="62.650022466135" lon="17.872280877843">
        <ele>129.4</ele>
        <time>2018-02-10T11:26:42Z</time>
      </trkpt>
      <trkpt lat="62.650015509158" lon="17.872221282534">
        <ele>129.4</ele>
        <time>2018-02-10T11:26:43Z</time>
      </trkpt>
      <trkpt lat="62.650011569665" lon="17.87217384098">
        <ele>129.4</ele>
        <time>2018-02-10T11:26:44Z</time>
      </trkpt>
      <trkpt lat="62.650000337919" lon="17.872110725273">
        <ele>129.2</ele>
        <time>2018-02-10T11:26:45Z</time>
      </trkpt>
      <trkpt lat="62.649992123657" lon="17.872056578199">
        <ele>129.2</ele>
        <time>2018-02-10T11:26:46Z</time>
      </trkpt>
      <trkpt lat="62.649981562463" lon="17.872004107505">
        <ele>129.2</ele>
        <time>2018-02-10T11:26:47Z</time>
      </trkpt>
      <trkpt lat="62.64996337374" lon="17.871939063961">
        <ele>129.4</ele>
        <time>2018-02-10T11:26:48Z</time>
      </trkpt>
      <trkpt lat="62.649950717071" lon="17.871899669031">
        <ele>129.4</ele>
        <time>2018-02-10T11:26:49Z</time>
      </trkpt>
      <trkpt lat="62.649932779805" lon="17.871842672111">
        <ele>129.4</ele>
        <time>2018-02-10T11:26:50Z</time>
      </trkpt>
      <trkpt lat="62.649923056801" lon="17.871801014068">
        <ele>129.6</ele>
        <time>2018-02-10T11:26:51Z</time>
      </trkpt>
      <trkpt lat="62.649909478123" lon="17.871743765691">
        <ele>129.6</ele>
        <time>2018-02-10T11:26:52Z</time>
      </trkpt>
      <trkpt lat="62.649894893617" lon="17.871681655812">
        <ele>129.4</ele>
        <time>2018-02-10T11:26:53Z</time>
      </trkpt>
      <trkpt lat="62.649884332423" lon="17.871631448231">
        <ele>129.4</ele>
        <time>2018-02-10T11:26:54Z</time>
      </trkpt>
      <trkpt lat="62.649862371845" lon="17.871572188198">
        <ele>129.4</ele>
        <time>2018-02-10T11:26:55Z</time>
      </trkpt>
      <trkpt lat="62.649850804823" lon="17.87153178744">
        <ele>129.4</ele>
        <time>2018-02-10T11:26:56Z</time>
      </trkpt>
      <trkpt lat="62.649836639412" lon="17.87148233423">
        <ele>129.2</ele>
        <time>2018-02-10T11:26:57Z</time>
      </trkpt>
      <trkpt lat="62.649822809277" lon="17.871435730866">
        <ele>129.2</ele>
        <time>2018-02-10T11:26:58Z</time>
      </trkpt>
      <trkpt lat="62.64980914678" lon="17.871380158869">
        <ele>129.2</ele>
        <time>2018-02-10T11:26:59Z</time>
      </trkpt>
      <trkpt lat="62.649799172319" lon="17.871334393695">
        <ele>129.2</ele>
        <time>2018-02-10T11:27:00Z</time>
      </trkpt>
      <trkpt lat="62.649788108211" lon="17.871297764792">
        <ele>129.2</ele>
        <time>2018-02-10T11:27:01Z</time>
      </trkpt>
      <trkpt lat="62.649772936972" lon="17.871248563039">
        <ele>129.2</ele>
        <time>2018-02-10T11:27:02Z</time>
      </trkpt>
      <trkpt lat="62.649762711054" lon="17.871211766498">
        <ele>129.2</ele>
        <time>2018-02-10T11:27:03Z</time>
      </trkpt>
      <trkpt lat="62.649747372177" lon="17.8711579547">
        <ele>129.2</ele>
        <time>2018-02-10T11:27:04Z</time>
      </trkpt>
      <trkpt lat="62.649735050784" lon="17.871107076567">
        <ele>129.2</ele>
        <time>2018-02-10T11:27:05Z</time>
      </trkpt>
      <trkpt lat="62.64972700416" lon="17.871064328877">
        <ele>129</ele>
        <time>2018-02-10T11:27:06Z</time>
      </trkpt>
      <trkpt lat="62.649713676939" lon="17.871018060789">
        <ele>129.2</ele>
        <time>2018-02-10T11:27:07Z</time>
      </trkpt>
      <trkpt lat="62.649707558152" lon="17.870978414402">
        <ele>129.2</ele>
        <time>2018-02-10T11:27:08Z</time>
      </trkpt>
      <trkpt lat="62.649699176252" lon="17.870941366404">
        <ele>129.4</ele>
        <time>2018-02-10T11:27:09Z</time>
      </trkpt>
      <trkpt lat="62.649678472959" lon="17.870882274009">
        <ele>129.4</ele>
        <time>2018-02-10T11:27:10Z</time>
      </trkpt>
      <trkpt lat="62.649664307548" lon="17.870837347025">
        <ele>129.6</ele>
        <time>2018-02-10T11:27:11Z</time>
      </trkpt>
      <trkpt lat="62.649650561232" lon="17.870804322339">
        <ele>129.6</ele>
        <time>2018-02-10T11:27:12Z</time>
      </trkpt>
      <trkpt lat="62.649632204871" lon="17.870749001799">
        <ele>129.6</ele>
        <time>2018-02-10T11:27:13Z</time>
      </trkpt>
      <trkpt lat="62.649619464383" lon="17.870705667376">
        <ele>129.6</ele>
        <time>2018-02-10T11:27:14Z</time>
      </trkpt>
      <trkpt lat="62.649608232637" lon="17.870673899975">
        <ele>129.4</ele>
        <time>2018-02-10T11:27:15Z</time>
      </trkpt>
      <trkpt lat="62.649589038086" lon="17.870632325751">
        <ele>129.4</ele>
        <time>2018-02-10T11:27:16Z</time>
      </trkpt>
      <trkpt lat="62.649575794684" lon="17.870591924993">
        <ele>129.6</ele>
        <time>2018-02-10T11:27:17Z</time>
      </trkpt>
      <trkpt lat="62.64956020435" lon="17.870556469556">
        <ele>129.4</ele>
        <time>2018-02-10T11:27:18Z</time>
      </trkpt>
      <trkpt lat="62.649544194921" lon="17.870527468182">
        <ele>129.6</ele>
        <time>2018-02-10T11:27:19Z</time>
      </trkpt>
      <trkpt lat="62.649524245999" lon="17.870488073252">
        <ele>129.8</ele>
        <time>2018-02-10T11:27:20Z</time>
      </trkpt>
      <trkpt lat="62.649509493855" lon="17.870452617815">
        <ele>130</ele>
        <time>2018-02-10T11:27:21Z</time>
      </trkpt>
      <trkpt lat="62.649495244625" lon="17.870428645581">
        <ele>130</ele>
        <time>2018-02-10T11:27:22Z</time>
      </trkpt>
      <trkpt lat="62.649474373694" lon="17.870398470741">
        <ele>130.2</ele>
        <time>2018-02-10T11:27:23Z</time>
      </trkpt>
      <trkpt lat="62.649454760048" lon="17.870369637005">
        <ele>130.4</ele>
        <time>2018-02-10T11:27:24Z</time>
      </trkpt>
      <trkpt lat="62.649438582981" lon="17.87034071945">
        <ele>130.8</ele>
        <time>2018-02-10T11:27:25Z</time>
      </trkpt>
      <trkpt lat="62.649426010131" lon="17.870319597062">
        <ele>130.8</ele>
        <time>2018-02-10T11:27:26Z</time>
      </trkpt>
      <trkpt lat="62.64941016834" lon="17.870292439706">
        <ele>131</ele>
        <time>2018-02-10T11:27:27Z</time>
      </trkpt>
      <trkpt lat="62.649395164739" lon="17.870264863255">
        <ele>131.4</ele>
        <time>2018-02-10T11:27:28Z</time>
      </trkpt>
      <trkpt lat="62.649380664052" lon="17.870237705899">
        <ele>131.4</ele>
        <time>2018-02-10T11:27:29Z</time>
      </trkpt>
      <trkpt lat="62.649365325175" lon="17.870215577683">
        <ele>131.6</ele>
        <time>2018-02-10T11:27:30Z</time>
      </trkpt>
      <trkpt lat="62.649348896651" lon="17.870191605449">
        <ele>131.8</ele>
        <time>2018-02-10T11:27:31Z</time>
      </trkpt>
      <trkpt lat="62.649328612453" lon="17.870160005686">
        <ele>132</ele>
        <time>2018-02-10T11:27:32Z</time>
      </trkpt>
      <trkpt lat="62.649314447042" lon="17.870135865814">
        <ele>132</ele>
        <time>2018-02-10T11:27:33Z</time>
      </trkpt>
      <trkpt lat="62.649303466753" lon="17.870116587444">
        <ele>132</ele>
        <time>2018-02-10T11:27:34Z</time>
      </trkpt>
      <trkpt lat="62.649285445668" lon="17.870082221654">
        <ele>132.2</ele>
        <time>2018-02-10T11:27:35Z</time>
      </trkpt>
      <trkpt lat="62.649274633017" lon="17.870049280787">
        <ele>132.2</ele>
        <time>2018-02-10T11:27:36Z</time>
      </trkpt>
      <trkpt lat="62.649263736547" lon="17.870022123431">
        <ele>132.2</ele>
        <time>2018-02-10T11:27:37Z</time>
      </trkpt>
      <trkpt lat="62.649243117073" lon="17.869972586402">
        <ele>132.4</ele>
        <time>2018-02-10T11:27:38Z</time>
      </trkpt>
      <trkpt lat="62.649232555879" lon="17.869938052974">
        <ele>132.4</ele>
        <time>2018-02-10T11:27:39Z</time>
      </trkpt>
      <trkpt lat="62.649220318305" lon="17.869907542858">
        <ele>132.4</ele>
        <time>2018-02-10T11:27:40Z</time>
      </trkpt>
      <trkpt lat="62.649199950288" lon="17.869857335277">
        <ele>133</ele>
        <time>2018-02-10T11:27:41Z</time>
      </trkpt>
      <trkpt lat="62.649189640551" lon="17.869816766881">
        <ele>133</ele>
        <time>2018-02-10T11:27:42Z</time>
      </trkpt>
      <trkpt lat="62.649174804588" lon="17.869780389435">
        <ele>133.2</ele>
        <time>2018-02-10T11:27:43Z</time>
      </trkpt>
      <trkpt lat="62.649155777675" lon="17.869731774415">
        <ele>133.2</ele>
        <time>2018-02-10T11:27:44Z</time>
      </trkpt>
      <trkpt lat="62.64914027116" lon="17.869691625114">
        <ele>133.2</ele>
        <time>2018-02-10T11:27:45Z</time>
      </trkpt>
      <trkpt lat="62.649129039414" lon="17.869664551577">
        <ele>133.4</ele>
        <time>2018-02-10T11:27:46Z</time>
      </trkpt>
      <trkpt lat="62.649114706365" lon="17.869630353425">
        <ele>133.2</ele>
        <time>2018-02-10T11:27:47Z</time>
      </trkpt>
      <trkpt lat="62.649098110203" lon="17.869589449753">
        <ele>133.2</ele>
        <time>2018-02-10T11:27:48Z</time>
      </trkpt>
      <trkpt lat="62.649089225389" lon="17.869565142243">
        <ele>133.4</ele>
        <time>2018-02-10T11:27:49Z</time>
      </trkpt>
      <trkpt lat="62.649068019182" lon="17.869517952146">
        <ele>133.6</ele>
        <time>2018-02-10T11:27:50Z</time>
      </trkpt>
      <trkpt lat="62.649058882911" lon="17.869480149777">
        <ele>133.6</ele>
        <time>2018-02-10T11:27:51Z</time>
      </trkpt>
      <trkpt lat="62.649047148251" lon="17.869456680457">
        <ele>133.8</ele>
        <time>2018-02-10T11:27:52Z</time>
      </trkpt>
      <trkpt lat="62.649029378623" lon="17.869404628858">
        <ele>133.6</ele>
        <time>2018-02-10T11:27:53Z</time>
      </trkpt>
      <trkpt lat="62.649026193501" lon="17.869384931393">
        <ele>133.6</ele>
        <time>2018-02-10T11:27:54Z</time>
      </trkpt>
      <trkpt lat="62.649013536832" lon="17.869344027721">
        <ele>133.6</ele>
        <time>2018-02-10T11:27:55Z</time>
      </trkpt>
      <trkpt lat="62.648993084996" lon="17.869298681642">
        <ele>133.6</ele>
        <time>2018-02-10T11:27:56Z</time>
      </trkpt>
      <trkpt lat="62.648978835766" lon="17.869269596449">
        <ele>133.8</ele>
        <time>2018-02-10T11:27:57Z</time>
      </trkpt>
      <trkpt lat="62.648959305939" lon="17.869224585646">
        <ele>133.8</ele>
        <time>2018-02-10T11:27:58Z</time>
      </trkpt>
      <trkpt lat="62.648940446664" lon="17.869179993938">
        <ele>134</ele>
        <time>2018-02-10T11:27:59Z</time>
      </trkpt>
      <trkpt lat="62.648926365072" lon="17.869160799387">
        <ele>134.2</ele>
        <time>2018-02-10T11:28:00Z</time>
      </trkpt>
      <trkpt lat="62.64890893072" lon="17.869117297326">
        <ele>134.4</ele>
        <time>2018-02-10T11:28:01Z</time>
      </trkpt>
      <trkpt lat="62.648895938775" lon="17.869076896568">
        <ele>134.4</ele>
        <time>2018-02-10T11:28:02Z</time>
      </trkpt>
      <trkpt lat="62.648875235482" lon="17.86903817219">
        <ele>134.4</ele>
        <time>2018-02-10T11:28:03Z</time>
      </trkpt>
      <trkpt lat="62.648859309872" lon="17.868986874962">
        <ele>134.6</ele>
        <time>2018-02-10T11:28:04Z</time>
      </trkpt>
      <trkpt lat="62.648843635719" lon="17.868935829191">
        <ele>134.6</ele>
        <time>2018-02-10T11:28:05Z</time>
      </trkpt>
      <trkpt lat="62.648833912715" lon="17.868900289935">
        <ele>134.8</ele>
        <time>2018-02-10T11:28:06Z</time>
      </trkpt>
      <trkpt lat="62.648818741476" lon="17.868850249992">
        <ele>134.8</ele>
        <time>2018-02-10T11:28:07Z</time>
      </trkpt>
      <trkpt lat="62.648810527214" lon="17.868806496474">
        <ele>134.8</ele>
        <time>2018-02-10T11:28:08Z</time>
      </trkpt>
      <trkpt lat="62.648802312952" lon="17.868769616114">
        <ele>135</ele>
        <time>2018-02-10T11:28:09Z</time>
      </trkpt>
      <trkpt lat="62.648785968247" lon="17.868717313058">
        <ele>135.2</ele>
        <time>2018-02-10T11:28:10Z</time>
      </trkpt>
      <trkpt lat="62.648777670166" lon="17.868680935612">
        <ele>135.4</ele>
        <time>2018-02-10T11:28:11Z</time>
      </trkpt>
      <trkpt lat="62.648765935506" lon="17.868640199578">
        <ele>135.6</ele>
        <time>2018-02-10T11:28:12Z</time>
      </trkpt>
      <trkpt lat="62.648750345172" lon="17.868585046676">
        <ele>135.6</ele>
        <time>2018-02-10T11:28:13Z</time>
      </trkpt>
      <trkpt lat="62.648735006295" lon="17.868548166316">
        <ele>135.8</ele>
        <time>2018-02-10T11:28:14Z</time>
      </trkpt>
      <trkpt lat="62.648722181988" lon="17.868498461649">
        <ele>135.8</ele>
        <time>2018-02-10T11:28:15Z</time>
      </trkpt>
      <trkpt lat="62.648709776776" lon="17.868445152765">
        <ele>135.6</ele>
        <time>2018-02-10T11:28:16Z</time>
      </trkpt>
      <trkpt lat="62.648702316885" lon="17.86840617693">
        <ele>135.8</ele>
        <time>2018-02-10T11:28:17Z</time>
      </trkpt>
      <trkpt lat="62.648689157302" lon="17.868353706236">
        <ele>135.6</ele>
        <time>2018-02-10T11:28:18Z</time>
      </trkpt>
      <trkpt lat="62.648679434298" lon="17.868306348501">
        <ele>135.8</ele>
        <time>2018-02-10T11:28:19Z</time>
      </trkpt>
      <trkpt lat="62.648676668271" lon="17.868272317987">
        <ele>135.8</ele>
        <time>2018-02-10T11:28:20Z</time>
      </trkpt>
      <trkpt lat="62.648672477321" lon="17.868225463166">
        <ele>135.6</ele>
        <time>2018-02-10T11:28:21Z</time>
      </trkpt>
      <trkpt lat="62.648667448181" lon="17.868185062408">
        <ele>135.8</ele>
        <time>2018-02-10T11:28:22Z</time>
      </trkpt>
      <trkpt lat="62.648663089593" lon="17.868146421849">
        <ele>135.8</ele>
        <time>2018-02-10T11:28:23Z</time>
      </trkpt>
      <trkpt lat="62.648660658842" lon="17.86810023758">
        <ele>135.8</ele>
        <time>2018-02-10T11:28:24Z</time>
      </trkpt>
      <trkpt lat="62.648654456236" lon="17.868046509601">
        <ele>135.8</ele>
        <time>2018-02-10T11:28:25Z</time>
      </trkpt>
      <trkpt lat="62.648646325793" lon="17.868005941205">
        <ele>136</ele>
        <time>2018-02-10T11:28:26Z</time>
      </trkpt>
      <trkpt lat="62.64863568078" lon="17.867947770819">
        <ele>136</ele>
        <time>2018-02-10T11:28:27Z</time>
      </trkpt>
      <trkpt lat="62.64863065164" lon="17.867890438623">
        <ele>136.2</ele>
        <time>2018-02-10T11:28:28Z</time>
      </trkpt>
      <trkpt lat="62.648622772654" lon="17.86783704592">
        <ele>136.4</ele>
        <time>2018-02-10T11:28:29Z</time>
      </trkpt>
      <trkpt lat="62.648616150953" lon="17.867784072312">
        <ele>136.4</ele>
        <time>2018-02-10T11:28:30Z</time>
      </trkpt>
      <trkpt lat="62.648614139297" lon="17.867754148929">
        <ele>136.4</ele>
        <time>2018-02-10T11:28:31Z</time>
      </trkpt>
      <trkpt lat="62.648603578103" lon="17.86769958276">
        <ele>136.4</ele>
        <time>2018-02-10T11:28:32Z</time>
      </trkpt>
      <trkpt lat="62.648596118212" lon="17.867643172573">
        <ele>136.6</ele>
        <time>2018-02-10T11:28:33Z</time>
      </trkpt>
      <trkpt lat="62.648589664149" lon="17.867603861462">
        <ele>136.6</ele>
        <time>2018-02-10T11:28:34Z</time>
      </trkpt>
      <trkpt lat="62.648575834014" lon="17.867537309176">
        <ele>136.6</ele>
        <time>2018-02-10T11:28:35Z</time>
      </trkpt>
      <trkpt lat="62.648573235625" lon="17.867479557885">
        <ele>136.8</ele>
        <time>2018-02-10T11:28:36Z</time>
      </trkpt>
      <trkpt lat="62.648562003879" lon="17.867436810195">
        <ele>136.8</ele>
        <time>2018-02-10T11:28:37Z</time>
      </trkpt>
      <trkpt lat="62.648541971138" lon="17.867361540733">
        <ele>136.6</ele>
        <time>2018-02-10T11:28:38Z</time>
      </trkpt>
      <trkpt lat="62.648537361093" lon="17.867319463595">
        <ele>136.8</ele>
        <time>2018-02-10T11:28:39Z</time>
      </trkpt>
      <trkpt lat="62.648526045528" lon="17.867275374801">
        <ele>136.8</ele>
        <time>2018-02-10T11:28:40Z</time>
      </trkpt>
      <trkpt lat="62.648511125746" lon="17.867212259094">
        <ele>136.8</ele>
        <time>2018-02-10T11:28:41Z</time>
      </trkpt>
      <trkpt lat="62.648502157113" lon="17.867164566083">
        <ele>136.8</ele>
        <time>2018-02-10T11:28:42Z</time>
      </trkpt>
      <trkpt lat="62.648489332806" lon="17.867117962719">
        <ele>137</ele>
        <time>2018-02-10T11:28:43Z</time>
      </trkpt>
      <trkpt lat="62.648472317549" lon="17.867066581672">
        <ele>137</ele>
        <time>2018-02-10T11:28:44Z</time>
      </trkpt>
      <trkpt lat="62.648463935649" lon="17.867014613892">
        <ele>137.2</ele>
        <time>2018-02-10T11:28:45Z</time>
      </trkpt>
      <trkpt lat="62.648456894853" lon="17.866970860374">
        <ele>137.2</ele>
        <time>2018-02-10T11:28:46Z</time>
      </trkpt>
      <trkpt lat="62.648450608428" lon="17.866928364141">
        <ele>137.4</ele>
        <time>2018-02-10T11:28:47Z</time>
      </trkpt>
      <trkpt lat="62.648442645623" lon="17.866885448813">
        <ele>137.6</ele>
        <time>2018-02-10T11:28:48Z</time>
      </trkpt>
      <trkpt lat="62.648434096085" lon="17.866847897901">
        <ele>137.8</ele>
        <time>2018-02-10T11:28:49Z</time>
      </trkpt>
      <trkpt lat="62.648422445244" lon="17.86680355765">
        <ele>138</ele>
        <time>2018-02-10T11:28:50Z</time>
      </trkpt>
      <trkpt lat="62.648414482439" lon="17.866760558503">
        <ele>138</ele>
        <time>2018-02-10T11:28:51Z</time>
      </trkpt>
      <trkpt lat="62.648411716412" lon="17.86671973865">
        <ele>138.2</ele>
        <time>2018-02-10T11:28:52Z</time>
      </trkpt>
      <trkpt lat="62.648407609281" lon="17.866681265729">
        <ele>138.4</ele>
        <time>2018-02-10T11:28:53Z</time>
      </trkpt>
      <trkpt lat="62.648396880449" lon="17.866645558835">
        <ele>138.6</ele>
        <time>2018-02-10T11:28:54Z</time>
      </trkpt>
      <trkpt lat="62.648385816341" lon="17.866598368738">
        <ele>138.6</ele>
        <time>2018-02-10T11:28:55Z</time>
      </trkpt>
      <trkpt lat="62.648379697554" lon="17.866555788686">
        <ele>138.8</ele>
        <time>2018-02-10T11:28:56Z</time>
      </trkpt>
      <trkpt lat="62.648377434441" lon="17.866519578878">
        <ele>139</ele>
        <time>2018-02-10T11:28:57Z</time>
      </trkpt>
      <trkpt lat="62.648372908215" lon="17.86649175097">
        <ele>139.2</ele>
        <time>2018-02-10T11:28:58Z</time>
      </trkpt>
      <trkpt lat="62.648366789428" lon="17.866453529506">
        <ele>139.4</ele>
        <time>2018-02-10T11:28:59Z</time>
      </trkpt>
      <trkpt lat="62.648347846334" lon="17.866406926142">
        <ele>139.6</ele>
        <time>2018-02-10T11:29:00Z</time>
      </trkpt>
      <trkpt lat="62.648337788054" lon="17.866370883972">
        <ele>139.6</ele>
        <time>2018-02-10T11:29:01Z</time>
      </trkpt>
      <trkpt lat="62.648323203548" lon="17.866343894254">
        <ele>139.8</ele>
        <time>2018-02-10T11:29:02Z</time>
      </trkpt>
      <trkpt lat="62.648308619042" lon="17.866322185133">
        <ele>140</ele>
        <time>2018-02-10T11:29:03Z</time>
      </trkpt>
      <trkpt lat="62.648286909921" lon="17.866293016121">
        <ele>140.2</ele>
        <time>2018-02-10T11:29:04Z</time>
      </trkpt>
      <trkpt lat="62.648268721198" lon="17.866268876249">
        <ele>140.6</ele>
        <time>2018-02-10T11:29:05Z</time>
      </trkpt>
      <trkpt lat="62.648250700113" lon="17.866250687526">
        <ele>140.8</ele>
        <time>2018-02-10T11:29:06Z</time>
      </trkpt>
      <trkpt lat="62.648236869978" lon="17.866246077481">
        <ele>141</ele>
        <time>2018-02-10T11:29:07Z</time>
      </trkpt>
      <trkpt lat="62.648214574124" lon="17.866231409156">
        <ele>141</ele>
        <time>2018-02-10T11:29:08Z</time>
      </trkpt>
      <trkpt lat="62.648202168912" lon="17.866225960921">
        <ele>141.2</ele>
        <time>2018-02-10T11:29:09Z</time>
      </trkpt>
      <trkpt lat="62.648184064008" lon="17.866224871274">
        <ele>141.2</ele>
        <time>2018-02-10T11:29:10Z</time>
      </trkpt>
      <trkpt lat="62.648172664624" lon="17.866220596505">
        <ele>141.4</ele>
        <time>2018-02-10T11:29:11Z</time>
      </trkpt>
      <trkpt lat="62.64815958886" lon="17.866231157699">
        <ele>141.2</ele>
        <time>2018-02-10T11:29:12Z</time>
      </trkpt>
      <trkpt lat="62.648144669078" lon="17.866238785228">
        <ele>141.4</ele>
        <time>2018-02-10T11:29:13Z</time>
      </trkpt>
      <trkpt lat="62.648131593314" lon="17.866247083309">
        <ele>141.4</ele>
        <time>2018-02-10T11:29:14Z</time>
      </trkpt>
      <trkpt lat="62.648121115939" lon="17.866261416358">
        <ele>141.8</ele>
        <time>2018-02-10T11:29:15Z</time>
      </trkpt>
      <trkpt lat="62.648107872537" lon="17.866268373335">
        <ele>142</ele>
        <time>2018-02-10T11:29:16Z</time>
      </trkpt>
      <trkpt lat="62.648093707126" lon="17.866279856538">
        <ele>142.4</ele>
        <time>2018-02-10T11:29:17Z</time>
      </trkpt>
      <trkpt lat="62.648077530059" lon="17.86629477632">
        <ele>142.8</ele>
        <time>2018-02-10T11:29:18Z</time>
      </trkpt>
      <trkpt lat="62.648064454295" lon="17.866313719414">
        <ele>143</ele>
        <time>2018-02-10T11:29:19Z</time>
      </trkpt>
      <trkpt lat="62.648049283056" lon="17.866329645024">
        <ele>143.2</ele>
        <time>2018-02-10T11:29:20Z</time>
      </trkpt>
      <trkpt lat="62.64803469855" lon="17.866348169023">
        <ele>143.4</ele>
        <time>2018-02-10T11:29:21Z</time>
      </trkpt>
      <trkpt lat="62.648019862587" lon="17.866360490416">
        <ele>143.6</ele>
        <time>2018-02-10T11:29:22Z</time>
      </trkpt>
      <trkpt lat="62.64799949457" lon="17.866382199537">
        <ele>143.6</ele>
        <time>2018-02-10T11:29:23Z</time>
      </trkpt>
      <trkpt lat="62.647985496797" lon="17.866406507047">
        <ele>143.8</ele>
        <time>2018-02-10T11:29:24Z</time>
      </trkpt>
      <trkpt lat="62.647969235911" lon="17.86643307767">
        <ele>144</ele>
        <time>2018-02-10T11:29:25Z</time>
      </trkpt>
      <trkpt lat="62.647956663061" lon="17.866454702972">
        <ele>144.2</ele>
        <time>2018-02-10T11:29:26Z</time>
      </trkpt>
      <trkpt lat="62.647946018048" lon="17.866474232799">
        <ele>144.2</ele>
        <time>2018-02-10T11:29:27Z</time>
      </trkpt>
      <trkpt lat="62.647935624492" lon="17.866497702119">
        <ele>144.4</ele>
        <time>2018-02-10T11:29:28Z</time>
      </trkpt>
      <trkpt lat="62.647922464909" lon="17.86652108762">
        <ele>144.6</ele>
        <time>2018-02-10T11:29:29Z</time>
      </trkpt>
      <trkpt lat="62.647909472964" lon="17.866543802569">
        <ele>144.8</ele>
        <time>2018-02-10T11:29:30Z</time>
      </trkpt>
      <trkpt lat="62.647895810467" lon="17.866571546658">
        <ele>145</ele>
        <time>2018-02-10T11:29:31Z</time>
      </trkpt>
      <trkpt lat="62.647886674196" lon="17.866596776177">
        <ele>145.2</ele>
        <time>2018-02-10T11:29:32Z</time>
      </trkpt>
      <trkpt lat="62.647875274812" lon="17.866626615741">
        <ele>145.6</ele>
        <time>2018-02-10T11:29:33Z</time>
      </trkpt>
      <trkpt lat="62.647864126885" lon="17.866649582147">
        <ele>145.8</ele>
        <time>2018-02-10T11:29:34Z</time>
      </trkpt>
      <trkpt lat="62.647852978958" lon="17.866675817494">
        <ele>146</ele>
        <time>2018-02-10T11:29:35Z</time>
      </trkpt>
      <trkpt lat="62.647844094144" lon="17.866698448624">
        <ele>146.4</ele>
        <time>2018-02-10T11:29:36Z</time>
      </trkpt>
      <trkpt lat="62.647831772751" lon="17.866721079754">
        <ele>146.6</ele>
        <time>2018-02-10T11:29:37Z</time>
      </trkpt>
      <trkpt lat="62.647820624824" lon="17.866742118323">
        <ele>146.8</ele>
        <time>2018-02-10T11:29:38Z</time>
      </trkpt>
      <trkpt lat="62.647812494381" lon="17.866766342014">
        <ele>147</ele>
        <time>2018-02-10T11:29:39Z</time>
      </trkpt>
      <trkpt lat="62.647801430273" lon="17.866792409723">
        <ele>147.2</ele>
        <time>2018-02-10T11:29:40Z</time>
      </trkpt>
      <trkpt lat="62.647790030889" lon="17.866820489088">
        <ele>147.4</ele>
        <time>2018-02-10T11:29:41Z</time>
      </trkpt>
      <trkpt lat="62.647783828283" lon="17.86684295258">
        <ele>147.8</ele>
        <time>2018-02-10T11:29:42Z</time>
      </trkpt>
      <trkpt lat="62.647776033116" lon="17.866867679185">
        <ele>148</ele>
        <time>2018-02-10T11:29:43Z</time>
      </trkpt>
      <trkpt lat="62.647765723379" lon="17.866898859853">
        <ele>148.4</ele>
        <time>2018-02-10T11:29:44Z</time>
      </trkpt>
      <trkpt lat="62.647751138873" lon="17.866934734385">
        <ele>148.6</ele>
        <time>2018-02-10T11:29:45Z</time>
      </trkpt>
      <trkpt lat="62.64774719938" lon="17.866961724103">
        <ele>149</ele>
        <time>2018-02-10T11:29:46Z</time>
      </trkpt>
      <trkpt lat="62.647736386729" lon="17.867008159829">
        <ele>149.2</ele>
        <time>2018-02-10T11:29:47Z</time>
      </trkpt>
      <trkpt lat="62.647726915182" lon="17.867059289419">
        <ele>149.4</ele>
        <time>2018-02-10T11:29:48Z</time>
      </trkpt>
      <trkpt lat="62.647724484431" lon="17.867094241942">
        <ele>149.4</ele>
        <time>2018-02-10T11:29:49Z</time>
      </trkpt>
      <trkpt lat="62.647712246857" lon="17.867148724292">
        <ele>149.4</ele>
        <time>2018-02-10T11:29:50Z</time>
      </trkpt>
      <trkpt lat="62.647703445862" lon="17.867182503349">
        <ele>149.4</ele>
        <time>2018-02-10T11:29:51Z</time>
      </trkpt>
      <trkpt lat="62.647694980143" lon="17.867215779492">
        <ele>149.4</ele>
        <time>2018-02-10T11:29:52Z</time>
      </trkpt>
      <trkpt lat="62.647688274623" lon="17.867254000956">
        <ele>149.4</ele>
        <time>2018-02-10T11:29:53Z</time>
      </trkpt>
      <trkpt lat="62.64768349694" lon="17.86728300233">
        <ele>149.4</ele>
        <time>2018-02-10T11:29:54Z</time>
      </trkpt>
      <trkpt lat="62.647679138352" lon="17.867316949025">
        <ele>149.6</ele>
        <time>2018-02-10T11:29:55Z</time>
      </trkpt>
      <trkpt lat="62.647671678461" lon="17.867356092498">
        <ele>149.8</ele>
        <time>2018-02-10T11:29:56Z</time>
      </trkpt>
      <trkpt lat="62.647664050932" lon="17.867391380297">
        <ele>150</ele>
        <time>2018-02-10T11:29:57Z</time>
      </trkpt>
      <trkpt lat="62.647657764507" lon="17.867426668096">
        <ele>150.2</ele>
        <time>2018-02-10T11:29:58Z</time>
      </trkpt>
      <trkpt lat="62.647650220797" lon="17.86746321318">
        <ele>150.6</ele>
        <time>2018-02-10T11:29:59Z</time>
      </trkpt>
      <trkpt lat="62.647643599096" lon="17.867504368309">
        <ele>151</ele>
        <time>2018-02-10T11:30:00Z</time>
      </trkpt>
      <trkpt lat="62.647636725938" lon="17.867534794606">
        <ele>151.2</ele>
        <time>2018-02-10T11:30:01Z</time>
      </trkpt>
      <trkpt lat="62.647632702626" lon="17.867558683021">
        <ele>151.4</ele>
        <time>2018-02-10T11:30:02Z</time>
      </trkpt>
      <trkpt lat="62.647627086753" lon="17.867589947508">
        <ele>151.6</ele>
        <time>2018-02-10T11:30:03Z</time>
      </trkpt>
      <trkpt lat="62.647619040129" lon="17.867617272502">
        <ele>151.8</ele>
        <time>2018-02-10T11:30:04Z</time>
      </trkpt>
      <trkpt lat="62.647609903858" lon="17.867660774563">
        <ele>152</ele>
        <time>2018-02-10T11:30:05Z</time>
      </trkpt>
      <trkpt lat="62.647598504474" lon="17.867702264968">
        <ele>152.2</ele>
        <time>2018-02-10T11:30:06Z</time>
      </trkpt>
      <trkpt lat="62.647587272728" lon="17.867732691265">
        <ele>152.4</ele>
        <time>2018-02-10T11:30:07Z</time>
      </trkpt>
      <trkpt lat="62.647575202792" lon="17.867774265489">
        <ele>152.6</ele>
        <time>2018-02-10T11:30:08Z</time>
      </trkpt>
      <trkpt lat="62.647569419281" lon="17.867805278519">
        <ele>152.8</ele>
        <time>2018-02-10T11:30:09Z</time>
      </trkpt>
      <trkpt lat="62.647559361001" lon="17.867841320689">
        <ele>153</ele>
        <time>2018-02-10T11:30:10Z</time>
      </trkpt>
      <trkpt lat="62.64754184283" lon="17.867880799438">
        <ele>153.2</ele>
        <time>2018-02-10T11:30:11Z</time>
      </trkpt>
      <trkpt lat="62.647532287464" lon="17.867914243219">
        <ele>153.4</ele>
        <time>2018-02-10T11:30:12Z</time>
      </trkpt>
      <trkpt lat="62.647514685474" lon="17.867950285389">
        <ele>153.4</ele>
        <time>2018-02-10T11:30:13Z</time>
      </trkpt>
      <trkpt lat="62.647490461783" lon="17.867975431089">
        <ele>153.6</ele>
        <time>2018-02-10T11:30:14Z</time>
      </trkpt>
      <trkpt lat="62.647474200897" lon="17.867997726943">
        <ele>153.6</ele>
        <time>2018-02-10T11:30:15Z</time>
      </trkpt>
      <trkpt lat="62.647456263631" lon="17.868019184607">
        <ele>153.8</ele>
        <time>2018-02-10T11:30:16Z</time>
      </trkpt>
      <trkpt lat="62.647437655813" lon="17.868034691122">
        <ele>153.8</ele>
        <time>2018-02-10T11:30:17Z</time>
      </trkpt>
      <trkpt lat="62.647407145697" lon="17.868056148786">
        <ele>154</ele>
        <time>2018-02-10T11:30:18Z</time>
      </trkpt>
      <trkpt lat="62.647380155979" lon="17.868074672785">
        <ele>154.2</ele>
        <time>2018-02-10T11:30:19Z</time>
      </trkpt>
      <trkpt lat="62.647364481826" lon="17.868079534287">
        <ele>154.2</ele>
        <time>2018-02-10T11:30:20Z</time>
      </trkpt>
      <trkpt lat="62.647344700542" lon="17.868067715808">
        <ele>154.4</ele>
        <time>2018-02-10T11:30:21Z</time>
      </trkpt>
      <trkpt lat="62.64732810438" lon="17.868050365275">
        <ele>154.8</ele>
        <time>2018-02-10T11:30:22Z</time>
      </trkpt>
      <trkpt lat="62.647311089123" lon="17.868036451321">
        <ele>154.6</ele>
        <time>2018-02-10T11:30:23Z</time>
      </trkpt>
      <trkpt lat="62.647289631459" lon="17.868002253169">
        <ele>154.8</ele>
        <time>2018-02-10T11:30:24Z</time>
      </trkpt>
      <trkpt lat="62.647269514899" lon="17.867977610383">
        <ele>155</ele>
        <time>2018-02-10T11:30:25Z</time>
      </trkpt>
      <trkpt lat="62.647253002556" lon="17.867949028104">
        <ele>155.2</ele>
        <time>2018-02-10T11:30:26Z</time>
      </trkpt>
      <trkpt lat="62.647238082774" lon="17.867929330639">
        <ele>155.2</ele>
        <time>2018-02-10T11:30:27Z</time>
      </trkpt>
      <trkpt lat="62.647218720585" lon="17.867886080035">
        <ele>155.2</ele>
        <time>2018-02-10T11:30:28Z</time>
      </trkpt>
      <trkpt lat="62.647203716984" lon="17.867859006498">
        <ele>155.2</ele>
        <time>2018-02-10T11:30:29Z</time>
      </trkpt>
      <trkpt lat="62.647180247664" lon="17.867815085342">
        <ele>155.4</ele>
        <time>2018-02-10T11:30:30Z</time>
      </trkpt>
      <trkpt lat="62.647163735321" lon="17.867791196927">
        <ele>155.4</ele>
        <time>2018-02-10T11:30:31Z</time>
      </trkpt>
      <trkpt lat="62.647142948209" lon="17.867745347934">
        <ele>155.4</ele>
        <time>2018-02-10T11:30:32Z</time>
      </trkpt>
      <trkpt lat="62.647126687323" lon="17.867712239429">
        <ele>155.4</ele>
        <time>2018-02-10T11:30:33Z</time>
      </trkpt>
      <trkpt lat="62.647110258799" lon="17.8676710843">
        <ele>155.4</ele>
        <time>2018-02-10T11:30:34Z</time>
      </trkpt>
      <trkpt lat="62.647083269081" lon="17.867626827868">
        <ele>155.6</ele>
        <time>2018-02-10T11:30:35Z</time>
      </trkpt>
      <trkpt lat="62.647067678747" lon="17.867591875345">
        <ele>155.4</ele>
        <time>2018-02-10T11:30:36Z</time>
      </trkpt>
      <trkpt lat="62.647048903291" lon="17.867552564234">
        <ele>155.4</ele>
        <time>2018-02-10T11:30:37Z</time>
      </trkpt>
      <trkpt lat="62.647029122007" lon="17.867513336942">
        <ele>155.4</ele>
        <time>2018-02-10T11:30:38Z</time>
      </trkpt>
      <trkpt lat="62.647000875004" lon="17.867458770773">
        <ele>155.6</ele>
        <time>2018-02-10T11:30:39Z</time>
      </trkpt>
      <trkpt lat="62.646981764272" lon="17.867406802993">
        <ele>155.6</ele>
        <time>2018-02-10T11:30:40Z</time>
      </trkpt>
      <trkpt lat="62.646965838662" lon="17.867365564045">
        <ele>155.8</ele>
        <time>2018-02-10T11:30:41Z</time>
      </trkpt>
      <trkpt lat="62.646947063206" lon="17.86730395708">
        <ele>156</ele>
        <time>2018-02-10T11:30:42Z</time>
      </trkpt>
      <trkpt lat="62.646930634682" lon="17.867243104486">
        <ele>156.2</ele>
        <time>2018-02-10T11:30:43Z</time>
      </trkpt>
      <trkpt lat="62.646922001325" lon="17.867205805031">
        <ele>156.2</ele>
        <time>2018-02-10T11:30:44Z</time>
      </trkpt>
      <trkpt lat="62.646914960529" lon="17.867149813939">
        <ele>156.4</ele>
        <time>2018-02-10T11:30:45Z</time>
      </trkpt>
      <trkpt lat="62.646903896421" lon="17.867092146467">
        <ele>156.4</ele>
        <time>2018-02-10T11:30:46Z</time>
      </trkpt>
      <trkpt lat="62.646894257236" lon="17.86704914732">
        <ele>156.4</ele>
        <time>2018-02-10T11:30:47Z</time>
      </trkpt>
      <trkpt lat="62.646882271119" lon="17.866977733532">
        <ele>156.4</ele>
        <time>2018-02-10T11:30:48Z</time>
      </trkpt>
      <trkpt lat="62.64687631997" lon="17.866904308088">
        <ele>156.2</ele>
        <time>2018-02-10T11:30:49Z</time>
      </trkpt>
      <trkpt lat="62.646874475952" lon="17.866847227349">
        <ele>156.2</ele>
        <time>2018-02-10T11:30:50Z</time>
      </trkpt>
      <trkpt lat="62.646873973038" lon="17.866772293163">
        <ele>156.4</ele>
        <time>2018-02-10T11:30:51Z</time>
      </trkpt>
      <trkpt lat="62.646878415445" lon="17.86671722408">
        <ele>156.4</ele>
        <time>2018-02-10T11:30:52Z</time>
      </trkpt>
      <trkpt lat="62.646881013834" lon="17.866651929079">
        <ele>156.6</ele>
        <time>2018-02-10T11:30:53Z</time>
      </trkpt>
      <trkpt lat="62.64688470187" lon="17.86658562825">
        <ele>156.6</ele>
        <time>2018-02-10T11:30:54Z</time>
      </trkpt>
      <trkpt lat="62.646889479553" lon="17.866531229719">
        <ele>156.6</ele>
        <time>2018-02-10T11:30:55Z</time>
      </trkpt>
      <trkpt lat="62.646888473725" lon="17.866431149833">
        <ele>156.6</ele>
        <time>2018-02-10T11:30:56Z</time>
      </trkpt>
      <trkpt lat="62.646889395734" lon="17.866369794325">
        <ele>156.6</ele>
        <time>2018-02-10T11:30:57Z</time>
      </trkpt>
      <trkpt lat="62.646881013834" lon="17.866307516808">
        <ele>156.6</ele>
        <time>2018-02-10T11:30:58Z</time>
      </trkpt>
      <trkpt lat="62.646876655246" lon="17.866222105247">
        <ele>156.4</ele>
        <time>2018-02-10T11:30:59Z</time>
      </trkpt>
      <trkpt lat="62.646870285002" lon="17.866153708943">
        <ele>156.4</ele>
        <time>2018-02-10T11:31:00Z</time>
      </trkpt>
      <trkpt lat="62.646860981093" lon="17.866091263788">
        <ele>156.4</ele>
        <time>2018-02-10T11:31:01Z</time>
      </trkpt>
      <trkpt lat="62.646847402415" lon="17.866030243556">
        <ele>156.2</ele>
        <time>2018-02-10T11:31:02Z</time>
      </trkpt>
      <trkpt lat="62.64683692504" lon="17.865970480609">
        <ele>156.2</ele>
        <time>2018-02-10T11:31:03Z</time>
      </trkpt>
      <trkpt lat="62.646822005258" lon="17.865894540595">
        <ele>155.8</ele>
        <time>2018-02-10T11:31:04Z</time>
      </trkpt>
      <trkpt lat="62.646806247286" lon="17.865831424888">
        <ele>155.8</ele>
        <time>2018-02-10T11:31:05Z</time>
      </trkpt>
      <trkpt lat="62.646788058563" lon="17.8657767749">
        <ele>155.6</ele>
        <time>2018-02-10T11:31:06Z</time>
      </trkpt>
      <trkpt lat="62.646770875668" lon="17.865717179591">
        <ele>155.6</ele>
        <time>2018-02-10T11:31:07Z</time>
      </trkpt>
      <trkpt lat="62.646759057189" lon="17.865677700842">
        <ele>155.4</ele>
        <time>2018-02-10T11:31:08Z</time>
      </trkpt>
      <trkpt lat="62.646739778819" lon="17.865628163813">
        <ele>155.4</ele>
        <time>2018-02-10T11:31:09Z</time>
      </trkpt>
      <trkpt lat="62.646713124377" lon="17.865574352015">
        <ele>155.6</ele>
        <time>2018-02-10T11:31:10Z</time>
      </trkpt>
      <trkpt lat="62.646686134659" lon="17.865546943202">
        <ele>155.6</ele>
        <time>2018-02-10T11:31:11Z</time>
      </trkpt>
      <trkpt lat="62.646656630371" lon="17.865493801956">
        <ele>155.6</ele>
        <time>2018-02-10T11:31:12Z</time>
      </trkpt>
      <trkpt lat="62.646631065576" lon="17.865443845832">
        <ele>155.6</ele>
        <time>2018-02-10T11:31:13Z</time>
      </trkpt>
      <trkpt lat="62.646612122482" lon="17.865414257725">
        <ele>155.6</ele>
        <time>2018-02-10T11:31:14Z</time>
      </trkpt>
      <trkpt lat="62.646586222411" lon="17.865368660189">
        <ele>155.4</ele>
        <time>2018-02-10T11:31:15Z</time>
      </trkpt>
      <trkpt lat="62.646566105851" lon="17.865332618019">
        <ele>155.4</ele>
        <time>2018-02-10T11:31:16Z</time>
      </trkpt>
      <trkpt lat="62.646546240748" lon="17.865293893641">
        <ele>155.4</ele>
        <time>2018-02-10T11:31:17Z</time>
      </trkpt>
      <trkpt lat="62.646522436152" lon="17.865274615271">
        <ele>155.2</ele>
        <time>2018-02-10T11:31:18Z</time>
      </trkpt>
      <trkpt lat="62.646492680407" lon="17.865249804847">
        <ele>155.4</ele>
        <time>2018-02-10T11:31:19Z</time>
      </trkpt>
      <trkpt lat="62.64645973954" lon="17.865203033845">
        <ele>155.4</ele>
        <time>2018-02-10T11:31:20Z</time>
      </trkpt>
      <trkpt lat="62.646442724283" lon="17.865178726335">
        <ele>155.6</ele>
        <time>2018-02-10T11:31:21Z</time>
      </trkpt>
      <trkpt lat="62.646425038474" lon="17.865151317522">
        <ele>155.4</ele>
        <time>2018-02-10T11:31:22Z</time>
      </trkpt>
      <trkpt lat="62.646401317697" lon="17.865117035551">
        <ele>155.2</ele>
        <time>2018-02-10T11:31:23Z</time>
      </trkpt>
      <trkpt lat="62.646387571381" lon="17.865106977271">
        <ele>155.2</ele>
        <time>2018-02-10T11:31:24Z</time>
      </trkpt>
      <trkpt lat="62.646355217247" lon="17.865087195987">
        <ele>155</ele>
        <time>2018-02-10T11:31:25Z</time>
      </trkpt>
      <trkpt lat="62.646317331059" lon="17.865059451898">
        <ele>155</ele>
        <time>2018-02-10T11:31:26Z</time>
      </trkpt>
      <trkpt lat="62.646280283061" lon="17.865050315627">
        <ele>155.2</ele>
        <time>2018-02-10T11:31:27Z</time>
      </trkpt>
      <trkpt lat="62.646233847335" lon="17.865046962867">
        <ele>155</ele>
        <time>2018-02-10T11:31:28Z</time>
      </trkpt>
      <trkpt lat="62.646192189292" lon="17.865068839626">
        <ele>155.2</ele>
        <time>2018-02-10T11:31:29Z</time>
      </trkpt>
      <trkpt lat="62.646158242597" lon="17.865102702502">
        <ele>155.2</ele>
        <time>2018-02-10T11:31:30Z</time>
      </trkpt>
      <trkpt lat="62.646133851268" lon="17.865145953106">
        <ele>155.2</ele>
        <time>2018-02-10T11:31:31Z</time>
      </trkpt>
      <trkpt lat="62.646111974509" lon="17.865192305013">
        <ele>155</ele>
        <time>2018-02-10T11:31:32Z</time>
      </trkpt>
      <trkpt lat="62.646088589008" lon="17.865251062132">
        <ele>155</ele>
        <time>2018-02-10T11:31:33Z</time>
      </trkpt>
      <trkpt lat="62.64606495205" lon="17.865308478147">
        <ele>155</ele>
        <time>2018-02-10T11:31:34Z</time>
      </trkpt>
      <trkpt lat="62.646038046151" lon="17.86537276732">
        <ele>154.8</ele>
        <time>2018-02-10T11:31:35Z</time>
      </trkpt>
      <trkpt lat="62.646002423076" lon="17.865438732873">
        <ele>154.8</ele>
        <time>2018-02-10T11:31:36Z</time>
      </trkpt>
      <trkpt lat="62.645967638191" lon="17.865495562155">
        <ele>154.4</ele>
        <time>2018-02-10T11:31:37Z</time>
      </trkpt>
      <trkpt lat="62.645924471406" lon="17.865545685917">
        <ele>154</ele>
        <time>2018-02-10T11:31:38Z</time>
      </trkpt>
      <trkpt lat="62.645886333761" lon="17.865600000629">
        <ele>153.6</ele>
        <time>2018-02-10T11:31:39Z</time>
      </trkpt>
      <trkpt lat="62.645845597727" lon="17.865664205983">
        <ele>152.8</ele>
        <time>2018-02-10T11:31:40Z</time>
      </trkpt>
      <trkpt lat="62.64580343677" lon="17.865731680278">
        <ele>152</ele>
        <time>2018-02-10T11:31:41Z</time>
      </trkpt>
      <trkpt lat="62.645763036012" lon="17.865801333867">
        <ele>151.2</ele>
        <time>2018-02-10T11:31:42Z</time>
      </trkpt>
      <trkpt lat="62.645718695761" lon="17.865879620813">
        <ele>150.4</ele>
        <time>2018-02-10T11:31:43Z</time>
      </trkpt>
      <trkpt lat="62.645678881736" lon="17.86595782394">
        <ele>149.6</ele>
        <time>2018-02-10T11:31:44Z</time>
      </trkpt>
      <trkpt lat="62.645640157358" lon="17.866041307664">
        <ele>148.8</ele>
        <time>2018-02-10T11:31:45Z</time>
      </trkpt>
      <trkpt lat="62.645603696093" lon="17.86611875642">
        <ele>148.2</ele>
        <time>2018-02-10T11:31:46Z</time>
      </trkpt>
      <trkpt lat="62.645566564276" lon="17.866190170208">
        <ele>147.4</ele>
        <time>2018-02-10T11:31:47Z</time>
      </trkpt>
      <trkpt lat="62.645523313672" lon="17.866270887905">
        <ele>146.8</ele>
        <time>2018-02-10T11:31:48Z</time>
      </trkpt>
      <trkpt lat="62.645485595122" lon="17.866343978073">
        <ele>146.4</ele>
        <time>2018-02-10T11:31:49Z</time>
      </trkpt>
      <trkpt lat="62.645446535468" lon="17.866421007734">
        <ele>145.8</ele>
        <time>2018-02-10T11:31:50Z</time>
      </trkpt>
      <trkpt lat="62.64540362014" lon="17.866494433178">
        <ele>145.2</ele>
        <time>2018-02-10T11:31:51Z</time>
      </trkpt>
      <trkpt lat="62.645365147219" lon="17.866559309084">
        <ele>144.8</ele>
        <time>2018-02-10T11:31:52Z</time>
      </trkpt>
      <trkpt lat="62.645315274914" lon="17.866652431993">
        <ele>144.2</ele>
        <time>2018-02-10T11:31:53Z</time>
      </trkpt>
      <trkpt lat="62.645267581903" lon="17.866738262649">
        <ele>143.6</ele>
        <time>2018-02-10T11:31:54Z</time>
      </trkpt>
      <trkpt lat="62.64521670377" lon="17.86685384905">
        <ele>143.2</ele>
        <time>2018-02-10T11:31:55Z</time>
      </trkpt>
      <trkpt lat="62.645170435682" lon="17.866963819578">
        <ele>143</ele>
        <time>2018-02-10T11:31:56Z</time>
      </trkpt>
      <trkpt lat="62.645128442363" lon="17.86706926388">
        <ele>142.6</ele>
        <time>2018-02-10T11:31:57Z</time>
      </trkpt>
      <trkpt lat="62.645092567831" lon="17.867198848054">
        <ele>142</ele>
        <time>2018-02-10T11:31:58Z</time>
      </trkpt>
      <trkpt lat="62.645054514005" lon="17.867338658146">
        <ele>141.4</ele>
        <time>2018-02-10T11:31:59Z</time>
      </trkpt>
      <trkpt lat="62.645021992233" lon="17.867483581197">
        <ele>140.8</ele>
        <time>2018-02-10T11:32:00Z</time>
      </trkpt>
      <trkpt lat="62.644982932579" lon="17.86763923308">
        <ele>139.6</ele>
        <time>2018-02-10T11:32:01Z</time>
      </trkpt>
      <trkpt lat="62.644948734427" lon="17.867761525001">
        <ele>138.2</ele>
        <time>2018-02-10T11:32:02Z</time>
      </trkpt>
      <trkpt lat="62.64490824985" lon="17.867911058097">
        <ele>136.8</ele>
        <time>2018-02-10T11:32:03Z</time>
      </trkpt>
      <trkpt lat="62.644872626775" lon="17.868035445493">
        <ele>135.8</ele>
        <time>2018-02-10T11:32:04Z</time>
      </trkpt>
      <trkpt lat="62.644841110831" lon="17.868155474301">
        <ele>134.8</ele>
        <time>2018-02-10T11:32:05Z</time>
      </trkpt>
      <trkpt lat="62.644813702018" lon="17.868260583327">
        <ele>133.8</ele>
        <time>2018-02-10T11:32:06Z</time>
      </trkpt>
      <trkpt lat="62.644790987069" lon="17.868364937982">
        <ele>133.4</ele>
        <time>2018-02-10T11:32:07Z</time>
      </trkpt>
      <trkpt lat="62.644776067287" lon="17.868471052836">
        <ele>133.4</ele>
        <time>2018-02-10T11:32:08Z</time>
      </trkpt>
      <trkpt lat="62.644762991523" lon="17.868565181573">
        <ele>133.2</ele>
        <time>2018-02-10T11:32:09Z</time>
      </trkpt>
      <trkpt lat="62.644754777261" lon="17.868653107704">
        <ele>133.6</ele>
        <time>2018-02-10T11:32:10Z</time>
      </trkpt>
      <trkpt lat="62.644741952954" lon="17.868724521492">
        <ele>134.4</ele>
        <time>2018-02-10T11:32:11Z</time>
      </trkpt>
      <trkpt lat="62.644746143904" lon="17.868767269182">
        <ele>134.6</ele>
        <time>2018-02-10T11:32:12Z</time>
      </trkpt>
      <trkpt lat="62.644749077569" lon="17.868834324382">
        <ele>135</ele>
        <time>2018-02-10T11:32:13Z</time>
      </trkpt>
      <trkpt lat="62.644744132248" lon="17.868913365699">
        <ele>135.4</ele>
        <time>2018-02-10T11:32:14Z</time>
      </trkpt>
      <trkpt lat="62.644739270746" lon="17.868995340681">
        <ele>135</ele>
        <time>2018-02-10T11:32:15Z</time>
      </trkpt>
      <trkpt lat="62.644746060085" lon="17.869072118885">
        <ele>135.2</ele>
        <time>2018-02-10T11:32:16Z</time>
      </trkpt>
      <trkpt lat="62.644742120592" lon="17.869145292872">
        <ele>135.2</ele>
        <time>2018-02-10T11:32:17Z</time>
      </trkpt>
      <trkpt lat="62.644738684013" lon="17.869243612559">
        <ele>135.2</ele>
        <time>2018-02-10T11:32:18Z</time>
      </trkpt>
      <trkpt lat="62.644732062312" lon="17.869315361623">
        <ele>135</ele>
        <time>2018-02-10T11:32:19Z</time>
      </trkpt>
      <trkpt lat="62.64474145004" lon="17.869417369346">
        <ele>135</ele>
        <time>2018-02-10T11:32:20Z</time>
      </trkpt>
      <trkpt lat="62.644742958782" lon="17.86949917669">
        <ele>134.8</ele>
        <time>2018-02-10T11:32:21Z</time>
      </trkpt>
      <trkpt lat="62.644746060085" lon="17.869574278514">
        <ele>134.8</ele>
        <time>2018-02-10T11:32:22Z</time>
      </trkpt>
      <trkpt lat="62.644744635162" lon="17.8696659765">
        <ele>134.8</ele>
        <time>2018-02-10T11:32:23Z</time>
      </trkpt>
      <trkpt lat="62.644741785316" lon="17.869762033074">
        <ele>134.6</ele>
        <time>2018-02-10T11:32:24Z</time>
      </trkpt>
      <trkpt lat="62.644744132248" lon="17.869872255059">
        <ele>134.6</ele>
        <time>2018-02-10T11:32:25Z</time>
      </trkpt>
      <trkpt lat="62.644744551343" lon="17.869976442076">
        <ele>134.4</ele>
        <time>2018-02-10T11:32:26Z</time>
      </trkpt>
      <trkpt lat="62.644744635162" lon="17.870067050415">
        <ele>134.2</ele>
        <time>2018-02-10T11:32:27Z</time>
      </trkpt>
      <trkpt lat="62.644741617678" lon="17.870160340962">
        <ele>133.8</ele>
        <time>2018-02-10T11:32:28Z</time>
      </trkpt>
      <trkpt lat="62.644729547742" lon="17.870271652594">
        <ele>133.6</ele>
        <time>2018-02-10T11:32:29Z</time>
      </trkpt>
      <trkpt lat="62.644712867761" lon="17.870383634778">
        <ele>133.4</ele>
        <time>2018-02-10T11:32:30Z</time>
      </trkpt>
      <trkpt lat="62.644710772286" lon="17.870494275858">
        <ele>133.2</ele>
        <time>2018-02-10T11:32:31Z</time>
      </trkpt>
      <trkpt lat="62.644708173897" lon="17.870599636341">
        <ele>133</ele>
        <time>2018-02-10T11:32:32Z</time>
      </trkpt>
      <trkpt lat="62.64470121692" lon="17.870729807248">
        <ele>132.8</ele>
        <time>2018-02-10T11:32:33Z</time>
      </trkpt>
      <trkpt lat="62.644693924667" lon="17.870855954843">
        <ele>132.6</ele>
        <time>2018-02-10T11:32:34Z</time>
      </trkpt>
      <trkpt lat="62.64467690941" lon="17.870986796302">
        <ele>132</ele>
        <time>2018-02-10T11:32:35Z</time>
      </trkpt>
      <trkpt lat="62.644663330732" lon="17.871095844821">
        <ele>131.2</ele>
        <time>2018-02-10T11:32:36Z</time>
      </trkpt>
      <trkpt lat="62.644643800905" lon="17.871208497557">
        <ele>130.6</ele>
        <time>2018-02-10T11:32:37Z</time>
      </trkpt>
      <trkpt lat="62.644623097612" lon="17.871336321532">
        <ele>130.2</ele>
        <time>2018-02-10T11:32:38Z</time>
      </trkpt>
      <trkpt lat="62.64459979593" lon="17.87143874835">
        <ele>129.8</ele>
        <time>2018-02-10T11:32:39Z</time>
      </trkpt>
      <trkpt lat="62.644574231135" lon="17.871519633685">
        <ele>129.2</ele>
        <time>2018-02-10T11:32:40Z</time>
      </trkpt>
      <trkpt lat="62.644556964421" lon="17.871617953372">
        <ele>128.8</ele>
        <time>2018-02-10T11:32:41Z</time>
      </trkpt>
      <trkpt lat="62.644541541725" lon="17.871704957494">
        <ele>128.8</ele>
        <time>2018-02-10T11:32:42Z</time>
      </trkpt>
      <trkpt lat="62.644519245871" lon="17.871808054864">
        <ele>128.8</ele>
        <time>2018-02-10T11:32:43Z</time>
      </trkpt>
      <trkpt lat="62.644490747411" lon="17.87191400208">
        <ele>129</ele>
        <time>2018-02-10T11:32:44Z</time>
      </trkpt>
      <trkpt lat="62.644467278091" lon="17.872017686183">
        <ele>129.2</ele>
        <time>2018-02-10T11:32:45Z</time>
      </trkpt>
      <trkpt lat="62.644445149875" lon="17.872109216531">
        <ele>129.4</ele>
        <time>2018-02-10T11:32:46Z</time>
      </trkpt>
      <trkpt lat="62.644425703867" lon="17.87220401582">
        <ele>129.2</ele>
        <time>2018-02-10T11:32:47Z</time>
      </trkpt>
      <trkpt lat="62.644403324194" lon="17.872294624159">
        <ele>129.2</ele>
        <time>2018-02-10T11:32:48Z</time>
      </trkpt>
      <trkpt lat="62.64437432282" lon="17.87239260857">
        <ele>129</ele>
        <time>2018-02-10T11:32:49Z</time>
      </trkpt>
      <trkpt lat="62.644353032794" lon="17.872484222737">
        <ele>128.8</ele>
        <time>2018-02-10T11:32:50Z</time>
      </trkpt>
      <trkpt lat="62.644331826587" lon="17.872582542424">
        <ele>128.8</ele>
        <time>2018-02-10T11:32:51Z</time>
      </trkpt>
      <trkpt lat="62.644309446914" lon="17.872668540718">
        <ele>128.8</ele>
        <time>2018-02-10T11:32:52Z</time>
      </trkpt>
      <trkpt lat="62.644281870463" lon="17.872777421599">
        <ele>128.6</ele>
        <time>2018-02-10T11:32:53Z</time>
      </trkpt>
      <trkpt lat="62.644258065867" lon="17.872878088218">
        <ele>128.6</ele>
        <time>2018-02-10T11:32:54Z</time>
      </trkpt>
      <trkpt lat="62.644240463877" lon="17.872979760665">
        <ele>128.6</ele>
        <time>2018-02-10T11:32:55Z</time>
      </trkpt>
      <trkpt lat="62.644221939878" lon="17.873094089781">
        <ele>128.2</ele>
        <time>2018-02-10T11:32:56Z</time>
      </trkpt>
      <trkpt lat="62.644212216874" lon="17.87318972726">
        <ele>127.8</ele>
        <time>2018-02-10T11:32:57Z</time>
      </trkpt>
      <trkpt lat="62.644198219101" lon="17.873294417191">
        <ele>127.6</ele>
        <time>2018-02-10T11:32:58Z</time>
      </trkpt>
      <trkpt lat="62.644179611283" lon="17.873413104895">
        <ele>127.4</ele>
        <time>2018-02-10T11:32:59Z</time>
      </trkpt>
      <trkpt lat="62.644156309601" lon="17.873537324653">
        <ele>127</ele>
        <time>2018-02-10T11:33:00Z</time>
      </trkpt>
      <trkpt lat="62.644138959068" lon="17.873636231073">
        <ele>126.6</ele>
        <time>2018-02-10T11:33:01Z</time>
      </trkpt>
      <trkpt lat="62.644121105621" lon="17.873728180516">
        <ele>126.4</ele>
        <time>2018-02-10T11:33:02Z</time>
      </trkpt>
      <trkpt lat="62.644099480319" lon="17.873843599279">
        <ele>125.8</ele>
        <time>2018-02-10T11:33:03Z</time>
      </trkpt>
      <trkpt lat="62.644082967976" lon="17.87394326007">
        <ele>125.4</ele>
        <time>2018-02-10T11:33:04Z</time>
      </trkpt>
      <trkpt lat="62.64406503071" lon="17.874057924462">
        <ele>125.2</ele>
        <time>2018-02-10T11:33:05Z</time>
      </trkpt>
      <trkpt lat="62.644045919978" lon="17.874157333796">
        <ele>124.8</ele>
        <time>2018-02-10T11:33:06Z</time>
      </trkpt>
      <trkpt lat="62.644025132866" lon="17.874252803637">
        <ele>124.6</ele>
        <time>2018-02-10T11:33:07Z</time>
      </trkpt>
      <trkpt lat="62.644008620523" lon="17.874364450545">
        <ele>124.4</ele>
        <time>2018-02-10T11:33:08Z</time>
      </trkpt>
      <trkpt lat="62.643991437628" lon="17.874468469924">
        <ele>124</ele>
        <time>2018-02-10T11:33:09Z</time>
      </trkpt>
      <trkpt lat="62.643973751819" lon="17.874587073809">
        <ele>123.8</ele>
        <time>2018-02-10T11:33:10Z</time>
      </trkpt>
      <trkpt lat="62.643957910028" lon="17.874684471487">
        <ele>123.4</ele>
        <time>2018-02-10T11:33:11Z</time>
      </trkpt>
      <trkpt lat="62.643936117088" lon="17.87481162491">
        <ele>123</ele>
        <time>2018-02-10T11:33:12Z</time>
      </trkpt>
      <trkpt lat="62.643925723532" lon="17.874920002877">
        <ele>123</ele>
        <time>2018-02-10T11:33:13Z</time>
      </trkpt>
      <trkpt lat="62.643913653596" lon="17.875032487975">
        <ele>122.8</ele>
        <time>2018-02-10T11:33:14Z</time>
      </trkpt>
      <trkpt lat="62.643905020239" lon="17.875136255897">
        <ele>122.6</ele>
        <time>2018-02-10T11:33:15Z</time>
      </trkpt>
      <trkpt lat="62.643891609199" lon="17.875235413774">
        <ele>122.6</ele>
        <time>2018-02-10T11:33:16Z</time>
      </trkpt>
      <trkpt lat="62.643875683589" lon="17.875336415669">
        <ele>122.6</ele>
        <time>2018-02-10T11:33:17Z</time>
      </trkpt>
      <trkpt lat="62.643860931445" lon="17.875432639881">
        <ele>122.6</ele>
        <time>2018-02-10T11:33:18Z</time>
      </trkpt>
      <trkpt lat="62.643848023319" lon="17.875521236564">
        <ele>122.6</ele>
        <time>2018-02-10T11:33:19Z</time>
      </trkpt>
      <trkpt lat="62.643835618107" lon="17.875618885699">
        <ele>122.8</ele>
        <time>2018-02-10T11:33:20Z</time>
      </trkpt>
      <trkpt lat="62.643826398017" lon="17.875697424102">
        <ele>122.8</ele>
        <time>2018-02-10T11:33:21Z</time>
      </trkpt>
      <trkpt lat="62.643818435212" lon="17.875776968333">
        <ele>122.8</ele>
        <time>2018-02-10T11:33:22Z</time>
      </trkpt>
      <trkpt lat="62.643810723864" lon="17.875869169233">
        <ele>122.6</ele>
        <time>2018-02-10T11:33:23Z</time>
      </trkpt>
      <trkpt lat="62.643795804082" lon="17.875937984632">
        <ele>122.6</ele>
        <time>2018-02-10T11:33:24Z</time>
      </trkpt>
      <trkpt lat="62.643780549024" lon="17.876030604627">
        <ele>122.4</ele>
        <time>2018-02-10T11:33:25Z</time>
      </trkpt>
      <trkpt lat="62.643774430237" lon="17.876106712279">
        <ele>122.4</ele>
        <time>2018-02-10T11:33:26Z</time>
      </trkpt>
      <trkpt lat="62.643759426636" lon="17.876180221542">
        <ele>122.4</ele>
        <time>2018-02-10T11:33:27Z</time>
      </trkpt>
      <trkpt lat="62.643745512682" lon="17.876255742461">
        <ele>122.2</ele>
        <time>2018-02-10T11:33:28Z</time>
      </trkpt>
      <trkpt lat="62.643735454402" lon="17.876329503181">
        <ele>121.8</ele>
        <time>2018-02-10T11:33:29Z</time>
      </trkpt>
      <trkpt lat="62.643726737226" lon="17.876411981077">
        <ele>121.8</ele>
        <time>2018-02-10T11:33:30Z</time>
      </trkpt>
      <trkpt lat="62.643721288991" lon="17.876492866412">
        <ele>121.8</ele>
        <time>2018-02-10T11:33:31Z</time>
      </trkpt>
      <trkpt lat="62.643706369209" lon="17.876570398987">
        <ele>121.6</ele>
        <time>2018-02-10T11:33:32Z</time>
      </trkpt>
      <trkpt lat="62.643682396975" lon="17.876654637082">
        <ele>121.6</ele>
        <time>2018-02-10T11:33:33Z</time>
      </trkpt>
      <trkpt lat="62.643657754189" lon="17.876716579323">
        <ele>121.4</ele>
        <time>2018-02-10T11:33:34Z</time>
      </trkpt>
      <trkpt lat="62.643617604888" lon="17.876793022251">
        <ele>121.2</ele>
        <time>2018-02-10T11:33:35Z</time>
      </trkpt>
      <trkpt lat="62.643581981813" lon="17.876851695551">
        <ele>121.2</ele>
        <time>2018-02-10T11:33:36Z</time>
      </trkpt>
      <trkpt lat="62.643542167788" lon="17.876877092708">
        <ele>120.8</ele>
        <time>2018-02-10T11:33:37Z</time>
      </trkpt>
      <trkpt lat="62.643499671555" lon="17.876892683042">
        <ele>120.6</ele>
        <time>2018-02-10T11:33:38Z</time>
      </trkpt>
      <trkpt lat="62.643470837819" lon="17.876901986951">
        <ele>120.4</ele>
        <time>2018-02-10T11:33:39Z</time>
      </trkpt>
      <trkpt lat="62.643429012138" lon="17.876904166245">
        <ele>120.4</ele>
        <time>2018-02-10T11:33:40Z</time>
      </trkpt>
      <trkpt lat="62.643398082927" lon="17.876909865937">
        <ele>120</ele>
        <time>2018-02-10T11:33:41Z</time>
      </trkpt>
      <trkpt lat="62.643367405173" lon="17.876906429358">
        <ele>120</ele>
        <time>2018-02-10T11:33:42Z</time>
      </trkpt>
      <trkpt lat="62.643334715763" lon="17.876910704127">
        <ele>120.2</ele>
        <time>2018-02-10T11:33:43Z</time>
      </trkpt>
      <trkpt lat="62.643309905339" lon="17.876911542317">
        <ele>120.2</ele>
        <time>2018-02-10T11:33:44Z</time>
      </trkpt>
      <trkpt lat="62.643272689703" lon="17.876901986951">
        <ele>120.2</ele>
        <time>2018-02-10T11:33:45Z</time>
      </trkpt>
      <trkpt lat="62.643239916474" lon="17.876902322227">
        <ele>120.2</ele>
        <time>2018-02-10T11:33:46Z</time>
      </trkpt>
      <trkpt lat="62.643216614792" lon="17.876905674987">
        <ele>120.4</ele>
        <time>2018-02-10T11:33:47Z</time>
      </trkpt>
      <trkpt lat="62.643180321165" lon="17.876899388562">
        <ele>120.2</ele>
        <time>2018-02-10T11:33:48Z</time>
      </trkpt>
      <trkpt lat="62.64315056542" lon="17.876892096309">
        <ele>120.2</ele>
        <time>2018-02-10T11:33:49Z</time>
      </trkpt>
      <trkpt lat="62.643124246254" lon="17.876886648074">
        <ele>120.2</ele>
        <time>2018-02-10T11:33:50Z</time>
      </trkpt>
      <trkpt lat="62.643097591812" lon="17.876884552599">
        <ele>120.2</ele>
        <time>2018-02-10T11:33:51Z</time>
      </trkpt>
      <trkpt lat="62.643074373949" lon="17.876879355821">
        <ele>120.4</ele>
        <time>2018-02-10T11:33:52Z</time>
      </trkpt>
      <trkpt lat="62.643049647344" lon="17.876879020545">
        <ele>120.6</ele>
        <time>2018-02-10T11:33:53Z</time>
      </trkpt>
      <trkpt lat="62.643030620431" lon="17.876876589794">
        <ele>120.8</ele>
        <time>2018-02-10T11:33:54Z</time>
      </trkpt>
      <trkpt lat="62.643012599346" lon="17.876871476835">
        <ele>121</ele>
        <time>2018-02-10T11:33:55Z</time>
      </trkpt>
      <trkpt lat="62.642996422279" lon="17.876865693324">
        <ele>121.2</ele>
        <time>2018-02-10T11:33:56Z</time>
      </trkpt>
      <trkpt lat="62.642974042606" lon="17.876862089107">
        <ele>121.6</ele>
        <time>2018-02-10T11:33:57Z</time>
      </trkpt>
      <trkpt lat="62.642955183331" lon="17.876863011116">
        <ele>122</ele>
        <time>2018-02-10T11:33:58Z</time>
      </trkpt>
      <trkpt lat="62.64293347421" lon="17.876862759659">
        <ele>122.2</ele>
        <time>2018-02-10T11:33:59Z</time>
      </trkpt>
      <trkpt lat="62.642914614935" lon="17.876865693324">
        <ele>122.6</ele>
        <time>2018-02-10T11:34:00Z</time>
      </trkpt>
      <trkpt lat="62.64289575566" lon="17.876871728292">
        <ele>123</ele>
        <time>2018-02-10T11:34:01Z</time>
      </trkpt>
      <trkpt lat="62.642877483118" lon="17.87687189593">
        <ele>123.2</ele>
        <time>2018-02-10T11:34:02Z</time>
      </trkpt>
      <trkpt lat="62.642852756513" lon="17.876871225378">
        <ele>123.4</ele>
        <time>2018-02-10T11:34:03Z</time>
      </trkpt>
      <trkpt lat="62.642831801763" lon="17.876873991405">
        <ele>123.4</ele>
        <time>2018-02-10T11:34:04Z</time>
      </trkpt>
      <trkpt lat="62.642804225312" lon="17.876885558427">
        <ele>123.6</ele>
        <time>2018-02-10T11:34:05Z</time>
      </trkpt>
      <trkpt lat="62.642779582526" lon="17.876899975295">
        <ele>123.6</ele>
        <time>2018-02-10T11:34:06Z</time>
      </trkpt>
      <trkpt lat="62.642750832609" lon="17.876915900905">
        <ele>123.8</ele>
        <time>2018-02-10T11:34:07Z</time>
      </trkpt>
      <trkpt lat="62.642721831235" lon="17.876936268922">
        <ele>124</ele>
        <time>2018-02-10T11:34:08Z</time>
      </trkpt>
      <trkpt lat="62.642698110458" lon="17.876958313319">
        <ele>124</ele>
        <time>2018-02-10T11:34:10Z</time>
      </trkpt>
      <trkpt lat="62.642677407165" lon="17.876970131798">
        <ele>124</ele>
        <time>2018-02-10T11:34:11Z</time>
      </trkpt>
      <trkpt lat="62.642646226497" lon="17.876997540611">
        <ele>124.4</ele>
        <time>2018-02-10T11:34:12Z</time>
      </trkpt>
      <trkpt lat="62.642631055258" lon="17.87701187366">
        <ele>124.6</ele>
        <time>2018-02-10T11:34:13Z</time>
      </trkpt>
      <trkpt lat="62.64261663839" lon="17.87702863746">
        <ele>124.6</ele>
        <time>2018-02-10T11:34:14Z</time>
      </trkpt>
      <trkpt lat="62.642565760257" lon="17.877084880009">
        <ele>125</ele>
        <time>2018-02-10T11:34:16Z</time>
      </trkpt>
      <trkpt lat="62.642553857959" lon="17.87710826551">
        <ele>125.2</ele>
        <time>2018-02-10T11:34:17Z</time>
      </trkpt>
      <trkpt lat="62.642531059191" lon="17.877136680151">
        <ele>125.6</ele>
        <time>2018-02-10T11:34:18Z</time>
      </trkpt>
      <trkpt lat="62.642506248767" lon="17.877171381217">
        <ele>125.8</ele>
        <time>2018-02-10T11:34:19Z</time>
      </trkpt>
      <trkpt lat="62.642495436116" lon="17.877196778374">
        <ele>126</ele>
        <time>2018-02-10T11:34:20Z</time>
      </trkpt>
      <trkpt lat="62.642477582669" lon="17.87722477392">
        <ele>126.2</ele>
        <time>2018-02-10T11:34:21Z</time>
      </trkpt>
      <trkpt lat="62.642452688426" lon="17.877266096687">
        <ele>126.2</ele>
        <time>2018-02-10T11:34:22Z</time>
      </trkpt>
      <trkpt lat="62.642432404228" lon="17.877293421681">
        <ele>126.2</ele>
        <time>2018-02-10T11:34:23Z</time>
      </trkpt>
      <trkpt lat="62.642409773098" lon="17.877341198511">
        <ele>126.4</ele>
        <time>2018-02-10T11:34:24Z</time>
      </trkpt>
      <trkpt lat="62.642384292122" lon="17.877383108011">
        <ele>126.4</ele>
        <time>2018-02-10T11:34:25Z</time>
      </trkpt>
      <trkpt lat="62.642370294349" lon="17.877429040823">
        <ele>126.6</ele>
        <time>2018-02-10T11:34:26Z</time>
      </trkpt>
      <trkpt lat="62.642339113681" lon="17.877487378847">
        <ele>126.6</ele>
        <time>2018-02-10T11:34:27Z</time>
      </trkpt>
      <trkpt lat="62.642318578026" lon="17.877541358283">
        <ele>126.4</ele>
        <time>2018-02-10T11:34:28Z</time>
      </trkpt>
      <trkpt lat="62.642296198353" lon="17.877587207276">
        <ele>126.4</ele>
        <time>2018-02-10T11:34:29Z</time>
      </trkpt>
      <trkpt lat="62.642265101504" lon="17.877646634947">
        <ele>126.2</ele>
        <time>2018-02-10T11:34:30Z</time>
      </trkpt>
      <trkpt lat="62.642233250284" lon="17.877702961315">
        <ele>126</ele>
        <time>2018-02-10T11:34:31Z</time>
      </trkpt>
      <trkpt lat="62.64220257253" lon="17.877763227176">
        <ele>125.6</ele>
        <time>2018-02-10T11:34:32Z</time>
      </trkpt>
      <trkpt lat="62.642171224224" lon="17.877827516349">
        <ele>125.2</ele>
        <time>2018-02-10T11:34:33Z</time>
      </trkpt>
      <trkpt lat="62.642136858434" lon="17.87790286963">
        <ele>124.6</ele>
        <time>2018-02-10T11:34:34Z</time>
      </trkpt>
      <trkpt lat="62.642109114345" lon="17.877975959798">
        <ele>124</ele>
        <time>2018-02-10T11:34:35Z</time>
      </trkpt>
      <trkpt lat="62.642079945333" lon="17.878054414382">
        <ele>123.4</ele>
        <time>2018-02-10T11:34:36Z</time>
      </trkpt>
      <trkpt lat="62.642053123253" lon="17.87814510654">
        <ele>123</ele>
        <time>2018-02-10T11:34:37Z</time>
      </trkpt>
      <trkpt lat="62.64202739082" lon="17.878249964109">
        <ele>122.8</ele>
        <time>2018-02-10T11:34:38Z</time>
      </trkpt>
      <trkpt lat="62.641996713066" lon="17.878374351505">
        <ele>122.8</ele>
        <time>2018-02-10T11:34:39Z</time>
      </trkpt>
      <trkpt lat="62.641974752488" lon="17.878486166051">
        <ele>122.4</ele>
        <time>2018-02-10T11:34:40Z</time>
      </trkpt>
      <trkpt lat="62.64195195372" lon="17.878623377754">
        <ele>122</ele>
        <time>2018-02-10T11:34:41Z</time>
      </trkpt>
      <trkpt lat="62.641928232943" lon="17.878771569746">
        <ele>121.6</ele>
        <time>2018-02-10T11:34:42Z</time>
      </trkpt>
      <trkpt lat="62.641909373668" lon="17.878903333214">
        <ele>121.2</ele>
        <time>2018-02-10T11:34:43Z</time>
      </trkpt>
      <trkpt lat="62.641892609868" lon="17.879046663704">
        <ele>120.6</ele>
        <time>2018-02-10T11:34:44Z</time>
      </trkpt>
      <trkpt lat="62.641881461941" lon="17.879186641434">
        <ele>119.4</ele>
        <time>2018-02-10T11:34:45Z</time>
      </trkpt>
      <trkpt lat="62.641880456113" lon="17.879327624992">
        <ele>118.6</ele>
        <time>2018-02-10T11:34:46Z</time>
      </trkpt>
      <trkpt lat="62.641886071986" lon="17.879475146432">
        <ele>117.8</ele>
        <time>2018-02-10T11:34:47Z</time>
      </trkpt>
      <trkpt lat="62.641895711171" lon="17.879629708668">
        <ele>117.2</ele>
        <time>2018-02-10T11:34:48Z</time>
      </trkpt>
      <trkpt lat="62.641908451659" lon="17.8797996936">
        <ele>116.4</ele>
        <time>2018-02-10T11:34:49Z</time>
      </trkpt>
      <trkpt lat="62.6419201025" lon="17.879947969411">
        <ele>115.8</ele>
        <time>2018-02-10T11:34:50Z</time>
      </trkpt>
      <trkpt lat="62.641930831332" lon="17.880091970453">
        <ele>115.2</ele>
        <time>2018-02-10T11:34:51Z</time>
      </trkpt>
      <trkpt lat="62.64193770449" lon="17.880226919043">
        <ele>114.6</ele>
        <time>2018-02-10T11:34:52Z</time>
      </trkpt>
      <trkpt lat="62.641938877956" lon="17.880343846548">
        <ele>114.2</ele>
        <time>2018-02-10T11:34:53Z</time>
      </trkpt>
      <trkpt lat="62.641934016454" lon="17.88049958225">
        <ele>114</ele>
        <time>2018-02-10T11:34:54Z</time>
      </trkpt>
      <trkpt lat="62.641923203803" lon="17.880629166424">
        <ele>113.6</ele>
        <time>2018-02-10T11:34:55Z</time>
      </trkpt>
      <trkpt lat="62.641909457487" lon="17.88077786133">
        <ele>113.4</ele>
        <time>2018-02-10T11:34:56Z</time>
      </trkpt>
      <trkpt lat="62.641891520221" lon="17.880907277866">
        <ele>113</ele>
        <time>2018-02-10T11:34:57Z</time>
      </trkpt>
      <trkpt lat="62.641873080041" lon="17.881006854838">
        <ele>112.8</ele>
        <time>2018-02-10T11:34:58Z</time>
      </trkpt>
      <trkpt lat="62.641862351209" lon="17.881095451521">
        <ele>112.6</ele>
        <time>2018-02-10T11:34:59Z</time>
      </trkpt>
      <trkpt lat="62.641849862178" lon="17.881189999353">
        <ele>112.6</ele>
        <time>2018-02-10T11:35:00Z</time>
      </trkpt>
      <trkpt lat="62.641835193853" lon="17.881276500561">
        <ele>112.8</ele>
        <time>2018-02-10T11:35:01Z</time>
      </trkpt>
      <trkpt lat="62.641827817781" lon="17.881343052847">
        <ele>113</ele>
        <time>2018-02-10T11:35:02Z</time>
      </trkpt>
      <trkpt lat="62.641824045926" lon="17.881404240717">
        <ele>113.2</ele>
        <time>2018-02-10T11:35:03Z</time>
      </trkpt>
      <trkpt lat="62.641807030669" lon="17.881501303119">
        <ele>113.4</ele>
        <time>2018-02-10T11:35:04Z</time>
      </trkpt>
      <trkpt lat="62.641798313493" lon="17.881591324725">
        <ele>113.8</ele>
        <time>2018-02-10T11:35:05Z</time>
      </trkpt>
      <trkpt lat="62.64178850667" lon="17.881696266113">
        <ele>114.2</ele>
        <time>2018-02-10T11:35:06Z</time>
      </trkpt>
      <trkpt lat="62.641775514725" lon="17.881768937186">
        <ele>113.6</ele>
        <time>2018-02-10T11:35:07Z</time>
      </trkpt>
      <trkpt lat="62.641751291034" lon="17.881855941308">
        <ele>113</ele>
        <time>2018-02-10T11:35:08Z</time>
      </trkpt>
      <trkpt lat="62.641723295488" lon="17.881938586842">
        <ele>112.8</ele>
        <time>2018-02-10T11:35:09Z</time>
      </trkpt>
      <trkpt lat="62.641689516431" lon="17.88199323683">
        <ele>112.2</ele>
        <time>2018-02-10T11:35:10Z</time>
      </trkpt>
      <trkpt lat="62.641654144813" lon="17.882026512973">
        <ele>112</ele>
        <time>2018-02-10T11:35:11Z</time>
      </trkpt>
      <trkpt lat="62.641631010769" lon="17.882075882364">
        <ele>112.2</ele>
        <time>2018-02-10T11:35:12Z</time>
      </trkpt>
      <trkpt lat="62.64161500134" lon="17.882086611196">
        <ele>112.4</ele>
        <time>2018-02-10T11:35:13Z</time>
      </trkpt>
      <trkpt lat="62.641595303875" lon="17.882086862653">
        <ele>112.4</ele>
        <time>2018-02-10T11:35:14Z</time>
      </trkpt>
      <trkpt lat="62.641569068528" lon="17.882090885965">
        <ele>112.6</ele>
        <time>2018-02-10T11:35:15Z</time>
      </trkpt>
      <trkpt lat="62.641547443226" lon="17.882097088571">
        <ele>112.6</ele>
        <time>2018-02-10T11:35:16Z</time>
      </trkpt>
      <trkpt lat="62.641524309182" lon="17.882105051376">
        <ele>112.6</ele>
        <time>2018-02-10T11:35:17Z</time>
      </trkpt>
      <trkpt lat="62.641495810722" lon="17.882115193475">
        <ele>112.6</ele>
        <time>2018-02-10T11:35:18Z</time>
      </trkpt>
      <trkpt lat="62.641468653366" lon="17.882130532352">
        <ele>112.6</ele>
        <time>2018-02-10T11:35:19Z</time>
      </trkpt>
      <trkpt lat="62.641442837114" lon="17.882146206505">
        <ele>112.8</ele>
        <time>2018-02-10T11:35:20Z</time>
      </trkpt>
      <trkpt lat="62.641408638962" lon="17.88216171302">
        <ele>113</ele>
        <time>2018-02-10T11:35:21Z</time>
      </trkpt>
      <trkpt lat="62.641379637588" lon="17.882182919227">
        <ele>113</ele>
        <time>2018-02-10T11:35:22Z</time>
      </trkpt>
      <trkpt lat="62.64134845692" lon="17.88221619537">
        <ele>113.2</ele>
        <time>2018-02-10T11:35:23Z</time>
      </trkpt>
      <trkpt lat="62.641305960687" lon="17.882268749883">
        <ele>113.2</ele>
        <time>2018-02-10T11:35:24Z</time>
      </trkpt>
      <trkpt lat="62.641267571585" lon="17.882340163671">
        <ele>113.4</ele>
        <time>2018-02-10T11:35:25Z</time>
      </trkpt>
      <trkpt lat="62.641226332637" lon="17.882439321548">
        <ele>113.4</ele>
        <time>2018-02-10T11:35:26Z</time>
      </trkpt>
      <trkpt lat="62.641189452277" lon="17.882549627352">
        <ele>113.4</ele>
        <time>2018-02-10T11:35:27Z</time>
      </trkpt>
      <trkpt lat="62.641159193618" lon="17.882657837681">
        <ele>113</ele>
        <time>2018-02-10T11:35:28Z</time>
      </trkpt>
      <trkpt lat="62.641132036262" lon="17.882780129602">
        <ele>112.6</ele>
        <time>2018-02-10T11:35:29Z</time>
      </trkpt>
      <trkpt lat="62.641113596082" lon="17.882904600817">
        <ele>112.2</ele>
        <time>2018-02-10T11:35:30Z</time>
      </trkpt>
      <trkpt lat="62.641102196698" lon="17.883019935761">
        <ele>111.6</ele>
        <time>2018-02-10T11:35:31Z</time>
      </trkpt>
      <trkpt lat="62.641089120934" lon="17.883125212425">
        <ele>111.2</ele>
        <time>2018-02-10T11:35:32Z</time>
      </trkpt>
      <trkpt lat="62.641081493405" lon="17.883210707805">
        <ele>110.6</ele>
        <time>2018-02-10T11:35:33Z</time>
      </trkpt>
      <trkpt lat="62.641073614419" lon="17.883300226497">
        <ele>110.2</ele>
        <time>2018-02-10T11:35:34Z</time>
      </trkpt>
      <trkpt lat="62.641063053225" lon="17.883363845118">
        <ele>109.8</ele>
        <time>2018-02-10T11:35:35Z</time>
      </trkpt>
      <trkpt lat="62.641051150927" lon="17.883451184516">
        <ele>109.2</ele>
        <time>2018-02-10T11:35:36Z</time>
      </trkpt>
      <trkpt lat="62.641043942493" lon="17.883547744004">
        <ele>109</ele>
        <time>2018-02-10T11:35:37Z</time>
      </trkpt>
      <trkpt lat="62.641045199778" lon="17.883643381483">
        <ele>108.8</ele>
        <time>2018-02-10T11:35:38Z</time>
      </trkpt>
      <trkpt lat="62.641055006601" lon="17.883760560445">
        <ele>108.8</ele>
        <time>2018-02-10T11:35:39Z</time>
      </trkpt>
      <trkpt lat="62.641069507288" lon="17.883859634503">
        <ele>108.6</ele>
        <time>2018-02-10T11:35:40Z</time>
      </trkpt>
      <trkpt lat="62.641098005748" lon="17.88396801247">
        <ele>108.6</ele>
        <time>2018-02-10T11:35:41Z</time>
      </trkpt>
      <trkpt lat="62.641125582199" lon="17.88406188975">
        <ele>108.4</ele>
        <time>2018-02-10T11:35:42Z</time>
      </trkpt>
      <trkpt lat="62.641149889709" lon="17.88414822332">
        <ele>108.2</ele>
        <time>2018-02-10T11:35:43Z</time>
      </trkpt>
      <trkpt lat="62.641184590775" lon="17.884272107802">
        <ele>108</ele>
        <time>2018-02-10T11:35:44Z</time>
      </trkpt>
      <trkpt lat="62.641212586321" lon="17.884382581244">
        <ele>107.6</ele>
        <time>2018-02-10T11:35:45Z</time>
      </trkpt>
      <trkpt lat="62.641241587695" lon="17.884481236207">
        <ele>107</ele>
        <time>2018-02-10T11:35:46Z</time>
      </trkpt>
      <trkpt lat="62.641267906861" lon="17.884579472075">
        <ele>106.2</ele>
        <time>2018-02-10T11:35:47Z</time>
      </trkpt>
      <trkpt lat="62.641295734769" lon="17.88466622474">
        <ele>105.6</ele>
        <time>2018-02-10T11:35:48Z</time>
      </trkpt>
      <trkpt lat="62.641334710604" lon="17.884762029857">
        <ele>104.4</ele>
        <time>2018-02-10T11:35:49Z</time>
      </trkpt>
      <trkpt lat="62.641374776086" lon="17.884838221328">
        <ele>103.4</ele>
        <time>2018-02-10T11:35:50Z</time>
      </trkpt>
      <trkpt lat="62.641412829912" lon="17.884912317324">
        <ele>102.8</ele>
        <time>2018-02-10T11:35:51Z</time>
      </trkpt>
      <trkpt lat="62.641472425221" lon="17.885025305336">
        <ele>102</ele>
        <time>2018-02-10T11:35:52Z</time>
      </trkpt>
      <trkpt lat="62.641512155427" lon="17.885098395504">
        <ele>101.6</ele>
        <time>2018-02-10T11:35:53Z</time>
      </trkpt>
      <trkpt lat="62.641561105723" lon="17.885188920024">
        <ele>101.4</ele>
        <time>2018-02-10T11:35:54Z</time>
      </trkpt>
      <trkpt lat="62.641603518137" lon="17.885265362952">
        <ele>100.8</ele>
        <time>2018-02-10T11:35:55Z</time>
      </trkpt>
      <trkpt lat="62.641651211148" lon="17.88535186416">
        <ele>100.4</ele>
        <time>2018-02-10T11:35:56Z</time>
      </trkpt>
      <trkpt lat="62.641699742349" lon="17.885436940445">
        <ele>100</ele>
        <time>2018-02-10T11:35:57Z</time>
      </trkpt>
      <trkpt lat="62.641747938274" lon="17.885521346178">
        <ele>99.6</ele>
        <time>2018-02-10T11:35:58Z</time>
      </trkpt>
      <trkpt lat="62.641801666253" lon="17.885616816019">
        <ele>99.2</ele>
        <time>2018-02-10T11:35:59Z</time>
      </trkpt>
      <trkpt lat="62.641855226594" lon="17.885715890077">
        <ele>98.8</ele>
        <time>2018-02-10T11:36:00Z</time>
      </trkpt>
      <trkpt lat="62.64191088241" lon="17.885819825637">
        <ele>98</ele>
        <time>2018-02-10T11:36:01Z</time>
      </trkpt>
      <trkpt lat="62.641968466063" lon="17.885926611043">
        <ele>97.6</ele>
        <time>2018-02-10T11:36:02Z</time>
      </trkpt>
      <trkpt lat="62.642018506006" lon="17.886017889934">
        <ele>97</ele>
        <time>2018-02-10T11:36:03Z</time>
      </trkpt>
      <trkpt lat="62.642068881225" lon="17.886112773042">
        <ele>96.4</ele>
        <time>2018-02-10T11:36:04Z</time>
      </trkpt>
      <trkpt lat="62.642071060519" lon="17.886113443594">
        <ele>96.2</ele>
        <time>2018-02-10T11:36:05Z</time>
      </trkpt>
      <trkpt lat="62.642114478761" lon="17.88619759787">
        <ele>96.2</ele>
        <time>2018-02-10T11:36:06Z</time>
      </trkpt>
      <trkpt lat="62.642142306669" lon="17.886243949777">
        <ele>96</ele>
        <time>2018-02-10T11:36:07Z</time>
      </trkpt>
      <trkpt lat="62.642227382954" lon="17.886397170909">
        <ele>95.8</ele>
        <time>2018-02-10T11:36:08Z</time>
      </trkpt>
      <trkpt lat="62.642270382101" lon="17.88647336238">
        <ele>95.6</ele>
        <time>2018-02-10T11:36:09Z</time>
      </trkpt>
      <trkpt lat="62.642308519746" lon="17.886542429236">
        <ele>95.6</ele>
        <time>2018-02-10T11:36:10Z</time>
      </trkpt>
      <trkpt lat="62.642352859997" lon="17.886622644019">
        <ele>95.6</ele>
        <time>2018-02-10T11:36:11Z</time>
      </trkpt>
      <trkpt lat="62.642400553008" lon="17.88671643748">
        <ele>95.2</ele>
        <time>2018-02-10T11:36:12Z</time>
      </trkpt>
      <trkpt lat="62.642439109748" lon="17.886824983085">
        <ele>94.6</ele>
        <time>2018-02-10T11:36:13Z</time>
      </trkpt>
      <trkpt lat="62.642474565185" lon="17.88693771964">
        <ele>93.8</ele>
        <time>2018-02-10T11:36:14Z</time>
      </trkpt>
      <trkpt lat="62.642500632894" lon="17.887041068467">
        <ele>92.8</ele>
        <time>2018-02-10T11:36:15Z</time>
      </trkpt>
      <trkpt lat="62.642516390866" lon="17.887143579104">
        <ele>92</ele>
        <time>2018-02-10T11:36:16Z</time>
      </trkpt>
      <trkpt lat="62.64251773197" lon="17.887244580999">
        <ele>91.2</ele>
        <time>2018-02-10T11:36:17Z</time>
      </trkpt>
      <trkpt lat="62.642504153292" lon="17.887348684197">
        <ele>90.8</ele>
        <time>2018-02-10T11:36:18Z</time>
      </trkpt>
      <trkpt lat="62.642481103067" lon="17.887441388011">
        <ele>90.4</ele>
        <time>2018-02-10T11:36:19Z</time>
      </trkpt>
      <trkpt lat="62.642445563811" lon="17.887507605021">
        <ele>90.2</ele>
        <time>2018-02-10T11:36:20Z</time>
      </trkpt>
      <trkpt lat="62.642410778926" lon="17.8875697149">
        <ele>89.8</ele>
        <time>2018-02-10T11:36:21Z</time>
      </trkpt>
      <trkpt lat="62.642372054548" lon="17.887638614118">
        <ele>89.4</ele>
        <time>2018-02-10T11:36:22Z</time>
      </trkpt>
      <trkpt lat="62.642330480324" lon="17.887705334042">
        <ele>89.2</ele>
        <time>2018-02-10T11:36:23Z</time>
      </trkpt>
      <trkpt lat="62.642272561395" lon="17.887782279884">
        <ele>89</ele>
        <time>2018-02-10T11:36:24Z</time>
      </trkpt>
      <trkpt lat="62.642212882267" lon="17.887842545745">
        <ele>88.8</ele>
        <time>2018-02-10T11:36:25Z</time>
      </trkpt>
      <trkpt lat="62.642160327754" lon="17.88789828538">
        <ele>88.2</ele>
        <time>2018-02-10T11:36:26Z</time>
      </trkpt>
      <trkpt lat="62.642107773241" lon="17.887955198481">
        <ele>87.6</ele>
        <time>2018-02-10T11:36:27Z</time>
      </trkpt>
      <trkpt lat="62.6420877405" lon="17.888062235344">
        <ele>87.4</ele>
        <time>2018-02-10T11:36:28Z</time>
      </trkpt>
      <trkpt lat="62.642058822945" lon="17.888127362707">
        <ele>87.2</ele>
        <time>2018-02-10T11:36:29Z</time>
      </trkpt>
      <trkpt lat="62.642041891507" lon="17.888182096514">
        <ele>87.2</ele>
        <time>2018-02-10T11:36:30Z</time>
      </trkpt>
      <trkpt lat="62.642029989209" lon="17.888267759532">
        <ele>87.4</ele>
        <time>2018-02-10T11:36:31Z</time>
      </trkpt>
      <trkpt lat="62.642002580396" lon="17.888341855528">
        <ele>87.6</ele>
        <time>2018-02-10T11:36:32Z</time>
      </trkpt>
      <trkpt lat="62.641988331166" lon="17.888405474149">
        <ele>87.8</ele>
        <time>2018-02-10T11:36:33Z</time>
      </trkpt>
      <trkpt lat="62.641958407783" lon="17.888474876281">
        <ele>87.4</ele>
        <time>2018-02-10T11:36:34Z</time>
      </trkpt>
      <trkpt lat="62.641946254028" lon="17.888556180711">
        <ele>87.2</ele>
        <time>2018-02-10T11:36:35Z</time>
      </trkpt>
      <trkpt lat="62.641921359785" lon="17.888630528164">
        <ele>87.2</ele>
        <time>2018-02-10T11:36:36Z</time>
      </trkpt>
      <trkpt lat="62.641897974284" lon="17.888713676612">
        <ele>87.2</ele>
        <time>2018-02-10T11:36:37Z</time>
      </trkpt>
      <trkpt lat="62.641896046447" lon="17.888769751523">
        <ele>87</ele>
        <time>2018-02-10T11:36:38Z</time>
      </trkpt>
      <trkpt lat="62.641880204656" lon="17.888855833636">
        <ele>87</ele>
        <time>2018-02-10T11:36:39Z</time>
      </trkpt>
      <trkpt lat="62.641867547987" lon="17.888934874953">
        <ele>87</ele>
        <time>2018-02-10T11:36:40Z</time>
      </trkpt>
      <trkpt lat="62.641856064784" lon="17.888995140814">
        <ele>86.6</ele>
        <time>2018-02-10T11:36:41Z</time>
      </trkpt>
      <trkpt lat="62.641857405888" lon="17.889022549627">
        <ele>86.6</ele>
        <time>2018-02-10T11:36:42Z</time>
      </trkpt>
      <trkpt lat="62.64185053273" lon="17.889042666187">
        <ele>86.6</ele>
        <time>2018-02-10T11:36:43Z</time>
      </trkpt>
      <trkpt lat="62.641844833038" lon="17.889071332285">
        <ele>86.6</ele>
        <time>2018-02-10T11:36:44Z</time>
      </trkpt>
      <trkpt lat="62.641835110034" lon="17.889084072773">
        <ele>86.8</ele>
        <time>2018-02-10T11:36:45Z</time>
      </trkpt>
      <trkpt lat="62.641828488333" lon="17.889093209044">
        <ele>87</ele>
        <time>2018-02-10T11:36:46Z</time>
      </trkpt>
      <trkpt lat="62.64182035789" lon="17.889112571233">
        <ele>87.4</ele>
        <time>2018-02-10T11:36:47Z</time>
      </trkpt>
      <trkpt lat="62.641812646542" lon="17.889126485187">
        <ele>87.8</ele>
        <time>2018-02-10T11:36:48Z</time>
      </trkpt>
      <trkpt lat="62.641800744244" lon="17.889142075521">
        <ele>88.2</ele>
        <time>2018-02-10T11:36:49Z</time>
      </trkpt>
      <trkpt lat="62.641793284353" lon="17.889161270072">
        <ele>88.4</ele>
        <time>2018-02-10T11:36:50Z</time>
      </trkpt>
      <trkpt lat="62.641784483358" lon="17.889180296985">
        <ele>88.8</ele>
        <time>2018-02-10T11:36:51Z</time>
      </trkpt>
      <trkpt lat="62.641777777838" lon="17.889193540387">
        <ele>89</ele>
        <time>2018-02-10T11:36:52Z</time>
      </trkpt>
      <trkpt lat="62.641773251612" lon="17.889213489309">
        <ele>89</ele>
        <time>2018-02-10T11:36:53Z</time>
      </trkpt>
      <trkpt lat="62.641765372626" lon="17.889213321671">
        <ele>89.2</ele>
        <time>2018-02-10T11:36:54Z</time>
      </trkpt>
      <trkpt lat="62.641757828916" lon="17.889236204258">
        <ele>89.6</ele>
        <time>2018-02-10T11:36:55Z</time>
      </trkpt>
      <trkpt lat="62.641750369025" lon="17.889259589759">
        <ele>89.8</ele>
        <time>2018-02-10T11:36:56Z</time>
      </trkpt>
      <trkpt lat="62.641741400392" lon="17.889283394355">
        <ele>90.2</ele>
        <time>2018-02-10T11:36:57Z</time>
      </trkpt>
      <trkpt lat="62.641735113967" lon="17.889302002173">
        <ele>90.6</ele>
        <time>2018-02-10T11:36:58Z</time>
      </trkpt>
      <trkpt lat="62.641730252465" lon="17.889324381846">
        <ele>90.8</ele>
        <time>2018-02-10T11:36:59Z</time>
      </trkpt>
      <trkpt lat="62.641726312972" lon="17.88933745761">
        <ele>91.2</ele>
        <time>2018-02-10T11:37:00Z</time>
      </trkpt>
      <trkpt lat="62.641723630764" lon="17.889352209754">
        <ele>91.4</ele>
        <time>2018-02-10T11:37:01Z</time>
      </trkpt>
      <trkpt lat="62.641721786746" lon="17.889355981609">
        <ele>91.6</ele>
        <time>2018-02-10T11:37:02Z</time>
      </trkpt>
      <trkpt lat="62.641716254692" lon="17.88936763245">
        <ele>91.8</ele>
        <time>2018-02-10T11:37:03Z</time>
      </trkpt>
      <trkpt lat="62.641710806457" lon="17.889387832829">
        <ele>91.8</ele>
        <time>2018-02-10T11:37:04Z</time>
      </trkpt>
      <trkpt lat="62.641708375706" lon="17.889406775923">
        <ele>92</ele>
        <time>2018-02-10T11:37:05Z</time>
      </trkpt>
      <trkpt lat="62.641702843652" lon="17.889439130057">
        <ele>92.2</ele>
        <time>2018-02-10T11:37:06Z</time>
      </trkpt>
      <trkpt lat="62.641698568883" lon="17.889460587721">
        <ele>92.6</ele>
        <time>2018-02-10T11:37:07Z</time>
      </trkpt>
      <trkpt lat="62.641695048485" lon="17.889481961566">
        <ele>92.8</ele>
        <time>2018-02-10T11:37:08Z</time>
      </trkpt>
      <trkpt lat="62.641692031001" lon="17.889501994307">
        <ele>93.2</ele>
        <time>2018-02-10T11:37:09Z</time>
      </trkpt>
      <trkpt lat="62.641689181155" lon="17.889508951284">
        <ele>93.4</ele>
        <time>2018-02-10T11:37:10Z</time>
      </trkpt>
      <trkpt lat="62.641684906386" lon="17.889529151663">
        <ele>93.6</ele>
        <time>2018-02-10T11:37:11Z</time>
      </trkpt>
      <trkpt lat="62.641683230006" lon="17.88955790158">
        <ele>93.8</ele>
        <time>2018-02-10T11:37:12Z</time>
      </trkpt>
      <trkpt lat="62.64168038016" lon="17.889575168294">
        <ele>94.2</ele>
        <time>2018-02-10T11:37:13Z</time>
      </trkpt>
      <trkpt lat="62.641678368504" lon="17.889596961234">
        <ele>94.4</ele>
        <time>2018-02-10T11:37:14Z</time>
      </trkpt>
      <trkpt lat="62.641678033228" lon="17.889615317595">
        <ele>94.8</ele>
        <time>2018-02-10T11:37:15Z</time>
      </trkpt>
      <trkpt lat="62.641679039056" lon="17.889628560997">
        <ele>95</ele>
        <time>2018-02-10T11:37:16Z</time>
      </trkpt>
      <trkpt lat="62.641676692124" lon="17.889642474951">
        <ele>95.2</ele>
        <time>2018-02-10T11:37:17Z</time>
      </trkpt>
      <trkpt lat="62.641674177554" lon="17.889659238751">
        <ele>95.4</ele>
        <time>2018-02-10T11:37:18Z</time>
      </trkpt>
      <trkpt lat="62.641671579165" lon="17.889685893193">
        <ele>95.6</ele>
        <time>2018-02-10T11:37:19Z</time>
      </trkpt>
      <trkpt lat="62.641672165898" lon="17.889707350857">
        <ele>95.8</ele>
        <time>2018-02-10T11:37:20Z</time>
      </trkpt>
      <trkpt lat="62.641671495346" lon="17.889730149625">
        <ele>96</ele>
        <time>2018-02-10T11:37:21Z</time>
      </trkpt>
      <trkpt lat="62.641672165898" lon="17.889752780755">
        <ele>96.2</ele>
        <time>2018-02-10T11:37:22Z</time>
      </trkpt>
      <trkpt lat="62.641673423183" lon="17.889773567867">
        <ele>96.6</ele>
        <time>2018-02-10T11:37:23Z</time>
      </trkpt>
      <trkpt lat="62.641673255545" lon="17.889788152373">
        <ele>96.6</ele>
        <time>2018-02-10T11:37:24Z</time>
      </trkpt>
      <trkpt lat="62.641673339364" lon="17.889807849838">
        <ele>96.8</ele>
        <time>2018-02-10T11:37:25Z</time>
      </trkpt>
      <trkpt lat="62.641674261373" lon="17.889831822072">
        <ele>97</ele>
        <time>2018-02-10T11:37:26Z</time>
      </trkpt>
      <trkpt lat="62.641677278857" lon="17.889854788478">
        <ele>97.4</ele>
        <time>2018-02-10T11:37:27Z</time>
      </trkpt>
      <trkpt lat="62.641680631617" lon="17.889881778196">
        <ele>97.6</ele>
        <time>2018-02-10T11:37:28Z</time>
      </trkpt>
      <trkpt lat="62.641681805083" lon="17.889907259172">
        <ele>98</ele>
        <time>2018-02-10T11:37:29Z</time>
      </trkpt>
      <trkpt lat="62.641681805083" lon="17.889936260546">
        <ele>98.4</ele>
        <time>2018-02-10T11:37:30Z</time>
      </trkpt>
      <trkpt lat="62.641679877246" lon="17.889967692671">
        <ele>98.6</ele>
        <time>2018-02-10T11:37:31Z</time>
      </trkpt>
      <trkpt lat="62.64168121835" lon="17.88999627495">
        <ele>98.8</ele>
        <time>2018-02-10T11:37:32Z</time>
      </trkpt>
      <trkpt lat="62.641685157843" lon="17.890027707075">
        <ele>99.2</ele>
        <time>2018-02-10T11:37:33Z</time>
      </trkpt>
      <trkpt lat="62.641690689897" lon="17.890060564123">
        <ele>99.4</ele>
        <time>2018-02-10T11:37:34Z</time>
      </trkpt>
      <trkpt lat="62.641697730693" lon="17.890090906601">
        <ele>99.6</ele>
        <time>2018-02-10T11:37:35Z</time>
      </trkpt>
      <trkpt lat="62.641706280231" lon="17.890135498309">
        <ele>100</ele>
        <time>2018-02-10T11:37:36Z</time>
      </trkpt>
      <trkpt lat="62.641717511977" lon="17.890183610415">
        <ele>100.2</ele>
        <time>2018-02-10T11:37:37Z</time>
      </trkpt>
      <trkpt lat="62.641732934673" lon="17.890228872675">
        <ele>100.2</ele>
        <time>2018-02-10T11:37:38Z</time>
      </trkpt>
      <trkpt lat="62.641751039577" lon="17.890275895134">
        <ele>100</ele>
        <time>2018-02-10T11:37:39Z</time>
      </trkpt>
      <trkpt lat="62.641770485585" lon="17.890328114371">
        <ele>100.2</ele>
        <time>2018-02-10T11:37:40Z</time>
      </trkpt>
      <trkpt lat="62.641790015412" lon="17.890373879545">
        <ele>100</ele>
        <time>2018-02-10T11:37:41Z</time>
      </trkpt>
      <trkpt lat="62.641813568551" lon="17.890418471253">
        <ele>100</ele>
        <time>2018-02-10T11:37:42Z</time>
      </trkpt>
      <trkpt lat="62.641846928513" lon="17.890466667178">
        <ele>100</ele>
        <time>2018-02-10T11:37:43Z</time>
      </trkpt>
      <trkpt lat="62.641883054502" lon="17.890505978289">
        <ele>100</ele>
        <time>2018-02-10T11:37:44Z</time>
      </trkpt>
      <trkpt lat="62.641927478572" lon="17.890544283572">
        <ele>99.6</ele>
        <time>2018-02-10T11:37:45Z</time>
      </trkpt>
      <trkpt lat="62.6419787758" lon="17.890582924131">
        <ele>99</ele>
        <time>2018-02-10T11:37:46Z</time>
      </trkpt>
      <trkpt lat="62.64204080186" lon="17.890627012925">
        <ele>98.4</ele>
        <time>2018-02-10T11:37:47Z</time>
      </trkpt>
      <trkpt lat="62.642118585892" lon="17.890683255474">
        <ele>97.4</ele>
        <time>2018-02-10T11:37:48Z</time>
      </trkpt>
      <trkpt lat="62.642194609725" lon="17.890740252394">
        <ele>96.6</ele>
        <time>2018-02-10T11:37:49Z</time>
      </trkpt>
      <trkpt lat="62.642270382101" lon="17.890798087504">
        <ele>95.4</ele>
        <time>2018-02-10T11:37:50Z</time>
      </trkpt>
      <trkpt lat="62.642339281319" lon="17.890851983121">
        <ele>94</ele>
        <time>2018-02-10T11:37:51Z</time>
      </trkpt>
      <trkpt lat="62.642398289895" lon="17.890900598141">
        <ele>92.4</ele>
        <time>2018-02-10T11:37:52Z</time>
      </trkpt>
      <trkpt lat="62.642451263503" lon="17.89095264974">
        <ele>91</ele>
        <time>2018-02-10T11:37:53Z</time>
      </trkpt>
      <trkpt lat="62.642484455827" lon="17.890997241448">
        <ele>90.2</ele>
        <time>2018-02-10T11:37:54Z</time>
      </trkpt>
      <trkpt lat="62.642516809961" lon="17.891050382694">
        <ele>89.8</ele>
        <time>2018-02-10T11:37:55Z</time>
      </trkpt>
      <trkpt lat="62.642545978973" lon="17.891095225859">
        <ele>90</ele>
        <time>2018-02-10T11:37:56Z</time>
      </trkpt>
      <trkpt lat="62.642558719461" lon="17.891135123703">
        <ele>91.4</ele>
        <time>2018-02-10T11:37:57Z</time>
      </trkpt>
      <trkpt lat="62.642568610103" lon="17.891188684044">
        <ele>92.4</ele>
        <time>2018-02-10T11:37:58Z</time>
      </trkpt>
      <trkpt lat="62.642576321451" lon="17.89123763434">
        <ele>93</ele>
        <time>2018-02-10T11:37:59Z</time>
      </trkpt>
      <trkpt lat="62.642576824365" lon="17.8912996604">
        <ele>93.6</ele>
        <time>2018-02-10T11:38:00Z</time>
      </trkpt>
      <trkpt lat="62.642574561252" lon="17.891359507166">
        <ele>93.8</ele>
        <time>2018-02-10T11:38:01Z</time>
      </trkpt>
      <trkpt lat="62.64256886156" lon="17.891413318964">
        <ele>93.8</ele>
        <time>2018-02-10T11:38:02Z</time>
      </trkpt>
      <trkpt lat="62.642555282882" lon="17.891480038888">
        <ele>94</ele>
        <time>2018-02-10T11:38:03Z</time>
      </trkpt>
      <trkpt lat="62.642538602901" lon="17.891535946161">
        <ele>94.2</ele>
        <time>2018-02-10T11:38:04Z</time>
      </trkpt>
      <trkpt lat="62.642514127753" lon="17.891594284185">
        <ele>94.2</ele>
        <time>2018-02-10T11:38:05Z</time>
      </trkpt>
      <trkpt lat="62.642486467483" lon="17.891656058788">
        <ele>94.2</ele>
        <time>2018-02-10T11:38:06Z</time>
      </trkpt>
      <trkpt lat="62.642456711738" lon="17.891709283853">
        <ele>94</ele>
        <time>2018-02-10T11:38:07Z</time>
      </trkpt>
      <trkpt lat="62.642421675396" lon="17.891768795343">
        <ele>94</ele>
        <time>2018-02-10T11:38:08Z</time>
      </trkpt>
      <trkpt lat="62.642397116429" lon="17.891824954073">
        <ele>93.6</ele>
        <time>2018-02-10T11:38:09Z</time>
      </trkpt>
      <trkpt lat="62.642369288521" lon="17.891873317636">
        <ele>93.4</ele>
        <time>2018-02-10T11:38:10Z</time>
      </trkpt>
      <trkpt lat="62.642340203328" lon="17.891910533272">
        <ele>93</ele>
        <time>2018-02-10T11:38:11Z</time>
      </trkpt>
      <trkpt lat="62.642318075112" lon="17.891934254049">
        <ele>92.6</ele>
        <time>2018-02-10T11:38:12Z</time>
      </trkpt>
      <trkpt lat="62.642300556941" lon="17.891950598754">
        <ele>92.6</ele>
        <time>2018-02-10T11:38:13Z</time>
      </trkpt>
      <trkpt lat="62.642285972435" lon="17.891962165776">
        <ele>92.6</ele>
        <time>2018-02-10T11:38:14Z</time>
      </trkpt>
      <trkpt lat="62.642270130644" lon="17.891975744454">
        <ele>92.8</ele>
        <time>2018-02-10T11:38:15Z</time>
      </trkpt>
      <trkpt lat="62.642258395984" lon="17.891984964544">
        <ele>93.2</ele>
        <time>2018-02-10T11:38:16Z</time>
      </trkpt>
      <trkpt lat="62.642245236401" lon="17.891997285937">
        <ele>93.6</ele>
        <time>2018-02-10T11:38:17Z</time>
      </trkpt>
      <trkpt lat="62.642230819533" lon="17.892007176579">
        <ele>93.8</ele>
        <time>2018-02-10T11:38:18Z</time>
      </trkpt>
      <trkpt lat="62.642216570303" lon="17.892016564307">
        <ele>94.2</ele>
        <time>2018-02-10T11:38:19Z</time>
      </trkpt>
      <trkpt lat="62.642201818159" lon="17.89202720932">
        <ele>94.4</ele>
        <time>2018-02-10T11:38:20Z</time>
      </trkpt>
      <trkpt lat="62.642186060187" lon="17.892036680867">
        <ele>94.6</ele>
        <time>2018-02-10T11:38:21Z</time>
      </trkpt>
      <trkpt lat="62.642170218396" lon="17.892040452722">
        <ele>94.6</ele>
        <time>2018-02-10T11:38:22Z</time>
      </trkpt>
      <trkpt lat="62.642153203139" lon="17.892041710007">
        <ele>95</ele>
        <time>2018-02-10T11:38:23Z</time>
      </trkpt>
      <trkpt lat="62.642133505674" lon="17.892044392215">
        <ele>95</ele>
        <time>2018-02-10T11:38:24Z</time>
      </trkpt>
      <trkpt lat="62.642114981675" lon="17.892048247889">
        <ele>95.2</ele>
        <time>2018-02-10T11:38:25Z</time>
      </trkpt>
      <trkpt lat="62.642099056065" lon="17.892052774115">
        <ele>95.4</ele>
        <time>2018-02-10T11:38:26Z</time>
      </trkpt>
      <trkpt lat="62.642087153767" lon="17.892056881246">
        <ele>95.6</ele>
        <time>2018-02-10T11:38:27Z</time>
      </trkpt>
      <trkpt lat="62.642073323632" lon="17.892062916214">
        <ele>95.8</ele>
        <time>2018-02-10T11:38:28Z</time>
      </trkpt>
      <trkpt lat="62.642057062746" lon="17.892065263146">
        <ele>96</ele>
        <time>2018-02-10T11:38:29Z</time>
      </trkpt>
      <trkpt lat="62.642042059145" lon="17.892066436612">
        <ele>96.2</ele>
        <time>2018-02-10T11:38:30Z</time>
      </trkpt>
      <trkpt lat="62.642028145191" lon="17.892072303942">
        <ele>96.6</ele>
        <time>2018-02-10T11:38:31Z</time>
      </trkpt>
      <trkpt lat="62.642014734151" lon="17.892079763833">
        <ele>97</ele>
        <time>2018-02-10T11:38:32Z</time>
      </trkpt>
      <trkpt lat="62.64199889236" lon="17.892087810457">
        <ele>97.2</ele>
        <time>2018-02-10T11:38:33Z</time>
      </trkpt>
      <trkpt lat="62.641982715293" lon="17.892097114366">
        <ele>97.4</ele>
        <time>2018-02-10T11:38:34Z</time>
      </trkpt>
      <trkpt lat="62.641966789683" lon="17.892106502094">
        <ele>97.6</ele>
        <time>2018-02-10T11:38:35Z</time>
      </trkpt>
      <trkpt lat="62.641951869901" lon="17.892119745496">
        <ele>97.8</ele>
        <time>2018-02-10T11:38:36Z</time>
      </trkpt>
      <trkpt lat="62.641938961775" lon="17.892134330002">
        <ele>98</ele>
        <time>2018-02-10T11:38:37Z</time>
      </trkpt>
      <trkpt lat="62.641923874355" lon="17.892157715503">
        <ele>98.2</ele>
        <time>2018-02-10T11:38:38Z</time>
      </trkpt>
      <trkpt lat="62.641908619297" lon="17.892182190651">
        <ele>98.4</ele>
        <time>2018-02-10T11:38:39Z</time>
      </trkpt>
      <trkpt lat="62.641898477198" lon="17.892204737962">
        <ele>98.6</ele>
        <time>2018-02-10T11:38:40Z</time>
      </trkpt>
      <trkpt lat="62.641893867153" lon="17.892231643861">
        <ele>98.8</ele>
        <time>2018-02-10T11:38:41Z</time>
      </trkpt>
      <trkpt lat="62.641889005651" lon="17.892256119009">
        <ele>99</ele>
        <time>2018-02-10T11:38:42Z</time>
      </trkpt>
      <trkpt lat="62.641887580728" lon="17.89228537184">
        <ele>99.2</ele>
        <time>2018-02-10T11:38:43Z</time>
      </trkpt>
      <trkpt lat="62.641887496909" lon="17.892320492001">
        <ele>99.4</ele>
        <time>2018-02-10T11:38:44Z</time>
      </trkpt>
      <trkpt lat="62.641889592384" lon="17.892354606334">
        <ele>100</ele>
        <time>2018-02-10T11:38:45Z</time>
      </trkpt>
      <trkpt lat="62.641895627352" lon="17.892388804486">
        <ele>100.2</ele>
        <time>2018-02-10T11:38:46Z</time>
      </trkpt>
      <trkpt lat="62.641905182718" lon="17.892428115597">
        <ele>100.4</ele>
        <time>2018-02-10T11:38:47Z</time>
      </trkpt>
      <trkpt lat="62.641912977885" lon="17.892481256843">
        <ele>100.6</ele>
        <time>2018-02-10T11:38:48Z</time>
      </trkpt>
      <trkpt lat="62.641920605414" lon="17.89253263789">
        <ele>100.8</ele>
        <time>2018-02-10T11:38:49Z</time>
      </trkpt>
      <trkpt lat="62.641922365613" lon="17.892576810503">
        <ele>100.8</ele>
        <time>2018-02-10T11:38:50Z</time>
      </trkpt>
      <trkpt lat="62.641926640382" lon="17.892623246229">
        <ele>100.8</ele>
        <time>2018-02-10T11:38:51Z</time>
      </trkpt>
      <trkpt lat="62.641928652038" lon="17.892661802969">
        <ele>100.8</ele>
        <time>2018-02-10T11:38:52Z</time>
      </trkpt>
      <trkpt lat="62.641926556563" lon="17.892705975582">
        <ele>101</ele>
        <time>2018-02-10T11:38:53Z</time>
      </trkpt>
      <trkpt lat="62.641925466916" lon="17.892747717444">
        <ele>101.2</ele>
        <time>2018-02-10T11:38:54Z</time>
      </trkpt>
      <trkpt lat="62.641922784708" lon="17.892784011071">
        <ele>101.4</ele>
        <time>2018-02-10T11:38:55Z</time>
      </trkpt>
      <trkpt lat="62.641917839387" lon="17.892816029929">
        <ele>101.6</ele>
        <time>2018-02-10T11:38:56Z</time>
      </trkpt>
      <trkpt lat="62.641913145523" lon="17.892846372407">
        <ele>101.6</ele>
        <time>2018-02-10T11:38:57Z</time>
      </trkpt>
      <trkpt lat="62.641910211858" lon="17.892875541419">
        <ele>101.8</ele>
        <time>2018-02-10T11:38:58Z</time>
      </trkpt>
      <trkpt lat="62.64190836784" lon="17.892898759282">
        <ele>102</ele>
        <time>2018-02-10T11:38:59Z</time>
      </trkpt>
      <trkpt lat="62.64190752965" lon="17.892920133127">
        <ele>102</ele>
        <time>2018-02-10T11:39:00Z</time>
      </trkpt>
      <trkpt lat="62.641905098899" lon="17.892939579135">
        <ele>102.4</ele>
        <time>2018-02-10T11:39:01Z</time>
      </trkpt>
      <trkpt lat="62.641901997596" lon="17.892958689867">
        <ele>102.8</ele>
        <time>2018-02-10T11:39:02Z</time>
      </trkpt>
      <trkpt lat="62.641899734483" lon="17.892980315169">
        <ele>103</ele>
        <time>2018-02-10T11:39:03Z</time>
      </trkpt>
      <trkpt lat="62.641898225741" lon="17.893001856652">
        <ele>103</ele>
        <time>2018-02-10T11:39:04Z</time>
      </trkpt>
      <trkpt lat="62.641900237397" lon="17.892996827512">
        <ele>103.2</ele>
        <time>2018-02-10T11:39:05Z</time>
      </trkpt>
      <trkpt lat="62.641897052275" lon="17.893025158334">
        <ele>103.4</ele>
        <time>2018-02-10T11:39:06Z</time>
      </trkpt>
      <trkpt lat="62.64189579499" lon="17.893034797519">
        <ele>103.6</ele>
        <time>2018-02-10T11:39:07Z</time>
      </trkpt>
      <trkpt lat="62.641892274592" lon="17.893048040921">
        <ele>103.8</ele>
        <time>2018-02-10T11:39:08Z</time>
      </trkpt>
      <trkpt lat="62.641886071986" lon="17.893064217988">
        <ele>104</ele>
        <time>2018-02-10T11:39:09Z</time>
      </trkpt>
      <trkpt lat="62.641880037018" lon="17.893089363688">
        <ele>104.4</ele>
        <time>2018-02-10T11:39:10Z</time>
      </trkpt>
      <trkpt lat="62.641877019534" lon="17.893110318438">
        <ele>104.4</ele>
        <time>2018-02-10T11:39:11Z</time>
      </trkpt>
      <trkpt lat="62.641873834412" lon="17.89312188546">
        <ele>104.6</ele>
        <time>2018-02-10T11:39:12Z</time>
      </trkpt>
      <trkpt lat="62.641869727281" lon="17.893130854093">
        <ele>104.8</ele>
        <time>2018-02-10T11:39:13Z</time>
      </trkpt>
      <trkpt lat="62.641866625978" lon="17.893146612065">
        <ele>105.2</ele>
        <time>2018-02-10T11:39:14Z</time>
      </trkpt>
      <trkpt lat="62.641863021761" lon="17.893165052245">
        <ele>105.4</ele>
        <time>2018-02-10T11:39:15Z</time>
      </trkpt>
      <trkpt lat="62.641858579354" lon="17.893182402778">
        <ele>105.8</ele>
        <time>2018-02-10T11:39:16Z</time>
      </trkpt>
      <trkpt lat="62.641854220766" lon="17.893201764967">
        <ele>106.2</ele>
        <time>2018-02-10T11:39:17Z</time>
      </trkpt>
      <trkpt lat="62.641850448911" lon="17.893224899011">
        <ele>106.6</ele>
        <time>2018-02-10T11:39:18Z</time>
      </trkpt>
      <trkpt lat="62.641846677056" lon="17.89325012853">
        <ele>106.8</ele>
        <time>2018-02-10T11:39:19Z</time>
      </trkpt>
      <trkpt lat="62.641843156658" lon="17.893273849307">
        <ele>107.2</ele>
        <time>2018-02-10T11:39:20Z</time>
      </trkpt>
      <trkpt lat="62.641838378975" lon="17.89329706717">
        <ele>107.4</ele>
        <time>2018-02-10T11:39:21Z</time>
      </trkpt>
      <trkpt lat="62.641832176369" lon="17.893316932273">
        <ele>107.4</ele>
        <time>2018-02-10T11:39:22Z</time>
      </trkpt>
      <trkpt lat="62.641825219392" lon="17.893346855656">
        <ele>107.6</ele>
        <time>2018-02-10T11:39:23Z</time>
      </trkpt>
      <trkpt lat="62.641817424225" lon="17.893379125971">
        <ele>108</ele>
        <time>2018-02-10T11:39:24Z</time>
      </trkpt>
      <trkpt lat="62.641812059809" lon="17.893413491761">
        <ele>108.4</ele>
        <time>2018-02-10T11:39:25Z</time>
      </trkpt>
      <trkpt lat="62.641807449764" lon="17.893451377949">
        <ele>108.6</ele>
        <time>2018-02-10T11:39:26Z</time>
      </trkpt>
      <trkpt lat="62.641800828063" lon="17.893491024336">
        <ele>108.8</ele>
        <time>2018-02-10T11:39:27Z</time>
      </trkpt>
      <trkpt lat="62.641794793095" lon="17.893532011827">
        <ele>108.8</ele>
        <time>2018-02-10T11:39:28Z</time>
      </trkpt>
      <trkpt lat="62.641786411195" lon="17.893570820024">
        <ele>108.8</ele>
        <time>2018-02-10T11:39:29Z</time>
      </trkpt>
      <trkpt lat="62.6417776102" lon="17.893602503606">
        <ele>108.8</ele>
        <time>2018-02-10T11:39:30Z</time>
      </trkpt>
      <trkpt lat="62.641765624083" lon="17.893625889107">
        <ele>108.8</ele>
        <time>2018-02-10T11:39:31Z</time>
      </trkpt>
      <trkpt lat="62.641758834744" lon="17.893651789178">
        <ele>109</ele>
        <time>2018-02-10T11:39:32Z</time>
      </trkpt>
      <trkpt lat="62.641751207215" lon="17.893681125828">
        <ele>109</ele>
        <time>2018-02-10T11:39:33Z</time>
      </trkpt>
      <trkpt lat="62.641743328229" lon="17.893708115546">
        <ele>109.2</ele>
        <time>2018-02-10T11:39:34Z</time>
      </trkpt>
      <trkpt lat="62.641737963813" lon="17.893737619834">
        <ele>109.4</ele>
        <time>2018-02-10T11:39:35Z</time>
      </trkpt>
      <trkpt lat="62.64173402432" lon="17.893773745823">
        <ele>109.6</ele>
        <time>2018-02-10T11:39:36Z</time>
      </trkpt>
      <trkpt lat="62.641732515578" lon="17.893810123269">
        <ele>110</ele>
        <time>2018-02-10T11:39:37Z</time>
      </trkpt>
      <trkpt lat="62.64173486251" lon="17.893856056081">
        <ele>110.2</ele>
        <time>2018-02-10T11:39:38Z</time>
      </trkpt>
      <trkpt lat="62.64174156803" lon="17.893898636133">
        <ele>110.6</ele>
        <time>2018-02-10T11:39:39Z</time>
      </trkpt>
      <trkpt lat="62.641755314346" lon="17.893939288348">
        <ele>110.8</ele>
        <time>2018-02-10T11:39:40Z</time>
      </trkpt>
      <trkpt lat="62.641778364571" lon="17.89397683926">
        <ele>111</ele>
        <time>2018-02-10T11:39:41Z</time>
      </trkpt>
      <trkpt lat="62.64180694685" lon="17.89401036686">
        <ele>111.2</ele>
        <time>2018-02-10T11:39:42Z</time>
      </trkpt>
      <trkpt lat="62.64184717997" lon="17.89403132161">
        <ele>111</ele>
        <time>2018-02-10T11:39:43Z</time>
      </trkpt>
      <trkpt lat="62.641892693687" lon="17.894024867547">
        <ele>110.8</ele>
        <time>2018-02-10T11:39:44Z</time>
      </trkpt>
      <trkpt lat="62.641940302879" lon="17.894006846462">
        <ele>110.4</ele>
        <time>2018-02-10T11:39:45Z</time>
      </trkpt>
      <trkpt lat="62.641986487148" lon="17.893989663567">
        <ele>110</ele>
        <time>2018-02-10T11:39:46Z</time>
      </trkpt>
      <trkpt lat="62.642032671417" lon="17.893980275839">
        <ele>109</ele>
        <time>2018-02-10T11:39:47Z</time>
      </trkpt>
      <trkpt lat="62.642082543722" lon="17.893984634427">
        <ele>108.2</ele>
        <time>2018-02-10T11:39:48Z</time>
      </trkpt>
      <trkpt lat="62.642126800154" lon="17.894008774299">
        <ele>107.4</ele>
        <time>2018-02-10T11:39:49Z</time>
      </trkpt>
      <trkpt lat="62.642160243935" lon="17.894052108722">
        <ele>106.6</ele>
        <time>2018-02-10T11:39:50Z</time>
      </trkpt>
      <trkpt lat="62.642183210341" lon="17.894113045135">
        <ele>106</ele>
        <time>2018-02-10T11:39:51Z</time>
      </trkpt>
      <trkpt lat="62.642190921689" lon="17.894172053711">
        <ele>105.6</ele>
        <time>2018-02-10T11:39:52Z</time>
      </trkpt>
      <trkpt lat="62.642196537562" lon="17.894245143879">
        <ele>105.2</ele>
        <time>2018-02-10T11:39:53Z</time>
      </trkpt>
      <trkpt lat="62.642203662177" lon="17.894312618174">
        <ele>105</ele>
        <time>2018-02-10T11:39:54Z</time>
      </trkpt>
      <trkpt lat="62.642209445688" lon="17.894409177662">
        <ele>105</ele>
        <time>2018-02-10T11:39:55Z</time>
      </trkpt>
      <trkpt lat="62.642207266394" lon="17.894528787375">
        <ele>105.2</ele>
        <time>2018-02-10T11:39:56Z</time>
      </trkpt>
      <trkpt lat="62.642196369924" lon="17.894655856979">
        <ele>105.2</ele>
        <time>2018-02-10T11:39:57Z</time>
      </trkpt>
      <trkpt lat="62.642174157889" lon="17.894803881333">
        <ele>105</ele>
        <time>2018-02-10T11:39:58Z</time>
      </trkpt>
      <trkpt lat="62.642151359121" lon="17.894951151316">
        <ele>105</ele>
        <time>2018-02-10T11:39:59Z</time>
      </trkpt>
      <trkpt lat="62.642132751303" lon="17.895095571453">
        <ele>104</ele>
        <time>2018-02-10T11:40:00Z</time>
      </trkpt>
      <trkpt lat="62.642125961964" lon="17.895238482848">
        <ele>103.2</ele>
        <time>2018-02-10T11:40:01Z</time>
      </trkpt>
      <trkpt lat="62.642130404371" lon="17.895398996233">
        <ele>103.2</ele>
        <time>2018-02-10T11:40:02Z</time>
      </trkpt>
      <trkpt lat="62.642134595321" lon="17.895606112982">
        <ele>102.8</ele>
        <time>2018-02-10T11:40:03Z</time>
      </trkpt>
      <trkpt lat="62.642124453222" lon="17.895790430963">
        <ele>102.6</ele>
        <time>2018-02-10T11:40:04Z</time>
      </trkpt>
      <trkpt lat="62.642105258671" lon="17.895968043424">
        <ele>102</ele>
        <time>2018-02-10T11:40:05Z</time>
      </trkpt>
      <trkpt lat="62.642076676392" lon="17.896134507958">
        <ele>101.6</ele>
        <time>2018-02-10T11:40:06Z</time>
      </trkpt>
      <trkpt lat="62.642045495724" lon="17.896273647498">
        <ele>101.2</ele>
        <time>2018-02-10T11:40:07Z</time>
      </trkpt>
      <trkpt lat="62.642010375563" lon="17.896425359888">
        <ele>101.2</ele>
        <time>2018-02-10T11:40:08Z</time>
      </trkpt>
      <trkpt lat="62.641980619818" lon="17.896557374813">
        <ele>100.8</ele>
        <time>2018-02-10T11:40:09Z</time>
      </trkpt>
      <trkpt lat="62.641952288996" lon="17.896695592344">
        <ele>100.6</ele>
        <time>2018-02-10T11:40:10Z</time>
      </trkpt>
      <trkpt lat="62.641929993142" lon="17.896832301133">
        <ele>100.2</ele>
        <time>2018-02-10T11:40:11Z</time>
      </trkpt>
      <trkpt lat="62.641912642609" lon="17.896964064601">
        <ele>100</ele>
        <time>2018-02-10T11:40:12Z</time>
      </trkpt>
      <trkpt lat="62.641898058103" lon="17.897116615181">
        <ele>99.8</ele>
        <time>2018-02-10T11:40:13Z</time>
      </trkpt>
      <trkpt lat="62.641885485253" lon="17.897258520748">
        <ele>99.8</ele>
        <time>2018-02-10T11:40:14Z</time>
      </trkpt>
      <trkpt lat="62.641873415317" lon="17.897411909518">
        <ele>99.2</ele>
        <time>2018-02-10T11:40:15Z</time>
      </trkpt>
      <trkpt lat="62.641862351209" lon="17.897556497293">
        <ele>98.6</ele>
        <time>2018-02-10T11:40:16Z</time>
      </trkpt>
      <trkpt lat="62.641852712024" lon="17.897697145575">
        <ele>98.2</ele>
        <time>2018-02-10T11:40:17Z</time>
      </trkpt>
      <trkpt lat="62.641840893545" lon="17.897844750834">
        <ele>97.8</ele>
        <time>2018-02-10T11:40:18Z</time>
      </trkpt>
      <trkpt lat="62.641829410342" lon="17.897973496818">
        <ele>97.2</ele>
        <time>2018-02-10T11:40:19Z</time>
      </trkpt>
      <trkpt lat="62.641816753673" lon="17.898089669952">
        <ele>97.2</ele>
        <time>2018-02-10T11:40:20Z</time>
      </trkpt>
      <trkpt lat="62.641810215791" lon="17.89818539125">
        <ele>97</ele>
        <time>2018-02-10T11:40:21Z</time>
      </trkpt>
      <trkpt lat="62.641806695393" lon="17.898257056495">
        <ele>97</ele>
        <time>2018-02-10T11:40:22Z</time>
      </trkpt>
      <trkpt lat="62.641804097004" lon="17.89834548554">
        <ele>96.8</ele>
        <time>2018-02-10T11:40:23Z</time>
      </trkpt>
      <trkpt lat="62.641801414796" lon="17.898419497717">
        <ele>96.2</ele>
        <time>2018-02-10T11:40:24Z</time>
      </trkpt>
      <trkpt lat="62.641800911882" lon="17.898496695016">
        <ele>95.6</ele>
        <time>2018-02-10T11:40:25Z</time>
      </trkpt>
      <trkpt lat="62.641802588262" lon="17.898563247302">
        <ele>95</ele>
        <time>2018-02-10T11:40:26Z</time>
      </trkpt>
      <trkpt lat="62.641803007357" lon="17.898623345525">
        <ele>94.2</ele>
        <time>2018-02-10T11:40:27Z</time>
      </trkpt>
      <trkpt lat="62.641800828063" lon="17.898692077105">
        <ele>93.2</ele>
        <time>2018-02-10T11:40:28Z</time>
      </trkpt>
      <trkpt lat="62.641799654597" lon="17.898759802857">
        <ele>92.2</ele>
        <time>2018-02-10T11:40:29Z</time>
      </trkpt>
      <trkpt lat="62.641797978217" lon="17.898818979071">
        <ele>91.6</ele>
        <time>2018-02-10T11:40:30Z</time>
      </trkpt>
      <trkpt lat="62.641793787267" lon="17.898874467249">
        <ele>91.4</ele>
        <time>2018-02-10T11:40:31Z</time>
      </trkpt>
      <trkpt lat="62.641782471702" lon="17.898933727282">
        <ele>91.4</ele>
        <time>2018-02-10T11:40:32Z</time>
      </trkpt>
      <trkpt lat="62.641767635739" lon="17.899001117758">
        <ele>91</ele>
        <time>2018-02-10T11:40:33Z</time>
      </trkpt>
      <trkpt lat="62.641754224699" lon="17.899050151873">
        <ele>91</ele>
        <time>2018-02-10T11:40:34Z</time>
      </trkpt>
      <trkpt lat="62.641737293261" lon="17.899098431617">
        <ele>90.8</ele>
        <time>2018-02-10T11:40:35Z</time>
      </trkpt>
      <trkpt lat="62.641708543344" lon="17.899167414654">
        <ele>90.4</ele>
        <time>2018-02-10T11:40:37Z</time>
      </trkpt>
      <trkpt lat="62.641695886675" lon="17.899193985277">
        <ele>90.6</ele>
        <time>2018-02-10T11:40:38Z</time>
      </trkpt>
      <trkpt lat="62.641687756232" lon="17.899206390489">
        <ele>91</ele>
        <time>2018-02-10T11:40:39Z</time>
      </trkpt>
      <trkpt lat="62.641684654929" lon="17.899211000534">
        <ele>91</ele>
        <time>2018-02-10T11:40:40Z</time>
      </trkpt>
      <trkpt lat="62.641682559454" lon="17.899208905059">
        <ele>91.2</ele>
        <time>2018-02-10T11:40:41Z</time>
      </trkpt>
      <trkpt lat="62.641684654929" lon="17.899203959738">
        <ele>91.6</ele>
        <time>2018-02-10T11:40:42Z</time>
      </trkpt>
      <trkpt lat="62.641670238061" lon="17.899618025598">
        <ele>93.4</ele>
        <time>2018-02-10T11:41:20Z</time>
      </trkpt>
      <trkpt lat="62.641669735147" lon="17.899648116619">
        <ele>93.2</ele>
        <time>2018-02-10T11:41:21Z</time>
      </trkpt>
      <trkpt lat="62.641668896957" lon="17.899674519604">
        <ele>93</ele>
        <time>2018-02-10T11:41:22Z</time>
      </trkpt>
      <trkpt lat="62.641668561681" lon="17.89970754429">
        <ele>92.8</ele>
        <time>2018-02-10T11:41:23Z</time>
      </trkpt>
      <trkpt lat="62.641669064595" lon="17.899733109085">
        <ele>92.6</ele>
        <time>2018-02-10T11:41:24Z</time>
      </trkpt>
      <trkpt lat="62.641669986604" lon="17.899763786839">
        <ele>92.6</ele>
        <time>2018-02-10T11:41:25Z</time>
      </trkpt>
      <trkpt lat="62.641670824794" lon="17.899791279471">
        <ele>92.6</ele>
        <time>2018-02-10T11:41:26Z</time>
      </trkpt>
      <trkpt lat="62.641670657156" lon="17.899817682456">
        <ele>92.6</ele>
        <time>2018-02-10T11:41:27Z</time>
      </trkpt>
      <trkpt lat="62.641670657156" lon="17.899843498708">
        <ele>92.6</ele>
        <time>2018-02-10T11:41:28Z</time>
      </trkpt>
      <trkpt lat="62.641670908613" lon="17.899871997168">
        <ele>92.6</ele>
        <time>2018-02-10T11:41:29Z</time>
      </trkpt>
      <trkpt lat="62.641671579165" lon="17.899900579447">
        <ele>92.6</ele>
        <time>2018-02-10T11:41:30Z</time>
      </trkpt>
      <trkpt lat="62.641670740975" lon="17.899926647156">
        <ele>92.6</ele>
        <time>2018-02-10T11:41:31Z</time>
      </trkpt>
      <trkpt lat="62.641670740975" lon="17.899948691553">
        <ele>92.6</ele>
        <time>2018-02-10T11:41:32Z</time>
      </trkpt>
      <trkpt lat="62.641673004088" lon="17.899962856964">
        <ele>92.6</ele>
        <time>2018-02-10T11:41:33Z</time>
      </trkpt>
      <trkpt lat="62.641672668812" lon="17.899959168928">
        <ele>92.6</ele>
        <time>2018-02-10T11:41:34Z</time>
      </trkpt>
    </trkseg>
  </trk>
</gpx>